<?xml version="1.0" encoding="UTF-8" standalone="no" ?>
<gpx xmlns="http://www.topografix.com/GPX/1/1" xmlns:xsi="http://www.w3.org/2001/XMLSchema-instance" xsi:schemaLocation="http://www.topografix.com/GPX/1/1 http://www.topografix.com/GPX/1/1/gpx.xsd" version="1.1" creator="VisuGPX - https://www.visugpx.com">
  <metadata>
    <name>RoadTrip Moto Ecosse Juin 2021 - V3</name>
  </metadata>
  <trk>
    <name><![CDATA[J9-Skail-Borgie]]></name>
    <extensions>
      <line xmlns="http://www.topografix.com/GPX/gpx_style/0/2">
        <color>000088</color>
        <width>4</width>
      </line>
    </extensions>
    <trkseg>
      <trkpt lat="57.89629" lon="-5.15654">
        <ele>7.61</ele>
        <time>2021-04-06T09:12:22Z</time>
      </trkpt>
      <trkpt lat="57.89664" lon="-5.15478">
        <ele>8.77</ele>
        <time>2021-04-06T09:12:35Z</time>
      </trkpt>
      <trkpt lat="57.89668" lon="-5.15491">
        <ele>9.12</ele>
        <time>2021-04-06T09:12:40Z</time>
      </trkpt>
      <trkpt lat="57.8968" lon="-5.15503">
        <ele>10.59</ele>
        <time>2021-04-06T09:12:45Z</time>
      </trkpt>
      <trkpt lat="57.89754" lon="-5.15559">
        <ele>14.14</ele>
        <time>2021-04-06T09:12:50Z</time>
      </trkpt>
      <trkpt lat="57.89879" lon="-5.15668">
        <ele>16.37</ele>
        <time>2021-04-06T09:12:55Z</time>
      </trkpt>
      <trkpt lat="57.89938" lon="-5.15712">
        <ele>16.76</ele>
        <time>2021-04-06T09:12:59Z</time>
      </trkpt>
      <trkpt lat="57.8998" lon="-5.1572">
        <ele>18.27</ele>
        <time>2021-04-06T09:13:04Z</time>
      </trkpt>
      <trkpt lat="57.90073" lon="-5.15724">
        <ele>20</ele>
        <time>2021-04-06T09:13:09Z</time>
      </trkpt>
      <trkpt lat="57.90138" lon="-5.15738">
        <ele>21.42</ele>
        <time>2021-04-06T09:13:14Z</time>
      </trkpt>
      <trkpt lat="57.90171" lon="-5.15755">
        <ele>21.23</ele>
        <time>2021-04-06T09:13:19Z</time>
      </trkpt>
      <trkpt lat="57.90272" lon="-5.15832">
        <ele>25.89</ele>
        <time>2021-04-06T09:13:24Z</time>
      </trkpt>
      <trkpt lat="57.90297" lon="-5.15844">
        <ele>25.63</ele>
        <time>2021-04-06T09:13:28Z</time>
      </trkpt>
      <trkpt lat="57.90359" lon="-5.15853">
        <ele>27.44</ele>
        <time>2021-04-06T09:13:33Z</time>
      </trkpt>
      <trkpt lat="57.90395" lon="-5.15868">
        <ele>26.77</ele>
        <time>2021-04-06T09:13:38Z</time>
      </trkpt>
      <trkpt lat="57.90416" lon="-5.15886">
        <ele>26.12</ele>
        <time>2021-04-06T09:13:43Z</time>
      </trkpt>
      <trkpt lat="57.90447" lon="-5.1593">
        <ele>25.55</ele>
        <time>2021-04-06T09:13:48Z</time>
      </trkpt>
      <trkpt lat="57.90461" lon="-5.1596">
        <ele>24.22</ele>
        <time>2021-04-06T09:13:53Z</time>
      </trkpt>
      <trkpt lat="57.90478" lon="-5.16009">
        <ele>23.45</ele>
        <time>2021-04-06T09:13:58Z</time>
      </trkpt>
      <trkpt lat="57.90613" lon="-5.16507">
        <ele>23.07</ele>
        <time>2021-04-06T09:14:02Z</time>
      </trkpt>
      <trkpt lat="57.90673" lon="-5.16724">
        <ele>27.33</ele>
        <time>2021-04-06T09:14:07Z</time>
      </trkpt>
      <trkpt lat="57.90712" lon="-5.16858">
        <ele>30.27</ele>
        <time>2021-04-06T09:14:12Z</time>
      </trkpt>
      <trkpt lat="57.90749" lon="-5.16977">
        <ele>34.67</ele>
        <time>2021-04-06T09:14:17Z</time>
      </trkpt>
      <trkpt lat="57.90755" lon="-5.17001">
        <ele>35.08</ele>
        <time>2021-04-06T09:14:22Z</time>
      </trkpt>
      <trkpt lat="57.9076" lon="-5.17041">
        <ele>36.47</ele>
        <time>2021-04-06T09:14:27Z</time>
      </trkpt>
      <trkpt lat="57.90761" lon="-5.17074">
        <ele>37.04</ele>
        <time>2021-04-06T09:14:32Z</time>
      </trkpt>
      <trkpt lat="57.9076" lon="-5.17193">
        <ele>37.38</ele>
        <time>2021-04-06T09:14:36Z</time>
      </trkpt>
      <trkpt lat="57.90764" lon="-5.17258">
        <ele>39.4</ele>
        <time>2021-04-06T09:14:41Z</time>
      </trkpt>
      <trkpt lat="57.90775" lon="-5.17363">
        <ele>41.32</ele>
        <time>2021-04-06T09:14:46Z</time>
      </trkpt>
      <trkpt lat="57.90782" lon="-5.1741">
        <ele>42.23</ele>
        <time>2021-04-06T09:14:51Z</time>
      </trkpt>
      <trkpt lat="57.90797" lon="-5.17477">
        <ele>42.1</ele>
        <time>2021-04-06T09:14:56Z</time>
      </trkpt>
      <trkpt lat="57.90806" lon="-5.1751">
        <ele>41.65</ele>
        <time>2021-04-06T09:15:01Z</time>
      </trkpt>
      <trkpt lat="57.90816" lon="-5.17539">
        <ele>42.08</ele>
        <time>2021-04-06T09:15:05Z</time>
      </trkpt>
      <trkpt lat="57.90863" lon="-5.17639">
        <ele>41.51</ele>
        <time>2021-04-06T09:15:10Z</time>
      </trkpt>
      <trkpt lat="57.91087" lon="-5.1806">
        <ele>61.59</ele>
        <time>2021-04-06T09:15:15Z</time>
      </trkpt>
      <trkpt lat="57.91266" lon="-5.18343">
        <ele>81.35</ele>
        <time>2021-04-06T09:15:20Z</time>
      </trkpt>
      <trkpt lat="57.91322" lon="-5.18425">
        <ele>86.64</ele>
        <time>2021-04-06T09:15:25Z</time>
      </trkpt>
      <trkpt lat="57.91334" lon="-5.18439">
        <ele>88.25</ele>
        <time>2021-04-06T09:15:30Z</time>
      </trkpt>
      <trkpt lat="57.91349" lon="-5.18452">
        <ele>89.99</ele>
        <time>2021-04-06T09:15:35Z</time>
      </trkpt>
      <trkpt lat="57.91373" lon="-5.18464">
        <ele>91.61</ele>
        <time>2021-04-06T09:15:39Z</time>
      </trkpt>
      <trkpt lat="57.91397" lon="-5.18465">
        <ele>91.71</ele>
        <time>2021-04-06T09:15:44Z</time>
      </trkpt>
      <trkpt lat="57.91412" lon="-5.18462">
        <ele>91.16</ele>
        <time>2021-04-06T09:15:49Z</time>
      </trkpt>
      <trkpt lat="57.91456" lon="-5.18444">
        <ele>90.6</ele>
        <time>2021-04-06T09:15:54Z</time>
      </trkpt>
      <trkpt lat="57.91478" lon="-5.18438">
        <ele>90.18</ele>
        <time>2021-04-06T09:15:59Z</time>
      </trkpt>
      <trkpt lat="57.91495" lon="-5.18439">
        <ele>90.04</ele>
        <time>2021-04-06T09:16:04Z</time>
      </trkpt>
      <trkpt lat="57.91513" lon="-5.18443">
        <ele>89.04</ele>
        <time>2021-04-06T09:16:08Z</time>
      </trkpt>
      <trkpt lat="57.91539" lon="-5.18463">
        <ele>86.2</ele>
        <time>2021-04-06T09:16:13Z</time>
      </trkpt>
      <trkpt lat="57.91552" lon="-5.18483">
        <ele>84.54</ele>
        <time>2021-04-06T09:16:18Z</time>
      </trkpt>
      <trkpt lat="57.91564" lon="-5.18506">
        <ele>82.18</ele>
        <time>2021-04-06T09:16:23Z</time>
      </trkpt>
      <trkpt lat="57.91595" lon="-5.18589">
        <ele>77.87</ele>
        <time>2021-04-06T09:16:28Z</time>
      </trkpt>
      <trkpt lat="57.91637" lon="-5.18707">
        <ele>71.14</ele>
        <time>2021-04-06T09:16:33Z</time>
      </trkpt>
      <trkpt lat="57.91771" lon="-5.19162">
        <ele>42.44</ele>
        <time>2021-04-06T09:16:38Z</time>
      </trkpt>
      <trkpt lat="57.91791" lon="-5.19215">
        <ele>40.08</ele>
        <time>2021-04-06T09:16:42Z</time>
      </trkpt>
      <trkpt lat="57.91802" lon="-5.19237">
        <ele>39.35</ele>
        <time>2021-04-06T09:16:47Z</time>
      </trkpt>
      <trkpt lat="57.91821" lon="-5.19266">
        <ele>38.05</ele>
        <time>2021-04-06T09:16:52Z</time>
      </trkpt>
      <trkpt lat="57.91821" lon="-5.19266">
        <ele>38.05</ele>
        <time>2021-04-06T09:16:52Z</time>
      </trkpt>
      <trkpt lat="57.91836" lon="-5.1928">
        <ele>35.76</ele>
        <time>2021-04-06T09:16:54Z</time>
      </trkpt>
      <trkpt lat="57.91846" lon="-5.19286">
        <ele>34.58</ele>
        <time>2021-04-06T09:16:57Z</time>
      </trkpt>
      <trkpt lat="57.9187" lon="-5.1929">
        <ele>31.67</ele>
        <time>2021-04-06T09:16:59Z</time>
      </trkpt>
      <trkpt lat="57.91886" lon="-5.19287">
        <ele>30.22</ele>
        <time>2021-04-06T09:17:01Z</time>
      </trkpt>
      <trkpt lat="57.91907" lon="-5.19275">
        <ele>30</ele>
        <time>2021-04-06T09:17:03Z</time>
      </trkpt>
      <trkpt lat="57.91935" lon="-5.19248">
        <ele>28.67</ele>
        <time>2021-04-06T09:17:05Z</time>
      </trkpt>
      <trkpt lat="57.92018" lon="-5.19131">
        <ele>33.74</ele>
        <time>2021-04-06T09:17:08Z</time>
      </trkpt>
      <trkpt lat="57.92048" lon="-5.19097">
        <ele>34.71</ele>
        <time>2021-04-06T09:17:10Z</time>
      </trkpt>
      <trkpt lat="57.92068" lon="-5.19082">
        <ele>34.95</ele>
        <time>2021-04-06T09:17:12Z</time>
      </trkpt>
      <trkpt lat="57.92085" lon="-5.19072">
        <ele>34.66</ele>
        <time>2021-04-06T09:17:14Z</time>
      </trkpt>
      <trkpt lat="57.92102" lon="-5.19069">
        <ele>35.15</ele>
        <time>2021-04-06T09:17:17Z</time>
      </trkpt>
      <trkpt lat="57.92175" lon="-5.19068">
        <ele>40.28</ele>
        <time>2021-04-06T09:17:19Z</time>
      </trkpt>
      <trkpt lat="57.92227" lon="-5.19073">
        <ele>44.94</ele>
        <time>2021-04-06T09:17:21Z</time>
      </trkpt>
      <trkpt lat="57.92249" lon="-5.19082">
        <ele>46.79</ele>
        <time>2021-04-06T09:17:23Z</time>
      </trkpt>
      <trkpt lat="57.92277" lon="-5.19102">
        <ele>48.95</ele>
        <time>2021-04-06T09:17:25Z</time>
      </trkpt>
      <trkpt lat="57.92291" lon="-5.19117">
        <ele>50.03</ele>
        <time>2021-04-06T09:17:28Z</time>
      </trkpt>
      <trkpt lat="57.92444" lon="-5.1932">
        <ele>56.98</ele>
        <time>2021-04-06T09:17:30Z</time>
      </trkpt>
      <trkpt lat="57.92472" lon="-5.19352">
        <ele>57.67</ele>
        <time>2021-04-06T09:17:32Z</time>
      </trkpt>
      <trkpt lat="57.92496" lon="-5.19368">
        <ele>58.04</ele>
        <time>2021-04-06T09:17:34Z</time>
      </trkpt>
      <trkpt lat="57.92515" lon="-5.19378">
        <ele>57.47</ele>
        <time>2021-04-06T09:17:37Z</time>
      </trkpt>
      <trkpt lat="57.92712" lon="-5.1945">
        <ele>42.17</ele>
        <time>2021-04-06T09:17:39Z</time>
      </trkpt>
      <trkpt lat="57.92727" lon="-5.19462">
        <ele>39.92</ele>
        <time>2021-04-06T09:17:41Z</time>
      </trkpt>
      <trkpt lat="57.92742" lon="-5.19481">
        <ele>37.53</ele>
        <time>2021-04-06T09:17:43Z</time>
      </trkpt>
      <trkpt lat="57.92755" lon="-5.19505">
        <ele>35.97</ele>
        <time>2021-04-06T09:17:45Z</time>
      </trkpt>
      <trkpt lat="57.92823" lon="-5.19677">
        <ele>28.7</ele>
        <time>2021-04-06T09:17:48Z</time>
      </trkpt>
      <trkpt lat="57.92844" lon="-5.19721">
        <ele>24.91</ele>
        <time>2021-04-06T09:17:50Z</time>
      </trkpt>
      <trkpt lat="57.92856" lon="-5.1974">
        <ele>22.93</ele>
        <time>2021-04-06T09:17:52Z</time>
      </trkpt>
      <trkpt lat="57.92872" lon="-5.19758">
        <ele>20.56</ele>
        <time>2021-04-06T09:17:54Z</time>
      </trkpt>
      <trkpt lat="57.92889" lon="-5.19767">
        <ele>18.37</ele>
        <time>2021-04-06T09:17:57Z</time>
      </trkpt>
      <trkpt lat="57.92902" lon="-5.19772">
        <ele>16.45</ele>
        <time>2021-04-06T09:17:59Z</time>
      </trkpt>
      <trkpt lat="57.92914" lon="-5.19771">
        <ele>14.91</ele>
        <time>2021-04-06T09:18:01Z</time>
      </trkpt>
      <trkpt lat="57.92939" lon="-5.1976">
        <ele>11.21</ele>
        <time>2021-04-06T09:18:03Z</time>
      </trkpt>
      <trkpt lat="57.93" lon="-5.19707">
        <ele>7.66</ele>
        <time>2021-04-06T09:18:05Z</time>
      </trkpt>
      <trkpt lat="57.93033" lon="-5.19682">
        <ele>6.93</ele>
        <time>2021-04-06T09:18:08Z</time>
      </trkpt>
      <trkpt lat="57.93089" lon="-5.19652">
        <ele>6.18</ele>
        <time>2021-04-06T09:18:10Z</time>
      </trkpt>
      <trkpt lat="57.93125" lon="-5.19637">
        <ele>6.6</ele>
        <time>2021-04-06T09:18:12Z</time>
      </trkpt>
      <trkpt lat="57.93203" lon="-5.19623">
        <ele>5.58</ele>
        <time>2021-04-06T09:18:14Z</time>
      </trkpt>
      <trkpt lat="57.93252" lon="-5.19621">
        <ele>4.65</ele>
        <time>2021-04-06T09:18:16Z</time>
      </trkpt>
      <trkpt lat="57.93271" lon="-5.19622">
        <ele>4.61</ele>
        <time>2021-04-06T09:18:19Z</time>
      </trkpt>
      <trkpt lat="57.93326" lon="-5.19639">
        <ele>4.01</ele>
        <time>2021-04-06T09:18:21Z</time>
      </trkpt>
      <trkpt lat="57.93346" lon="-5.19641">
        <ele>4</ele>
        <time>2021-04-06T09:18:23Z</time>
      </trkpt>
      <trkpt lat="57.93369" lon="-5.19637">
        <ele>4.17</ele>
        <time>2021-04-06T09:18:25Z</time>
      </trkpt>
      <trkpt lat="57.93369" lon="-5.19637">
        <ele>4.17</ele>
        <time>2021-04-06T09:18:25Z</time>
      </trkpt>
      <trkpt lat="57.93384" lon="-5.19629">
        <ele>4.89</ele>
        <time>2021-04-06T09:18:30Z</time>
      </trkpt>
      <trkpt lat="57.93393" lon="-5.19618">
        <ele>5</ele>
        <time>2021-04-06T09:18:35Z</time>
      </trkpt>
      <trkpt lat="57.93403" lon="-5.19603">
        <ele>5</ele>
        <time>2021-04-06T09:18:40Z</time>
      </trkpt>
      <trkpt lat="57.93414" lon="-5.19577">
        <ele>5</ele>
        <time>2021-04-06T09:18:45Z</time>
      </trkpt>
      <trkpt lat="57.93424" lon="-5.19546">
        <ele>5</ele>
        <time>2021-04-06T09:18:50Z</time>
      </trkpt>
      <trkpt lat="57.93496" lon="-5.19273">
        <ele>6.28</ele>
        <time>2021-04-06T09:18:54Z</time>
      </trkpt>
      <trkpt lat="57.9351" lon="-5.19211">
        <ele>6.32</ele>
        <time>2021-04-06T09:18:59Z</time>
      </trkpt>
      <trkpt lat="57.93584" lon="-5.18926">
        <ele>21.69</ele>
        <time>2021-04-06T09:19:04Z</time>
      </trkpt>
      <trkpt lat="57.93606" lon="-5.18868">
        <ele>20.62</ele>
        <time>2021-04-06T09:19:09Z</time>
      </trkpt>
      <trkpt lat="57.93615" lon="-5.18827">
        <ele>16.26</ele>
        <time>2021-04-06T09:19:14Z</time>
      </trkpt>
      <trkpt lat="57.93627" lon="-5.1875">
        <ele>19.78</ele>
        <time>2021-04-06T09:19:19Z</time>
      </trkpt>
      <trkpt lat="57.93641" lon="-5.18679">
        <ele>21.83</ele>
        <time>2021-04-06T09:19:23Z</time>
      </trkpt>
      <trkpt lat="57.93671" lon="-5.18577">
        <ele>25.17</ele>
        <time>2021-04-06T09:19:28Z</time>
      </trkpt>
      <trkpt lat="57.93699" lon="-5.185">
        <ele>22.38</ele>
        <time>2021-04-06T09:19:33Z</time>
      </trkpt>
      <trkpt lat="57.93719" lon="-5.18466">
        <ele>19.83</ele>
        <time>2021-04-06T09:19:38Z</time>
      </trkpt>
      <trkpt lat="57.93746" lon="-5.18441">
        <ele>18.05</ele>
        <time>2021-04-06T09:19:43Z</time>
      </trkpt>
      <trkpt lat="57.93784" lon="-5.18422">
        <ele>18.66</ele>
        <time>2021-04-06T09:19:47Z</time>
      </trkpt>
      <trkpt lat="57.93819" lon="-5.18408">
        <ele>22.05</ele>
        <time>2021-04-06T09:19:52Z</time>
      </trkpt>
      <trkpt lat="57.93855" lon="-5.18365">
        <ele>31.16</ele>
        <time>2021-04-06T09:19:57Z</time>
      </trkpt>
      <trkpt lat="57.93945" lon="-5.18116">
        <ele>46.79</ele>
        <time>2021-04-06T09:20:02Z</time>
      </trkpt>
      <trkpt lat="57.93981" lon="-5.18008">
        <ele>46.35</ele>
        <time>2021-04-06T09:20:07Z</time>
      </trkpt>
      <trkpt lat="57.93994" lon="-5.17947">
        <ele>45.01</ele>
        <time>2021-04-06T09:20:12Z</time>
      </trkpt>
      <trkpt lat="57.9401" lon="-5.17838">
        <ele>41.62</ele>
        <time>2021-04-06T09:20:16Z</time>
      </trkpt>
      <trkpt lat="57.94023" lon="-5.17774">
        <ele>39.88</ele>
        <time>2021-04-06T09:20:21Z</time>
      </trkpt>
      <trkpt lat="57.9404" lon="-5.17716">
        <ele>38.47</ele>
        <time>2021-04-06T09:20:26Z</time>
      </trkpt>
      <trkpt lat="57.94075" lon="-5.17537">
        <ele>32.79</ele>
        <time>2021-04-06T09:20:31Z</time>
      </trkpt>
      <trkpt lat="57.94098" lon="-5.17377">
        <ele>27.78</ele>
        <time>2021-04-06T09:20:36Z</time>
      </trkpt>
      <trkpt lat="57.94114" lon="-5.17291">
        <ele>26.24</ele>
        <time>2021-04-06T09:20:41Z</time>
      </trkpt>
      <trkpt lat="57.94134" lon="-5.17209">
        <ele>23.18</ele>
        <time>2021-04-06T09:20:45Z</time>
      </trkpt>
      <trkpt lat="57.94159" lon="-5.17122">
        <ele>17.91</ele>
        <time>2021-04-06T09:20:50Z</time>
      </trkpt>
      <trkpt lat="57.94171" lon="-5.17072">
        <ele>16.67</ele>
        <time>2021-04-06T09:20:55Z</time>
      </trkpt>
      <trkpt lat="57.94194" lon="-5.17018">
        <ele>15.45</ele>
        <time>2021-04-06T09:21:00Z</time>
      </trkpt>
      <trkpt lat="57.94269" lon="-5.16873">
        <ele>15.69</ele>
        <time>2021-04-06T09:21:05Z</time>
      </trkpt>
      <trkpt lat="57.94373" lon="-5.16742">
        <ele>16.87</ele>
        <time>2021-04-06T09:21:10Z</time>
      </trkpt>
      <trkpt lat="57.9442" lon="-5.16678">
        <ele>18.08</ele>
        <time>2021-04-06T09:21:14Z</time>
      </trkpt>
      <trkpt lat="57.94453" lon="-5.16627">
        <ele>19.48</ele>
        <time>2021-04-06T09:21:19Z</time>
      </trkpt>
      <trkpt lat="57.94485" lon="-5.16557">
        <ele>21.44</ele>
        <time>2021-04-06T09:21:24Z</time>
      </trkpt>
      <trkpt lat="57.94567" lon="-5.16316">
        <ele>24.23</ele>
        <time>2021-04-06T09:21:29Z</time>
      </trkpt>
      <trkpt lat="57.94745" lon="-5.15782">
        <ele>26.9</ele>
        <time>2021-04-06T09:21:34Z</time>
      </trkpt>
      <trkpt lat="57.94867" lon="-5.15348">
        <ele>37.76</ele>
        <time>2021-04-06T09:21:38Z</time>
      </trkpt>
      <trkpt lat="57.94942" lon="-5.15055">
        <ele>50.28</ele>
        <time>2021-04-06T09:21:43Z</time>
      </trkpt>
      <trkpt lat="57.94968" lon="-5.14977">
        <ele>49.58</ele>
        <time>2021-04-06T09:21:48Z</time>
      </trkpt>
      <trkpt lat="57.95065" lon="-5.1473">
        <ele>45.58</ele>
        <time>2021-04-06T09:21:53Z</time>
      </trkpt>
      <trkpt lat="57.95191" lon="-5.14391">
        <ele>62.85</ele>
        <time>2021-04-06T09:21:58Z</time>
      </trkpt>
      <trkpt lat="57.95454" lon="-5.13948">
        <ele>52.44</ele>
        <time>2021-04-06T09:22:03Z</time>
      </trkpt>
      <trkpt lat="57.95695" lon="-5.13498">
        <ele>53.5</ele>
        <time>2021-04-06T09:22:07Z</time>
      </trkpt>
      <trkpt lat="57.95695" lon="-5.13498">
        <ele>53.5</ele>
        <time>2021-04-06T09:22:07Z</time>
      </trkpt>
      <trkpt lat="57.9573" lon="-5.13456">
        <ele>52.14</ele>
        <time>2021-04-06T09:22:13Z</time>
      </trkpt>
      <trkpt lat="57.9576" lon="-5.13436">
        <ele>49.24</ele>
        <time>2021-04-06T09:22:19Z</time>
      </trkpt>
      <trkpt lat="57.95812" lon="-5.13424">
        <ele>40.23</ele>
        <time>2021-04-06T09:22:25Z</time>
      </trkpt>
      <trkpt lat="57.95868" lon="-5.13424">
        <ele>32.76</ele>
        <time>2021-04-06T09:22:30Z</time>
      </trkpt>
      <trkpt lat="57.95915" lon="-5.13439">
        <ele>28.76</ele>
        <time>2021-04-06T09:22:36Z</time>
      </trkpt>
      <trkpt lat="57.95956" lon="-5.1346">
        <ele>23.95</ele>
        <time>2021-04-06T09:22:42Z</time>
      </trkpt>
      <trkpt lat="57.96164" lon="-5.13583">
        <ele>13.01</ele>
        <time>2021-04-06T09:22:48Z</time>
      </trkpt>
      <trkpt lat="57.96208" lon="-5.13595">
        <ele>12</ele>
        <time>2021-04-06T09:22:53Z</time>
      </trkpt>
      <trkpt lat="57.96242" lon="-5.13597">
        <ele>12.72</ele>
        <time>2021-04-06T09:22:59Z</time>
      </trkpt>
      <trkpt lat="57.96277" lon="-5.13584">
        <ele>15.89</ele>
        <time>2021-04-06T09:23:05Z</time>
      </trkpt>
      <trkpt lat="57.96298" lon="-5.13569">
        <ele>17.69</ele>
        <time>2021-04-06T09:23:11Z</time>
      </trkpt>
      <trkpt lat="57.96333" lon="-5.13537">
        <ele>21.33</ele>
        <time>2021-04-06T09:23:16Z</time>
      </trkpt>
      <trkpt lat="57.96392" lon="-5.13468">
        <ele>26.01</ele>
        <time>2021-04-06T09:23:22Z</time>
      </trkpt>
      <trkpt lat="57.96465" lon="-5.13376">
        <ele>26.69</ele>
        <time>2021-04-06T09:23:28Z</time>
      </trkpt>
      <trkpt lat="57.96565" lon="-5.13254">
        <ele>38.5</ele>
        <time>2021-04-06T09:23:34Z</time>
      </trkpt>
      <trkpt lat="57.96701" lon="-5.13079">
        <ele>56.17</ele>
        <time>2021-04-06T09:23:39Z</time>
      </trkpt>
      <trkpt lat="57.96808" lon="-5.12915">
        <ele>68.44</ele>
        <time>2021-04-06T09:23:45Z</time>
      </trkpt>
      <trkpt lat="57.97077" lon="-5.12584">
        <ele>85.6</ele>
        <time>2021-04-06T09:23:51Z</time>
      </trkpt>
      <trkpt lat="57.97157" lon="-5.12495">
        <ele>89.3</ele>
        <time>2021-04-06T09:23:57Z</time>
      </trkpt>
      <trkpt lat="57.97253" lon="-5.12419">
        <ele>95.17</ele>
        <time>2021-04-06T09:24:02Z</time>
      </trkpt>
      <trkpt lat="57.97459" lon="-5.1228">
        <ele>101.48</ele>
        <time>2021-04-06T09:24:08Z</time>
      </trkpt>
      <trkpt lat="57.9752" lon="-5.12229">
        <ele>103.72</ele>
        <time>2021-04-06T09:24:14Z</time>
      </trkpt>
      <trkpt lat="57.9766" lon="-5.12097">
        <ele>104.86</ele>
        <time>2021-04-06T09:24:19Z</time>
      </trkpt>
      <trkpt lat="57.97782" lon="-5.11989">
        <ele>98.17</ele>
        <time>2021-04-06T09:24:25Z</time>
      </trkpt>
      <trkpt lat="57.97845" lon="-5.11943">
        <ele>99.61</ele>
        <time>2021-04-06T09:24:31Z</time>
      </trkpt>
      <trkpt lat="57.97911" lon="-5.11908">
        <ele>101.69</ele>
        <time>2021-04-06T09:24:37Z</time>
      </trkpt>
      <trkpt lat="57.97956" lon="-5.11895">
        <ele>105.38</ele>
        <time>2021-04-06T09:24:42Z</time>
      </trkpt>
      <trkpt lat="57.98021" lon="-5.11894">
        <ele>109.15</ele>
        <time>2021-04-06T09:24:48Z</time>
      </trkpt>
      <trkpt lat="57.98121" lon="-5.11914">
        <ele>115.66</ele>
        <time>2021-04-06T09:24:54Z</time>
      </trkpt>
      <trkpt lat="57.98163" lon="-5.11916">
        <ele>117.89</ele>
        <time>2021-04-06T09:25:00Z</time>
      </trkpt>
      <trkpt lat="57.98195" lon="-5.11905">
        <ele>118.25</ele>
        <time>2021-04-06T09:25:05Z</time>
      </trkpt>
      <trkpt lat="57.98225" lon="-5.11889">
        <ele>119</ele>
        <time>2021-04-06T09:25:11Z</time>
      </trkpt>
      <trkpt lat="57.98701" lon="-5.11501">
        <ele>129.18</ele>
        <time>2021-04-06T09:25:17Z</time>
      </trkpt>
      <trkpt lat="57.98817" lon="-5.1141">
        <ele>124.89</ele>
        <time>2021-04-06T09:25:23Z</time>
      </trkpt>
      <trkpt lat="57.98969" lon="-5.11321">
        <ele>125.01</ele>
        <time>2021-04-06T09:25:28Z</time>
      </trkpt>
      <trkpt lat="57.9903" lon="-5.11268">
        <ele>126.07</ele>
        <time>2021-04-06T09:25:34Z</time>
      </trkpt>
      <trkpt lat="57.99085" lon="-5.11205">
        <ele>124.65</ele>
        <time>2021-04-06T09:25:40Z</time>
      </trkpt>
      <trkpt lat="57.99174" lon="-5.11127">
        <ele>121.96</ele>
        <time>2021-04-06T09:25:46Z</time>
      </trkpt>
      <trkpt lat="57.99262" lon="-5.11061">
        <ele>122.82</ele>
        <time>2021-04-06T09:25:51Z</time>
      </trkpt>
      <trkpt lat="57.99454" lon="-5.10941">
        <ele>120.84</ele>
        <time>2021-04-06T09:25:57Z</time>
      </trkpt>
      <trkpt lat="57.99555" lon="-5.10859">
        <ele>117.28</ele>
        <time>2021-04-06T09:26:03Z</time>
      </trkpt>
      <trkpt lat="57.99654" lon="-5.10767">
        <ele>120.7</ele>
        <time>2021-04-06T09:26:09Z</time>
      </trkpt>
      <trkpt lat="57.99744" lon="-5.1066">
        <ele>120.21</ele>
        <time>2021-04-06T09:26:14Z</time>
      </trkpt>
      <trkpt lat="57.9983" lon="-5.10547">
        <ele>121.13</ele>
        <time>2021-04-06T09:26:20Z</time>
      </trkpt>
      <trkpt lat="57.99934" lon="-5.10387">
        <ele>122</ele>
        <time>2021-04-06T09:26:26Z</time>
      </trkpt>
      <trkpt lat="57.9995" lon="-5.10359">
        <ele>121.97</ele>
        <time>2021-04-06T09:26:31Z</time>
      </trkpt>
      <trkpt lat="57.9995" lon="-5.10359">
        <ele>121.97</ele>
        <time>2021-04-06T09:26:31Z</time>
      </trkpt>
      <trkpt lat="57.9995" lon="-5.10359">
        <ele>121.94</ele>
        <time>2021-04-06T09:26:31Z</time>
      </trkpt>
      <trkpt lat="57.99962" lon="-5.10411">
        <ele>122.49</ele>
        <time>2021-04-06T09:26:35Z</time>
      </trkpt>
      <trkpt lat="57.99971" lon="-5.1053">
        <ele>122.81</ele>
        <time>2021-04-06T09:26:38Z</time>
      </trkpt>
      <trkpt lat="57.99974" lon="-5.10603">
        <ele>122.21</ele>
        <time>2021-04-06T09:26:41Z</time>
      </trkpt>
      <trkpt lat="57.99969" lon="-5.10634">
        <ele>121.63</ele>
        <time>2021-04-06T09:26:44Z</time>
      </trkpt>
      <trkpt lat="57.9992" lon="-5.10778">
        <ele>119.53</ele>
        <time>2021-04-06T09:26:47Z</time>
      </trkpt>
      <trkpt lat="57.99902" lon="-5.10863">
        <ele>117.4</ele>
        <time>2021-04-06T09:26:51Z</time>
      </trkpt>
      <trkpt lat="57.99905" lon="-5.10897">
        <ele>117.34</ele>
        <time>2021-04-06T09:26:54Z</time>
      </trkpt>
      <trkpt lat="57.9994" lon="-5.10971">
        <ele>118.43</ele>
        <time>2021-04-06T09:26:57Z</time>
      </trkpt>
      <trkpt lat="57.9995" lon="-5.11014">
        <ele>118.13</ele>
        <time>2021-04-06T09:27:00Z</time>
      </trkpt>
      <trkpt lat="57.99942" lon="-5.11116">
        <ele>112.24</ele>
        <time>2021-04-06T09:27:03Z</time>
      </trkpt>
      <trkpt lat="57.99953" lon="-5.11189">
        <ele>110.42</ele>
        <time>2021-04-06T09:27:06Z</time>
      </trkpt>
      <trkpt lat="57.99978" lon="-5.11275">
        <ele>110.63</ele>
        <time>2021-04-06T09:27:10Z</time>
      </trkpt>
      <trkpt lat="57.99988" lon="-5.11304">
        <ele>110.74</ele>
        <time>2021-04-06T09:27:13Z</time>
      </trkpt>
      <trkpt lat="57.99988" lon="-5.11432">
        <ele>106.15</ele>
        <time>2021-04-06T09:27:16Z</time>
      </trkpt>
      <trkpt lat="58.00029" lon="-5.11543">
        <ele>101.95</ele>
        <time>2021-04-06T09:27:19Z</time>
      </trkpt>
      <trkpt lat="58.00091" lon="-5.116">
        <ele>98.05</ele>
        <time>2021-04-06T09:27:22Z</time>
      </trkpt>
      <trkpt lat="58.00113" lon="-5.11658">
        <ele>96.42</ele>
        <time>2021-04-06T09:27:25Z</time>
      </trkpt>
      <trkpt lat="58.00142" lon="-5.1183">
        <ele>98.22</ele>
        <time>2021-04-06T09:27:29Z</time>
      </trkpt>
      <trkpt lat="58.0014" lon="-5.11866">
        <ele>100.21</ele>
        <time>2021-04-06T09:27:32Z</time>
      </trkpt>
      <trkpt lat="58.00114" lon="-5.1195">
        <ele>99.85</ele>
        <time>2021-04-06T09:27:35Z</time>
      </trkpt>
      <trkpt lat="58.00096" lon="-5.12036">
        <ele>101.75</ele>
        <time>2021-04-06T09:27:38Z</time>
      </trkpt>
      <trkpt lat="58.00085" lon="-5.1211">
        <ele>102.45</ele>
        <time>2021-04-06T09:27:41Z</time>
      </trkpt>
      <trkpt lat="58.00081" lon="-5.12189">
        <ele>105.1</ele>
        <time>2021-04-06T09:27:44Z</time>
      </trkpt>
      <trkpt lat="58.0009" lon="-5.12282">
        <ele>108.26</ele>
        <time>2021-04-06T09:27:48Z</time>
      </trkpt>
      <trkpt lat="58.00092" lon="-5.12404">
        <ele>110.93</ele>
        <time>2021-04-06T09:27:51Z</time>
      </trkpt>
      <trkpt lat="58.00101" lon="-5.12474">
        <ele>112.54</ele>
        <time>2021-04-06T09:27:54Z</time>
      </trkpt>
      <trkpt lat="58.00122" lon="-5.12533">
        <ele>118.89</ele>
        <time>2021-04-06T09:27:57Z</time>
      </trkpt>
      <trkpt lat="58.00123" lon="-5.12572">
        <ele>120.53</ele>
        <time>2021-04-06T09:28:00Z</time>
      </trkpt>
      <trkpt lat="58.00112" lon="-5.12645">
        <ele>119.32</ele>
        <time>2021-04-06T09:28:04Z</time>
      </trkpt>
      <trkpt lat="58.00115" lon="-5.12691">
        <ele>120.02</ele>
        <time>2021-04-06T09:28:07Z</time>
      </trkpt>
      <trkpt lat="58.00132" lon="-5.1276">
        <ele>123.37</ele>
        <time>2021-04-06T09:28:10Z</time>
      </trkpt>
      <trkpt lat="58.00163" lon="-5.12854">
        <ele>126.46</ele>
        <time>2021-04-06T09:28:13Z</time>
      </trkpt>
      <trkpt lat="58.00214" lon="-5.1307">
        <ele>129.59</ele>
        <time>2021-04-06T09:28:16Z</time>
      </trkpt>
      <trkpt lat="58.00236" lon="-5.13206">
        <ele>125.04</ele>
        <time>2021-04-06T09:28:19Z</time>
      </trkpt>
      <trkpt lat="58.00274" lon="-5.13297">
        <ele>121.76</ele>
        <time>2021-04-06T09:28:23Z</time>
      </trkpt>
      <trkpt lat="58.00317" lon="-5.13446">
        <ele>115.63</ele>
        <time>2021-04-06T09:28:26Z</time>
      </trkpt>
      <trkpt lat="58.00346" lon="-5.1352">
        <ele>113.43</ele>
        <time>2021-04-06T09:28:29Z</time>
      </trkpt>
      <trkpt lat="58.00363" lon="-5.13543">
        <ele>112.69</ele>
        <time>2021-04-06T09:28:32Z</time>
      </trkpt>
      <trkpt lat="58.00399" lon="-5.13557">
        <ele>116.56</ele>
        <time>2021-04-06T09:28:35Z</time>
      </trkpt>
      <trkpt lat="58.00415" lon="-5.1358">
        <ele>116.11</ele>
        <time>2021-04-06T09:28:38Z</time>
      </trkpt>
      <trkpt lat="58.00449" lon="-5.13676">
        <ele>116.83</ele>
        <time>2021-04-06T09:28:42Z</time>
      </trkpt>
      <trkpt lat="58.00458" lon="-5.13711">
        <ele>118.14</ele>
        <time>2021-04-06T09:28:45Z</time>
      </trkpt>
      <trkpt lat="58.00458" lon="-5.13795">
        <ele>112.67</ele>
        <time>2021-04-06T09:28:48Z</time>
      </trkpt>
      <trkpt lat="58.00465" lon="-5.13859">
        <ele>108.97</ele>
        <time>2021-04-06T09:28:51Z</time>
      </trkpt>
      <trkpt lat="58.00496" lon="-5.13957">
        <ele>108.22</ele>
        <time>2021-04-06T09:28:54Z</time>
      </trkpt>
      <trkpt lat="58.00496" lon="-5.13957">
        <ele>108.22</ele>
        <time>2021-04-06T09:28:54Z</time>
      </trkpt>
      <trkpt lat="58.00522" lon="-5.13994">
        <ele>109.54</ele>
        <time>2021-04-06T09:28:57Z</time>
      </trkpt>
      <trkpt lat="58.00545" lon="-5.14023">
        <ele>109.43</ele>
        <time>2021-04-06T09:29:00Z</time>
      </trkpt>
      <trkpt lat="58.00581" lon="-5.14057">
        <ele>109.75</ele>
        <time>2021-04-06T09:29:03Z</time>
      </trkpt>
      <trkpt lat="58.006" lon="-5.14083">
        <ele>108.03</ele>
        <time>2021-04-06T09:29:06Z</time>
      </trkpt>
      <trkpt lat="58.00608" lon="-5.14111">
        <ele>106.04</ele>
        <time>2021-04-06T09:29:09Z</time>
      </trkpt>
      <trkpt lat="58.00614" lon="-5.14142">
        <ele>104.24</ele>
        <time>2021-04-06T09:29:12Z</time>
      </trkpt>
      <trkpt lat="58.00628" lon="-5.14185">
        <ele>103.84</ele>
        <time>2021-04-06T09:29:15Z</time>
      </trkpt>
      <trkpt lat="58.00632" lon="-5.14222">
        <ele>103.04</ele>
        <time>2021-04-06T09:29:18Z</time>
      </trkpt>
      <trkpt lat="58.00632" lon="-5.14267">
        <ele>100.68</ele>
        <time>2021-04-06T09:29:21Z</time>
      </trkpt>
      <trkpt lat="58.00641" lon="-5.14286">
        <ele>100.87</ele>
        <time>2021-04-06T09:29:24Z</time>
      </trkpt>
      <trkpt lat="58.00682" lon="-5.14302">
        <ele>100.51</ele>
        <time>2021-04-06T09:29:27Z</time>
      </trkpt>
      <trkpt lat="58.00714" lon="-5.14303">
        <ele>100.2</ele>
        <time>2021-04-06T09:29:30Z</time>
      </trkpt>
      <trkpt lat="58.00735" lon="-5.14313">
        <ele>100.99</ele>
        <time>2021-04-06T09:29:33Z</time>
      </trkpt>
      <trkpt lat="58.00755" lon="-5.14347">
        <ele>99.07</ele>
        <time>2021-04-06T09:29:36Z</time>
      </trkpt>
      <trkpt lat="58.0077" lon="-5.14379">
        <ele>97.27</ele>
        <time>2021-04-06T09:29:39Z</time>
      </trkpt>
      <trkpt lat="58.00791" lon="-5.14424">
        <ele>95.21</ele>
        <time>2021-04-06T09:29:42Z</time>
      </trkpt>
      <trkpt lat="58.00834" lon="-5.14528">
        <ele>90.19</ele>
        <time>2021-04-06T09:29:45Z</time>
      </trkpt>
      <trkpt lat="58.00851" lon="-5.14594">
        <ele>86.26</ele>
        <time>2021-04-06T09:29:48Z</time>
      </trkpt>
      <trkpt lat="58.00902" lon="-5.147">
        <ele>81.54</ele>
        <time>2021-04-06T09:29:50Z</time>
      </trkpt>
      <trkpt lat="58.00925" lon="-5.14736">
        <ele>79.57</ele>
        <time>2021-04-06T09:29:53Z</time>
      </trkpt>
      <trkpt lat="58.00947" lon="-5.14783">
        <ele>76.9</ele>
        <time>2021-04-06T09:29:56Z</time>
      </trkpt>
      <trkpt lat="58.01011" lon="-5.14938">
        <ele>75.27</ele>
        <time>2021-04-06T09:29:59Z</time>
      </trkpt>
      <trkpt lat="58.01039" lon="-5.15018">
        <ele>74.14</ele>
        <time>2021-04-06T09:30:02Z</time>
      </trkpt>
      <trkpt lat="58.01058" lon="-5.15101">
        <ele>70.74</ele>
        <time>2021-04-06T09:30:05Z</time>
      </trkpt>
      <trkpt lat="58.01098" lon="-5.15219">
        <ele>69.29</ele>
        <time>2021-04-06T09:30:08Z</time>
      </trkpt>
      <trkpt lat="58.01123" lon="-5.15287">
        <ele>69.13</ele>
        <time>2021-04-06T09:30:11Z</time>
      </trkpt>
      <trkpt lat="58.01139" lon="-5.15314">
        <ele>69.08</ele>
        <time>2021-04-06T09:30:14Z</time>
      </trkpt>
      <trkpt lat="58.01158" lon="-5.1533">
        <ele>71.55</ele>
        <time>2021-04-06T09:30:17Z</time>
      </trkpt>
      <trkpt lat="58.01172" lon="-5.15352">
        <ele>72.04</ele>
        <time>2021-04-06T09:30:20Z</time>
      </trkpt>
      <trkpt lat="58.01189" lon="-5.15389">
        <ele>70.19</ele>
        <time>2021-04-06T09:30:23Z</time>
      </trkpt>
      <trkpt lat="58.01211" lon="-5.15418">
        <ele>70.24</ele>
        <time>2021-04-06T09:30:26Z</time>
      </trkpt>
      <trkpt lat="58.01296" lon="-5.15505">
        <ele>74.82</ele>
        <time>2021-04-06T09:30:29Z</time>
      </trkpt>
      <trkpt lat="58.01323" lon="-5.1555">
        <ele>74.63</ele>
        <time>2021-04-06T09:30:32Z</time>
      </trkpt>
      <trkpt lat="58.01349" lon="-5.15615">
        <ele>71.04</ele>
        <time>2021-04-06T09:30:35Z</time>
      </trkpt>
      <trkpt lat="58.01408" lon="-5.15697">
        <ele>75.46</ele>
        <time>2021-04-06T09:30:38Z</time>
      </trkpt>
      <trkpt lat="58.01441" lon="-5.15729">
        <ele>77.09</ele>
        <time>2021-04-06T09:30:41Z</time>
      </trkpt>
      <trkpt lat="58.01494" lon="-5.15771">
        <ele>78.24</ele>
        <time>2021-04-06T09:30:44Z</time>
      </trkpt>
      <trkpt lat="58.01502" lon="-5.15784">
        <ele>77.79</ele>
        <time>2021-04-06T09:30:47Z</time>
      </trkpt>
      <trkpt lat="58.01515" lon="-5.15814">
        <ele>77.49</ele>
        <time>2021-04-06T09:30:50Z</time>
      </trkpt>
      <trkpt lat="58.01532" lon="-5.15867">
        <ele>76.4</ele>
        <time>2021-04-06T09:30:53Z</time>
      </trkpt>
      <trkpt lat="58.01547" lon="-5.15898">
        <ele>77.15</ele>
        <time>2021-04-06T09:30:56Z</time>
      </trkpt>
      <trkpt lat="58.01605" lon="-5.15978">
        <ele>82.42</ele>
        <time>2021-04-06T09:30:58Z</time>
      </trkpt>
      <trkpt lat="58.01633" lon="-5.16046">
        <ele>80.92</ele>
        <time>2021-04-06T09:31:01Z</time>
      </trkpt>
      <trkpt lat="58.0165" lon="-5.16078">
        <ele>80.9</ele>
        <time>2021-04-06T09:31:04Z</time>
      </trkpt>
      <trkpt lat="58.01672" lon="-5.16099">
        <ele>83.17</ele>
        <time>2021-04-06T09:31:07Z</time>
      </trkpt>
      <trkpt lat="58.01732" lon="-5.16139">
        <ele>83.69</ele>
        <time>2021-04-06T09:31:10Z</time>
      </trkpt>
      <trkpt lat="58.01761" lon="-5.1618">
        <ele>82.97</ele>
        <time>2021-04-06T09:31:13Z</time>
      </trkpt>
      <trkpt lat="58.01834" lon="-5.16265">
        <ele>84.96</ele>
        <time>2021-04-06T09:31:16Z</time>
      </trkpt>
      <trkpt lat="58.01868" lon="-5.16299">
        <ele>84.55</ele>
        <time>2021-04-06T09:31:19Z</time>
      </trkpt>
      <trkpt lat="58.01906" lon="-5.1632">
        <ele>81.63</ele>
        <time>2021-04-06T09:31:22Z</time>
      </trkpt>
      <trkpt lat="58.01931" lon="-5.16352">
        <ele>78.57</ele>
        <time>2021-04-06T09:31:25Z</time>
      </trkpt>
      <trkpt lat="58.01966" lon="-5.16411">
        <ele>75.14</ele>
        <time>2021-04-06T09:31:28Z</time>
      </trkpt>
      <trkpt lat="58.02026" lon="-5.16478">
        <ele>75.41</ele>
        <time>2021-04-06T09:31:31Z</time>
      </trkpt>
      <trkpt lat="58.0205" lon="-5.16522">
        <ele>74.68</ele>
        <time>2021-04-06T09:31:34Z</time>
      </trkpt>
      <trkpt lat="58.0208" lon="-5.16586">
        <ele>74.47</ele>
        <time>2021-04-06T09:31:37Z</time>
      </trkpt>
      <trkpt lat="58.021" lon="-5.1662">
        <ele>74.15</ele>
        <time>2021-04-06T09:31:40Z</time>
      </trkpt>
      <trkpt lat="58.02158" lon="-5.1673">
        <ele>72.29</ele>
        <time>2021-04-06T09:31:43Z</time>
      </trkpt>
      <trkpt lat="58.02212" lon="-5.16851">
        <ele>71.06</ele>
        <time>2021-04-06T09:31:46Z</time>
      </trkpt>
      <trkpt lat="58.02245" lon="-5.1693">
        <ele>68.47</ele>
        <time>2021-04-06T09:31:49Z</time>
      </trkpt>
      <trkpt lat="58.02263" lon="-5.16957">
        <ele>68.02</ele>
        <time>2021-04-06T09:31:52Z</time>
      </trkpt>
      <trkpt lat="58.02284" lon="-5.16973">
        <ele>68.19</ele>
        <time>2021-04-06T09:31:55Z</time>
      </trkpt>
      <trkpt lat="58.02392" lon="-5.17">
        <ele>70.27</ele>
        <time>2021-04-06T09:31:58Z</time>
      </trkpt>
      <trkpt lat="58.02423" lon="-5.17014">
        <ele>70.87</ele>
        <time>2021-04-06T09:32:01Z</time>
      </trkpt>
      <trkpt lat="58.02439" lon="-5.17028">
        <ele>69.67</ele>
        <time>2021-04-06T09:32:04Z</time>
      </trkpt>
      <trkpt lat="58.02459" lon="-5.17039">
        <ele>69.47</ele>
        <time>2021-04-06T09:32:07Z</time>
      </trkpt>
      <trkpt lat="58.02539" lon="-5.17058">
        <ele>68.52</ele>
        <time>2021-04-06T09:32:09Z</time>
      </trkpt>
      <trkpt lat="58.026" lon="-5.17099">
        <ele>66.25</ele>
        <time>2021-04-06T09:32:12Z</time>
      </trkpt>
      <trkpt lat="58.02678" lon="-5.17134">
        <ele>66.7</ele>
        <time>2021-04-06T09:32:15Z</time>
      </trkpt>
      <trkpt lat="58.02724" lon="-5.1717">
        <ele>67.88</ele>
        <time>2021-04-06T09:32:18Z</time>
      </trkpt>
      <trkpt lat="58.0284" lon="-5.17301">
        <ele>70.35</ele>
        <time>2021-04-06T09:32:21Z</time>
      </trkpt>
      <trkpt lat="58.02914" lon="-5.17372">
        <ele>69.02</ele>
        <time>2021-04-06T09:32:24Z</time>
      </trkpt>
      <trkpt lat="58.02993" lon="-5.17441">
        <ele>72.36</ele>
        <time>2021-04-06T09:32:27Z</time>
      </trkpt>
      <trkpt lat="58.03028" lon="-5.1748">
        <ele>73.24</ele>
        <time>2021-04-06T09:32:30Z</time>
      </trkpt>
      <trkpt lat="58.03058" lon="-5.17549">
        <ele>73.14</ele>
        <time>2021-04-06T09:32:33Z</time>
      </trkpt>
      <trkpt lat="58.03079" lon="-5.17622">
        <ele>72.46</ele>
        <time>2021-04-06T09:32:36Z</time>
      </trkpt>
      <trkpt lat="58.03079" lon="-5.17622">
        <ele>72.46</ele>
        <time>2021-04-06T09:32:36Z</time>
      </trkpt>
      <trkpt lat="58.03094" lon="-5.17692">
        <ele>72.72</ele>
        <time>2021-04-06T09:32:40Z</time>
      </trkpt>
      <trkpt lat="58.03104" lon="-5.17802">
        <ele>73.26</ele>
        <time>2021-04-06T09:32:43Z</time>
      </trkpt>
      <trkpt lat="58.03105" lon="-5.17852">
        <ele>72.99</ele>
        <time>2021-04-06T09:32:47Z</time>
      </trkpt>
      <trkpt lat="58.03116" lon="-5.17957">
        <ele>73.45</ele>
        <time>2021-04-06T09:32:50Z</time>
      </trkpt>
      <trkpt lat="58.0312" lon="-5.17969">
        <ele>73.63</ele>
        <time>2021-04-06T09:32:54Z</time>
      </trkpt>
      <trkpt lat="58.03126" lon="-5.18016">
        <ele>73.82</ele>
        <time>2021-04-06T09:32:58Z</time>
      </trkpt>
      <trkpt lat="58.03133" lon="-5.18188">
        <ele>72.21</ele>
        <time>2021-04-06T09:33:01Z</time>
      </trkpt>
      <trkpt lat="58.03134" lon="-5.18343">
        <ele>70.76</ele>
        <time>2021-04-06T09:33:05Z</time>
      </trkpt>
      <trkpt lat="58.03158" lon="-5.1856">
        <ele>71.92</ele>
        <time>2021-04-06T09:33:08Z</time>
      </trkpt>
      <trkpt lat="58.03172" lon="-5.18666">
        <ele>74.07</ele>
        <time>2021-04-06T09:33:12Z</time>
      </trkpt>
      <trkpt lat="58.03176" lon="-5.18759">
        <ele>73.95</ele>
        <time>2021-04-06T09:33:16Z</time>
      </trkpt>
      <trkpt lat="58.03166" lon="-5.19062">
        <ele>70.6</ele>
        <time>2021-04-06T09:33:19Z</time>
      </trkpt>
      <trkpt lat="58.03176" lon="-5.19144">
        <ele>70.45</ele>
        <time>2021-04-06T09:33:23Z</time>
      </trkpt>
      <trkpt lat="58.03234" lon="-5.19444">
        <ele>68.08</ele>
        <time>2021-04-06T09:33:26Z</time>
      </trkpt>
      <trkpt lat="58.03241" lon="-5.19533">
        <ele>63.57</ele>
        <time>2021-04-06T09:33:30Z</time>
      </trkpt>
      <trkpt lat="58.03261" lon="-5.19568">
        <ele>68.3</ele>
        <time>2021-04-06T09:33:33Z</time>
      </trkpt>
      <trkpt lat="58.03275" lon="-5.19621">
        <ele>70.54</ele>
        <time>2021-04-06T09:33:37Z</time>
      </trkpt>
      <trkpt lat="58.03288" lon="-5.19689">
        <ele>69.19</ele>
        <time>2021-04-06T09:33:41Z</time>
      </trkpt>
      <trkpt lat="58.033" lon="-5.19793">
        <ele>65.24</ele>
        <time>2021-04-06T09:33:44Z</time>
      </trkpt>
      <trkpt lat="58.0332" lon="-5.19862">
        <ele>64.62</ele>
        <time>2021-04-06T09:33:48Z</time>
      </trkpt>
      <trkpt lat="58.03346" lon="-5.20001">
        <ele>68.29</ele>
        <time>2021-04-06T09:33:51Z</time>
      </trkpt>
      <trkpt lat="58.03364" lon="-5.20078">
        <ele>66.9</ele>
        <time>2021-04-06T09:33:55Z</time>
      </trkpt>
      <trkpt lat="58.03374" lon="-5.20114">
        <ele>66.18</ele>
        <time>2021-04-06T09:33:59Z</time>
      </trkpt>
      <trkpt lat="58.03393" lon="-5.20167">
        <ele>64.67</ele>
        <time>2021-04-06T09:34:02Z</time>
      </trkpt>
      <trkpt lat="58.03403" lon="-5.20186">
        <ele>64.75</ele>
        <time>2021-04-06T09:34:06Z</time>
      </trkpt>
      <trkpt lat="58.03454" lon="-5.20234">
        <ele>73.5</ele>
        <time>2021-04-06T09:34:09Z</time>
      </trkpt>
      <trkpt lat="58.03461" lon="-5.2025">
        <ele>76.04</ele>
        <time>2021-04-06T09:34:13Z</time>
      </trkpt>
      <trkpt lat="58.03469" lon="-5.20293">
        <ele>78.32</ele>
        <time>2021-04-06T09:34:16Z</time>
      </trkpt>
      <trkpt lat="58.03474" lon="-5.2036">
        <ele>77.65</ele>
        <time>2021-04-06T09:34:20Z</time>
      </trkpt>
      <trkpt lat="58.03465" lon="-5.20778">
        <ele>83.42</ele>
        <time>2021-04-06T09:34:24Z</time>
      </trkpt>
      <trkpt lat="58.03456" lon="-5.20846">
        <ele>84.51</ele>
        <time>2021-04-06T09:34:27Z</time>
      </trkpt>
      <trkpt lat="58.03403" lon="-5.21044">
        <ele>86.04</ele>
        <time>2021-04-06T09:34:31Z</time>
      </trkpt>
      <trkpt lat="58.03379" lon="-5.211">
        <ele>86.78</ele>
        <time>2021-04-06T09:34:34Z</time>
      </trkpt>
      <trkpt lat="58.03338" lon="-5.21177">
        <ele>86.5</ele>
        <time>2021-04-06T09:34:38Z</time>
      </trkpt>
      <trkpt lat="58.03333" lon="-5.21194">
        <ele>86.9</ele>
        <time>2021-04-06T09:34:42Z</time>
      </trkpt>
      <trkpt lat="58.03331" lon="-5.21209">
        <ele>87.1</ele>
        <time>2021-04-06T09:34:45Z</time>
      </trkpt>
      <trkpt lat="58.03331" lon="-5.21235">
        <ele>87.97</ele>
        <time>2021-04-06T09:34:49Z</time>
      </trkpt>
      <trkpt lat="58.0334" lon="-5.21359">
        <ele>91.13</ele>
        <time>2021-04-06T09:34:52Z</time>
      </trkpt>
      <trkpt lat="58.03348" lon="-5.21424">
        <ele>92.57</ele>
        <time>2021-04-06T09:34:56Z</time>
      </trkpt>
      <trkpt lat="58.03349" lon="-5.21459">
        <ele>92.98</ele>
        <time>2021-04-06T09:35:00Z</time>
      </trkpt>
      <trkpt lat="58.03332" lon="-5.21884">
        <ele>96.74</ele>
        <time>2021-04-06T09:35:03Z</time>
      </trkpt>
      <trkpt lat="58.03313" lon="-5.22235">
        <ele>98.25</ele>
        <time>2021-04-06T09:35:07Z</time>
      </trkpt>
      <trkpt lat="58.03314" lon="-5.22266">
        <ele>98.24</ele>
        <time>2021-04-06T09:35:10Z</time>
      </trkpt>
      <trkpt lat="58.03333" lon="-5.22371">
        <ele>96.59</ele>
        <time>2021-04-06T09:35:14Z</time>
      </trkpt>
      <trkpt lat="58.03352" lon="-5.22439">
        <ele>98.8</ele>
        <time>2021-04-06T09:35:17Z</time>
      </trkpt>
      <trkpt lat="58.03356" lon="-5.22461">
        <ele>100</ele>
        <time>2021-04-06T09:35:21Z</time>
      </trkpt>
      <trkpt lat="58.03355" lon="-5.22492">
        <ele>100.72</ele>
        <time>2021-04-06T09:35:25Z</time>
      </trkpt>
      <trkpt lat="58.03347" lon="-5.22609">
        <ele>97.87</ele>
        <time>2021-04-06T09:35:28Z</time>
      </trkpt>
      <trkpt lat="58.03345" lon="-5.2283">
        <ele>97.28</ele>
        <time>2021-04-06T09:35:32Z</time>
      </trkpt>
      <trkpt lat="58.03338" lon="-5.23087">
        <ele>99.76</ele>
        <time>2021-04-06T09:35:35Z</time>
      </trkpt>
      <trkpt lat="58.03338" lon="-5.23198">
        <ele>99.98</ele>
        <time>2021-04-06T09:35:39Z</time>
      </trkpt>
      <trkpt lat="58.03326" lon="-5.2332">
        <ele>96.76</ele>
        <time>2021-04-06T09:35:43Z</time>
      </trkpt>
      <trkpt lat="58.03329" lon="-5.23352">
        <ele>95.16</ele>
        <time>2021-04-06T09:35:46Z</time>
      </trkpt>
      <trkpt lat="58.03335" lon="-5.2337">
        <ele>94.54</ele>
        <time>2021-04-06T09:35:50Z</time>
      </trkpt>
      <trkpt lat="58.03349" lon="-5.23394">
        <ele>94.54</ele>
        <time>2021-04-06T09:35:53Z</time>
      </trkpt>
      <trkpt lat="58.0339" lon="-5.23497">
        <ele>88.57</ele>
        <time>2021-04-06T09:35:57Z</time>
      </trkpt>
      <trkpt lat="58.03419" lon="-5.23556">
        <ele>85.04</ele>
        <time>2021-04-06T09:36:00Z</time>
      </trkpt>
      <trkpt lat="58.03425" lon="-5.23566">
        <ele>84.37</ele>
        <time>2021-04-06T09:36:04Z</time>
      </trkpt>
      <trkpt lat="58.03432" lon="-5.23575">
        <ele>83.58</ele>
        <time>2021-04-06T09:36:08Z</time>
      </trkpt>
      <trkpt lat="58.03478" lon="-5.23598">
        <ele>84.42</ele>
        <time>2021-04-06T09:36:11Z</time>
      </trkpt>
      <trkpt lat="58.03494" lon="-5.23614">
        <ele>83.97</ele>
        <time>2021-04-06T09:36:15Z</time>
      </trkpt>
      <trkpt lat="58.03512" lon="-5.2365">
        <ele>81.1</ele>
        <time>2021-04-06T09:36:18Z</time>
      </trkpt>
      <trkpt lat="58.0353" lon="-5.23665">
        <ele>81.57</ele>
        <time>2021-04-06T09:36:22Z</time>
      </trkpt>
      <trkpt lat="58.03559" lon="-5.23681">
        <ele>83.38</ele>
        <time>2021-04-06T09:36:26Z</time>
      </trkpt>
      <trkpt lat="58.03568" lon="-5.23694">
        <ele>83.21</ele>
        <time>2021-04-06T09:36:29Z</time>
      </trkpt>
      <trkpt lat="58.03575" lon="-5.2371">
        <ele>81.92</ele>
        <time>2021-04-06T09:36:33Z</time>
      </trkpt>
      <trkpt lat="58.03578" lon="-5.23728">
        <ele>79.67</ele>
        <time>2021-04-06T09:36:36Z</time>
      </trkpt>
      <trkpt lat="58.03581" lon="-5.23825">
        <ele>73.21</ele>
        <time>2021-04-06T09:36:40Z</time>
      </trkpt>
      <trkpt lat="58.03588" lon="-5.23902">
        <ele>70.19</ele>
        <time>2021-04-06T09:36:44Z</time>
      </trkpt>
      <trkpt lat="58.03594" lon="-5.23931">
        <ele>70.04</ele>
        <time>2021-04-06T09:36:47Z</time>
      </trkpt>
      <trkpt lat="58.03609" lon="-5.23988">
        <ele>68.87</ele>
        <time>2021-04-06T09:36:51Z</time>
      </trkpt>
      <trkpt lat="58.03623" lon="-5.24016">
        <ele>69.44</ele>
        <time>2021-04-06T09:36:54Z</time>
      </trkpt>
      <trkpt lat="58.03669" lon="-5.24088">
        <ele>71</ele>
        <time>2021-04-06T09:36:58Z</time>
      </trkpt>
      <trkpt lat="58.03693" lon="-5.24138">
        <ele>68.88</ele>
        <time>2021-04-06T09:37:01Z</time>
      </trkpt>
      <trkpt lat="58.03739" lon="-5.24221">
        <ele>65.97</ele>
        <time>2021-04-06T09:37:05Z</time>
      </trkpt>
      <trkpt lat="58.03764" lon="-5.24241">
        <ele>64.9</ele>
        <time>2021-04-06T09:37:09Z</time>
      </trkpt>
      <trkpt lat="58.03795" lon="-5.24272">
        <ele>62.13</ele>
        <time>2021-04-06T09:37:12Z</time>
      </trkpt>
      <trkpt lat="58.03842" lon="-5.24335">
        <ele>60.16</ele>
        <time>2021-04-06T09:37:16Z</time>
      </trkpt>
      <trkpt lat="58.03907" lon="-5.24404">
        <ele>59.53</ele>
        <time>2021-04-06T09:37:19Z</time>
      </trkpt>
      <trkpt lat="58.03952" lon="-5.24448">
        <ele>58.78</ele>
        <time>2021-04-06T09:37:23Z</time>
      </trkpt>
      <trkpt lat="58.03973" lon="-5.24474">
        <ele>60.12</ele>
        <time>2021-04-06T09:37:27Z</time>
      </trkpt>
      <trkpt lat="58.04032" lon="-5.24621">
        <ele>60.91</ele>
        <time>2021-04-06T09:37:30Z</time>
      </trkpt>
      <trkpt lat="58.04072" lon="-5.24709">
        <ele>59.67</ele>
        <time>2021-04-06T09:37:34Z</time>
      </trkpt>
      <trkpt lat="58.04109" lon="-5.24763">
        <ele>59.37</ele>
        <time>2021-04-06T09:37:37Z</time>
      </trkpt>
      <trkpt lat="58.04151" lon="-5.24804">
        <ele>57.57</ele>
        <time>2021-04-06T09:37:41Z</time>
      </trkpt>
      <trkpt lat="58.04219" lon="-5.24861">
        <ele>55.8</ele>
        <time>2021-04-06T09:37:44Z</time>
      </trkpt>
      <trkpt lat="58.04245" lon="-5.24889">
        <ele>56.47</ele>
        <time>2021-04-06T09:37:48Z</time>
      </trkpt>
      <trkpt lat="58.04283" lon="-5.24965">
        <ele>57.7</ele>
        <time>2021-04-06T09:37:52Z</time>
      </trkpt>
      <trkpt lat="58.04338" lon="-5.25099">
        <ele>56.77</ele>
        <time>2021-04-06T09:37:55Z</time>
      </trkpt>
      <trkpt lat="58.0439" lon="-5.25214">
        <ele>54.04</ele>
        <time>2021-04-06T09:37:59Z</time>
      </trkpt>
      <trkpt lat="58.04422" lon="-5.25297">
        <ele>54.5</ele>
        <time>2021-04-06T09:38:02Z</time>
      </trkpt>
      <trkpt lat="58.04439" lon="-5.25376">
        <ele>54</ele>
        <time>2021-04-06T09:38:06Z</time>
      </trkpt>
      <trkpt lat="58.04447" lon="-5.25549">
        <ele>56.3</ele>
        <time>2021-04-06T09:38:10Z</time>
      </trkpt>
      <trkpt lat="58.04459" lon="-5.256">
        <ele>56.6</ele>
        <time>2021-04-06T09:38:13Z</time>
      </trkpt>
      <trkpt lat="58.04514" lon="-5.25771">
        <ele>56.61</ele>
        <time>2021-04-06T09:38:17Z</time>
      </trkpt>
      <trkpt lat="58.04549" lon="-5.25899">
        <ele>56.14</ele>
        <time>2021-04-06T09:38:20Z</time>
      </trkpt>
      <trkpt lat="58.04573" lon="-5.25996">
        <ele>56.6</ele>
        <time>2021-04-06T09:38:24Z</time>
      </trkpt>
      <trkpt lat="58.04588" lon="-5.26075">
        <ele>57</ele>
        <time>2021-04-06T09:38:28Z</time>
      </trkpt>
      <trkpt lat="58.04612" lon="-5.26229">
        <ele>55.92</ele>
        <time>2021-04-06T09:38:31Z</time>
      </trkpt>
      <trkpt lat="58.04639" lon="-5.26372">
        <ele>54.06</ele>
        <time>2021-04-06T09:38:35Z</time>
      </trkpt>
      <trkpt lat="58.04658" lon="-5.26481">
        <ele>56.02</ele>
        <time>2021-04-06T09:38:38Z</time>
      </trkpt>
      <trkpt lat="58.04662" lon="-5.26726">
        <ele>55.82</ele>
        <time>2021-04-06T09:38:42Z</time>
      </trkpt>
      <trkpt lat="58.04669" lon="-5.26848">
        <ele>56.89</ele>
        <time>2021-04-06T09:38:45Z</time>
      </trkpt>
      <trkpt lat="58.04673" lon="-5.27">
        <ele>59.9</ele>
        <time>2021-04-06T09:38:49Z</time>
      </trkpt>
      <trkpt lat="58.04667" lon="-5.273">
        <ele>59.21</ele>
        <time>2021-04-06T09:38:53Z</time>
      </trkpt>
      <trkpt lat="58.04661" lon="-5.27476">
        <ele>59.43</ele>
        <time>2021-04-06T09:38:56Z</time>
      </trkpt>
      <trkpt lat="58.0467" lon="-5.27566">
        <ele>58.08</ele>
        <time>2021-04-06T09:39:00Z</time>
      </trkpt>
      <trkpt lat="58.04703" lon="-5.27697">
        <ele>59.46</ele>
        <time>2021-04-06T09:39:03Z</time>
      </trkpt>
      <trkpt lat="58.04714" lon="-5.27787">
        <ele>58.48</ele>
        <time>2021-04-06T09:39:07Z</time>
      </trkpt>
      <trkpt lat="58.04721" lon="-5.2788">
        <ele>58.85</ele>
        <time>2021-04-06T09:39:11Z</time>
      </trkpt>
      <trkpt lat="58.04719" lon="-5.27921">
        <ele>59.58</ele>
        <time>2021-04-06T09:39:14Z</time>
      </trkpt>
      <trkpt lat="58.04715" lon="-5.2796">
        <ele>59</ele>
        <time>2021-04-06T09:39:18Z</time>
      </trkpt>
      <trkpt lat="58.04716" lon="-5.27997">
        <ele>59.07</ele>
        <time>2021-04-06T09:39:21Z</time>
      </trkpt>
      <trkpt lat="58.04736" lon="-5.28132">
        <ele>60.21</ele>
        <time>2021-04-06T09:39:25Z</time>
      </trkpt>
      <trkpt lat="58.04738" lon="-5.28173">
        <ele>60.42</ele>
        <time>2021-04-06T09:39:28Z</time>
      </trkpt>
      <trkpt lat="58.04733" lon="-5.28262">
        <ele>59.76</ele>
        <time>2021-04-06T09:39:32Z</time>
      </trkpt>
      <trkpt lat="58.04734" lon="-5.28303">
        <ele>59.84</ele>
        <time>2021-04-06T09:39:36Z</time>
      </trkpt>
      <trkpt lat="58.04741" lon="-5.28337">
        <ele>60.27</ele>
        <time>2021-04-06T09:39:39Z</time>
      </trkpt>
      <trkpt lat="58.04771" lon="-5.28435">
        <ele>60.5</ele>
        <time>2021-04-06T09:39:43Z</time>
      </trkpt>
      <trkpt lat="58.04771" lon="-5.28435">
        <ele>60.5</ele>
        <time>2021-04-06T09:39:43Z</time>
      </trkpt>
      <trkpt lat="58.04771" lon="-5.28435">
        <ele>60.74</ele>
        <time>2021-04-06T09:39:43Z</time>
      </trkpt>
      <trkpt lat="58.04791" lon="-5.28383">
        <ele>62.98</ele>
        <time>2021-04-06T09:39:47Z</time>
      </trkpt>
      <trkpt lat="58.04804" lon="-5.28288">
        <ele>66.45</ele>
        <time>2021-04-06T09:39:50Z</time>
      </trkpt>
      <trkpt lat="58.04812" lon="-5.28172">
        <ele>71.03</ele>
        <time>2021-04-06T09:39:54Z</time>
      </trkpt>
      <trkpt lat="58.04818" lon="-5.28128">
        <ele>73.18</ele>
        <time>2021-04-06T09:39:58Z</time>
      </trkpt>
      <trkpt lat="58.04828" lon="-5.28052">
        <ele>76.15</ele>
        <time>2021-04-06T09:40:02Z</time>
      </trkpt>
      <trkpt lat="58.04848" lon="-5.27934">
        <ele>81.66</ele>
        <time>2021-04-06T09:40:05Z</time>
      </trkpt>
      <trkpt lat="58.04879" lon="-5.27806">
        <ele>87.53</ele>
        <time>2021-04-06T09:40:09Z</time>
      </trkpt>
      <trkpt lat="58.04939" lon="-5.27616">
        <ele>96.07</ele>
        <time>2021-04-06T09:40:13Z</time>
      </trkpt>
      <trkpt lat="58.04954" lon="-5.27562">
        <ele>98.37</ele>
        <time>2021-04-06T09:40:17Z</time>
      </trkpt>
      <trkpt lat="58.04963" lon="-5.27506">
        <ele>99.78</ele>
        <time>2021-04-06T09:40:21Z</time>
      </trkpt>
      <trkpt lat="58.04986" lon="-5.27323">
        <ele>105.01</ele>
        <time>2021-04-06T09:40:24Z</time>
      </trkpt>
      <trkpt lat="58.05008" lon="-5.27084">
        <ele>111.83</ele>
        <time>2021-04-06T09:40:28Z</time>
      </trkpt>
      <trkpt lat="58.05026" lon="-5.26922">
        <ele>117.75</ele>
        <time>2021-04-06T09:40:32Z</time>
      </trkpt>
      <trkpt lat="58.05048" lon="-5.26795">
        <ele>124.28</ele>
        <time>2021-04-06T09:40:36Z</time>
      </trkpt>
      <trkpt lat="58.05083" lon="-5.26682">
        <ele>127.96</ele>
        <time>2021-04-06T09:40:39Z</time>
      </trkpt>
      <trkpt lat="58.05118" lon="-5.26632">
        <ele>130.23</ele>
        <time>2021-04-06T09:40:43Z</time>
      </trkpt>
      <trkpt lat="58.05159" lon="-5.26595">
        <ele>131.71</ele>
        <time>2021-04-06T09:40:47Z</time>
      </trkpt>
      <trkpt lat="58.05238" lon="-5.26546">
        <ele>130.43</ele>
        <time>2021-04-06T09:40:51Z</time>
      </trkpt>
      <trkpt lat="58.05293" lon="-5.26507">
        <ele>126.65</ele>
        <time>2021-04-06T09:40:55Z</time>
      </trkpt>
      <trkpt lat="58.05307" lon="-5.2648">
        <ele>124.83</ele>
        <time>2021-04-06T09:40:58Z</time>
      </trkpt>
      <trkpt lat="58.05315" lon="-5.26445">
        <ele>123.23</ele>
        <time>2021-04-06T09:41:02Z</time>
      </trkpt>
      <trkpt lat="58.05322" lon="-5.26365">
        <ele>120.52</ele>
        <time>2021-04-06T09:41:06Z</time>
      </trkpt>
      <trkpt lat="58.05329" lon="-5.26342">
        <ele>119.33</ele>
        <time>2021-04-06T09:41:10Z</time>
      </trkpt>
      <trkpt lat="58.05329" lon="-5.26342">
        <ele>119.33</ele>
        <time>2021-04-06T09:41:10Z</time>
      </trkpt>
      <trkpt lat="58.05335" lon="-5.26339">
        <ele>116.88</ele>
        <time>2021-04-06T09:41:12Z</time>
      </trkpt>
      <trkpt lat="58.05341" lon="-5.26348">
        <ele>116.22</ele>
        <time>2021-04-06T09:41:14Z</time>
      </trkpt>
      <trkpt lat="58.05354" lon="-5.26397">
        <ele>114.49</ele>
        <time>2021-04-06T09:41:17Z</time>
      </trkpt>
      <trkpt lat="58.05369" lon="-5.26426">
        <ele>112.93</ele>
        <time>2021-04-06T09:41:19Z</time>
      </trkpt>
      <trkpt lat="58.05415" lon="-5.26457">
        <ele>108.13</ele>
        <time>2021-04-06T09:41:21Z</time>
      </trkpt>
      <trkpt lat="58.05469" lon="-5.26505">
        <ele>104.42</ele>
        <time>2021-04-06T09:41:24Z</time>
      </trkpt>
      <trkpt lat="58.05513" lon="-5.26586">
        <ele>101.12</ele>
        <time>2021-04-06T09:41:26Z</time>
      </trkpt>
      <trkpt lat="58.05534" lon="-5.26616">
        <ele>99.14</ele>
        <time>2021-04-06T09:41:28Z</time>
      </trkpt>
      <trkpt lat="58.05565" lon="-5.26629">
        <ele>99</ele>
        <time>2021-04-06T09:41:30Z</time>
      </trkpt>
      <trkpt lat="58.05601" lon="-5.26609">
        <ele>98.85</ele>
        <time>2021-04-06T09:41:33Z</time>
      </trkpt>
      <trkpt lat="58.05639" lon="-5.26573">
        <ele>94.91</ele>
        <time>2021-04-06T09:41:35Z</time>
      </trkpt>
      <trkpt lat="58.05662" lon="-5.26558">
        <ele>90.68</ele>
        <time>2021-04-06T09:41:37Z</time>
      </trkpt>
      <trkpt lat="58.05682" lon="-5.26563">
        <ele>88.87</ele>
        <time>2021-04-06T09:41:40Z</time>
      </trkpt>
      <trkpt lat="58.05707" lon="-5.26591">
        <ele>89.83</ele>
        <time>2021-04-06T09:41:42Z</time>
      </trkpt>
      <trkpt lat="58.05729" lon="-5.2659">
        <ele>85.58</ele>
        <time>2021-04-06T09:41:44Z</time>
      </trkpt>
      <trkpt lat="58.05741" lon="-5.26596">
        <ele>84.13</ele>
        <time>2021-04-06T09:41:47Z</time>
      </trkpt>
      <trkpt lat="58.05757" lon="-5.26621">
        <ele>83.54</ele>
        <time>2021-04-06T09:41:49Z</time>
      </trkpt>
      <trkpt lat="58.0577" lon="-5.26656">
        <ele>83.91</ele>
        <time>2021-04-06T09:41:51Z</time>
      </trkpt>
      <trkpt lat="58.05793" lon="-5.26683">
        <ele>82.26</ele>
        <time>2021-04-06T09:41:54Z</time>
      </trkpt>
      <trkpt lat="58.05817" lon="-5.26689">
        <ele>80.16</ele>
        <time>2021-04-06T09:41:56Z</time>
      </trkpt>
      <trkpt lat="58.05855" lon="-5.26675">
        <ele>77.85</ele>
        <time>2021-04-06T09:41:58Z</time>
      </trkpt>
      <trkpt lat="58.05891" lon="-5.26656">
        <ele>76.55</ele>
        <time>2021-04-06T09:42:01Z</time>
      </trkpt>
      <trkpt lat="58.05929" lon="-5.26672">
        <ele>75.94</ele>
        <time>2021-04-06T09:42:03Z</time>
      </trkpt>
      <trkpt lat="58.05952" lon="-5.2669">
        <ele>75.57</ele>
        <time>2021-04-06T09:42:05Z</time>
      </trkpt>
      <trkpt lat="58.06001" lon="-5.26761">
        <ele>68.94</ele>
        <time>2021-04-06T09:42:07Z</time>
      </trkpt>
      <trkpt lat="58.06025" lon="-5.26776">
        <ele>67.19</ele>
        <time>2021-04-06T09:42:10Z</time>
      </trkpt>
      <trkpt lat="58.06057" lon="-5.26763">
        <ele>65.32</ele>
        <time>2021-04-06T09:42:12Z</time>
      </trkpt>
      <trkpt lat="58.06089" lon="-5.26767">
        <ele>62.4</ele>
        <time>2021-04-06T09:42:14Z</time>
      </trkpt>
      <trkpt lat="58.06118" lon="-5.26785">
        <ele>59.23</ele>
        <time>2021-04-06T09:42:17Z</time>
      </trkpt>
      <trkpt lat="58.06142" lon="-5.26813">
        <ele>56.78</ele>
        <time>2021-04-06T09:42:19Z</time>
      </trkpt>
      <trkpt lat="58.06197" lon="-5.26846">
        <ele>53.27</ele>
        <time>2021-04-06T09:42:21Z</time>
      </trkpt>
      <trkpt lat="58.06234" lon="-5.26837">
        <ele>50.32</ele>
        <time>2021-04-06T09:42:24Z</time>
      </trkpt>
      <trkpt lat="58.06263" lon="-5.26813">
        <ele>48.51</ele>
        <time>2021-04-06T09:42:26Z</time>
      </trkpt>
      <trkpt lat="58.06294" lon="-5.26759">
        <ele>49.58</ele>
        <time>2021-04-06T09:42:28Z</time>
      </trkpt>
      <trkpt lat="58.06324" lon="-5.26628">
        <ele>48.56</ele>
        <time>2021-04-06T09:42:31Z</time>
      </trkpt>
      <trkpt lat="58.06344" lon="-5.26578">
        <ele>44.78</ele>
        <time>2021-04-06T09:42:33Z</time>
      </trkpt>
      <trkpt lat="58.06372" lon="-5.26541">
        <ele>40.42</ele>
        <time>2021-04-06T09:42:35Z</time>
      </trkpt>
      <trkpt lat="58.06428" lon="-5.26517">
        <ele>34.04</ele>
        <time>2021-04-06T09:42:37Z</time>
      </trkpt>
      <trkpt lat="58.06468" lon="-5.26529">
        <ele>29.15</ele>
        <time>2021-04-06T09:42:40Z</time>
      </trkpt>
      <trkpt lat="58.06495" lon="-5.26546">
        <ele>25.55</ele>
        <time>2021-04-06T09:42:42Z</time>
      </trkpt>
      <trkpt lat="58.06516" lon="-5.26572">
        <ele>23.42</ele>
        <time>2021-04-06T09:42:44Z</time>
      </trkpt>
      <trkpt lat="58.06594" lon="-5.26714">
        <ele>14.52</ele>
        <time>2021-04-06T09:42:47Z</time>
      </trkpt>
      <trkpt lat="58.06615" lon="-5.26747">
        <ele>13.36</ele>
        <time>2021-04-06T09:42:49Z</time>
      </trkpt>
      <trkpt lat="58.06644" lon="-5.2677">
        <ele>10.66</ele>
        <time>2021-04-06T09:42:51Z</time>
      </trkpt>
      <trkpt lat="58.06664" lon="-5.2677">
        <ele>9.94</ele>
        <time>2021-04-06T09:42:54Z</time>
      </trkpt>
      <trkpt lat="58.06664" lon="-5.2677">
        <ele>9.94</ele>
        <time>2021-04-06T09:42:54Z</time>
      </trkpt>
      <trkpt lat="58.06709" lon="-5.26725">
        <ele>9.89</ele>
        <time>2021-04-06T09:42:56Z</time>
      </trkpt>
      <trkpt lat="58.06731" lon="-5.26693">
        <ele>9.96</ele>
        <time>2021-04-06T09:42:59Z</time>
      </trkpt>
      <trkpt lat="58.06769" lon="-5.26626">
        <ele>9</ele>
        <time>2021-04-06T09:43:02Z</time>
      </trkpt>
      <trkpt lat="58.06808" lon="-5.26601">
        <ele>10.13</ele>
        <time>2021-04-06T09:43:04Z</time>
      </trkpt>
      <trkpt lat="58.06815" lon="-5.26588">
        <ele>10.59</ele>
        <time>2021-04-06T09:43:07Z</time>
      </trkpt>
      <trkpt lat="58.06825" lon="-5.26552">
        <ele>12.55</ele>
        <time>2021-04-06T09:43:10Z</time>
      </trkpt>
      <trkpt lat="58.06837" lon="-5.26447">
        <ele>17.19</ele>
        <time>2021-04-06T09:43:12Z</time>
      </trkpt>
      <trkpt lat="58.06838" lon="-5.26379">
        <ele>21.09</ele>
        <time>2021-04-06T09:43:15Z</time>
      </trkpt>
      <trkpt lat="58.06834" lon="-5.26327">
        <ele>24.8</ele>
        <time>2021-04-06T09:43:17Z</time>
      </trkpt>
      <trkpt lat="58.06815" lon="-5.26258">
        <ele>29.6</ele>
        <time>2021-04-06T09:43:20Z</time>
      </trkpt>
      <trkpt lat="58.06808" lon="-5.26148">
        <ele>31.47</ele>
        <time>2021-04-06T09:43:23Z</time>
      </trkpt>
      <trkpt lat="58.06814" lon="-5.26032">
        <ele>37.25</ele>
        <time>2021-04-06T09:43:25Z</time>
      </trkpt>
      <trkpt lat="58.0683" lon="-5.25886">
        <ele>47.49</ele>
        <time>2021-04-06T09:43:28Z</time>
      </trkpt>
      <trkpt lat="58.06848" lon="-5.25747">
        <ele>53.42</ele>
        <time>2021-04-06T09:43:31Z</time>
      </trkpt>
      <trkpt lat="58.06859" lon="-5.25688">
        <ele>50.12</ele>
        <time>2021-04-06T09:43:33Z</time>
      </trkpt>
      <trkpt lat="58.06872" lon="-5.25643">
        <ele>50.31</ele>
        <time>2021-04-06T09:43:36Z</time>
      </trkpt>
      <trkpt lat="58.06904" lon="-5.256">
        <ele>52.88</ele>
        <time>2021-04-06T09:43:39Z</time>
      </trkpt>
      <trkpt lat="58.06947" lon="-5.25553">
        <ele>58.81</ele>
        <time>2021-04-06T09:43:41Z</time>
      </trkpt>
      <trkpt lat="58.06991" lon="-5.25447">
        <ele>63.49</ele>
        <time>2021-04-06T09:43:44Z</time>
      </trkpt>
      <trkpt lat="58.07007" lon="-5.2538">
        <ele>64.16</ele>
        <time>2021-04-06T09:43:47Z</time>
      </trkpt>
      <trkpt lat="58.07045" lon="-5.25309">
        <ele>71.56</ele>
        <time>2021-04-06T09:43:49Z</time>
      </trkpt>
      <trkpt lat="58.07064" lon="-5.25237">
        <ele>74.85</ele>
        <time>2021-04-06T09:43:52Z</time>
      </trkpt>
      <trkpt lat="58.07078" lon="-5.25199">
        <ele>76.67</ele>
        <time>2021-04-06T09:43:55Z</time>
      </trkpt>
      <trkpt lat="58.07152" lon="-5.25108">
        <ele>82.02</ele>
        <time>2021-04-06T09:43:57Z</time>
      </trkpt>
      <trkpt lat="58.07191" lon="-5.25083">
        <ele>86.54</ele>
        <time>2021-04-06T09:44:00Z</time>
      </trkpt>
      <trkpt lat="58.0736" lon="-5.24905">
        <ele>98.49</ele>
        <time>2021-04-06T09:44:02Z</time>
      </trkpt>
      <trkpt lat="58.074" lon="-5.2488">
        <ele>98.59</ele>
        <time>2021-04-06T09:44:05Z</time>
      </trkpt>
      <trkpt lat="58.07438" lon="-5.24874">
        <ele>98.65</ele>
        <time>2021-04-06T09:44:08Z</time>
      </trkpt>
      <trkpt lat="58.07472" lon="-5.24879">
        <ele>99</ele>
        <time>2021-04-06T09:44:10Z</time>
      </trkpt>
      <trkpt lat="58.07495" lon="-5.24876">
        <ele>99.81</ele>
        <time>2021-04-06T09:44:13Z</time>
      </trkpt>
      <trkpt lat="58.07529" lon="-5.24847">
        <ele>99.01</ele>
        <time>2021-04-06T09:44:16Z</time>
      </trkpt>
      <trkpt lat="58.07562" lon="-5.2484">
        <ele>98</ele>
        <time>2021-04-06T09:44:18Z</time>
      </trkpt>
      <trkpt lat="58.07598" lon="-5.24853">
        <ele>98.41</ele>
        <time>2021-04-06T09:44:21Z</time>
      </trkpt>
      <trkpt lat="58.07621" lon="-5.24853">
        <ele>96.28</ele>
        <time>2021-04-06T09:44:24Z</time>
      </trkpt>
      <trkpt lat="58.07642" lon="-5.24833">
        <ele>93.87</ele>
        <time>2021-04-06T09:44:26Z</time>
      </trkpt>
      <trkpt lat="58.07658" lon="-5.24794">
        <ele>93.17</ele>
        <time>2021-04-06T09:44:29Z</time>
      </trkpt>
      <trkpt lat="58.07666" lon="-5.24767">
        <ele>93.01</ele>
        <time>2021-04-06T09:44:32Z</time>
      </trkpt>
      <trkpt lat="58.07715" lon="-5.24688">
        <ele>93.57</ele>
        <time>2021-04-06T09:44:34Z</time>
      </trkpt>
      <trkpt lat="58.07742" lon="-5.24663">
        <ele>92.8</ele>
        <time>2021-04-06T09:44:37Z</time>
      </trkpt>
      <trkpt lat="58.07786" lon="-5.24634">
        <ele>91.56</ele>
        <time>2021-04-06T09:44:40Z</time>
      </trkpt>
      <trkpt lat="58.07847" lon="-5.24589">
        <ele>91.4</ele>
        <time>2021-04-06T09:44:42Z</time>
      </trkpt>
      <trkpt lat="58.0787" lon="-5.24541">
        <ele>90.68</ele>
        <time>2021-04-06T09:44:45Z</time>
      </trkpt>
      <trkpt lat="58.07879" lon="-5.24504">
        <ele>89.78</ele>
        <time>2021-04-06T09:44:47Z</time>
      </trkpt>
      <trkpt lat="58.07891" lon="-5.24385">
        <ele>89.93</ele>
        <time>2021-04-06T09:44:50Z</time>
      </trkpt>
      <trkpt lat="58.07909" lon="-5.24287">
        <ele>91.69</ele>
        <time>2021-04-06T09:44:53Z</time>
      </trkpt>
      <trkpt lat="58.07923" lon="-5.24258">
        <ele>92.48</ele>
        <time>2021-04-06T09:44:55Z</time>
      </trkpt>
      <trkpt lat="58.07964" lon="-5.24232">
        <ele>91.46</ele>
        <time>2021-04-06T09:44:58Z</time>
      </trkpt>
      <trkpt lat="58.07968" lon="-5.24218">
        <ele>91.54</ele>
        <time>2021-04-06T09:45:01Z</time>
      </trkpt>
      <trkpt lat="58.07971" lon="-5.24147">
        <ele>95.44</ele>
        <time>2021-04-06T09:45:03Z</time>
      </trkpt>
      <trkpt lat="58.07977" lon="-5.24125">
        <ele>97.25</ele>
        <time>2021-04-06T09:45:06Z</time>
      </trkpt>
      <trkpt lat="58.07987" lon="-5.2412">
        <ele>98.25</ele>
        <time>2021-04-06T09:45:09Z</time>
      </trkpt>
      <trkpt lat="58.08008" lon="-5.24134">
        <ele>98.08</ele>
        <time>2021-04-06T09:45:11Z</time>
      </trkpt>
      <trkpt lat="58.08027" lon="-5.24132">
        <ele>99.66</ele>
        <time>2021-04-06T09:45:14Z</time>
      </trkpt>
      <trkpt lat="58.08054" lon="-5.24102">
        <ele>104.56</ele>
        <time>2021-04-06T09:45:17Z</time>
      </trkpt>
      <trkpt lat="58.08068" lon="-5.2407">
        <ele>108.08</ele>
        <time>2021-04-06T09:45:19Z</time>
      </trkpt>
      <trkpt lat="58.08134" lon="-5.23842">
        <ele>106.89</ele>
        <time>2021-04-06T09:45:22Z</time>
      </trkpt>
      <trkpt lat="58.08176" lon="-5.23764">
        <ele>103.51</ele>
        <time>2021-04-06T09:45:25Z</time>
      </trkpt>
      <trkpt lat="58.08221" lon="-5.23708">
        <ele>101.84</ele>
        <time>2021-04-06T09:45:27Z</time>
      </trkpt>
      <trkpt lat="58.08251" lon="-5.23684">
        <ele>100.86</ele>
        <time>2021-04-06T09:45:30Z</time>
      </trkpt>
      <trkpt lat="58.08297" lon="-5.2368">
        <ele>105.16</ele>
        <time>2021-04-06T09:45:32Z</time>
      </trkpt>
      <trkpt lat="58.0832" lon="-5.23675">
        <ele>107.33</ele>
        <time>2021-04-06T09:45:35Z</time>
      </trkpt>
      <trkpt lat="58.08354" lon="-5.23659">
        <ele>108.93</ele>
        <time>2021-04-06T09:45:38Z</time>
      </trkpt>
      <trkpt lat="58.084" lon="-5.23645">
        <ele>109.31</ele>
        <time>2021-04-06T09:45:40Z</time>
      </trkpt>
      <trkpt lat="58.08427" lon="-5.23615">
        <ele>105.07</ele>
        <time>2021-04-06T09:45:43Z</time>
      </trkpt>
      <trkpt lat="58.08467" lon="-5.23579">
        <ele>102.34</ele>
        <time>2021-04-06T09:45:46Z</time>
      </trkpt>
      <trkpt lat="58.0851" lon="-5.23535">
        <ele>99.63</ele>
        <time>2021-04-06T09:45:48Z</time>
      </trkpt>
      <trkpt lat="58.08542" lon="-5.23511">
        <ele>96.44</ele>
        <time>2021-04-06T09:45:51Z</time>
      </trkpt>
      <trkpt lat="58.08558" lon="-5.23512">
        <ele>95.62</ele>
        <time>2021-04-06T09:45:54Z</time>
      </trkpt>
      <trkpt lat="58.08593" lon="-5.23535">
        <ele>96.97</ele>
        <time>2021-04-06T09:45:56Z</time>
      </trkpt>
      <trkpt lat="58.08618" lon="-5.23532">
        <ele>97.85</ele>
        <time>2021-04-06T09:45:59Z</time>
      </trkpt>
      <trkpt lat="58.0863" lon="-5.2351">
        <ele>96.47</ele>
        <time>2021-04-06T09:46:02Z</time>
      </trkpt>
      <trkpt lat="58.08658" lon="-5.23419">
        <ele>91.11</ele>
        <time>2021-04-06T09:46:04Z</time>
      </trkpt>
      <trkpt lat="58.08702" lon="-5.23343">
        <ele>90.47</ele>
        <time>2021-04-06T09:46:07Z</time>
      </trkpt>
      <trkpt lat="58.08724" lon="-5.23316">
        <ele>90.19</ele>
        <time>2021-04-06T09:46:10Z</time>
      </trkpt>
      <trkpt lat="58.08766" lon="-5.23292">
        <ele>88.06</ele>
        <time>2021-04-06T09:46:12Z</time>
      </trkpt>
      <trkpt lat="58.08785" lon="-5.23287">
        <ele>86.83</ele>
        <time>2021-04-06T09:46:15Z</time>
      </trkpt>
      <trkpt lat="58.08805" lon="-5.23295">
        <ele>86.6</ele>
        <time>2021-04-06T09:46:17Z</time>
      </trkpt>
      <trkpt lat="58.08821" lon="-5.23318">
        <ele>88.51</ele>
        <time>2021-04-06T09:46:20Z</time>
      </trkpt>
      <trkpt lat="58.08833" lon="-5.23321">
        <ele>88.18</ele>
        <time>2021-04-06T09:46:23Z</time>
      </trkpt>
      <trkpt lat="58.0884" lon="-5.23312">
        <ele>88.55</ele>
        <time>2021-04-06T09:46:25Z</time>
      </trkpt>
      <trkpt lat="58.0885" lon="-5.23247">
        <ele>86.07</ele>
        <time>2021-04-06T09:46:28Z</time>
      </trkpt>
      <trkpt lat="58.08866" lon="-5.23208">
        <ele>84.57</ele>
        <time>2021-04-06T09:46:31Z</time>
      </trkpt>
      <trkpt lat="58.08894" lon="-5.23173">
        <ele>84.29</ele>
        <time>2021-04-06T09:46:33Z</time>
      </trkpt>
      <trkpt lat="58.08894" lon="-5.23173">
        <ele>84.29</ele>
        <time>2021-04-06T09:46:33Z</time>
      </trkpt>
      <trkpt lat="58.08958" lon="-5.23182">
        <ele>87.66</ele>
        <time>2021-04-06T09:46:36Z</time>
      </trkpt>
      <trkpt lat="58.09006" lon="-5.23202">
        <ele>87.14</ele>
        <time>2021-04-06T09:46:38Z</time>
      </trkpt>
      <trkpt lat="58.0903" lon="-5.23228">
        <ele>87.07</ele>
        <time>2021-04-06T09:46:41Z</time>
      </trkpt>
      <trkpt lat="58.09052" lon="-5.23288">
        <ele>87.65</ele>
        <time>2021-04-06T09:46:43Z</time>
      </trkpt>
      <trkpt lat="58.0909" lon="-5.23348">
        <ele>83.8</ele>
        <time>2021-04-06T09:46:45Z</time>
      </trkpt>
      <trkpt lat="58.09116" lon="-5.23374">
        <ele>81.18</ele>
        <time>2021-04-06T09:46:48Z</time>
      </trkpt>
      <trkpt lat="58.09134" lon="-5.23405">
        <ele>81.88</ele>
        <time>2021-04-06T09:46:50Z</time>
      </trkpt>
      <trkpt lat="58.09147" lon="-5.23418">
        <ele>82.22</ele>
        <time>2021-04-06T09:46:53Z</time>
      </trkpt>
      <trkpt lat="58.09164" lon="-5.23424">
        <ele>81.18</ele>
        <time>2021-04-06T09:46:55Z</time>
      </trkpt>
      <trkpt lat="58.09183" lon="-5.2342">
        <ele>80.95</ele>
        <time>2021-04-06T09:46:57Z</time>
      </trkpt>
      <trkpt lat="58.09209" lon="-5.23382">
        <ele>79.43</ele>
        <time>2021-04-06T09:47:00Z</time>
      </trkpt>
      <trkpt lat="58.09241" lon="-5.23322">
        <ele>75.96</ele>
        <time>2021-04-06T09:47:02Z</time>
      </trkpt>
      <trkpt lat="58.09311" lon="-5.23243">
        <ele>74.79</ele>
        <time>2021-04-06T09:47:04Z</time>
      </trkpt>
      <trkpt lat="58.09399" lon="-5.23191">
        <ele>73.27</ele>
        <time>2021-04-06T09:47:07Z</time>
      </trkpt>
      <trkpt lat="58.09466" lon="-5.23141">
        <ele>64.77</ele>
        <time>2021-04-06T09:47:09Z</time>
      </trkpt>
      <trkpt lat="58.09492" lon="-5.23142">
        <ele>61.48</ele>
        <time>2021-04-06T09:47:12Z</time>
      </trkpt>
      <trkpt lat="58.09519" lon="-5.23151">
        <ele>60.31</ele>
        <time>2021-04-06T09:47:14Z</time>
      </trkpt>
      <trkpt lat="58.09548" lon="-5.23155">
        <ele>58.68</ele>
        <time>2021-04-06T09:47:16Z</time>
      </trkpt>
      <trkpt lat="58.09566" lon="-5.23162">
        <ele>57.53</ele>
        <time>2021-04-06T09:47:19Z</time>
      </trkpt>
      <trkpt lat="58.09609" lon="-5.2321">
        <ele>52.13</ele>
        <time>2021-04-06T09:47:21Z</time>
      </trkpt>
      <trkpt lat="58.09629" lon="-5.23245">
        <ele>48.61</ele>
        <time>2021-04-06T09:47:24Z</time>
      </trkpt>
      <trkpt lat="58.09637" lon="-5.23271">
        <ele>46.68</ele>
        <time>2021-04-06T09:47:26Z</time>
      </trkpt>
      <trkpt lat="58.0964" lon="-5.23321">
        <ele>46.7</ele>
        <time>2021-04-06T09:47:28Z</time>
      </trkpt>
      <trkpt lat="58.09647" lon="-5.23361">
        <ele>44.83</ele>
        <time>2021-04-06T09:47:31Z</time>
      </trkpt>
      <trkpt lat="58.09671" lon="-5.23393">
        <ele>41.85</ele>
        <time>2021-04-06T09:47:33Z</time>
      </trkpt>
      <trkpt lat="58.09675" lon="-5.23414">
        <ele>41.11</ele>
        <time>2021-04-06T09:47:36Z</time>
      </trkpt>
      <trkpt lat="58.09675" lon="-5.23438">
        <ele>41</ele>
        <time>2021-04-06T09:47:38Z</time>
      </trkpt>
      <trkpt lat="58.09648" lon="-5.23554">
        <ele>36.7</ele>
        <time>2021-04-06T09:47:40Z</time>
      </trkpt>
      <trkpt lat="58.09618" lon="-5.23653">
        <ele>37.96</ele>
        <time>2021-04-06T09:47:43Z</time>
      </trkpt>
      <trkpt lat="58.0957" lon="-5.23793">
        <ele>34.7</ele>
        <time>2021-04-06T09:47:45Z</time>
      </trkpt>
      <trkpt lat="58.09507" lon="-5.23966">
        <ele>32.46</ele>
        <time>2021-04-06T09:47:48Z</time>
      </trkpt>
      <trkpt lat="58.09419" lon="-5.24137">
        <ele>32.01</ele>
        <time>2021-04-06T09:47:50Z</time>
      </trkpt>
      <trkpt lat="58.09396" lon="-5.24164">
        <ele>32.35</ele>
        <time>2021-04-06T09:47:52Z</time>
      </trkpt>
      <trkpt lat="58.09331" lon="-5.24198">
        <ele>31.03</ele>
        <time>2021-04-06T09:47:55Z</time>
      </trkpt>
      <trkpt lat="58.09313" lon="-5.24246">
        <ele>31.66</ele>
        <time>2021-04-06T09:47:57Z</time>
      </trkpt>
      <trkpt lat="58.09305" lon="-5.24311">
        <ele>32.89</ele>
        <time>2021-04-06T09:47:59Z</time>
      </trkpt>
      <trkpt lat="58.09301" lon="-5.24378">
        <ele>32.49</ele>
        <time>2021-04-06T09:48:02Z</time>
      </trkpt>
      <trkpt lat="58.09294" lon="-5.2443">
        <ele>31.5</ele>
        <time>2021-04-06T09:48:04Z</time>
      </trkpt>
      <trkpt lat="58.09295" lon="-5.24455">
        <ele>32.21</ele>
        <time>2021-04-06T09:48:07Z</time>
      </trkpt>
      <trkpt lat="58.09383" lon="-5.24627">
        <ele>25.78</ele>
        <time>2021-04-06T09:48:09Z</time>
      </trkpt>
      <trkpt lat="58.09437" lon="-5.24705">
        <ele>21.37</ele>
        <time>2021-04-06T09:48:11Z</time>
      </trkpt>
      <trkpt lat="58.09575" lon="-5.2505">
        <ele>20.36</ele>
        <time>2021-04-06T09:48:14Z</time>
      </trkpt>
      <trkpt lat="58.09603" lon="-5.2515">
        <ele>21.42</ele>
        <time>2021-04-06T09:48:16Z</time>
      </trkpt>
      <trkpt lat="58.09636" lon="-5.25247">
        <ele>21.09</ele>
        <time>2021-04-06T09:48:19Z</time>
      </trkpt>
      <trkpt lat="58.0965" lon="-5.25311">
        <ele>23.19</ele>
        <time>2021-04-06T09:48:21Z</time>
      </trkpt>
      <trkpt lat="58.09659" lon="-5.25392">
        <ele>24.92</ele>
        <time>2021-04-06T09:48:23Z</time>
      </trkpt>
      <trkpt lat="58.09663" lon="-5.25418">
        <ele>24.19</ele>
        <time>2021-04-06T09:48:26Z</time>
      </trkpt>
      <trkpt lat="58.09669" lon="-5.25438">
        <ele>23.12</ele>
        <time>2021-04-06T09:48:28Z</time>
      </trkpt>
      <trkpt lat="58.09713" lon="-5.25498">
        <ele>22.21</ele>
        <time>2021-04-06T09:48:31Z</time>
      </trkpt>
      <trkpt lat="58.09756" lon="-5.25569">
        <ele>17.47</ele>
        <time>2021-04-06T09:48:33Z</time>
      </trkpt>
      <trkpt lat="58.09787" lon="-5.25615">
        <ele>13.75</ele>
        <time>2021-04-06T09:48:35Z</time>
      </trkpt>
      <trkpt lat="58.09851" lon="-5.25781">
        <ele>14.78</ele>
        <time>2021-04-06T09:48:38Z</time>
      </trkpt>
      <trkpt lat="58.09869" lon="-5.25838">
        <ele>15.46</ele>
        <time>2021-04-06T09:48:40Z</time>
      </trkpt>
      <trkpt lat="58.09888" lon="-5.25946">
        <ele>13.96</ele>
        <time>2021-04-06T09:48:43Z</time>
      </trkpt>
      <trkpt lat="58.09916" lon="-5.26048">
        <ele>14.32</ele>
        <time>2021-04-06T09:48:45Z</time>
      </trkpt>
      <trkpt lat="58.09979" lon="-5.26153">
        <ele>17.19</ele>
        <time>2021-04-06T09:48:47Z</time>
      </trkpt>
      <trkpt lat="58.09988" lon="-5.26195">
        <ele>19.76</ele>
        <time>2021-04-06T09:48:50Z</time>
      </trkpt>
      <trkpt lat="58.09983" lon="-5.2623">
        <ele>18.67</ele>
        <time>2021-04-06T09:48:52Z</time>
      </trkpt>
      <trkpt lat="58.09983" lon="-5.26251">
        <ele>18.16</ele>
        <time>2021-04-06T09:48:54Z</time>
      </trkpt>
      <trkpt lat="58.10011" lon="-5.26318">
        <ele>18.49</ele>
        <time>2021-04-06T09:48:57Z</time>
      </trkpt>
      <trkpt lat="58.10018" lon="-5.26365">
        <ele>17.21</ele>
        <time>2021-04-06T09:48:59Z</time>
      </trkpt>
      <trkpt lat="58.10019" lon="-5.26413">
        <ele>16.63</ele>
        <time>2021-04-06T09:49:02Z</time>
      </trkpt>
      <trkpt lat="58.10066" lon="-5.26532">
        <ele>13.28</ele>
        <time>2021-04-06T09:49:04Z</time>
      </trkpt>
      <trkpt lat="58.10087" lon="-5.26564">
        <ele>12.5</ele>
        <time>2021-04-06T09:49:06Z</time>
      </trkpt>
      <trkpt lat="58.10146" lon="-5.26645">
        <ele>11.2</ele>
        <time>2021-04-06T09:49:09Z</time>
      </trkpt>
      <trkpt lat="58.10187" lon="-5.26662">
        <ele>13.22</ele>
        <time>2021-04-06T09:49:11Z</time>
      </trkpt>
      <trkpt lat="58.10198" lon="-5.26672">
        <ele>12.88</ele>
        <time>2021-04-06T09:49:14Z</time>
      </trkpt>
      <trkpt lat="58.10207" lon="-5.26699">
        <ele>10.7</ele>
        <time>2021-04-06T09:49:16Z</time>
      </trkpt>
      <trkpt lat="58.1024" lon="-5.26743">
        <ele>9.52</ele>
        <time>2021-04-06T09:49:18Z</time>
      </trkpt>
      <trkpt lat="58.10248" lon="-5.26752">
        <ele>9.33</ele>
        <time>2021-04-06T09:49:21Z</time>
      </trkpt>
      <trkpt lat="58.10274" lon="-5.26764">
        <ele>11.42</ele>
        <time>2021-04-06T09:49:23Z</time>
      </trkpt>
      <trkpt lat="58.10283" lon="-5.26788">
        <ele>9.88</ele>
        <time>2021-04-06T09:49:26Z</time>
      </trkpt>
      <trkpt lat="58.10289" lon="-5.26795">
        <ele>10.15</ele>
        <time>2021-04-06T09:49:28Z</time>
      </trkpt>
      <trkpt lat="58.10312" lon="-5.26809">
        <ele>13.28</ele>
        <time>2021-04-06T09:49:30Z</time>
      </trkpt>
      <trkpt lat="58.1032" lon="-5.2682">
        <ele>14.11</ele>
        <time>2021-04-06T09:49:33Z</time>
      </trkpt>
      <trkpt lat="58.10322" lon="-5.26829">
        <ele>13.72</ele>
        <time>2021-04-06T09:49:35Z</time>
      </trkpt>
      <trkpt lat="58.10322" lon="-5.26858">
        <ele>10.82</ele>
        <time>2021-04-06T09:49:38Z</time>
      </trkpt>
      <trkpt lat="58.10325" lon="-5.26872">
        <ele>10.27</ele>
        <time>2021-04-06T09:49:40Z</time>
      </trkpt>
      <trkpt lat="58.10335" lon="-5.269">
        <ele>9.04</ele>
        <time>2021-04-06T09:49:42Z</time>
      </trkpt>
      <trkpt lat="58.10342" lon="-5.26912">
        <ele>8.42</ele>
        <time>2021-04-06T09:49:45Z</time>
      </trkpt>
      <trkpt lat="58.10351" lon="-5.26918">
        <ele>8.71</ele>
        <time>2021-04-06T09:49:47Z</time>
      </trkpt>
      <trkpt lat="58.1038" lon="-5.26929">
        <ele>8.99</ele>
        <time>2021-04-06T09:49:50Z</time>
      </trkpt>
      <trkpt lat="58.10398" lon="-5.26925">
        <ele>9.46</ele>
        <time>2021-04-06T09:49:52Z</time>
      </trkpt>
      <trkpt lat="58.10421" lon="-5.26912">
        <ele>10.37</ele>
        <time>2021-04-06T09:49:54Z</time>
      </trkpt>
      <trkpt lat="58.10455" lon="-5.26876">
        <ele>11.75</ele>
        <time>2021-04-06T09:49:57Z</time>
      </trkpt>
      <trkpt lat="58.10479" lon="-5.26867">
        <ele>9.97</ele>
        <time>2021-04-06T09:49:59Z</time>
      </trkpt>
      <trkpt lat="58.10503" lon="-5.2687">
        <ele>7.36</ele>
        <time>2021-04-06T09:50:01Z</time>
      </trkpt>
      <trkpt lat="58.1052" lon="-5.26857">
        <ele>10.67</ele>
        <time>2021-04-06T09:50:04Z</time>
      </trkpt>
      <trkpt lat="58.10526" lon="-5.26857">
        <ele>11.31</ele>
        <time>2021-04-06T09:50:06Z</time>
      </trkpt>
      <trkpt lat="58.10537" lon="-5.26871">
        <ele>12.53</ele>
        <time>2021-04-06T09:50:09Z</time>
      </trkpt>
      <trkpt lat="58.10549" lon="-5.26905">
        <ele>12.63</ele>
        <time>2021-04-06T09:50:11Z</time>
      </trkpt>
      <trkpt lat="58.10554" lon="-5.26931">
        <ele>11.15</ele>
        <time>2021-04-06T09:50:13Z</time>
      </trkpt>
      <trkpt lat="58.10559" lon="-5.26994">
        <ele>7.93</ele>
        <time>2021-04-06T09:50:16Z</time>
      </trkpt>
      <trkpt lat="58.10566" lon="-5.27013">
        <ele>8.01</ele>
        <time>2021-04-06T09:50:18Z</time>
      </trkpt>
      <trkpt lat="58.10576" lon="-5.27024">
        <ele>8.48</ele>
        <time>2021-04-06T09:50:21Z</time>
      </trkpt>
      <trkpt lat="58.10607" lon="-5.27019">
        <ele>12.8</ele>
        <time>2021-04-06T09:50:23Z</time>
      </trkpt>
      <trkpt lat="58.10614" lon="-5.27029">
        <ele>12.54</ele>
        <time>2021-04-06T09:50:25Z</time>
      </trkpt>
      <trkpt lat="58.10632" lon="-5.27068">
        <ele>11.22</ele>
        <time>2021-04-06T09:50:28Z</time>
      </trkpt>
      <trkpt lat="58.10648" lon="-5.27095">
        <ele>12.38</ele>
        <time>2021-04-06T09:50:30Z</time>
      </trkpt>
      <trkpt lat="58.10684" lon="-5.27121">
        <ele>17.99</ele>
        <time>2021-04-06T09:50:33Z</time>
      </trkpt>
      <trkpt lat="58.10703" lon="-5.27131">
        <ele>20.84</ele>
        <time>2021-04-06T09:50:35Z</time>
      </trkpt>
      <trkpt lat="58.10712" lon="-5.27145">
        <ele>20.28</ele>
        <time>2021-04-06T09:50:37Z</time>
      </trkpt>
      <trkpt lat="58.10733" lon="-5.27189">
        <ele>17.09</ele>
        <time>2021-04-06T09:50:40Z</time>
      </trkpt>
      <trkpt lat="58.10738" lon="-5.27217">
        <ele>14.9</ele>
        <time>2021-04-06T09:50:42Z</time>
      </trkpt>
      <trkpt lat="58.10742" lon="-5.27283">
        <ele>16.04</ele>
        <time>2021-04-06T09:50:45Z</time>
      </trkpt>
      <trkpt lat="58.10726" lon="-5.27347">
        <ele>14.21</ele>
        <time>2021-04-06T09:50:47Z</time>
      </trkpt>
      <trkpt lat="58.10728" lon="-5.27367">
        <ele>13.79</ele>
        <time>2021-04-06T09:50:49Z</time>
      </trkpt>
      <trkpt lat="58.10744" lon="-5.27446">
        <ele>11.03</ele>
        <time>2021-04-06T09:50:52Z</time>
      </trkpt>
      <trkpt lat="58.10752" lon="-5.27465">
        <ele>10.1</ele>
        <time>2021-04-06T09:50:54Z</time>
      </trkpt>
      <trkpt lat="58.1076" lon="-5.27478">
        <ele>9.52</ele>
        <time>2021-04-06T09:50:56Z</time>
      </trkpt>
      <trkpt lat="58.10771" lon="-5.27483">
        <ele>9.9</ele>
        <time>2021-04-06T09:50:59Z</time>
      </trkpt>
      <trkpt lat="58.10788" lon="-5.27485">
        <ele>10.13</ele>
        <time>2021-04-06T09:51:01Z</time>
      </trkpt>
      <trkpt lat="58.10788" lon="-5.27485">
        <ele>10.13</ele>
        <time>2021-04-06T09:51:01Z</time>
      </trkpt>
      <trkpt lat="58.10825" lon="-5.27475">
        <ele>11.82</ele>
        <time>2021-04-06T09:51:05Z</time>
      </trkpt>
      <trkpt lat="58.10863" lon="-5.2746">
        <ele>11.73</ele>
        <time>2021-04-06T09:51:08Z</time>
      </trkpt>
      <trkpt lat="58.10871" lon="-5.27452">
        <ele>12.22</ele>
        <time>2021-04-06T09:51:11Z</time>
      </trkpt>
      <trkpt lat="58.10945" lon="-5.27341">
        <ele>16.13</ele>
        <time>2021-04-06T09:51:14Z</time>
      </trkpt>
      <trkpt lat="58.1096" lon="-5.27278">
        <ele>18.25</ele>
        <time>2021-04-06T09:51:18Z</time>
      </trkpt>
      <trkpt lat="58.11018" lon="-5.27197">
        <ele>26.52</ele>
        <time>2021-04-06T09:51:21Z</time>
      </trkpt>
      <trkpt lat="58.11084" lon="-5.27175">
        <ele>28.76</ele>
        <time>2021-04-06T09:51:24Z</time>
      </trkpt>
      <trkpt lat="58.11099" lon="-5.27151">
        <ele>31.87</ele>
        <time>2021-04-06T09:51:28Z</time>
      </trkpt>
      <trkpt lat="58.11122" lon="-5.27082">
        <ele>41.45</ele>
        <time>2021-04-06T09:51:31Z</time>
      </trkpt>
      <trkpt lat="58.11155" lon="-5.27003">
        <ele>47.38</ele>
        <time>2021-04-06T09:51:34Z</time>
      </trkpt>
      <trkpt lat="58.1122" lon="-5.26886">
        <ele>56.86</ele>
        <time>2021-04-06T09:51:37Z</time>
      </trkpt>
      <trkpt lat="58.11248" lon="-5.26872">
        <ele>58.51</ele>
        <time>2021-04-06T09:51:41Z</time>
      </trkpt>
      <trkpt lat="58.11281" lon="-5.26849">
        <ele>62.63</ele>
        <time>2021-04-06T09:51:44Z</time>
      </trkpt>
      <trkpt lat="58.11302" lon="-5.26819">
        <ele>66.49</ele>
        <time>2021-04-06T09:51:47Z</time>
      </trkpt>
      <trkpt lat="58.11439" lon="-5.26558">
        <ele>69.19</ele>
        <time>2021-04-06T09:51:51Z</time>
      </trkpt>
      <trkpt lat="58.1147" lon="-5.26416">
        <ele>68.08</ele>
        <time>2021-04-06T09:51:54Z</time>
      </trkpt>
      <trkpt lat="58.11512" lon="-5.26204">
        <ele>69.18</ele>
        <time>2021-04-06T09:51:57Z</time>
      </trkpt>
      <trkpt lat="58.11537" lon="-5.26123">
        <ele>70.28</ele>
        <time>2021-04-06T09:52:00Z</time>
      </trkpt>
      <trkpt lat="58.1155" lon="-5.26107">
        <ele>69.72</ele>
        <time>2021-04-06T09:52:04Z</time>
      </trkpt>
      <trkpt lat="58.11649" lon="-5.26064">
        <ele>69.33</ele>
        <time>2021-04-06T09:52:07Z</time>
      </trkpt>
      <trkpt lat="58.11762" lon="-5.2592">
        <ele>73.23</ele>
        <time>2021-04-06T09:52:10Z</time>
      </trkpt>
      <trkpt lat="58.11847" lon="-5.25741">
        <ele>75.69</ele>
        <time>2021-04-06T09:52:14Z</time>
      </trkpt>
      <trkpt lat="58.11859" lon="-5.25699">
        <ele>69.05</ele>
        <time>2021-04-06T09:52:17Z</time>
      </trkpt>
      <trkpt lat="58.11859" lon="-5.25668">
        <ele>65.75</ele>
        <time>2021-04-06T09:52:20Z</time>
      </trkpt>
      <trkpt lat="58.1184" lon="-5.25553">
        <ele>61.25</ele>
        <time>2021-04-06T09:52:23Z</time>
      </trkpt>
      <trkpt lat="58.11846" lon="-5.25527">
        <ele>60.2</ele>
        <time>2021-04-06T09:52:27Z</time>
      </trkpt>
      <trkpt lat="58.11911" lon="-5.25488">
        <ele>49.58</ele>
        <time>2021-04-06T09:52:30Z</time>
      </trkpt>
      <trkpt lat="58.11944" lon="-5.2546">
        <ele>48.46</ele>
        <time>2021-04-06T09:52:33Z</time>
      </trkpt>
      <trkpt lat="58.11963" lon="-5.254">
        <ele>45.77</ele>
        <time>2021-04-06T09:52:36Z</time>
      </trkpt>
      <trkpt lat="58.11983" lon="-5.25362">
        <ele>40.33</ele>
        <time>2021-04-06T09:52:40Z</time>
      </trkpt>
      <trkpt lat="58.12006" lon="-5.25334">
        <ele>35.97</ele>
        <time>2021-04-06T09:52:43Z</time>
      </trkpt>
      <trkpt lat="58.12009" lon="-5.25326">
        <ele>35.56</ele>
        <time>2021-04-06T09:52:46Z</time>
      </trkpt>
      <trkpt lat="58.12011" lon="-5.25316">
        <ele>35.47</ele>
        <time>2021-04-06T09:52:50Z</time>
      </trkpt>
      <trkpt lat="58.1201" lon="-5.25302">
        <ele>35.93</ele>
        <time>2021-04-06T09:52:53Z</time>
      </trkpt>
      <trkpt lat="58.12015" lon="-5.25268">
        <ele>36.17</ele>
        <time>2021-04-06T09:52:56Z</time>
      </trkpt>
      <trkpt lat="58.12056" lon="-5.25219">
        <ele>28.03</ele>
        <time>2021-04-06T09:52:59Z</time>
      </trkpt>
      <trkpt lat="58.12076" lon="-5.25204">
        <ele>21.92</ele>
        <time>2021-04-06T09:53:03Z</time>
      </trkpt>
      <trkpt lat="58.12084" lon="-5.25194">
        <ele>19.85</ele>
        <time>2021-04-06T09:53:06Z</time>
      </trkpt>
      <trkpt lat="58.12106" lon="-5.25156">
        <ele>18.37</ele>
        <time>2021-04-06T09:53:09Z</time>
      </trkpt>
      <trkpt lat="58.12106" lon="-5.25156">
        <ele>18.37</ele>
        <time>2021-04-06T09:53:09Z</time>
      </trkpt>
      <trkpt lat="58.12143" lon="-5.25143">
        <ele>17.03</ele>
        <time>2021-04-06T09:53:12Z</time>
      </trkpt>
      <trkpt lat="58.12152" lon="-5.25146">
        <ele>19.87</ele>
        <time>2021-04-06T09:53:15Z</time>
      </trkpt>
      <trkpt lat="58.12157" lon="-5.25163">
        <ele>21.17</ele>
        <time>2021-04-06T09:53:18Z</time>
      </trkpt>
      <trkpt lat="58.12158" lon="-5.2524">
        <ele>20.58</ele>
        <time>2021-04-06T09:53:20Z</time>
      </trkpt>
      <trkpt lat="58.12149" lon="-5.25361">
        <ele>19.17</ele>
        <time>2021-04-06T09:53:23Z</time>
      </trkpt>
      <trkpt lat="58.12148" lon="-5.25491">
        <ele>17.81</ele>
        <time>2021-04-06T09:53:26Z</time>
      </trkpt>
      <trkpt lat="58.1215" lon="-5.25541">
        <ele>17.61</ele>
        <time>2021-04-06T09:53:29Z</time>
      </trkpt>
      <trkpt lat="58.12159" lon="-5.25594">
        <ele>17.54</ele>
        <time>2021-04-06T09:53:31Z</time>
      </trkpt>
      <trkpt lat="58.12203" lon="-5.25711">
        <ele>10.4</ele>
        <time>2021-04-06T09:53:34Z</time>
      </trkpt>
      <trkpt lat="58.12201" lon="-5.25777">
        <ele>8.92</ele>
        <time>2021-04-06T09:53:37Z</time>
      </trkpt>
      <trkpt lat="58.12203" lon="-5.25847">
        <ele>8.74</ele>
        <time>2021-04-06T09:53:40Z</time>
      </trkpt>
      <trkpt lat="58.12215" lon="-5.25939">
        <ele>9.45</ele>
        <time>2021-04-06T09:53:42Z</time>
      </trkpt>
      <trkpt lat="58.1221" lon="-5.2605">
        <ele>8.56</ele>
        <time>2021-04-06T09:53:45Z</time>
      </trkpt>
      <trkpt lat="58.12219" lon="-5.26118">
        <ele>10.79</ele>
        <time>2021-04-06T09:53:48Z</time>
      </trkpt>
      <trkpt lat="58.12238" lon="-5.26174">
        <ele>13.02</ele>
        <time>2021-04-06T09:53:50Z</time>
      </trkpt>
      <trkpt lat="58.12255" lon="-5.26302">
        <ele>11.55</ele>
        <time>2021-04-06T09:53:53Z</time>
      </trkpt>
      <trkpt lat="58.12271" lon="-5.26367">
        <ele>7.57</ele>
        <time>2021-04-06T09:53:56Z</time>
      </trkpt>
      <trkpt lat="58.12284" lon="-5.26409">
        <ele>7.83</ele>
        <time>2021-04-06T09:53:59Z</time>
      </trkpt>
      <trkpt lat="58.12284" lon="-5.26409">
        <ele>7.83</ele>
        <time>2021-04-06T09:53:59Z</time>
      </trkpt>
      <trkpt lat="58.12298" lon="-5.26413">
        <ele>8.05</ele>
        <time>2021-04-06T09:54:01Z</time>
      </trkpt>
      <trkpt lat="58.12339" lon="-5.26404">
        <ele>6.79</ele>
        <time>2021-04-06T09:54:04Z</time>
      </trkpt>
      <trkpt lat="58.12386" lon="-5.26403">
        <ele>5.09</ele>
        <time>2021-04-06T09:54:06Z</time>
      </trkpt>
      <trkpt lat="58.12429" lon="-5.26407">
        <ele>5.89</ele>
        <time>2021-04-06T09:54:09Z</time>
      </trkpt>
      <trkpt lat="58.12456" lon="-5.26414">
        <ele>8.09</ele>
        <time>2021-04-06T09:54:11Z</time>
      </trkpt>
      <trkpt lat="58.12539" lon="-5.26467">
        <ele>7.92</ele>
        <time>2021-04-06T09:54:13Z</time>
      </trkpt>
      <trkpt lat="58.12575" lon="-5.26501">
        <ele>7.36</ele>
        <time>2021-04-06T09:54:16Z</time>
      </trkpt>
      <trkpt lat="58.12592" lon="-5.26533">
        <ele>7.81</ele>
        <time>2021-04-06T09:54:18Z</time>
      </trkpt>
      <trkpt lat="58.12615" lon="-5.2656">
        <ele>10.56</ele>
        <time>2021-04-06T09:54:21Z</time>
      </trkpt>
      <trkpt lat="58.12646" lon="-5.26567">
        <ele>14.67</ele>
        <time>2021-04-06T09:54:23Z</time>
      </trkpt>
      <trkpt lat="58.1268" lon="-5.26553">
        <ele>20.37</ele>
        <time>2021-04-06T09:54:26Z</time>
      </trkpt>
      <trkpt lat="58.12704" lon="-5.26524">
        <ele>23.94</ele>
        <time>2021-04-06T09:54:28Z</time>
      </trkpt>
      <trkpt lat="58.12719" lon="-5.26492">
        <ele>26.19</ele>
        <time>2021-04-06T09:54:31Z</time>
      </trkpt>
      <trkpt lat="58.12754" lon="-5.26376">
        <ele>32.17</ele>
        <time>2021-04-06T09:54:33Z</time>
      </trkpt>
      <trkpt lat="58.12765" lon="-5.26346">
        <ele>34.4</ele>
        <time>2021-04-06T09:54:35Z</time>
      </trkpt>
      <trkpt lat="58.12775" lon="-5.26318">
        <ele>35.96</ele>
        <time>2021-04-06T09:54:38Z</time>
      </trkpt>
      <trkpt lat="58.12805" lon="-5.26253">
        <ele>38.11</ele>
        <time>2021-04-06T09:54:40Z</time>
      </trkpt>
      <trkpt lat="58.12823" lon="-5.26225">
        <ele>38.06</ele>
        <time>2021-04-06T09:54:43Z</time>
      </trkpt>
      <trkpt lat="58.1284" lon="-5.26201">
        <ele>39.81</ele>
        <time>2021-04-06T09:54:45Z</time>
      </trkpt>
      <trkpt lat="58.12874" lon="-5.26163">
        <ele>43.24</ele>
        <time>2021-04-06T09:54:48Z</time>
      </trkpt>
      <trkpt lat="58.12889" lon="-5.2614">
        <ele>45.97</ele>
        <time>2021-04-06T09:54:50Z</time>
      </trkpt>
      <trkpt lat="58.12902" lon="-5.26106">
        <ele>46.27</ele>
        <time>2021-04-06T09:54:53Z</time>
      </trkpt>
      <trkpt lat="58.12921" lon="-5.26012">
        <ele>47.4</ele>
        <time>2021-04-06T09:54:55Z</time>
      </trkpt>
      <trkpt lat="58.13013" lon="-5.2575">
        <ele>53.48</ele>
        <time>2021-04-06T09:54:57Z</time>
      </trkpt>
      <trkpt lat="58.13036" lon="-5.25696">
        <ele>52.4</ele>
        <time>2021-04-06T09:55:00Z</time>
      </trkpt>
      <trkpt lat="58.13055" lon="-5.25664">
        <ele>50.06</ele>
        <time>2021-04-06T09:55:02Z</time>
      </trkpt>
      <trkpt lat="58.13066" lon="-5.25659">
        <ele>48.19</ele>
        <time>2021-04-06T09:55:05Z</time>
      </trkpt>
      <trkpt lat="58.13076" lon="-5.25667">
        <ele>46.32</ele>
        <time>2021-04-06T09:55:07Z</time>
      </trkpt>
      <trkpt lat="58.13091" lon="-5.25692">
        <ele>45.39</ele>
        <time>2021-04-06T09:55:10Z</time>
      </trkpt>
      <trkpt lat="58.13138" lon="-5.25796">
        <ele>46.37</ele>
        <time>2021-04-06T09:55:12Z</time>
      </trkpt>
      <trkpt lat="58.13179" lon="-5.25873">
        <ele>46.89</ele>
        <time>2021-04-06T09:55:15Z</time>
      </trkpt>
      <trkpt lat="58.13196" lon="-5.25886">
        <ele>44.79</ele>
        <time>2021-04-06T09:55:17Z</time>
      </trkpt>
      <trkpt lat="58.13264" lon="-5.25906">
        <ele>42.6</ele>
        <time>2021-04-06T09:55:19Z</time>
      </trkpt>
      <trkpt lat="58.13286" lon="-5.2592">
        <ele>43.62</ele>
        <time>2021-04-06T09:55:22Z</time>
      </trkpt>
      <trkpt lat="58.13296" lon="-5.2593">
        <ele>44.32</ele>
        <time>2021-04-06T09:55:24Z</time>
      </trkpt>
      <trkpt lat="58.13327" lon="-5.25977">
        <ele>46.22</ele>
        <time>2021-04-06T09:55:27Z</time>
      </trkpt>
      <trkpt lat="58.13391" lon="-5.26089">
        <ele>42.81</ele>
        <time>2021-04-06T09:55:29Z</time>
      </trkpt>
      <trkpt lat="58.13409" lon="-5.26125">
        <ele>41.51</ele>
        <time>2021-04-06T09:55:32Z</time>
      </trkpt>
      <trkpt lat="58.13415" lon="-5.26144">
        <ele>41</ele>
        <time>2021-04-06T09:55:34Z</time>
      </trkpt>
      <trkpt lat="58.1342" lon="-5.26172">
        <ele>41.01</ele>
        <time>2021-04-06T09:55:37Z</time>
      </trkpt>
      <trkpt lat="58.13424" lon="-5.26212">
        <ele>39.61</ele>
        <time>2021-04-06T09:55:39Z</time>
      </trkpt>
      <trkpt lat="58.13427" lon="-5.26222">
        <ele>39.38</ele>
        <time>2021-04-06T09:55:42Z</time>
      </trkpt>
      <trkpt lat="58.13435" lon="-5.26236">
        <ele>38.86</ele>
        <time>2021-04-06T09:55:44Z</time>
      </trkpt>
      <trkpt lat="58.13467" lon="-5.26259">
        <ele>36.62</ele>
        <time>2021-04-06T09:55:46Z</time>
      </trkpt>
      <trkpt lat="58.13488" lon="-5.26265">
        <ele>35.59</ele>
        <time>2021-04-06T09:55:49Z</time>
      </trkpt>
      <trkpt lat="58.13597" lon="-5.2622">
        <ele>35.9</ele>
        <time>2021-04-06T09:55:51Z</time>
      </trkpt>
      <trkpt lat="58.13597" lon="-5.2622">
        <ele>35.9</ele>
        <time>2021-04-06T09:55:51Z</time>
      </trkpt>
      <trkpt lat="58.13619" lon="-5.26207">
        <ele>34.97</ele>
        <time>2021-04-06T09:55:54Z</time>
      </trkpt>
      <trkpt lat="58.13625" lon="-5.26198">
        <ele>34.31</ele>
        <time>2021-04-06T09:55:56Z</time>
      </trkpt>
      <trkpt lat="58.13667" lon="-5.26103">
        <ele>27.03</ele>
        <time>2021-04-06T09:55:59Z</time>
      </trkpt>
      <trkpt lat="58.13706" lon="-5.25954">
        <ele>24.15</ele>
        <time>2021-04-06T09:56:01Z</time>
      </trkpt>
      <trkpt lat="58.1372" lon="-5.25863">
        <ele>18.84</ele>
        <time>2021-04-06T09:56:04Z</time>
      </trkpt>
      <trkpt lat="58.13719" lon="-5.25809">
        <ele>18.09</ele>
        <time>2021-04-06T09:56:06Z</time>
      </trkpt>
      <trkpt lat="58.13712" lon="-5.25757">
        <ele>18.56</ele>
        <time>2021-04-06T09:56:09Z</time>
      </trkpt>
      <trkpt lat="58.13688" lon="-5.25652">
        <ele>23.05</ele>
        <time>2021-04-06T09:56:11Z</time>
      </trkpt>
      <trkpt lat="58.13663" lon="-5.25593">
        <ele>24.7</ele>
        <time>2021-04-06T09:56:14Z</time>
      </trkpt>
      <trkpt lat="58.13645" lon="-5.25518">
        <ele>24.07</ele>
        <time>2021-04-06T09:56:16Z</time>
      </trkpt>
      <trkpt lat="58.1364" lon="-5.25488">
        <ele>23.07</ele>
        <time>2021-04-06T09:56:19Z</time>
      </trkpt>
      <trkpt lat="58.13638" lon="-5.25406">
        <ele>24.7</ele>
        <time>2021-04-06T09:56:21Z</time>
      </trkpt>
      <trkpt lat="58.13634" lon="-5.25373">
        <ele>25.92</ele>
        <time>2021-04-06T09:56:24Z</time>
      </trkpt>
      <trkpt lat="58.13618" lon="-5.25318">
        <ele>25.82</ele>
        <time>2021-04-06T09:56:26Z</time>
      </trkpt>
      <trkpt lat="58.13616" lon="-5.25292">
        <ele>26.32</ele>
        <time>2021-04-06T09:56:29Z</time>
      </trkpt>
      <trkpt lat="58.13623" lon="-5.25245">
        <ele>28.24</ele>
        <time>2021-04-06T09:56:32Z</time>
      </trkpt>
      <trkpt lat="58.13628" lon="-5.25185">
        <ele>30.62</ele>
        <time>2021-04-06T09:56:34Z</time>
      </trkpt>
      <trkpt lat="58.13625" lon="-5.25095">
        <ele>31</ele>
        <time>2021-04-06T09:56:37Z</time>
      </trkpt>
      <trkpt lat="58.13624" lon="-5.24957">
        <ele>31.14</ele>
        <time>2021-04-06T09:56:39Z</time>
      </trkpt>
      <trkpt lat="58.13626" lon="-5.24935">
        <ele>30.74</ele>
        <time>2021-04-06T09:56:42Z</time>
      </trkpt>
      <trkpt lat="58.1363" lon="-5.24912">
        <ele>30.49</ele>
        <time>2021-04-06T09:56:44Z</time>
      </trkpt>
      <trkpt lat="58.13648" lon="-5.24859">
        <ele>31.32</ele>
        <time>2021-04-06T09:56:47Z</time>
      </trkpt>
      <trkpt lat="58.13656" lon="-5.24842">
        <ele>32.06</ele>
        <time>2021-04-06T09:56:49Z</time>
      </trkpt>
      <trkpt lat="58.13691" lon="-5.24792">
        <ele>36.72</ele>
        <time>2021-04-06T09:56:52Z</time>
      </trkpt>
      <trkpt lat="58.13732" lon="-5.2471">
        <ele>41</ele>
        <time>2021-04-06T09:56:54Z</time>
      </trkpt>
      <trkpt lat="58.13763" lon="-5.24656">
        <ele>46.24</ele>
        <time>2021-04-06T09:56:57Z</time>
      </trkpt>
      <trkpt lat="58.13817" lon="-5.24514">
        <ele>48.19</ele>
        <time>2021-04-06T09:56:59Z</time>
      </trkpt>
      <trkpt lat="58.13869" lon="-5.24344">
        <ele>59.81</ele>
        <time>2021-04-06T09:57:02Z</time>
      </trkpt>
      <trkpt lat="58.13939" lon="-5.24145">
        <ele>61.76</ele>
        <time>2021-04-06T09:57:04Z</time>
      </trkpt>
      <trkpt lat="58.13941" lon="-5.24128">
        <ele>59.58</ele>
        <time>2021-04-06T09:57:07Z</time>
      </trkpt>
      <trkpt lat="58.13939" lon="-5.24116">
        <ele>58.03</ele>
        <time>2021-04-06T09:57:09Z</time>
      </trkpt>
      <trkpt lat="58.13921" lon="-5.24055">
        <ele>52.5</ele>
        <time>2021-04-06T09:57:12Z</time>
      </trkpt>
      <trkpt lat="58.13917" lon="-5.24026">
        <ele>51.8</ele>
        <time>2021-04-06T09:57:14Z</time>
      </trkpt>
      <trkpt lat="58.13917" lon="-5.24009">
        <ele>50.59</ele>
        <time>2021-04-06T09:57:17Z</time>
      </trkpt>
      <trkpt lat="58.13923" lon="-5.2399">
        <ele>48.54</ele>
        <time>2021-04-06T09:57:19Z</time>
      </trkpt>
      <trkpt lat="58.13928" lon="-5.23984">
        <ele>47.95</ele>
        <time>2021-04-06T09:57:22Z</time>
      </trkpt>
      <trkpt lat="58.13928" lon="-5.23984">
        <ele>47.95</ele>
        <time>2021-04-06T09:57:22Z</time>
      </trkpt>
      <trkpt lat="58.13933" lon="-5.23979">
        <ele>45.94</ele>
        <time>2021-04-06T09:57:24Z</time>
      </trkpt>
      <trkpt lat="58.13939" lon="-5.23978">
        <ele>44.54</ele>
        <time>2021-04-06T09:57:26Z</time>
      </trkpt>
      <trkpt lat="58.13952" lon="-5.23982">
        <ele>41.94</ele>
        <time>2021-04-06T09:57:28Z</time>
      </trkpt>
      <trkpt lat="58.1399" lon="-5.24022">
        <ele>39.64</ele>
        <time>2021-04-06T09:57:30Z</time>
      </trkpt>
      <trkpt lat="58.14005" lon="-5.24027">
        <ele>38.24</ele>
        <time>2021-04-06T09:57:32Z</time>
      </trkpt>
      <trkpt lat="58.14022" lon="-5.24022">
        <ele>35.16</ele>
        <time>2021-04-06T09:57:33Z</time>
      </trkpt>
      <trkpt lat="58.14036" lon="-5.24024">
        <ele>33.44</ele>
        <time>2021-04-06T09:57:35Z</time>
      </trkpt>
      <trkpt lat="58.14044" lon="-5.24039">
        <ele>33.85</ele>
        <time>2021-04-06T09:57:37Z</time>
      </trkpt>
      <trkpt lat="58.14061" lon="-5.24107">
        <ele>38.16</ele>
        <time>2021-04-06T09:57:39Z</time>
      </trkpt>
      <trkpt lat="58.14066" lon="-5.24123">
        <ele>38.43</ele>
        <time>2021-04-06T09:57:41Z</time>
      </trkpt>
      <trkpt lat="58.14072" lon="-5.2413">
        <ele>37.76</ele>
        <time>2021-04-06T09:57:43Z</time>
      </trkpt>
      <trkpt lat="58.1408" lon="-5.24132">
        <ele>36.51</ele>
        <time>2021-04-06T09:57:45Z</time>
      </trkpt>
      <trkpt lat="58.14085" lon="-5.24125">
        <ele>36.18</ele>
        <time>2021-04-06T09:57:47Z</time>
      </trkpt>
      <trkpt lat="58.14094" lon="-5.24099">
        <ele>37.21</ele>
        <time>2021-04-06T09:57:49Z</time>
      </trkpt>
      <trkpt lat="58.14106" lon="-5.23999">
        <ele>37.36</ele>
        <time>2021-04-06T09:57:51Z</time>
      </trkpt>
      <trkpt lat="58.1412" lon="-5.2393">
        <ele>37.67</ele>
        <time>2021-04-06T09:57:53Z</time>
      </trkpt>
      <trkpt lat="58.14126" lon="-5.23912">
        <ele>37.9</ele>
        <time>2021-04-06T09:57:55Z</time>
      </trkpt>
      <trkpt lat="58.14136" lon="-5.2389">
        <ele>37.65</ele>
        <time>2021-04-06T09:57:57Z</time>
      </trkpt>
      <trkpt lat="58.14144" lon="-5.23877">
        <ele>38.22</ele>
        <time>2021-04-06T09:57:59Z</time>
      </trkpt>
      <trkpt lat="58.14168" lon="-5.23856">
        <ele>40.85</ele>
        <time>2021-04-06T09:58:01Z</time>
      </trkpt>
      <trkpt lat="58.14175" lon="-5.23846">
        <ele>41.04</ele>
        <time>2021-04-06T09:58:03Z</time>
      </trkpt>
      <trkpt lat="58.14185" lon="-5.23817">
        <ele>39.69</ele>
        <time>2021-04-06T09:58:05Z</time>
      </trkpt>
      <trkpt lat="58.14192" lon="-5.23775">
        <ele>36.56</ele>
        <time>2021-04-06T09:58:07Z</time>
      </trkpt>
      <trkpt lat="58.142" lon="-5.23751">
        <ele>35.69</ele>
        <time>2021-04-06T09:58:09Z</time>
      </trkpt>
      <trkpt lat="58.14225" lon="-5.23702">
        <ele>34.41</ele>
        <time>2021-04-06T09:58:11Z</time>
      </trkpt>
      <trkpt lat="58.14244" lon="-5.23685">
        <ele>34.08</ele>
        <time>2021-04-06T09:58:13Z</time>
      </trkpt>
      <trkpt lat="58.14255" lon="-5.23681">
        <ele>34.03</ele>
        <time>2021-04-06T09:58:15Z</time>
      </trkpt>
      <trkpt lat="58.1427" lon="-5.23677">
        <ele>33.71</ele>
        <time>2021-04-06T09:58:16Z</time>
      </trkpt>
      <trkpt lat="58.14305" lon="-5.23689">
        <ele>32.62</ele>
        <time>2021-04-06T09:58:18Z</time>
      </trkpt>
      <trkpt lat="58.14351" lon="-5.23699">
        <ele>30.1</ele>
        <time>2021-04-06T09:58:20Z</time>
      </trkpt>
      <trkpt lat="58.14375" lon="-5.23708">
        <ele>29.21</ele>
        <time>2021-04-06T09:58:22Z</time>
      </trkpt>
      <trkpt lat="58.14402" lon="-5.23724">
        <ele>28.71</ele>
        <time>2021-04-06T09:58:24Z</time>
      </trkpt>
      <trkpt lat="58.14426" lon="-5.23752">
        <ele>29.03</ele>
        <time>2021-04-06T09:58:26Z</time>
      </trkpt>
      <trkpt lat="58.14452" lon="-5.23879">
        <ele>25.94</ele>
        <time>2021-04-06T09:58:28Z</time>
      </trkpt>
      <trkpt lat="58.14467" lon="-5.23911">
        <ele>24.61</ele>
        <time>2021-04-06T09:58:30Z</time>
      </trkpt>
      <trkpt lat="58.14482" lon="-5.23917">
        <ele>22.97</ele>
        <time>2021-04-06T09:58:32Z</time>
      </trkpt>
      <trkpt lat="58.14508" lon="-5.23918">
        <ele>20.74</ele>
        <time>2021-04-06T09:58:34Z</time>
      </trkpt>
      <trkpt lat="58.14538" lon="-5.23938">
        <ele>19.28</ele>
        <time>2021-04-06T09:58:36Z</time>
      </trkpt>
      <trkpt lat="58.14569" lon="-5.23968">
        <ele>18.58</ele>
        <time>2021-04-06T09:58:38Z</time>
      </trkpt>
      <trkpt lat="58.14587" lon="-5.23973">
        <ele>17.48</ele>
        <time>2021-04-06T09:58:40Z</time>
      </trkpt>
      <trkpt lat="58.1463" lon="-5.23963">
        <ele>11.48</ele>
        <time>2021-04-06T09:58:42Z</time>
      </trkpt>
      <trkpt lat="58.14647" lon="-5.23964">
        <ele>10.31</ele>
        <time>2021-04-06T09:58:44Z</time>
      </trkpt>
      <trkpt lat="58.14661" lon="-5.23971">
        <ele>9.44</ele>
        <time>2021-04-06T09:58:46Z</time>
      </trkpt>
      <trkpt lat="58.14667" lon="-5.23951">
        <ele>9.77</ele>
        <time>2021-04-06T09:58:48Z</time>
      </trkpt>
      <trkpt lat="58.14673" lon="-5.23943">
        <ele>10.31</ele>
        <time>2021-04-06T09:58:50Z</time>
      </trkpt>
      <trkpt lat="58.14691" lon="-5.2394">
        <ele>11.05</ele>
        <time>2021-04-06T09:58:52Z</time>
      </trkpt>
      <trkpt lat="58.14708" lon="-5.23975">
        <ele>8.33</ele>
        <time>2021-04-06T09:58:54Z</time>
      </trkpt>
      <trkpt lat="58.14744" lon="-5.24001">
        <ele>6.72</ele>
        <time>2021-04-06T09:58:56Z</time>
      </trkpt>
      <trkpt lat="58.14747" lon="-5.24008">
        <ele>6.33</ele>
        <time>2021-04-06T09:58:58Z</time>
      </trkpt>
      <trkpt lat="58.14751" lon="-5.24036">
        <ele>4.47</ele>
        <time>2021-04-06T09:59:00Z</time>
      </trkpt>
      <trkpt lat="58.14763" lon="-5.24031">
        <ele>5.24</ele>
        <time>2021-04-06T09:59:05Z</time>
      </trkpt>
      <trkpt lat="58.14779" lon="-5.24036">
        <ele>5.41</ele>
        <time>2021-04-06T09:59:11Z</time>
      </trkpt>
      <trkpt lat="58.14818" lon="-5.2406">
        <ele>4.66</ele>
        <time>2021-04-06T09:59:17Z</time>
      </trkpt>
      <trkpt lat="58.14843" lon="-5.24069">
        <ele>4.01</ele>
        <time>2021-04-06T09:59:22Z</time>
      </trkpt>
      <trkpt lat="58.15019" lon="-5.24108">
        <ele>4.07</ele>
        <time>2021-04-06T09:59:28Z</time>
      </trkpt>
      <trkpt lat="58.15041" lon="-5.24108">
        <ele>5.05</ele>
        <time>2021-04-06T09:59:33Z</time>
      </trkpt>
      <trkpt lat="58.15186" lon="-5.24043">
        <ele>6.61</ele>
        <time>2021-04-06T09:59:39Z</time>
      </trkpt>
      <trkpt lat="58.15205" lon="-5.24042">
        <ele>6.1</ele>
        <time>2021-04-06T09:59:45Z</time>
      </trkpt>
      <trkpt lat="58.1522" lon="-5.24045">
        <ele>5.44</ele>
        <time>2021-04-06T09:59:50Z</time>
      </trkpt>
      <trkpt lat="58.15283" lon="-5.24069">
        <ele>4.33</ele>
        <time>2021-04-06T09:59:56Z</time>
      </trkpt>
      <trkpt lat="58.15298" lon="-5.2407">
        <ele>3.73</ele>
        <time>2021-04-06T10:00:02Z</time>
      </trkpt>
      <trkpt lat="58.15309" lon="-5.24065">
        <ele>3.55</ele>
        <time>2021-04-06T10:00:07Z</time>
      </trkpt>
      <trkpt lat="58.1533" lon="-5.24038">
        <ele>3.13</ele>
        <time>2021-04-06T10:00:13Z</time>
      </trkpt>
      <trkpt lat="58.15399" lon="-5.2394">
        <ele>6</ele>
        <time>2021-04-06T10:00:19Z</time>
      </trkpt>
      <trkpt lat="58.15465" lon="-5.23842">
        <ele>9.29</ele>
        <time>2021-04-06T10:00:24Z</time>
      </trkpt>
      <trkpt lat="58.15503" lon="-5.23773">
        <ele>10.17</ele>
        <time>2021-04-06T10:00:30Z</time>
      </trkpt>
      <trkpt lat="58.15517" lon="-5.23749">
        <ele>10.02</ele>
        <time>2021-04-06T10:00:36Z</time>
      </trkpt>
      <trkpt lat="58.15535" lon="-5.23725">
        <ele>9.55</ele>
        <time>2021-04-06T10:00:41Z</time>
      </trkpt>
      <trkpt lat="58.1558" lon="-5.23685">
        <ele>11.39</ele>
        <time>2021-04-06T10:00:47Z</time>
      </trkpt>
      <trkpt lat="58.15612" lon="-5.23666">
        <ele>14.08</ele>
        <time>2021-04-06T10:00:53Z</time>
      </trkpt>
      <trkpt lat="58.1568" lon="-5.2363">
        <ele>23.23</ele>
        <time>2021-04-06T10:00:58Z</time>
      </trkpt>
      <trkpt lat="58.15769" lon="-5.23576">
        <ele>35.8</ele>
        <time>2021-04-06T10:01:04Z</time>
      </trkpt>
      <trkpt lat="58.15799" lon="-5.23548">
        <ele>41.47</ele>
        <time>2021-04-06T10:01:10Z</time>
      </trkpt>
      <trkpt lat="58.15824" lon="-5.23519">
        <ele>47.04</ele>
        <time>2021-04-06T10:01:15Z</time>
      </trkpt>
      <trkpt lat="58.15868" lon="-5.23425">
        <ele>53.63</ele>
        <time>2021-04-06T10:01:21Z</time>
      </trkpt>
      <trkpt lat="58.15934" lon="-5.23268">
        <ele>49.4</ele>
        <time>2021-04-06T10:01:27Z</time>
      </trkpt>
      <trkpt lat="58.15956" lon="-5.23218">
        <ele>49.18</ele>
        <time>2021-04-06T10:01:32Z</time>
      </trkpt>
      <trkpt lat="58.15956" lon="-5.23218">
        <ele>49.18</ele>
        <time>2021-04-06T10:01:32Z</time>
      </trkpt>
      <trkpt lat="58.15956" lon="-5.23218">
        <ele>48.95</ele>
        <time>2021-04-06T10:01:32Z</time>
      </trkpt>
      <trkpt lat="58.15975" lon="-5.23248">
        <ele>51</ele>
        <time>2021-04-06T10:01:35Z</time>
      </trkpt>
      <trkpt lat="58.16002" lon="-5.23335">
        <ele>54.05</ele>
        <time>2021-04-06T10:01:37Z</time>
      </trkpt>
      <trkpt lat="58.16011" lon="-5.23375">
        <ele>54.19</ele>
        <time>2021-04-06T10:01:40Z</time>
      </trkpt>
      <trkpt lat="58.1602" lon="-5.23483">
        <ele>53.34</ele>
        <time>2021-04-06T10:01:42Z</time>
      </trkpt>
      <trkpt lat="58.16026" lon="-5.23511">
        <ele>52.75</ele>
        <time>2021-04-06T10:01:45Z</time>
      </trkpt>
      <trkpt lat="58.16033" lon="-5.23529">
        <ele>53.06</ele>
        <time>2021-04-06T10:01:47Z</time>
      </trkpt>
      <trkpt lat="58.16042" lon="-5.23542">
        <ele>53.49</ele>
        <time>2021-04-06T10:01:50Z</time>
      </trkpt>
      <trkpt lat="58.16053" lon="-5.23544">
        <ele>53.59</ele>
        <time>2021-04-06T10:01:52Z</time>
      </trkpt>
      <trkpt lat="58.16064" lon="-5.23543">
        <ele>54.05</ele>
        <time>2021-04-06T10:01:55Z</time>
      </trkpt>
      <trkpt lat="58.16095" lon="-5.2353">
        <ele>54.58</ele>
        <time>2021-04-06T10:01:57Z</time>
      </trkpt>
      <trkpt lat="58.16143" lon="-5.2353">
        <ele>57.31</ele>
        <time>2021-04-06T10:01:59Z</time>
      </trkpt>
      <trkpt lat="58.16159" lon="-5.23536">
        <ele>58.11</ele>
        <time>2021-04-06T10:02:02Z</time>
      </trkpt>
      <trkpt lat="58.16168" lon="-5.23548">
        <ele>58.81</ele>
        <time>2021-04-06T10:02:04Z</time>
      </trkpt>
      <trkpt lat="58.16179" lon="-5.23568">
        <ele>60.78</ele>
        <time>2021-04-06T10:02:07Z</time>
      </trkpt>
      <trkpt lat="58.16187" lon="-5.23597">
        <ele>62.63</ele>
        <time>2021-04-06T10:02:09Z</time>
      </trkpt>
      <trkpt lat="58.16217" lon="-5.23774">
        <ele>67.2</ele>
        <time>2021-04-06T10:02:12Z</time>
      </trkpt>
      <trkpt lat="58.16257" lon="-5.24159">
        <ele>71.08</ele>
        <time>2021-04-06T10:02:14Z</time>
      </trkpt>
      <trkpt lat="58.16264" lon="-5.2427">
        <ele>66.75</ele>
        <time>2021-04-06T10:02:17Z</time>
      </trkpt>
      <trkpt lat="58.16268" lon="-5.24364">
        <ele>64.74</ele>
        <time>2021-04-06T10:02:19Z</time>
      </trkpt>
      <trkpt lat="58.16313" lon="-5.24572">
        <ele>62.01</ele>
        <time>2021-04-06T10:02:22Z</time>
      </trkpt>
      <trkpt lat="58.16342" lon="-5.24673">
        <ele>62.95</ele>
        <time>2021-04-06T10:02:24Z</time>
      </trkpt>
      <trkpt lat="58.16354" lon="-5.24696">
        <ele>62.03</ele>
        <time>2021-04-06T10:02:27Z</time>
      </trkpt>
      <trkpt lat="58.16367" lon="-5.24708">
        <ele>61.5</ele>
        <time>2021-04-06T10:02:29Z</time>
      </trkpt>
      <trkpt lat="58.16379" lon="-5.24714">
        <ele>61.72</ele>
        <time>2021-04-06T10:02:31Z</time>
      </trkpt>
      <trkpt lat="58.16443" lon="-5.24718">
        <ele>68.73</ele>
        <time>2021-04-06T10:02:34Z</time>
      </trkpt>
      <trkpt lat="58.16465" lon="-5.24726">
        <ele>67.95</ele>
        <time>2021-04-06T10:02:36Z</time>
      </trkpt>
      <trkpt lat="58.16554" lon="-5.24802">
        <ele>61.07</ele>
        <time>2021-04-06T10:02:39Z</time>
      </trkpt>
      <trkpt lat="58.16576" lon="-5.24826">
        <ele>58.07</ele>
        <time>2021-04-06T10:02:41Z</time>
      </trkpt>
      <trkpt lat="58.16603" lon="-5.24876">
        <ele>52.86</ele>
        <time>2021-04-06T10:02:44Z</time>
      </trkpt>
      <trkpt lat="58.16644" lon="-5.24973">
        <ele>45.65</ele>
        <time>2021-04-06T10:02:46Z</time>
      </trkpt>
      <trkpt lat="58.16683" lon="-5.25141">
        <ele>44.98</ele>
        <time>2021-04-06T10:02:49Z</time>
      </trkpt>
      <trkpt lat="58.16695" lon="-5.25203">
        <ele>42.99</ele>
        <time>2021-04-06T10:02:51Z</time>
      </trkpt>
      <trkpt lat="58.16744" lon="-5.25592">
        <ele>33.97</ele>
        <time>2021-04-06T10:02:54Z</time>
      </trkpt>
      <trkpt lat="58.16752" lon="-5.25638">
        <ele>32</ele>
        <time>2021-04-06T10:02:56Z</time>
      </trkpt>
      <trkpt lat="58.16835" lon="-5.25882">
        <ele>24.92</ele>
        <time>2021-04-06T10:02:59Z</time>
      </trkpt>
      <trkpt lat="58.1686" lon="-5.25946">
        <ele>23.12</ele>
        <time>2021-04-06T10:03:01Z</time>
      </trkpt>
      <trkpt lat="58.16877" lon="-5.25995">
        <ele>21.53</ele>
        <time>2021-04-06T10:03:04Z</time>
      </trkpt>
      <trkpt lat="58.16893" lon="-5.26055">
        <ele>17.01</ele>
        <time>2021-04-06T10:03:06Z</time>
      </trkpt>
      <trkpt lat="58.16911" lon="-5.26106">
        <ele>14.8</ele>
        <time>2021-04-06T10:03:08Z</time>
      </trkpt>
      <trkpt lat="58.16923" lon="-5.26124">
        <ele>13.21</ele>
        <time>2021-04-06T10:03:11Z</time>
      </trkpt>
      <trkpt lat="58.16937" lon="-5.26131">
        <ele>12.09</ele>
        <time>2021-04-06T10:03:13Z</time>
      </trkpt>
      <trkpt lat="58.16983" lon="-5.2613">
        <ele>12.66</ele>
        <time>2021-04-06T10:03:16Z</time>
      </trkpt>
      <trkpt lat="58.16994" lon="-5.26135">
        <ele>12.28</ele>
        <time>2021-04-06T10:03:18Z</time>
      </trkpt>
      <trkpt lat="58.17005" lon="-5.26159">
        <ele>11.57</ele>
        <time>2021-04-06T10:03:21Z</time>
      </trkpt>
      <trkpt lat="58.17043" lon="-5.26182">
        <ele>15.19</ele>
        <time>2021-04-06T10:03:23Z</time>
      </trkpt>
      <trkpt lat="58.17056" lon="-5.26184">
        <ele>17.39</ele>
        <time>2021-04-06T10:03:26Z</time>
      </trkpt>
      <trkpt lat="58.17069" lon="-5.26178">
        <ele>18.9</ele>
        <time>2021-04-06T10:03:28Z</time>
      </trkpt>
      <trkpt lat="58.17133" lon="-5.26085">
        <ele>22.24</ele>
        <time>2021-04-06T10:03:31Z</time>
      </trkpt>
      <trkpt lat="58.17156" lon="-5.26045">
        <ele>23.79</ele>
        <time>2021-04-06T10:03:33Z</time>
      </trkpt>
      <trkpt lat="58.17183" lon="-5.25983">
        <ele>26.89</ele>
        <time>2021-04-06T10:03:36Z</time>
      </trkpt>
      <trkpt lat="58.17195" lon="-5.25966">
        <ele>27.9</ele>
        <time>2021-04-06T10:03:38Z</time>
      </trkpt>
      <trkpt lat="58.17203" lon="-5.25962">
        <ele>28.78</ele>
        <time>2021-04-06T10:03:40Z</time>
      </trkpt>
      <trkpt lat="58.1721" lon="-5.25963">
        <ele>29.79</ele>
        <time>2021-04-06T10:03:43Z</time>
      </trkpt>
      <trkpt lat="58.17217" lon="-5.2597">
        <ele>31.09</ele>
        <time>2021-04-06T10:03:45Z</time>
      </trkpt>
      <trkpt lat="58.17256" lon="-5.26017">
        <ele>35.16</ele>
        <time>2021-04-06T10:03:48Z</time>
      </trkpt>
      <trkpt lat="58.17318" lon="-5.26085">
        <ele>40.07</ele>
        <time>2021-04-06T10:03:50Z</time>
      </trkpt>
      <trkpt lat="58.1733" lon="-5.26107">
        <ele>40.97</ele>
        <time>2021-04-06T10:03:53Z</time>
      </trkpt>
      <trkpt lat="58.17352" lon="-5.26201">
        <ele>43.06</ele>
        <time>2021-04-06T10:03:55Z</time>
      </trkpt>
      <trkpt lat="58.17356" lon="-5.2625">
        <ele>41.74</ele>
        <time>2021-04-06T10:03:58Z</time>
      </trkpt>
      <trkpt lat="58.17356" lon="-5.26289">
        <ele>40.53</ele>
        <time>2021-04-06T10:04:00Z</time>
      </trkpt>
      <trkpt lat="58.17352" lon="-5.26349">
        <ele>40.76</ele>
        <time>2021-04-06T10:04:03Z</time>
      </trkpt>
      <trkpt lat="58.17353" lon="-5.26411">
        <ele>43.08</ele>
        <time>2021-04-06T10:04:05Z</time>
      </trkpt>
      <trkpt lat="58.17363" lon="-5.26518">
        <ele>43.36</ele>
        <time>2021-04-06T10:04:08Z</time>
      </trkpt>
      <trkpt lat="58.17371" lon="-5.26564">
        <ele>44.01</ele>
        <time>2021-04-06T10:04:10Z</time>
      </trkpt>
      <trkpt lat="58.17383" lon="-5.26617">
        <ele>46.7</ele>
        <time>2021-04-06T10:04:13Z</time>
      </trkpt>
      <trkpt lat="58.17434" lon="-5.26758">
        <ele>59.91</ele>
        <time>2021-04-06T10:04:15Z</time>
      </trkpt>
      <trkpt lat="58.1747" lon="-5.26869">
        <ele>66.54</ele>
        <time>2021-04-06T10:04:17Z</time>
      </trkpt>
      <trkpt lat="58.1749" lon="-5.26922">
        <ele>70.39</ele>
        <time>2021-04-06T10:04:20Z</time>
      </trkpt>
      <trkpt lat="58.17513" lon="-5.2697">
        <ele>74.83</ele>
        <time>2021-04-06T10:04:22Z</time>
      </trkpt>
      <trkpt lat="58.17539" lon="-5.2701">
        <ele>77.15</ele>
        <time>2021-04-06T10:04:25Z</time>
      </trkpt>
      <trkpt lat="58.17566" lon="-5.27045">
        <ele>80.86</ele>
        <time>2021-04-06T10:04:27Z</time>
      </trkpt>
      <trkpt lat="58.17588" lon="-5.27079">
        <ele>85.27</ele>
        <time>2021-04-06T10:04:30Z</time>
      </trkpt>
      <trkpt lat="58.17605" lon="-5.27111">
        <ele>88.52</ele>
        <time>2021-04-06T10:04:32Z</time>
      </trkpt>
      <trkpt lat="58.17708" lon="-5.27388">
        <ele>109.84</ele>
        <time>2021-04-06T10:04:35Z</time>
      </trkpt>
      <trkpt lat="58.17716" lon="-5.27425">
        <ele>112.98</ele>
        <time>2021-04-06T10:04:37Z</time>
      </trkpt>
      <trkpt lat="58.17732" lon="-5.27507">
        <ele>115.76</ele>
        <time>2021-04-06T10:04:40Z</time>
      </trkpt>
      <trkpt lat="58.17735" lon="-5.27604">
        <ele>118.39</ele>
        <time>2021-04-06T10:04:42Z</time>
      </trkpt>
      <trkpt lat="58.17747" lon="-5.27737">
        <ele>116.29</ele>
        <time>2021-04-06T10:04:45Z</time>
      </trkpt>
      <trkpt lat="58.17748" lon="-5.27774">
        <ele>113.54</ele>
        <time>2021-04-06T10:04:47Z</time>
      </trkpt>
      <trkpt lat="58.17745" lon="-5.27809">
        <ele>112.55</ele>
        <time>2021-04-06T10:04:49Z</time>
      </trkpt>
      <trkpt lat="58.17722" lon="-5.2794">
        <ele>114.05</ele>
        <time>2021-04-06T10:04:52Z</time>
      </trkpt>
      <trkpt lat="58.17719" lon="-5.27973">
        <ele>115.72</ele>
        <time>2021-04-06T10:04:54Z</time>
      </trkpt>
      <trkpt lat="58.17719" lon="-5.28004">
        <ele>115.86</ele>
        <time>2021-04-06T10:04:57Z</time>
      </trkpt>
      <trkpt lat="58.17736" lon="-5.28113">
        <ele>108.56</ele>
        <time>2021-04-06T10:04:59Z</time>
      </trkpt>
      <trkpt lat="58.17743" lon="-5.28134">
        <ele>105.81</ele>
        <time>2021-04-06T10:05:02Z</time>
      </trkpt>
      <trkpt lat="58.17766" lon="-5.28165">
        <ele>102.1</ele>
        <time>2021-04-06T10:05:04Z</time>
      </trkpt>
      <trkpt lat="58.17776" lon="-5.28193">
        <ele>98.39</ele>
        <time>2021-04-06T10:05:07Z</time>
      </trkpt>
      <trkpt lat="58.17784" lon="-5.28234">
        <ele>94.59</ele>
        <time>2021-04-06T10:05:09Z</time>
      </trkpt>
      <trkpt lat="58.1779" lon="-5.28322">
        <ele>84.95</ele>
        <time>2021-04-06T10:05:12Z</time>
      </trkpt>
      <trkpt lat="58.17794" lon="-5.28336">
        <ele>83.04</ele>
        <time>2021-04-06T10:05:14Z</time>
      </trkpt>
      <trkpt lat="58.17799" lon="-5.2834">
        <ele>82.22</ele>
        <time>2021-04-06T10:05:17Z</time>
      </trkpt>
      <trkpt lat="58.17807" lon="-5.28339">
        <ele>82.06</ele>
        <time>2021-04-06T10:05:19Z</time>
      </trkpt>
      <trkpt lat="58.17864" lon="-5.28261">
        <ele>81.93</ele>
        <time>2021-04-06T10:05:22Z</time>
      </trkpt>
      <trkpt lat="58.17899" lon="-5.28236">
        <ele>77.55</ele>
        <time>2021-04-06T10:05:24Z</time>
      </trkpt>
      <trkpt lat="58.17952" lon="-5.28189">
        <ele>72.04</ele>
        <time>2021-04-06T10:05:26Z</time>
      </trkpt>
      <trkpt lat="58.17961" lon="-5.28188">
        <ele>69.84</ele>
        <time>2021-04-06T10:05:29Z</time>
      </trkpt>
      <trkpt lat="58.17969" lon="-5.28196">
        <ele>67.6</ele>
        <time>2021-04-06T10:05:31Z</time>
      </trkpt>
      <trkpt lat="58.17975" lon="-5.28215">
        <ele>66.04</ele>
        <time>2021-04-06T10:05:34Z</time>
      </trkpt>
      <trkpt lat="58.17979" lon="-5.2824">
        <ele>65.33</ele>
        <time>2021-04-06T10:05:36Z</time>
      </trkpt>
      <trkpt lat="58.1798" lon="-5.28273">
        <ele>65.16</ele>
        <time>2021-04-06T10:05:39Z</time>
      </trkpt>
      <trkpt lat="58.17976" lon="-5.28306">
        <ele>65.4</ele>
        <time>2021-04-06T10:05:41Z</time>
      </trkpt>
      <trkpt lat="58.17951" lon="-5.28466">
        <ele>64.5</ele>
        <time>2021-04-06T10:05:44Z</time>
      </trkpt>
      <trkpt lat="58.17944" lon="-5.28493">
        <ele>63.56</ele>
        <time>2021-04-06T10:05:46Z</time>
      </trkpt>
      <trkpt lat="58.17924" lon="-5.28526">
        <ele>63.03</ele>
        <time>2021-04-06T10:05:49Z</time>
      </trkpt>
      <trkpt lat="58.17914" lon="-5.28552">
        <ele>62.77</ele>
        <time>2021-04-06T10:05:51Z</time>
      </trkpt>
      <trkpt lat="58.17909" lon="-5.28577">
        <ele>62.19</ele>
        <time>2021-04-06T10:05:54Z</time>
      </trkpt>
      <trkpt lat="58.17901" lon="-5.28648">
        <ele>58.76</ele>
        <time>2021-04-06T10:05:56Z</time>
      </trkpt>
      <trkpt lat="58.17896" lon="-5.28677">
        <ele>58.12</ele>
        <time>2021-04-06T10:05:58Z</time>
      </trkpt>
      <trkpt lat="58.17888" lon="-5.28701">
        <ele>57.65</ele>
        <time>2021-04-06T10:06:01Z</time>
      </trkpt>
      <trkpt lat="58.17849" lon="-5.28758">
        <ele>57.45</ele>
        <time>2021-04-06T10:06:03Z</time>
      </trkpt>
      <trkpt lat="58.17831" lon="-5.28796">
        <ele>57.36</ele>
        <time>2021-04-06T10:06:06Z</time>
      </trkpt>
      <trkpt lat="58.17819" lon="-5.28834">
        <ele>57.01</ele>
        <time>2021-04-06T10:06:08Z</time>
      </trkpt>
      <trkpt lat="58.17807" lon="-5.28881">
        <ele>58.7</ele>
        <time>2021-04-06T10:06:11Z</time>
      </trkpt>
      <trkpt lat="58.17803" lon="-5.28917">
        <ele>60.51</ele>
        <time>2021-04-06T10:06:13Z</time>
      </trkpt>
      <trkpt lat="58.17801" lon="-5.28953">
        <ele>61.9</ele>
        <time>2021-04-06T10:06:16Z</time>
      </trkpt>
      <trkpt lat="58.17809" lon="-5.29149">
        <ele>66.63</ele>
        <time>2021-04-06T10:06:18Z</time>
      </trkpt>
      <trkpt lat="58.17815" lon="-5.29197">
        <ele>67.14</ele>
        <time>2021-04-06T10:06:21Z</time>
      </trkpt>
      <trkpt lat="58.17822" lon="-5.29233">
        <ele>65.83</ele>
        <time>2021-04-06T10:06:23Z</time>
      </trkpt>
      <trkpt lat="58.17913" lon="-5.29549">
        <ele>61.1</ele>
        <time>2021-04-06T10:06:26Z</time>
      </trkpt>
      <trkpt lat="58.17923" lon="-5.29594">
        <ele>61.4</ele>
        <time>2021-04-06T10:06:28Z</time>
      </trkpt>
      <trkpt lat="58.17964" lon="-5.29885">
        <ele>61.36</ele>
        <time>2021-04-06T10:06:30Z</time>
      </trkpt>
      <trkpt lat="58.1797" lon="-5.29936">
        <ele>59.62</ele>
        <time>2021-04-06T10:06:33Z</time>
      </trkpt>
      <trkpt lat="58.17971" lon="-5.29999">
        <ele>58.54</ele>
        <time>2021-04-06T10:06:35Z</time>
      </trkpt>
      <trkpt lat="58.17997" lon="-5.30241">
        <ele>52.95</ele>
        <time>2021-04-06T10:06:38Z</time>
      </trkpt>
      <trkpt lat="58.18002" lon="-5.30276">
        <ele>52.09</ele>
        <time>2021-04-06T10:06:40Z</time>
      </trkpt>
      <trkpt lat="58.18018" lon="-5.30299">
        <ele>53.4</ele>
        <time>2021-04-06T10:06:43Z</time>
      </trkpt>
      <trkpt lat="58.18065" lon="-5.30351">
        <ele>56.55</ele>
        <time>2021-04-06T10:06:45Z</time>
      </trkpt>
      <trkpt lat="58.18184" lon="-5.30613">
        <ele>46.24</ele>
        <time>2021-04-06T10:06:48Z</time>
      </trkpt>
      <trkpt lat="58.18223" lon="-5.30727">
        <ele>49.06</ele>
        <time>2021-04-06T10:06:50Z</time>
      </trkpt>
      <trkpt lat="58.18235" lon="-5.30788">
        <ele>48.84</ele>
        <time>2021-04-06T10:06:53Z</time>
      </trkpt>
      <trkpt lat="58.18239" lon="-5.30813">
        <ele>48.24</ele>
        <time>2021-04-06T10:06:55Z</time>
      </trkpt>
      <trkpt lat="58.18275" lon="-5.30909">
        <ele>45.03</ele>
        <time>2021-04-06T10:06:58Z</time>
      </trkpt>
      <trkpt lat="58.18283" lon="-5.30958">
        <ele>45.14</ele>
        <time>2021-04-06T10:07:00Z</time>
      </trkpt>
      <trkpt lat="58.18281" lon="-5.31002">
        <ele>44.5</ele>
        <time>2021-04-06T10:07:03Z</time>
      </trkpt>
      <trkpt lat="58.18282" lon="-5.31021">
        <ele>45.34</ele>
        <time>2021-04-06T10:07:05Z</time>
      </trkpt>
      <trkpt lat="58.183" lon="-5.31116">
        <ele>51.59</ele>
        <time>2021-04-06T10:07:07Z</time>
      </trkpt>
      <trkpt lat="58.18324" lon="-5.31217">
        <ele>54.57</ele>
        <time>2021-04-06T10:07:10Z</time>
      </trkpt>
      <trkpt lat="58.18347" lon="-5.31292">
        <ele>54.06</ele>
        <time>2021-04-06T10:07:12Z</time>
      </trkpt>
      <trkpt lat="58.18412" lon="-5.31432">
        <ele>52.88</ele>
        <time>2021-04-06T10:07:15Z</time>
      </trkpt>
      <trkpt lat="58.18469" lon="-5.31612">
        <ele>60.85</ele>
        <time>2021-04-06T10:07:17Z</time>
      </trkpt>
      <trkpt lat="58.18478" lon="-5.31668">
        <ele>60.05</ele>
        <time>2021-04-06T10:07:20Z</time>
      </trkpt>
      <trkpt lat="58.18477" lon="-5.31803">
        <ele>59.85</ele>
        <time>2021-04-06T10:07:22Z</time>
      </trkpt>
      <trkpt lat="58.18485" lon="-5.31975">
        <ele>53.3</ele>
        <time>2021-04-06T10:07:25Z</time>
      </trkpt>
      <trkpt lat="58.18532" lon="-5.32158">
        <ele>40.41</ele>
        <time>2021-04-06T10:07:27Z</time>
      </trkpt>
      <trkpt lat="58.18549" lon="-5.32204">
        <ele>41.51</ele>
        <time>2021-04-06T10:07:30Z</time>
      </trkpt>
      <trkpt lat="58.18579" lon="-5.32251">
        <ele>44.03</ele>
        <time>2021-04-06T10:07:32Z</time>
      </trkpt>
      <trkpt lat="58.18595" lon="-5.32308">
        <ele>45.25</ele>
        <time>2021-04-06T10:07:35Z</time>
      </trkpt>
      <trkpt lat="58.18608" lon="-5.32431">
        <ele>48.44</ele>
        <time>2021-04-06T10:07:37Z</time>
      </trkpt>
      <trkpt lat="58.18666" lon="-5.32633">
        <ele>46.28</ele>
        <time>2021-04-06T10:07:39Z</time>
      </trkpt>
      <trkpt lat="58.18696" lon="-5.32685">
        <ele>44.35</ele>
        <time>2021-04-06T10:07:42Z</time>
      </trkpt>
      <trkpt lat="58.18773" lon="-5.32743">
        <ele>38.96</ele>
        <time>2021-04-06T10:07:44Z</time>
      </trkpt>
      <trkpt lat="58.18858" lon="-5.32845">
        <ele>41.93</ele>
        <time>2021-04-06T10:07:47Z</time>
      </trkpt>
      <trkpt lat="58.18882" lon="-5.32917">
        <ele>40.24</ele>
        <time>2021-04-06T10:07:49Z</time>
      </trkpt>
      <trkpt lat="58.1889" lon="-5.33062">
        <ele>30.21</ele>
        <time>2021-04-06T10:07:52Z</time>
      </trkpt>
      <trkpt lat="58.18911" lon="-5.33203">
        <ele>18.21</ele>
        <time>2021-04-06T10:07:54Z</time>
      </trkpt>
      <trkpt lat="58.18916" lon="-5.3322">
        <ele>17.07</ele>
        <time>2021-04-06T10:07:57Z</time>
      </trkpt>
      <trkpt lat="58.18916" lon="-5.3322">
        <ele>17.21</ele>
        <time>2021-04-06T10:07:57Z</time>
      </trkpt>
      <trkpt lat="58.18916" lon="-5.3322">
        <ele>17.21</ele>
        <time>2021-04-06T10:07:57Z</time>
      </trkpt>
      <trkpt lat="58.18916" lon="-5.3322">
        <ele>17.07</ele>
        <time>2021-04-06T10:07:57Z</time>
      </trkpt>
      <trkpt lat="58.18934" lon="-5.33231">
        <ele>14.07</ele>
        <time>2021-04-06T10:07:59Z</time>
      </trkpt>
      <trkpt lat="58.19072" lon="-5.3324">
        <ele>12.8</ele>
        <time>2021-04-06T10:08:02Z</time>
      </trkpt>
      <trkpt lat="58.19115" lon="-5.33237">
        <ele>14.07</ele>
        <time>2021-04-06T10:08:04Z</time>
      </trkpt>
      <trkpt lat="58.19157" lon="-5.33223">
        <ele>14.65</ele>
        <time>2021-04-06T10:08:07Z</time>
      </trkpt>
      <trkpt lat="58.19209" lon="-5.33192">
        <ele>14.96</ele>
        <time>2021-04-06T10:08:09Z</time>
      </trkpt>
      <trkpt lat="58.193" lon="-5.33172">
        <ele>14.19</ele>
        <time>2021-04-06T10:08:12Z</time>
      </trkpt>
      <trkpt lat="58.19331" lon="-5.33173">
        <ele>13.34</ele>
        <time>2021-04-06T10:08:14Z</time>
      </trkpt>
      <trkpt lat="58.19372" lon="-5.33191">
        <ele>12.67</ele>
        <time>2021-04-06T10:08:17Z</time>
      </trkpt>
      <trkpt lat="58.19434" lon="-5.33247">
        <ele>12</ele>
        <time>2021-04-06T10:08:19Z</time>
      </trkpt>
      <trkpt lat="58.19483" lon="-5.333">
        <ele>11.61</ele>
        <time>2021-04-06T10:08:22Z</time>
      </trkpt>
      <trkpt lat="58.19507" lon="-5.3333">
        <ele>10.75</ele>
        <time>2021-04-06T10:08:24Z</time>
      </trkpt>
      <trkpt lat="58.19541" lon="-5.33381">
        <ele>11</ele>
        <time>2021-04-06T10:08:27Z</time>
      </trkpt>
      <trkpt lat="58.19574" lon="-5.33424">
        <ele>11.95</ele>
        <time>2021-04-06T10:08:29Z</time>
      </trkpt>
      <trkpt lat="58.19623" lon="-5.33469">
        <ele>9.55</ele>
        <time>2021-04-06T10:08:32Z</time>
      </trkpt>
      <trkpt lat="58.19662" lon="-5.33522">
        <ele>7.38</ele>
        <time>2021-04-06T10:08:34Z</time>
      </trkpt>
      <trkpt lat="58.19716" lon="-5.3364">
        <ele>7.44</ele>
        <time>2021-04-06T10:08:37Z</time>
      </trkpt>
      <trkpt lat="58.19748" lon="-5.33674">
        <ele>6.34</ele>
        <time>2021-04-06T10:08:39Z</time>
      </trkpt>
      <trkpt lat="58.19755" lon="-5.33676">
        <ele>6.16</ele>
        <time>2021-04-06T10:08:42Z</time>
      </trkpt>
      <trkpt lat="58.19771" lon="-5.33673">
        <ele>5.48</ele>
        <time>2021-04-06T10:08:45Z</time>
      </trkpt>
      <trkpt lat="58.19789" lon="-5.3366">
        <ele>5.41</ele>
        <time>2021-04-06T10:08:47Z</time>
      </trkpt>
      <trkpt lat="58.19821" lon="-5.33645">
        <ele>6</ele>
        <time>2021-04-06T10:08:50Z</time>
      </trkpt>
      <trkpt lat="58.19829" lon="-5.33644">
        <ele>6</ele>
        <time>2021-04-06T10:08:52Z</time>
      </trkpt>
      <trkpt lat="58.1987" lon="-5.33654">
        <ele>6</ele>
        <time>2021-04-06T10:08:55Z</time>
      </trkpt>
      <trkpt lat="58.19954" lon="-5.33681">
        <ele>9.72</ele>
        <time>2021-04-06T10:08:57Z</time>
      </trkpt>
      <trkpt lat="58.19983" lon="-5.33696">
        <ele>12.48</ele>
        <time>2021-04-06T10:09:00Z</time>
      </trkpt>
      <trkpt lat="58.19998" lon="-5.33712">
        <ele>14.69</ele>
        <time>2021-04-06T10:09:02Z</time>
      </trkpt>
      <trkpt lat="58.20007" lon="-5.33726">
        <ele>15.89</ele>
        <time>2021-04-06T10:09:05Z</time>
      </trkpt>
      <trkpt lat="58.20032" lon="-5.33788">
        <ele>17.71</ele>
        <time>2021-04-06T10:09:07Z</time>
      </trkpt>
      <trkpt lat="58.20038" lon="-5.33796">
        <ele>18.67</ele>
        <time>2021-04-06T10:09:10Z</time>
      </trkpt>
      <trkpt lat="58.20046" lon="-5.33802">
        <ele>20.12</ele>
        <time>2021-04-06T10:09:12Z</time>
      </trkpt>
      <trkpt lat="58.20059" lon="-5.338">
        <ele>22.22</ele>
        <time>2021-04-06T10:09:15Z</time>
      </trkpt>
      <trkpt lat="58.201" lon="-5.33759">
        <ele>26.22</ele>
        <time>2021-04-06T10:09:17Z</time>
      </trkpt>
      <trkpt lat="58.20117" lon="-5.33755">
        <ele>27.61</ele>
        <time>2021-04-06T10:09:20Z</time>
      </trkpt>
      <trkpt lat="58.20246" lon="-5.33827">
        <ele>41.7</ele>
        <time>2021-04-06T10:09:22Z</time>
      </trkpt>
      <trkpt lat="58.20282" lon="-5.33862">
        <ele>45</ele>
        <time>2021-04-06T10:09:25Z</time>
      </trkpt>
      <trkpt lat="58.20294" lon="-5.3388">
        <ele>45</ele>
        <time>2021-04-06T10:09:27Z</time>
      </trkpt>
      <trkpt lat="58.20306" lon="-5.33956">
        <ele>45.4</ele>
        <time>2021-04-06T10:09:30Z</time>
      </trkpt>
      <trkpt lat="58.20332" lon="-5.3401">
        <ele>47.08</ele>
        <time>2021-04-06T10:09:32Z</time>
      </trkpt>
      <trkpt lat="58.20345" lon="-5.34028">
        <ele>48.58</ele>
        <time>2021-04-06T10:09:35Z</time>
      </trkpt>
      <trkpt lat="58.20465" lon="-5.34139">
        <ele>52.01</ele>
        <time>2021-04-06T10:09:37Z</time>
      </trkpt>
      <trkpt lat="58.20491" lon="-5.34146">
        <ele>53.45</ele>
        <time>2021-04-06T10:09:40Z</time>
      </trkpt>
      <trkpt lat="58.20518" lon="-5.34134">
        <ele>55.24</ele>
        <time>2021-04-06T10:09:42Z</time>
      </trkpt>
      <trkpt lat="58.20529" lon="-5.34125">
        <ele>56.14</ele>
        <time>2021-04-06T10:09:45Z</time>
      </trkpt>
      <trkpt lat="58.20557" lon="-5.34048">
        <ele>59.07</ele>
        <time>2021-04-06T10:09:47Z</time>
      </trkpt>
      <trkpt lat="58.2057" lon="-5.34026">
        <ele>59.49</ele>
        <time>2021-04-06T10:09:50Z</time>
      </trkpt>
      <trkpt lat="58.20584" lon="-5.34015">
        <ele>59.5</ele>
        <time>2021-04-06T10:09:52Z</time>
      </trkpt>
      <trkpt lat="58.20672" lon="-5.33965">
        <ele>57.93</ele>
        <time>2021-04-06T10:09:55Z</time>
      </trkpt>
      <trkpt lat="58.208" lon="-5.33833">
        <ele>59.8</ele>
        <time>2021-04-06T10:09:57Z</time>
      </trkpt>
      <trkpt lat="58.20817" lon="-5.33819">
        <ele>60.12</ele>
        <time>2021-04-06T10:10:00Z</time>
      </trkpt>
      <trkpt lat="58.20836" lon="-5.33812">
        <ele>60.69</ele>
        <time>2021-04-06T10:10:02Z</time>
      </trkpt>
      <trkpt lat="58.20914" lon="-5.33795">
        <ele>61.81</ele>
        <time>2021-04-06T10:10:05Z</time>
      </trkpt>
      <trkpt lat="58.20994" lon="-5.3378">
        <ele>63.98</ele>
        <time>2021-04-06T10:10:07Z</time>
      </trkpt>
      <trkpt lat="58.21039" lon="-5.33767">
        <ele>64</ele>
        <time>2021-04-06T10:10:10Z</time>
      </trkpt>
      <trkpt lat="58.21123" lon="-5.33755">
        <ele>59.31</ele>
        <time>2021-04-06T10:10:12Z</time>
      </trkpt>
      <trkpt lat="58.21151" lon="-5.33735">
        <ele>56.05</ele>
        <time>2021-04-06T10:10:15Z</time>
      </trkpt>
      <trkpt lat="58.21244" lon="-5.3364">
        <ele>49.21</ele>
        <time>2021-04-06T10:10:17Z</time>
      </trkpt>
      <trkpt lat="58.21329" lon="-5.33792">
        <ele>46.9</ele>
        <time>2021-04-06T10:10:22Z</time>
      </trkpt>
      <trkpt lat="58.21364" lon="-5.33841">
        <ele>44.47</ele>
        <time>2021-04-06T10:10:27Z</time>
      </trkpt>
      <trkpt lat="58.21407" lon="-5.33881">
        <ele>44.14</ele>
        <time>2021-04-06T10:10:32Z</time>
      </trkpt>
      <trkpt lat="58.21496" lon="-5.33925">
        <ele>40.87</ele>
        <time>2021-04-06T10:10:37Z</time>
      </trkpt>
      <trkpt lat="58.21587" lon="-5.33962">
        <ele>36.52</ele>
        <time>2021-04-06T10:10:42Z</time>
      </trkpt>
      <trkpt lat="58.21658" lon="-5.34036">
        <ele>35</ele>
        <time>2021-04-06T10:10:47Z</time>
      </trkpt>
      <trkpt lat="58.21672" lon="-5.34044">
        <ele>35.19</ele>
        <time>2021-04-06T10:10:52Z</time>
      </trkpt>
      <trkpt lat="58.21738" lon="-5.34063">
        <ele>37.57</ele>
        <time>2021-04-06T10:10:57Z</time>
      </trkpt>
      <trkpt lat="58.21756" lon="-5.34064">
        <ele>38.26</ele>
        <time>2021-04-06T10:11:02Z</time>
      </trkpt>
      <trkpt lat="58.21783" lon="-5.34061">
        <ele>39.83</ele>
        <time>2021-04-06T10:11:07Z</time>
      </trkpt>
      <trkpt lat="58.21828" lon="-5.34043">
        <ele>44.46</ele>
        <time>2021-04-06T10:11:12Z</time>
      </trkpt>
      <trkpt lat="58.21899" lon="-5.33996">
        <ele>51.4</ele>
        <time>2021-04-06T10:11:16Z</time>
      </trkpt>
      <trkpt lat="58.2193" lon="-5.33969">
        <ele>54.89</ele>
        <time>2021-04-06T10:11:21Z</time>
      </trkpt>
      <trkpt lat="58.22012" lon="-5.33885">
        <ele>62.63</ele>
        <time>2021-04-06T10:11:26Z</time>
      </trkpt>
      <trkpt lat="58.22083" lon="-5.33819">
        <ele>68.01</ele>
        <time>2021-04-06T10:11:31Z</time>
      </trkpt>
      <trkpt lat="58.22105" lon="-5.33804">
        <ele>69.51</ele>
        <time>2021-04-06T10:11:36Z</time>
      </trkpt>
      <trkpt lat="58.22132" lon="-5.33809">
        <ele>71.58</ele>
        <time>2021-04-06T10:11:41Z</time>
      </trkpt>
      <trkpt lat="58.22262" lon="-5.33882">
        <ele>69.38</ele>
        <time>2021-04-06T10:11:46Z</time>
      </trkpt>
      <trkpt lat="58.22294" lon="-5.33875">
        <ele>67.91</ele>
        <time>2021-04-06T10:11:51Z</time>
      </trkpt>
      <trkpt lat="58.22461" lon="-5.33797">
        <ele>56.24</ele>
        <time>2021-04-06T10:11:56Z</time>
      </trkpt>
      <trkpt lat="58.22513" lon="-5.33781">
        <ele>57.55</ele>
        <time>2021-04-06T10:12:01Z</time>
      </trkpt>
      <trkpt lat="58.22617" lon="-5.33777">
        <ele>56.62</ele>
        <time>2021-04-06T10:12:06Z</time>
      </trkpt>
      <trkpt lat="58.22655" lon="-5.33772">
        <ele>55.08</ele>
        <time>2021-04-06T10:12:11Z</time>
      </trkpt>
      <trkpt lat="58.22746" lon="-5.33768">
        <ele>50.96</ele>
        <time>2021-04-06T10:12:16Z</time>
      </trkpt>
      <trkpt lat="58.2295" lon="-5.33793">
        <ele>51.92</ele>
        <time>2021-04-06T10:12:20Z</time>
      </trkpt>
      <trkpt lat="58.22993" lon="-5.33792">
        <ele>55.78</ele>
        <time>2021-04-06T10:12:25Z</time>
      </trkpt>
      <trkpt lat="58.23156" lon="-5.3372">
        <ele>67.13</ele>
        <time>2021-04-06T10:12:30Z</time>
      </trkpt>
      <trkpt lat="58.23156" lon="-5.3372">
        <ele>70.29</ele>
        <time>2021-04-06T10:12:30Z</time>
      </trkpt>
      <trkpt lat="58.23156" lon="-5.3372">
        <ele>70.29</ele>
        <time>2021-04-06T10:12:30Z</time>
      </trkpt>
      <trkpt lat="58.23106" lon="-5.33875">
        <ele>73.46</ele>
        <time>2021-04-06T10:12:34Z</time>
      </trkpt>
      <trkpt lat="58.23085" lon="-5.33949">
        <ele>76.3</ele>
        <time>2021-04-06T10:12:38Z</time>
      </trkpt>
      <trkpt lat="58.23018" lon="-5.34363">
        <ele>78.93</ele>
        <time>2021-04-06T10:12:42Z</time>
      </trkpt>
      <trkpt lat="58.22965" lon="-5.34657">
        <ele>72.46</ele>
        <time>2021-04-06T10:12:45Z</time>
      </trkpt>
      <trkpt lat="58.22949" lon="-5.3473">
        <ele>70.36</ele>
        <time>2021-04-06T10:12:49Z</time>
      </trkpt>
      <trkpt lat="58.22933" lon="-5.34786">
        <ele>69.1</ele>
        <time>2021-04-06T10:12:53Z</time>
      </trkpt>
      <trkpt lat="58.22921" lon="-5.34817">
        <ele>68.5</ele>
        <time>2021-04-06T10:12:56Z</time>
      </trkpt>
      <trkpt lat="58.22851" lon="-5.34974">
        <ele>65.61</ele>
        <time>2021-04-06T10:13:00Z</time>
      </trkpt>
      <trkpt lat="58.22782" lon="-5.35162">
        <ele>58.65</ele>
        <time>2021-04-06T10:13:04Z</time>
      </trkpt>
      <trkpt lat="58.2276" lon="-5.35394">
        <ele>51.95</ele>
        <time>2021-04-06T10:13:08Z</time>
      </trkpt>
      <trkpt lat="58.22761" lon="-5.35482">
        <ele>50.18</ele>
        <time>2021-04-06T10:13:11Z</time>
      </trkpt>
      <trkpt lat="58.22766" lon="-5.35556">
        <ele>49.22</ele>
        <time>2021-04-06T10:13:15Z</time>
      </trkpt>
      <trkpt lat="58.228" lon="-5.35748">
        <ele>48.59</ele>
        <time>2021-04-06T10:13:19Z</time>
      </trkpt>
      <trkpt lat="58.22817" lon="-5.35826">
        <ele>49.42</ele>
        <time>2021-04-06T10:13:22Z</time>
      </trkpt>
      <trkpt lat="58.22892" lon="-5.36088">
        <ele>58.21</ele>
        <time>2021-04-06T10:13:26Z</time>
      </trkpt>
      <trkpt lat="58.22909" lon="-5.36155">
        <ele>59.43</ele>
        <time>2021-04-06T10:13:30Z</time>
      </trkpt>
      <trkpt lat="58.22944" lon="-5.36276">
        <ele>58.98</ele>
        <time>2021-04-06T10:13:34Z</time>
      </trkpt>
      <trkpt lat="58.22964" lon="-5.36333">
        <ele>58.73</ele>
        <time>2021-04-06T10:13:37Z</time>
      </trkpt>
      <trkpt lat="58.23022" lon="-5.36479">
        <ele>53.36</ele>
        <time>2021-04-06T10:13:41Z</time>
      </trkpt>
      <trkpt lat="58.23062" lon="-5.36561">
        <ele>51.64</ele>
        <time>2021-04-06T10:13:45Z</time>
      </trkpt>
      <trkpt lat="58.23077" lon="-5.36577">
        <ele>50.44</ele>
        <time>2021-04-06T10:13:48Z</time>
      </trkpt>
      <trkpt lat="58.23128" lon="-5.3658">
        <ele>52.67</ele>
        <time>2021-04-06T10:13:52Z</time>
      </trkpt>
      <trkpt lat="58.23146" lon="-5.36598">
        <ele>52.21</ele>
        <time>2021-04-06T10:13:56Z</time>
      </trkpt>
      <trkpt lat="58.23183" lon="-5.36684">
        <ele>47.47</ele>
        <time>2021-04-06T10:14:00Z</time>
      </trkpt>
      <trkpt lat="58.23311" lon="-5.36849">
        <ele>45.74</ele>
        <time>2021-04-06T10:14:03Z</time>
      </trkpt>
      <trkpt lat="58.2333" lon="-5.36895">
        <ele>44.61</ele>
        <time>2021-04-06T10:14:07Z</time>
      </trkpt>
      <trkpt lat="58.23337" lon="-5.36937">
        <ele>43.67</ele>
        <time>2021-04-06T10:14:11Z</time>
      </trkpt>
      <trkpt lat="58.23337" lon="-5.36954">
        <ele>43.06</ele>
        <time>2021-04-06T10:14:14Z</time>
      </trkpt>
      <trkpt lat="58.23312" lon="-5.37314">
        <ele>37.23</ele>
        <time>2021-04-06T10:14:18Z</time>
      </trkpt>
      <trkpt lat="58.23305" lon="-5.37399">
        <ele>36.99</ele>
        <time>2021-04-06T10:14:22Z</time>
      </trkpt>
      <trkpt lat="58.23301" lon="-5.37433">
        <ele>37</ele>
        <time>2021-04-06T10:14:26Z</time>
      </trkpt>
      <trkpt lat="58.23295" lon="-5.37466">
        <ele>37.47</ele>
        <time>2021-04-06T10:14:29Z</time>
      </trkpt>
      <trkpt lat="58.2325" lon="-5.37598">
        <ele>41.04</ele>
        <time>2021-04-06T10:14:33Z</time>
      </trkpt>
      <trkpt lat="58.23234" lon="-5.37677">
        <ele>42.58</ele>
        <time>2021-04-06T10:14:37Z</time>
      </trkpt>
      <trkpt lat="58.2323" lon="-5.37725">
        <ele>42.46</ele>
        <time>2021-04-06T10:14:40Z</time>
      </trkpt>
      <trkpt lat="58.23234" lon="-5.37773">
        <ele>42.26</ele>
        <time>2021-04-06T10:14:44Z</time>
      </trkpt>
      <trkpt lat="58.23261" lon="-5.37934">
        <ele>42.37</ele>
        <time>2021-04-06T10:14:48Z</time>
      </trkpt>
      <trkpt lat="58.233" lon="-5.38112">
        <ele>40.55</ele>
        <time>2021-04-06T10:14:52Z</time>
      </trkpt>
      <trkpt lat="58.23317" lon="-5.38175">
        <ele>39.55</ele>
        <time>2021-04-06T10:14:55Z</time>
      </trkpt>
      <trkpt lat="58.23418" lon="-5.38399">
        <ele>32.75</ele>
        <time>2021-04-06T10:14:59Z</time>
      </trkpt>
      <trkpt lat="58.23433" lon="-5.38439">
        <ele>32.86</ele>
        <time>2021-04-06T10:15:03Z</time>
      </trkpt>
      <trkpt lat="58.23443" lon="-5.38481">
        <ele>32.82</ele>
        <time>2021-04-06T10:15:06Z</time>
      </trkpt>
      <trkpt lat="58.23443" lon="-5.38555">
        <ele>32.77</ele>
        <time>2021-04-06T10:15:10Z</time>
      </trkpt>
      <trkpt lat="58.23448" lon="-5.38635">
        <ele>31.64</ele>
        <time>2021-04-06T10:15:14Z</time>
      </trkpt>
      <trkpt lat="58.23472" lon="-5.3883">
        <ele>33.01</ele>
        <time>2021-04-06T10:15:17Z</time>
      </trkpt>
      <trkpt lat="58.23488" lon="-5.38895">
        <ele>34.67</ele>
        <time>2021-04-06T10:15:21Z</time>
      </trkpt>
      <trkpt lat="58.23488" lon="-5.38895">
        <ele>34.67</ele>
        <time>2021-04-06T10:15:21Z</time>
      </trkpt>
      <trkpt lat="58.23472" lon="-5.3883">
        <ele>33.01</ele>
        <time>2021-04-06T10:15:25Z</time>
      </trkpt>
      <trkpt lat="58.23448" lon="-5.38635">
        <ele>31.64</ele>
        <time>2021-04-06T10:15:29Z</time>
      </trkpt>
      <trkpt lat="58.23443" lon="-5.38555">
        <ele>32.77</ele>
        <time>2021-04-06T10:15:32Z</time>
      </trkpt>
      <trkpt lat="58.23443" lon="-5.38481">
        <ele>32.82</ele>
        <time>2021-04-06T10:15:36Z</time>
      </trkpt>
      <trkpt lat="58.23433" lon="-5.38439">
        <ele>32.86</ele>
        <time>2021-04-06T10:15:40Z</time>
      </trkpt>
      <trkpt lat="58.23418" lon="-5.38399">
        <ele>32.75</ele>
        <time>2021-04-06T10:15:44Z</time>
      </trkpt>
      <trkpt lat="58.23317" lon="-5.38175">
        <ele>39.55</ele>
        <time>2021-04-06T10:15:47Z</time>
      </trkpt>
      <trkpt lat="58.233" lon="-5.38112">
        <ele>40.55</ele>
        <time>2021-04-06T10:15:51Z</time>
      </trkpt>
      <trkpt lat="58.23261" lon="-5.37934">
        <ele>42.37</ele>
        <time>2021-04-06T10:15:55Z</time>
      </trkpt>
      <trkpt lat="58.23234" lon="-5.37773">
        <ele>42.26</ele>
        <time>2021-04-06T10:15:58Z</time>
      </trkpt>
      <trkpt lat="58.2323" lon="-5.37725">
        <ele>42.46</ele>
        <time>2021-04-06T10:16:02Z</time>
      </trkpt>
      <trkpt lat="58.23234" lon="-5.37677">
        <ele>42.58</ele>
        <time>2021-04-06T10:16:06Z</time>
      </trkpt>
      <trkpt lat="58.2325" lon="-5.37598">
        <ele>41.04</ele>
        <time>2021-04-06T10:16:09Z</time>
      </trkpt>
      <trkpt lat="58.23295" lon="-5.37466">
        <ele>37.47</ele>
        <time>2021-04-06T10:16:13Z</time>
      </trkpt>
      <trkpt lat="58.23301" lon="-5.37433">
        <ele>37</ele>
        <time>2021-04-06T10:16:17Z</time>
      </trkpt>
      <trkpt lat="58.23305" lon="-5.37399">
        <ele>36.99</ele>
        <time>2021-04-06T10:16:21Z</time>
      </trkpt>
      <trkpt lat="58.23312" lon="-5.37314">
        <ele>37.23</ele>
        <time>2021-04-06T10:16:24Z</time>
      </trkpt>
      <trkpt lat="58.23337" lon="-5.36954">
        <ele>43.06</ele>
        <time>2021-04-06T10:16:28Z</time>
      </trkpt>
      <trkpt lat="58.23337" lon="-5.36937">
        <ele>43.67</ele>
        <time>2021-04-06T10:16:32Z</time>
      </trkpt>
      <trkpt lat="58.2333" lon="-5.36895">
        <ele>44.61</ele>
        <time>2021-04-06T10:16:35Z</time>
      </trkpt>
      <trkpt lat="58.23311" lon="-5.36849">
        <ele>45.74</ele>
        <time>2021-04-06T10:16:39Z</time>
      </trkpt>
      <trkpt lat="58.23183" lon="-5.36684">
        <ele>47.47</ele>
        <time>2021-04-06T10:16:43Z</time>
      </trkpt>
      <trkpt lat="58.23146" lon="-5.36598">
        <ele>52.21</ele>
        <time>2021-04-06T10:16:47Z</time>
      </trkpt>
      <trkpt lat="58.23128" lon="-5.3658">
        <ele>52.67</ele>
        <time>2021-04-06T10:16:50Z</time>
      </trkpt>
      <trkpt lat="58.23077" lon="-5.36577">
        <ele>50.44</ele>
        <time>2021-04-06T10:16:54Z</time>
      </trkpt>
      <trkpt lat="58.23062" lon="-5.36561">
        <ele>51.64</ele>
        <time>2021-04-06T10:16:58Z</time>
      </trkpt>
      <trkpt lat="58.23022" lon="-5.36479">
        <ele>53.36</ele>
        <time>2021-04-06T10:17:01Z</time>
      </trkpt>
      <trkpt lat="58.22964" lon="-5.36333">
        <ele>58.73</ele>
        <time>2021-04-06T10:17:05Z</time>
      </trkpt>
      <trkpt lat="58.22944" lon="-5.36276">
        <ele>58.98</ele>
        <time>2021-04-06T10:17:09Z</time>
      </trkpt>
      <trkpt lat="58.22909" lon="-5.36155">
        <ele>59.43</ele>
        <time>2021-04-06T10:17:13Z</time>
      </trkpt>
      <trkpt lat="58.22892" lon="-5.36088">
        <ele>58.21</ele>
        <time>2021-04-06T10:17:16Z</time>
      </trkpt>
      <trkpt lat="58.22817" lon="-5.35826">
        <ele>49.42</ele>
        <time>2021-04-06T10:17:20Z</time>
      </trkpt>
      <trkpt lat="58.228" lon="-5.35748">
        <ele>48.59</ele>
        <time>2021-04-06T10:17:24Z</time>
      </trkpt>
      <trkpt lat="58.22766" lon="-5.35556">
        <ele>49.22</ele>
        <time>2021-04-06T10:17:27Z</time>
      </trkpt>
      <trkpt lat="58.22761" lon="-5.35482">
        <ele>50.18</ele>
        <time>2021-04-06T10:17:31Z</time>
      </trkpt>
      <trkpt lat="58.2276" lon="-5.35394">
        <ele>51.95</ele>
        <time>2021-04-06T10:17:35Z</time>
      </trkpt>
      <trkpt lat="58.22782" lon="-5.35162">
        <ele>58.65</ele>
        <time>2021-04-06T10:17:39Z</time>
      </trkpt>
      <trkpt lat="58.22851" lon="-5.34974">
        <ele>65.61</ele>
        <time>2021-04-06T10:17:42Z</time>
      </trkpt>
      <trkpt lat="58.22921" lon="-5.34817">
        <ele>68.5</ele>
        <time>2021-04-06T10:17:46Z</time>
      </trkpt>
      <trkpt lat="58.22933" lon="-5.34786">
        <ele>69.1</ele>
        <time>2021-04-06T10:17:50Z</time>
      </trkpt>
      <trkpt lat="58.22949" lon="-5.3473">
        <ele>70.36</ele>
        <time>2021-04-06T10:17:53Z</time>
      </trkpt>
      <trkpt lat="58.22965" lon="-5.34657">
        <ele>72.46</ele>
        <time>2021-04-06T10:17:57Z</time>
      </trkpt>
      <trkpt lat="58.23018" lon="-5.34363">
        <ele>78.93</ele>
        <time>2021-04-06T10:18:01Z</time>
      </trkpt>
      <trkpt lat="58.23085" lon="-5.33949">
        <ele>76.3</ele>
        <time>2021-04-06T10:18:05Z</time>
      </trkpt>
      <trkpt lat="58.23106" lon="-5.33875">
        <ele>73.46</ele>
        <time>2021-04-06T10:18:08Z</time>
      </trkpt>
      <trkpt lat="58.23156" lon="-5.3372">
        <ele>70.29</ele>
        <time>2021-04-06T10:18:12Z</time>
      </trkpt>
      <trkpt lat="58.23156" lon="-5.3372">
        <ele>70.29</ele>
        <time>2021-04-06T10:18:12Z</time>
      </trkpt>
      <trkpt lat="58.23156" lon="-5.3372">
        <ele>67.13</ele>
        <time>2021-04-06T10:18:12Z</time>
      </trkpt>
      <trkpt lat="58.22993" lon="-5.33792">
        <ele>55.78</ele>
        <time>2021-04-06T10:18:17Z</time>
      </trkpt>
      <trkpt lat="58.2295" lon="-5.33793">
        <ele>51.92</ele>
        <time>2021-04-06T10:18:22Z</time>
      </trkpt>
      <trkpt lat="58.22746" lon="-5.33768">
        <ele>50.96</ele>
        <time>2021-04-06T10:18:27Z</time>
      </trkpt>
      <trkpt lat="58.22655" lon="-5.33772">
        <ele>55.08</ele>
        <time>2021-04-06T10:18:32Z</time>
      </trkpt>
      <trkpt lat="58.22617" lon="-5.33777">
        <ele>56.62</ele>
        <time>2021-04-06T10:18:37Z</time>
      </trkpt>
      <trkpt lat="58.22513" lon="-5.33781">
        <ele>57.55</ele>
        <time>2021-04-06T10:18:42Z</time>
      </trkpt>
      <trkpt lat="58.22461" lon="-5.33797">
        <ele>56.24</ele>
        <time>2021-04-06T10:18:47Z</time>
      </trkpt>
      <trkpt lat="58.22294" lon="-5.33875">
        <ele>67.91</ele>
        <time>2021-04-06T10:18:52Z</time>
      </trkpt>
      <trkpt lat="58.22262" lon="-5.33882">
        <ele>69.38</ele>
        <time>2021-04-06T10:18:56Z</time>
      </trkpt>
      <trkpt lat="58.22132" lon="-5.33809">
        <ele>71.58</ele>
        <time>2021-04-06T10:19:01Z</time>
      </trkpt>
      <trkpt lat="58.22105" lon="-5.33804">
        <ele>69.51</ele>
        <time>2021-04-06T10:19:06Z</time>
      </trkpt>
      <trkpt lat="58.22083" lon="-5.33819">
        <ele>68.01</ele>
        <time>2021-04-06T10:19:11Z</time>
      </trkpt>
      <trkpt lat="58.22012" lon="-5.33885">
        <ele>62.63</ele>
        <time>2021-04-06T10:19:16Z</time>
      </trkpt>
      <trkpt lat="58.2193" lon="-5.33969">
        <ele>54.89</ele>
        <time>2021-04-06T10:19:21Z</time>
      </trkpt>
      <trkpt lat="58.21899" lon="-5.33996">
        <ele>51.4</ele>
        <time>2021-04-06T10:19:26Z</time>
      </trkpt>
      <trkpt lat="58.21828" lon="-5.34043">
        <ele>44.46</ele>
        <time>2021-04-06T10:19:31Z</time>
      </trkpt>
      <trkpt lat="58.21783" lon="-5.34061">
        <ele>39.83</ele>
        <time>2021-04-06T10:19:36Z</time>
      </trkpt>
      <trkpt lat="58.21756" lon="-5.34064">
        <ele>38.26</ele>
        <time>2021-04-06T10:19:41Z</time>
      </trkpt>
      <trkpt lat="58.21738" lon="-5.34063">
        <ele>37.57</ele>
        <time>2021-04-06T10:19:46Z</time>
      </trkpt>
      <trkpt lat="58.21672" lon="-5.34044">
        <ele>35.19</ele>
        <time>2021-04-06T10:19:51Z</time>
      </trkpt>
      <trkpt lat="58.21658" lon="-5.34036">
        <ele>35</ele>
        <time>2021-04-06T10:19:56Z</time>
      </trkpt>
      <trkpt lat="58.21587" lon="-5.33962">
        <ele>36.52</ele>
        <time>2021-04-06T10:20:00Z</time>
      </trkpt>
      <trkpt lat="58.21496" lon="-5.33925">
        <ele>40.87</ele>
        <time>2021-04-06T10:20:05Z</time>
      </trkpt>
      <trkpt lat="58.21407" lon="-5.33881">
        <ele>44.14</ele>
        <time>2021-04-06T10:20:10Z</time>
      </trkpt>
      <trkpt lat="58.21364" lon="-5.33841">
        <ele>44.47</ele>
        <time>2021-04-06T10:20:15Z</time>
      </trkpt>
      <trkpt lat="58.21329" lon="-5.33792">
        <ele>46.9</ele>
        <time>2021-04-06T10:20:20Z</time>
      </trkpt>
      <trkpt lat="58.21244" lon="-5.3364">
        <ele>49.21</ele>
        <time>2021-04-06T10:20:25Z</time>
      </trkpt>
      <trkpt lat="58.21243" lon="-5.3364">
        <ele>52.63</ele>
        <time>2021-04-06T10:20:25Z</time>
      </trkpt>
      <trkpt lat="58.21243" lon="-5.3364">
        <ele>52.63</ele>
        <time>2021-04-06T10:20:25Z</time>
      </trkpt>
      <trkpt lat="58.21285" lon="-5.33602">
        <ele>48.73</ele>
        <time>2021-04-06T10:20:28Z</time>
      </trkpt>
      <trkpt lat="58.21499" lon="-5.33385">
        <ele>47.35</ele>
        <time>2021-04-06T10:20:31Z</time>
      </trkpt>
      <trkpt lat="58.21531" lon="-5.33357">
        <ele>45.3</ele>
        <time>2021-04-06T10:20:34Z</time>
      </trkpt>
      <trkpt lat="58.21586" lon="-5.33269">
        <ele>49.4</ele>
        <time>2021-04-06T10:20:37Z</time>
      </trkpt>
      <trkpt lat="58.21608" lon="-5.33207">
        <ele>52.36</ele>
        <time>2021-04-06T10:20:40Z</time>
      </trkpt>
      <trkpt lat="58.21634" lon="-5.33098">
        <ele>53.31</ele>
        <time>2021-04-06T10:20:43Z</time>
      </trkpt>
      <trkpt lat="58.21723" lon="-5.32811">
        <ele>54.12</ele>
        <time>2021-04-06T10:20:46Z</time>
      </trkpt>
      <trkpt lat="58.21764" lon="-5.32653">
        <ele>55.77</ele>
        <time>2021-04-06T10:20:48Z</time>
      </trkpt>
      <trkpt lat="58.21817" lon="-5.32531">
        <ele>52.93</ele>
        <time>2021-04-06T10:20:51Z</time>
      </trkpt>
      <trkpt lat="58.21869" lon="-5.32461">
        <ele>52.58</ele>
        <time>2021-04-06T10:20:54Z</time>
      </trkpt>
      <trkpt lat="58.21937" lon="-5.32381">
        <ele>50.45</ele>
        <time>2021-04-06T10:20:57Z</time>
      </trkpt>
      <trkpt lat="58.21988" lon="-5.32329">
        <ele>51.9</ele>
        <time>2021-04-06T10:21:00Z</time>
      </trkpt>
      <trkpt lat="58.22025" lon="-5.32252">
        <ele>51.6</ele>
        <time>2021-04-06T10:21:03Z</time>
      </trkpt>
      <trkpt lat="58.22059" lon="-5.32205">
        <ele>52.68</ele>
        <time>2021-04-06T10:21:06Z</time>
      </trkpt>
      <trkpt lat="58.22114" lon="-5.32101">
        <ele>48.76</ele>
        <time>2021-04-06T10:21:09Z</time>
      </trkpt>
      <trkpt lat="58.22138" lon="-5.32021">
        <ele>46.76</ele>
        <time>2021-04-06T10:21:12Z</time>
      </trkpt>
      <trkpt lat="58.22163" lon="-5.31812">
        <ele>39.17</ele>
        <time>2021-04-06T10:21:15Z</time>
      </trkpt>
      <trkpt lat="58.2217" lon="-5.31775">
        <ele>37.92</ele>
        <time>2021-04-06T10:21:18Z</time>
      </trkpt>
      <trkpt lat="58.22189" lon="-5.31705">
        <ele>36.16</ele>
        <time>2021-04-06T10:21:20Z</time>
      </trkpt>
      <trkpt lat="58.22199" lon="-5.31676">
        <ele>34.81</ele>
        <time>2021-04-06T10:21:23Z</time>
      </trkpt>
      <trkpt lat="58.22232" lon="-5.31608">
        <ele>31.57</ele>
        <time>2021-04-06T10:21:26Z</time>
      </trkpt>
      <trkpt lat="58.22245" lon="-5.31564">
        <ele>29.42</ele>
        <time>2021-04-06T10:21:29Z</time>
      </trkpt>
      <trkpt lat="58.22253" lon="-5.31525">
        <ele>26.97</ele>
        <time>2021-04-06T10:21:32Z</time>
      </trkpt>
      <trkpt lat="58.22261" lon="-5.31463">
        <ele>23.17</ele>
        <time>2021-04-06T10:21:35Z</time>
      </trkpt>
      <trkpt lat="58.22269" lon="-5.31439">
        <ele>21.91</ele>
        <time>2021-04-06T10:21:38Z</time>
      </trkpt>
      <trkpt lat="58.22284" lon="-5.31406">
        <ele>19.04</ele>
        <time>2021-04-06T10:21:41Z</time>
      </trkpt>
      <trkpt lat="58.22291" lon="-5.31384">
        <ele>17.2</ele>
        <time>2021-04-06T10:21:44Z</time>
      </trkpt>
      <trkpt lat="58.22297" lon="-5.31356">
        <ele>15.54</ele>
        <time>2021-04-06T10:21:47Z</time>
      </trkpt>
      <trkpt lat="58.22299" lon="-5.31342">
        <ele>14.15</ele>
        <time>2021-04-06T10:21:50Z</time>
      </trkpt>
      <trkpt lat="58.22298" lon="-5.31301">
        <ele>13.1</ele>
        <time>2021-04-06T10:21:52Z</time>
      </trkpt>
      <trkpt lat="58.22294" lon="-5.31245">
        <ele>12.24</ele>
        <time>2021-04-06T10:21:55Z</time>
      </trkpt>
      <trkpt lat="58.22301" lon="-5.31163">
        <ele>11.18</ele>
        <time>2021-04-06T10:21:58Z</time>
      </trkpt>
      <trkpt lat="58.22308" lon="-5.31119">
        <ele>11.37</ele>
        <time>2021-04-06T10:22:01Z</time>
      </trkpt>
      <trkpt lat="58.22316" lon="-5.31079">
        <ele>10.53</ele>
        <time>2021-04-06T10:22:04Z</time>
      </trkpt>
      <trkpt lat="58.22338" lon="-5.31013">
        <ele>10.48</ele>
        <time>2021-04-06T10:22:07Z</time>
      </trkpt>
      <trkpt lat="58.22374" lon="-5.30928">
        <ele>13.56</ele>
        <time>2021-04-06T10:22:10Z</time>
      </trkpt>
      <trkpt lat="58.22402" lon="-5.30897">
        <ele>13.05</ele>
        <time>2021-04-06T10:22:13Z</time>
      </trkpt>
      <trkpt lat="58.2242" lon="-5.30869">
        <ele>13.33</ele>
        <time>2021-04-06T10:22:16Z</time>
      </trkpt>
      <trkpt lat="58.22488" lon="-5.30635">
        <ele>16.46</ele>
        <time>2021-04-06T10:22:19Z</time>
      </trkpt>
      <trkpt lat="58.225" lon="-5.30557">
        <ele>19.79</ele>
        <time>2021-04-06T10:22:21Z</time>
      </trkpt>
      <trkpt lat="58.22524" lon="-5.30499">
        <ele>14.39</ele>
        <time>2021-04-06T10:22:24Z</time>
      </trkpt>
      <trkpt lat="58.22527" lon="-5.30466">
        <ele>15.5</ele>
        <time>2021-04-06T10:22:27Z</time>
      </trkpt>
      <trkpt lat="58.22537" lon="-5.30439">
        <ele>15.19</ele>
        <time>2021-04-06T10:22:30Z</time>
      </trkpt>
      <trkpt lat="58.22574" lon="-5.30417">
        <ele>10.04</ele>
        <time>2021-04-06T10:22:33Z</time>
      </trkpt>
      <trkpt lat="58.22603" lon="-5.30373">
        <ele>10.12</ele>
        <time>2021-04-06T10:22:36Z</time>
      </trkpt>
      <trkpt lat="58.22622" lon="-5.30321">
        <ele>10.76</ele>
        <time>2021-04-06T10:22:39Z</time>
      </trkpt>
      <trkpt lat="58.22627" lon="-5.3026">
        <ele>14.43</ele>
        <time>2021-04-06T10:22:42Z</time>
      </trkpt>
      <trkpt lat="58.22634" lon="-5.30209">
        <ele>17.44</ele>
        <time>2021-04-06T10:22:45Z</time>
      </trkpt>
      <trkpt lat="58.22649" lon="-5.30161">
        <ele>20.03</ele>
        <time>2021-04-06T10:22:48Z</time>
      </trkpt>
      <trkpt lat="58.2269" lon="-5.30092">
        <ele>20.78</ele>
        <time>2021-04-06T10:22:51Z</time>
      </trkpt>
      <trkpt lat="58.22748" lon="-5.30041">
        <ele>16.55</ele>
        <time>2021-04-06T10:22:53Z</time>
      </trkpt>
      <trkpt lat="58.22823" lon="-5.29958">
        <ele>14.43</ele>
        <time>2021-04-06T10:22:56Z</time>
      </trkpt>
      <trkpt lat="58.22853" lon="-5.29908">
        <ele>13.7</ele>
        <time>2021-04-06T10:22:59Z</time>
      </trkpt>
      <trkpt lat="58.22871" lon="-5.29863">
        <ele>11.28</ele>
        <time>2021-04-06T10:23:02Z</time>
      </trkpt>
      <trkpt lat="58.22881" lon="-5.29782">
        <ele>12.46</ele>
        <time>2021-04-06T10:23:05Z</time>
      </trkpt>
      <trkpt lat="58.22886" lon="-5.29758">
        <ele>12.41</ele>
        <time>2021-04-06T10:23:08Z</time>
      </trkpt>
      <trkpt lat="58.22904" lon="-5.29718">
        <ele>11.69</ele>
        <time>2021-04-06T10:23:11Z</time>
      </trkpt>
      <trkpt lat="58.23005" lon="-5.29607">
        <ele>13.75</ele>
        <time>2021-04-06T10:23:14Z</time>
      </trkpt>
      <trkpt lat="58.23087" lon="-5.29499">
        <ele>10.14</ele>
        <time>2021-04-06T10:23:17Z</time>
      </trkpt>
      <trkpt lat="58.2309" lon="-5.2948">
        <ele>11.2</ele>
        <time>2021-04-06T10:23:20Z</time>
      </trkpt>
      <trkpt lat="58.23086" lon="-5.29444">
        <ele>17.02</ele>
        <time>2021-04-06T10:23:23Z</time>
      </trkpt>
      <trkpt lat="58.23088" lon="-5.29418">
        <ele>17.98</ele>
        <time>2021-04-06T10:23:25Z</time>
      </trkpt>
      <trkpt lat="58.23099" lon="-5.29381">
        <ele>16.68</ele>
        <time>2021-04-06T10:23:28Z</time>
      </trkpt>
      <trkpt lat="58.23103" lon="-5.29327">
        <ele>16.85</ele>
        <time>2021-04-06T10:23:31Z</time>
      </trkpt>
      <trkpt lat="58.23109" lon="-5.29294">
        <ele>15.24</ele>
        <time>2021-04-06T10:23:34Z</time>
      </trkpt>
      <trkpt lat="58.23129" lon="-5.29141">
        <ele>18.26</ele>
        <time>2021-04-06T10:23:37Z</time>
      </trkpt>
      <trkpt lat="58.23139" lon="-5.29025">
        <ele>22.15</ele>
        <time>2021-04-06T10:23:40Z</time>
      </trkpt>
      <trkpt lat="58.23119" lon="-5.28776">
        <ele>24.71</ele>
        <time>2021-04-06T10:23:43Z</time>
      </trkpt>
      <trkpt lat="58.23089" lon="-5.28543">
        <ele>26.66</ele>
        <time>2021-04-06T10:23:46Z</time>
      </trkpt>
      <trkpt lat="58.23057" lon="-5.28453">
        <ele>23.99</ele>
        <time>2021-04-06T10:23:49Z</time>
      </trkpt>
      <trkpt lat="58.23037" lon="-5.28371">
        <ele>24.07</ele>
        <time>2021-04-06T10:23:52Z</time>
      </trkpt>
      <trkpt lat="58.23002" lon="-5.2821">
        <ele>20.88</ele>
        <time>2021-04-06T10:23:54Z</time>
      </trkpt>
      <trkpt lat="58.22963" lon="-5.28004">
        <ele>24.42</ele>
        <time>2021-04-06T10:23:57Z</time>
      </trkpt>
      <trkpt lat="58.22941" lon="-5.27905">
        <ele>24.29</ele>
        <time>2021-04-06T10:24:00Z</time>
      </trkpt>
      <trkpt lat="58.22917" lon="-5.27822">
        <ele>25.43</ele>
        <time>2021-04-06T10:24:03Z</time>
      </trkpt>
      <trkpt lat="58.22834" lon="-5.27507">
        <ele>41.57</ele>
        <time>2021-04-06T10:24:06Z</time>
      </trkpt>
      <trkpt lat="58.22773" lon="-5.27174">
        <ele>51.41</ele>
        <time>2021-04-06T10:24:09Z</time>
      </trkpt>
      <trkpt lat="58.22725" lon="-5.26876">
        <ele>56.58</ele>
        <time>2021-04-06T10:24:12Z</time>
      </trkpt>
      <trkpt lat="58.22712" lon="-5.26765">
        <ele>60.42</ele>
        <time>2021-04-06T10:24:15Z</time>
      </trkpt>
      <trkpt lat="58.22707" lon="-5.26697">
        <ele>61.1</ele>
        <time>2021-04-06T10:24:18Z</time>
      </trkpt>
      <trkpt lat="58.22716" lon="-5.26581">
        <ele>60.86</ele>
        <time>2021-04-06T10:24:21Z</time>
      </trkpt>
      <trkpt lat="58.22724" lon="-5.26544">
        <ele>62.15</ele>
        <time>2021-04-06T10:24:24Z</time>
      </trkpt>
      <trkpt lat="58.2273" lon="-5.26535">
        <ele>62.56</ele>
        <time>2021-04-06T10:24:26Z</time>
      </trkpt>
      <trkpt lat="58.2283" lon="-5.26421">
        <ele>66.88</ele>
        <time>2021-04-06T10:24:29Z</time>
      </trkpt>
      <trkpt lat="58.22849" lon="-5.26391">
        <ele>66.07</ele>
        <time>2021-04-06T10:24:32Z</time>
      </trkpt>
      <trkpt lat="58.22852" lon="-5.26368">
        <ele>66</ele>
        <time>2021-04-06T10:24:35Z</time>
      </trkpt>
      <trkpt lat="58.22851" lon="-5.26292">
        <ele>65.96</ele>
        <time>2021-04-06T10:24:38Z</time>
      </trkpt>
      <trkpt lat="58.22841" lon="-5.26047">
        <ele>69.85</ele>
        <time>2021-04-06T10:24:41Z</time>
      </trkpt>
      <trkpt lat="58.22845" lon="-5.26003">
        <ele>71.19</ele>
        <time>2021-04-06T10:24:44Z</time>
      </trkpt>
      <trkpt lat="58.22912" lon="-5.25859">
        <ele>78.77</ele>
        <time>2021-04-06T10:24:47Z</time>
      </trkpt>
      <trkpt lat="58.22976" lon="-5.25755">
        <ele>77.18</ele>
        <time>2021-04-06T10:24:50Z</time>
      </trkpt>
      <trkpt lat="58.23011" lon="-5.25728">
        <ele>76.6</ele>
        <time>2021-04-06T10:24:53Z</time>
      </trkpt>
      <trkpt lat="58.23045" lon="-5.25708">
        <ele>76.69</ele>
        <time>2021-04-06T10:24:56Z</time>
      </trkpt>
      <trkpt lat="58.23112" lon="-5.25723">
        <ele>76.05</ele>
        <time>2021-04-06T10:24:58Z</time>
      </trkpt>
      <trkpt lat="58.23126" lon="-5.25707">
        <ele>77.07</ele>
        <time>2021-04-06T10:25:01Z</time>
      </trkpt>
      <trkpt lat="58.23131" lon="-5.25673">
        <ele>76.67</ele>
        <time>2021-04-06T10:25:04Z</time>
      </trkpt>
      <trkpt lat="58.23129" lon="-5.25599">
        <ele>75.29</ele>
        <time>2021-04-06T10:25:07Z</time>
      </trkpt>
      <trkpt lat="58.23138" lon="-5.25529">
        <ele>75</ele>
        <time>2021-04-06T10:25:10Z</time>
      </trkpt>
      <trkpt lat="58.23148" lon="-5.25477">
        <ele>75.65</ele>
        <time>2021-04-06T10:25:13Z</time>
      </trkpt>
      <trkpt lat="58.23148" lon="-5.25437">
        <ele>74.68</ele>
        <time>2021-04-06T10:25:16Z</time>
      </trkpt>
      <trkpt lat="58.2313" lon="-5.25342">
        <ele>76.36</ele>
        <time>2021-04-06T10:25:19Z</time>
      </trkpt>
      <trkpt lat="58.23115" lon="-5.25278">
        <ele>77.26</ele>
        <time>2021-04-06T10:25:22Z</time>
      </trkpt>
      <trkpt lat="58.2311" lon="-5.2524">
        <ele>76.57</ele>
        <time>2021-04-06T10:25:25Z</time>
      </trkpt>
      <trkpt lat="58.23118" lon="-5.2516">
        <ele>74.93</ele>
        <time>2021-04-06T10:25:27Z</time>
      </trkpt>
      <trkpt lat="58.23142" lon="-5.25038">
        <ele>77.48</ele>
        <time>2021-04-06T10:25:30Z</time>
      </trkpt>
      <trkpt lat="58.23154" lon="-5.25005">
        <ele>79.34</ele>
        <time>2021-04-06T10:25:33Z</time>
      </trkpt>
      <trkpt lat="58.2323" lon="-5.24878">
        <ele>85.07</ele>
        <time>2021-04-06T10:25:36Z</time>
      </trkpt>
      <trkpt lat="58.23305" lon="-5.24761">
        <ele>82.97</ele>
        <time>2021-04-06T10:25:39Z</time>
      </trkpt>
      <trkpt lat="58.23366" lon="-5.24675">
        <ele>78.58</ele>
        <time>2021-04-06T10:25:42Z</time>
      </trkpt>
      <trkpt lat="58.23466" lon="-5.24528">
        <ele>77</ele>
        <time>2021-04-06T10:25:45Z</time>
      </trkpt>
      <trkpt lat="58.23486" lon="-5.24467">
        <ele>75.81</ele>
        <time>2021-04-06T10:25:48Z</time>
      </trkpt>
      <trkpt lat="58.23556" lon="-5.24344">
        <ele>63.71</ele>
        <time>2021-04-06T10:25:51Z</time>
      </trkpt>
      <trkpt lat="58.23639" lon="-5.24217">
        <ele>55.41</ele>
        <time>2021-04-06T10:25:54Z</time>
      </trkpt>
      <trkpt lat="58.23672" lon="-5.24173">
        <ele>50</ele>
        <time>2021-04-06T10:25:57Z</time>
      </trkpt>
      <trkpt lat="58.23709" lon="-5.24138">
        <ele>44.34</ele>
        <time>2021-04-06T10:25:59Z</time>
      </trkpt>
      <trkpt lat="58.23739" lon="-5.24122">
        <ele>40.43</ele>
        <time>2021-04-06T10:26:02Z</time>
      </trkpt>
      <trkpt lat="58.23826" lon="-5.24145">
        <ele>37.46</ele>
        <time>2021-04-06T10:26:05Z</time>
      </trkpt>
      <trkpt lat="58.23864" lon="-5.24135">
        <ele>27.88</ele>
        <time>2021-04-06T10:26:08Z</time>
      </trkpt>
      <trkpt lat="58.2389" lon="-5.24109">
        <ele>19.73</ele>
        <time>2021-04-06T10:26:11Z</time>
      </trkpt>
      <trkpt lat="58.23953" lon="-5.24009">
        <ele>12</ele>
        <time>2021-04-06T10:26:14Z</time>
      </trkpt>
      <trkpt lat="58.23976" lon="-5.23981">
        <ele>11.96</ele>
        <time>2021-04-06T10:26:17Z</time>
      </trkpt>
      <trkpt lat="58.23988" lon="-5.23977">
        <ele>11.9</ele>
        <time>2021-04-06T10:26:20Z</time>
      </trkpt>
      <trkpt lat="58.2404" lon="-5.23986">
        <ele>12.95</ele>
        <time>2021-04-06T10:26:23Z</time>
      </trkpt>
      <trkpt lat="58.24087" lon="-5.23999">
        <ele>12.91</ele>
        <time>2021-04-06T10:26:26Z</time>
      </trkpt>
      <trkpt lat="58.24101" lon="-5.24">
        <ele>12.37</ele>
        <time>2021-04-06T10:26:28Z</time>
      </trkpt>
      <trkpt lat="58.24119" lon="-5.23994">
        <ele>11.94</ele>
        <time>2021-04-06T10:26:31Z</time>
      </trkpt>
      <trkpt lat="58.24137" lon="-5.23981">
        <ele>11.75</ele>
        <time>2021-04-06T10:26:34Z</time>
      </trkpt>
      <trkpt lat="58.24152" lon="-5.23962">
        <ele>11.88</ele>
        <time>2021-04-06T10:26:37Z</time>
      </trkpt>
      <trkpt lat="58.24181" lon="-5.23914">
        <ele>12.6</ele>
        <time>2021-04-06T10:26:40Z</time>
      </trkpt>
      <trkpt lat="58.2419" lon="-5.23889">
        <ele>13.15</ele>
        <time>2021-04-06T10:26:43Z</time>
      </trkpt>
      <trkpt lat="58.24223" lon="-5.23769">
        <ele>12</ele>
        <time>2021-04-06T10:26:46Z</time>
      </trkpt>
      <trkpt lat="58.24228" lon="-5.2376">
        <ele>12</ele>
        <time>2021-04-06T10:26:49Z</time>
      </trkpt>
      <trkpt lat="58.24398" lon="-5.2357">
        <ele>11.22</ele>
        <time>2021-04-06T10:26:52Z</time>
      </trkpt>
      <trkpt lat="58.24405" lon="-5.23559">
        <ele>10.82</ele>
        <time>2021-04-06T10:26:55Z</time>
      </trkpt>
      <trkpt lat="58.24424" lon="-5.23518">
        <ele>9.55</ele>
        <time>2021-04-06T10:26:58Z</time>
      </trkpt>
      <trkpt lat="58.24439" lon="-5.23497">
        <ele>8.36</ele>
        <time>2021-04-06T10:27:00Z</time>
      </trkpt>
      <trkpt lat="58.24495" lon="-5.23384">
        <ele>6.11</ele>
        <time>2021-04-06T10:27:03Z</time>
      </trkpt>
      <trkpt lat="58.24514" lon="-5.23341">
        <ele>6.59</ele>
        <time>2021-04-06T10:27:06Z</time>
      </trkpt>
      <trkpt lat="58.24518" lon="-5.2332">
        <ele>6.97</ele>
        <time>2021-04-06T10:27:09Z</time>
      </trkpt>
      <trkpt lat="58.24518" lon="-5.2332">
        <ele>6.97</ele>
        <time>2021-04-06T10:27:09Z</time>
      </trkpt>
      <trkpt lat="58.24518" lon="-5.23302">
        <ele>7.57</ele>
        <time>2021-04-06T10:27:12Z</time>
      </trkpt>
      <trkpt lat="58.2451" lon="-5.23278">
        <ele>9.53</ele>
        <time>2021-04-06T10:27:15Z</time>
      </trkpt>
      <trkpt lat="58.24492" lon="-5.23194">
        <ele>12.59</ele>
        <time>2021-04-06T10:27:18Z</time>
      </trkpt>
      <trkpt lat="58.24448" lon="-5.2304">
        <ele>13</ele>
        <time>2021-04-06T10:27:22Z</time>
      </trkpt>
      <trkpt lat="58.24398" lon="-5.22836">
        <ele>13.09</ele>
        <time>2021-04-06T10:27:25Z</time>
      </trkpt>
      <trkpt lat="58.24363" lon="-5.22702">
        <ele>14.64</ele>
        <time>2021-04-06T10:27:28Z</time>
      </trkpt>
      <trkpt lat="58.24339" lon="-5.22623">
        <ele>19.22</ele>
        <time>2021-04-06T10:27:31Z</time>
      </trkpt>
      <trkpt lat="58.24299" lon="-5.22552">
        <ele>25.47</ele>
        <time>2021-04-06T10:27:34Z</time>
      </trkpt>
      <trkpt lat="58.24277" lon="-5.225">
        <ele>29.08</ele>
        <time>2021-04-06T10:27:37Z</time>
      </trkpt>
      <trkpt lat="58.24271" lon="-5.22467">
        <ele>31.81</ele>
        <time>2021-04-06T10:27:40Z</time>
      </trkpt>
      <trkpt lat="58.24272" lon="-5.22437">
        <ele>33.49</ele>
        <time>2021-04-06T10:27:43Z</time>
      </trkpt>
      <trkpt lat="58.24279" lon="-5.22319">
        <ele>36.09</ele>
        <time>2021-04-06T10:27:46Z</time>
      </trkpt>
      <trkpt lat="58.24285" lon="-5.22269">
        <ele>36.24</ele>
        <time>2021-04-06T10:27:49Z</time>
      </trkpt>
      <trkpt lat="58.24295" lon="-5.22234">
        <ele>36.03</ele>
        <time>2021-04-06T10:27:52Z</time>
      </trkpt>
      <trkpt lat="58.2432" lon="-5.22202">
        <ele>36.33</ele>
        <time>2021-04-06T10:27:55Z</time>
      </trkpt>
      <trkpt lat="58.24331" lon="-5.22184">
        <ele>36.42</ele>
        <time>2021-04-06T10:27:59Z</time>
      </trkpt>
      <trkpt lat="58.24337" lon="-5.22163">
        <ele>36.44</ele>
        <time>2021-04-06T10:28:02Z</time>
      </trkpt>
      <trkpt lat="58.24343" lon="-5.22124">
        <ele>36.87</ele>
        <time>2021-04-06T10:28:05Z</time>
      </trkpt>
      <trkpt lat="58.24344" lon="-5.22101">
        <ele>36.79</ele>
        <time>2021-04-06T10:28:08Z</time>
      </trkpt>
      <trkpt lat="58.24343" lon="-5.2207">
        <ele>36.9</ele>
        <time>2021-04-06T10:28:11Z</time>
      </trkpt>
      <trkpt lat="58.2434" lon="-5.22012">
        <ele>36.82</ele>
        <time>2021-04-06T10:28:14Z</time>
      </trkpt>
      <trkpt lat="58.24335" lon="-5.21966">
        <ele>37.49</ele>
        <time>2021-04-06T10:28:17Z</time>
      </trkpt>
      <trkpt lat="58.2433" lon="-5.21937">
        <ele>37.78</ele>
        <time>2021-04-06T10:28:20Z</time>
      </trkpt>
      <trkpt lat="58.24283" lon="-5.21749">
        <ele>39.74</ele>
        <time>2021-04-06T10:28:23Z</time>
      </trkpt>
      <trkpt lat="58.2424" lon="-5.21555">
        <ele>39.5</ele>
        <time>2021-04-06T10:28:26Z</time>
      </trkpt>
      <trkpt lat="58.24234" lon="-5.21514">
        <ele>38.93</ele>
        <time>2021-04-06T10:28:29Z</time>
      </trkpt>
      <trkpt lat="58.24233" lon="-5.21489">
        <ele>38.76</ele>
        <time>2021-04-06T10:28:32Z</time>
      </trkpt>
      <trkpt lat="58.24236" lon="-5.21464">
        <ele>38.08</ele>
        <time>2021-04-06T10:28:35Z</time>
      </trkpt>
      <trkpt lat="58.24247" lon="-5.21438">
        <ele>37.57</ele>
        <time>2021-04-06T10:28:39Z</time>
      </trkpt>
      <trkpt lat="58.2429" lon="-5.21388">
        <ele>37.38</ele>
        <time>2021-04-06T10:28:42Z</time>
      </trkpt>
      <trkpt lat="58.24312" lon="-5.21357">
        <ele>36.61</ele>
        <time>2021-04-06T10:28:45Z</time>
      </trkpt>
      <trkpt lat="58.24321" lon="-5.21353">
        <ele>36.17</ele>
        <time>2021-04-06T10:28:48Z</time>
      </trkpt>
      <trkpt lat="58.24331" lon="-5.21359">
        <ele>36.03</ele>
        <time>2021-04-06T10:28:51Z</time>
      </trkpt>
      <trkpt lat="58.2435" lon="-5.21396">
        <ele>36.29</ele>
        <time>2021-04-06T10:28:54Z</time>
      </trkpt>
      <trkpt lat="58.24373" lon="-5.21426">
        <ele>36.49</ele>
        <time>2021-04-06T10:28:57Z</time>
      </trkpt>
      <trkpt lat="58.24392" lon="-5.21431">
        <ele>35.4</ele>
        <time>2021-04-06T10:29:00Z</time>
      </trkpt>
      <trkpt lat="58.2441" lon="-5.21427">
        <ele>34.64</ele>
        <time>2021-04-06T10:29:03Z</time>
      </trkpt>
      <trkpt lat="58.24424" lon="-5.21415">
        <ele>34.42</ele>
        <time>2021-04-06T10:29:06Z</time>
      </trkpt>
      <trkpt lat="58.24436" lon="-5.21397">
        <ele>34.64</ele>
        <time>2021-04-06T10:29:09Z</time>
      </trkpt>
      <trkpt lat="58.24453" lon="-5.21322">
        <ele>37.28</ele>
        <time>2021-04-06T10:29:12Z</time>
      </trkpt>
      <trkpt lat="58.2447" lon="-5.21205">
        <ele>42.56</ele>
        <time>2021-04-06T10:29:16Z</time>
      </trkpt>
      <trkpt lat="58.24469" lon="-5.21169">
        <ele>43.27</ele>
        <time>2021-04-06T10:29:19Z</time>
      </trkpt>
      <trkpt lat="58.2446" lon="-5.2105">
        <ele>42</ele>
        <time>2021-04-06T10:29:22Z</time>
      </trkpt>
      <trkpt lat="58.24455" lon="-5.2101">
        <ele>41.55</ele>
        <time>2021-04-06T10:29:25Z</time>
      </trkpt>
      <trkpt lat="58.24447" lon="-5.20965">
        <ele>39.94</ele>
        <time>2021-04-06T10:29:28Z</time>
      </trkpt>
      <trkpt lat="58.24444" lon="-5.20935">
        <ele>39.99</ele>
        <time>2021-04-06T10:29:31Z</time>
      </trkpt>
      <trkpt lat="58.24449" lon="-5.20915">
        <ele>41.08</ele>
        <time>2021-04-06T10:29:34Z</time>
      </trkpt>
      <trkpt lat="58.24468" lon="-5.20858">
        <ele>42.88</ele>
        <time>2021-04-06T10:29:37Z</time>
      </trkpt>
      <trkpt lat="58.24473" lon="-5.20832">
        <ele>42.18</ele>
        <time>2021-04-06T10:29:40Z</time>
      </trkpt>
      <trkpt lat="58.24477" lon="-5.20803">
        <ele>42.85</ele>
        <time>2021-04-06T10:29:43Z</time>
      </trkpt>
      <trkpt lat="58.24477" lon="-5.20778">
        <ele>41.86</ele>
        <time>2021-04-06T10:29:46Z</time>
      </trkpt>
      <trkpt lat="58.24472" lon="-5.207">
        <ele>43.79</ele>
        <time>2021-04-06T10:29:49Z</time>
      </trkpt>
      <trkpt lat="58.24468" lon="-5.20675">
        <ele>44.65</ele>
        <time>2021-04-06T10:29:53Z</time>
      </trkpt>
      <trkpt lat="58.24463" lon="-5.2062">
        <ele>45.79</ele>
        <time>2021-04-06T10:29:56Z</time>
      </trkpt>
      <trkpt lat="58.24457" lon="-5.20587">
        <ele>47.17</ele>
        <time>2021-04-06T10:29:59Z</time>
      </trkpt>
      <trkpt lat="58.24446" lon="-5.2055">
        <ele>49.79</ele>
        <time>2021-04-06T10:30:02Z</time>
      </trkpt>
      <trkpt lat="58.24438" lon="-5.20515">
        <ele>50.5</ele>
        <time>2021-04-06T10:30:05Z</time>
      </trkpt>
      <trkpt lat="58.24437" lon="-5.20496">
        <ele>50.36</ele>
        <time>2021-04-06T10:30:08Z</time>
      </trkpt>
      <trkpt lat="58.24423" lon="-5.20451">
        <ele>48.23</ele>
        <time>2021-04-06T10:30:11Z</time>
      </trkpt>
      <trkpt lat="58.24413" lon="-5.20426">
        <ele>47.01</ele>
        <time>2021-04-06T10:30:14Z</time>
      </trkpt>
      <trkpt lat="58.24392" lon="-5.20388">
        <ele>44.24</ele>
        <time>2021-04-06T10:30:17Z</time>
      </trkpt>
      <trkpt lat="58.24382" lon="-5.20362">
        <ele>43.99</ele>
        <time>2021-04-06T10:30:20Z</time>
      </trkpt>
      <trkpt lat="58.24376" lon="-5.20341">
        <ele>43.92</ele>
        <time>2021-04-06T10:30:23Z</time>
      </trkpt>
      <trkpt lat="58.24341" lon="-5.20237">
        <ele>47.64</ele>
        <time>2021-04-06T10:30:26Z</time>
      </trkpt>
      <trkpt lat="58.2431" lon="-5.20163">
        <ele>49.55</ele>
        <time>2021-04-06T10:30:29Z</time>
      </trkpt>
      <trkpt lat="58.24282" lon="-5.20106">
        <ele>49.14</ele>
        <time>2021-04-06T10:30:33Z</time>
      </trkpt>
      <trkpt lat="58.24225" lon="-5.2">
        <ele>46.31</ele>
        <time>2021-04-06T10:30:36Z</time>
      </trkpt>
      <trkpt lat="58.24202" lon="-5.19946">
        <ele>47.91</ele>
        <time>2021-04-06T10:30:39Z</time>
      </trkpt>
      <trkpt lat="58.24128" lon="-5.19814">
        <ele>52.09</ele>
        <time>2021-04-06T10:30:42Z</time>
      </trkpt>
      <trkpt lat="58.2411" lon="-5.19785">
        <ele>52.71</ele>
        <time>2021-04-06T10:30:45Z</time>
      </trkpt>
      <trkpt lat="58.24099" lon="-5.19741">
        <ele>54.6</ele>
        <time>2021-04-06T10:30:48Z</time>
      </trkpt>
      <trkpt lat="58.24091" lon="-5.19658">
        <ele>58.12</ele>
        <time>2021-04-06T10:30:51Z</time>
      </trkpt>
      <trkpt lat="58.24094" lon="-5.19608">
        <ele>62.63</ele>
        <time>2021-04-06T10:30:54Z</time>
      </trkpt>
      <trkpt lat="58.24129" lon="-5.19495">
        <ele>67.5</ele>
        <time>2021-04-06T10:30:57Z</time>
      </trkpt>
      <trkpt lat="58.24185" lon="-5.1936">
        <ele>63.92</ele>
        <time>2021-04-06T10:31:00Z</time>
      </trkpt>
      <trkpt lat="58.24224" lon="-5.19272">
        <ele>55.72</ele>
        <time>2021-04-06T10:31:03Z</time>
      </trkpt>
      <trkpt lat="58.24238" lon="-5.19255">
        <ele>53.51</ele>
        <time>2021-04-06T10:31:06Z</time>
      </trkpt>
      <trkpt lat="58.24246" lon="-5.19233">
        <ele>53.12</ele>
        <time>2021-04-06T10:31:10Z</time>
      </trkpt>
      <trkpt lat="58.24252" lon="-5.19185">
        <ele>55.33</ele>
        <time>2021-04-06T10:31:13Z</time>
      </trkpt>
      <trkpt lat="58.24258" lon="-5.19157">
        <ele>56.13</ele>
        <time>2021-04-06T10:31:16Z</time>
      </trkpt>
      <trkpt lat="58.24282" lon="-5.19103">
        <ele>54.96</ele>
        <time>2021-04-06T10:31:19Z</time>
      </trkpt>
      <trkpt lat="58.24295" lon="-5.19033">
        <ele>54.81</ele>
        <time>2021-04-06T10:31:22Z</time>
      </trkpt>
      <trkpt lat="58.24304" lon="-5.18977">
        <ele>55.12</ele>
        <time>2021-04-06T10:31:25Z</time>
      </trkpt>
      <trkpt lat="58.24305" lon="-5.18929">
        <ele>56.69</ele>
        <time>2021-04-06T10:31:28Z</time>
      </trkpt>
      <trkpt lat="58.24302" lon="-5.18885">
        <ele>59.13</ele>
        <time>2021-04-06T10:31:31Z</time>
      </trkpt>
      <trkpt lat="58.24257" lon="-5.18731">
        <ele>72.75</ele>
        <time>2021-04-06T10:31:34Z</time>
      </trkpt>
      <trkpt lat="58.242" lon="-5.18518">
        <ele>74.21</ele>
        <time>2021-04-06T10:31:37Z</time>
      </trkpt>
      <trkpt lat="58.24189" lon="-5.18443">
        <ele>72.86</ele>
        <time>2021-04-06T10:31:40Z</time>
      </trkpt>
      <trkpt lat="58.24173" lon="-5.18249">
        <ele>68.66</ele>
        <time>2021-04-06T10:31:43Z</time>
      </trkpt>
      <trkpt lat="58.24168" lon="-5.18127">
        <ele>68.75</ele>
        <time>2021-04-06T10:31:47Z</time>
      </trkpt>
      <trkpt lat="58.24153" lon="-5.18087">
        <ele>67.01</ele>
        <time>2021-04-06T10:31:50Z</time>
      </trkpt>
      <trkpt lat="58.24079" lon="-5.18017">
        <ele>61.33</ele>
        <time>2021-04-06T10:31:53Z</time>
      </trkpt>
      <trkpt lat="58.24053" lon="-5.17911">
        <ele>58.96</ele>
        <time>2021-04-06T10:31:56Z</time>
      </trkpt>
      <trkpt lat="58.24051" lon="-5.1783">
        <ele>54.11</ele>
        <time>2021-04-06T10:31:59Z</time>
      </trkpt>
      <trkpt lat="58.24034" lon="-5.17782">
        <ele>50.78</ele>
        <time>2021-04-06T10:32:02Z</time>
      </trkpt>
      <trkpt lat="58.23986" lon="-5.17729">
        <ele>45.08</ele>
        <time>2021-04-06T10:32:05Z</time>
      </trkpt>
      <trkpt lat="58.23967" lon="-5.17716">
        <ele>42.74</ele>
        <time>2021-04-06T10:32:08Z</time>
      </trkpt>
      <trkpt lat="58.23938" lon="-5.17733">
        <ele>48.28</ele>
        <time>2021-04-06T10:32:11Z</time>
      </trkpt>
      <trkpt lat="58.23894" lon="-5.17705">
        <ele>44.39</ele>
        <time>2021-04-06T10:32:14Z</time>
      </trkpt>
      <trkpt lat="58.23827" lon="-5.17645">
        <ele>40.99</ele>
        <time>2021-04-06T10:32:17Z</time>
      </trkpt>
      <trkpt lat="58.23786" lon="-5.17614">
        <ele>42.23</ele>
        <time>2021-04-06T10:32:20Z</time>
      </trkpt>
      <trkpt lat="58.23653" lon="-5.17574">
        <ele>45.7</ele>
        <time>2021-04-06T10:32:23Z</time>
      </trkpt>
      <trkpt lat="58.2362" lon="-5.17486">
        <ele>41.67</ele>
        <time>2021-04-06T10:32:27Z</time>
      </trkpt>
      <trkpt lat="58.23613" lon="-5.17423">
        <ele>43.82</ele>
        <time>2021-04-06T10:32:30Z</time>
      </trkpt>
      <trkpt lat="58.23608" lon="-5.17341">
        <ele>43.97</ele>
        <time>2021-04-06T10:32:33Z</time>
      </trkpt>
      <trkpt lat="58.23567" lon="-5.17217">
        <ele>40.83</ele>
        <time>2021-04-06T10:32:36Z</time>
      </trkpt>
      <trkpt lat="58.23541" lon="-5.17154">
        <ele>39.52</ele>
        <time>2021-04-06T10:32:39Z</time>
      </trkpt>
      <trkpt lat="58.23534" lon="-5.17127">
        <ele>39.55</ele>
        <time>2021-04-06T10:32:42Z</time>
      </trkpt>
      <trkpt lat="58.23539" lon="-5.17084">
        <ele>36.31</ele>
        <time>2021-04-06T10:32:45Z</time>
      </trkpt>
      <trkpt lat="58.23546" lon="-5.17042">
        <ele>31.97</ele>
        <time>2021-04-06T10:32:48Z</time>
      </trkpt>
      <trkpt lat="58.23544" lon="-5.16963">
        <ele>27.74</ele>
        <time>2021-04-06T10:32:51Z</time>
      </trkpt>
      <trkpt lat="58.23549" lon="-5.16912">
        <ele>23.91</ele>
        <time>2021-04-06T10:32:54Z</time>
      </trkpt>
      <trkpt lat="58.23548" lon="-5.16814">
        <ele>18</ele>
        <time>2021-04-06T10:32:57Z</time>
      </trkpt>
      <trkpt lat="58.23527" lon="-5.16624">
        <ele>7.19</ele>
        <time>2021-04-06T10:33:00Z</time>
      </trkpt>
      <trkpt lat="58.23474" lon="-5.16477">
        <ele>10.25</ele>
        <time>2021-04-06T10:33:04Z</time>
      </trkpt>
      <trkpt lat="58.23443" lon="-5.16418">
        <ele>12.96</ele>
        <time>2021-04-06T10:33:07Z</time>
      </trkpt>
      <trkpt lat="58.23433" lon="-5.16366">
        <ele>11.85</ele>
        <time>2021-04-06T10:33:10Z</time>
      </trkpt>
      <trkpt lat="58.23442" lon="-5.16313">
        <ele>7.93</ele>
        <time>2021-04-06T10:33:13Z</time>
      </trkpt>
      <trkpt lat="58.23437" lon="-5.16252">
        <ele>7.5</ele>
        <time>2021-04-06T10:33:16Z</time>
      </trkpt>
      <trkpt lat="58.23395" lon="-5.16132">
        <ele>11.18</ele>
        <time>2021-04-06T10:33:19Z</time>
      </trkpt>
      <trkpt lat="58.23326" lon="-5.15987">
        <ele>9.29</ele>
        <time>2021-04-06T10:33:22Z</time>
      </trkpt>
      <trkpt lat="58.23294" lon="-5.15893">
        <ele>6.94</ele>
        <time>2021-04-06T10:33:25Z</time>
      </trkpt>
      <trkpt lat="58.23284" lon="-5.15843">
        <ele>6.67</ele>
        <time>2021-04-06T10:33:28Z</time>
      </trkpt>
      <trkpt lat="58.23291" lon="-5.15796">
        <ele>5.54</ele>
        <time>2021-04-06T10:33:31Z</time>
      </trkpt>
      <trkpt lat="58.23301" lon="-5.15772">
        <ele>5.18</ele>
        <time>2021-04-06T10:33:34Z</time>
      </trkpt>
      <trkpt lat="58.2336" lon="-5.15712">
        <ele>8.27</ele>
        <time>2021-04-06T10:33:37Z</time>
      </trkpt>
      <trkpt lat="58.23368" lon="-5.15696">
        <ele>9.75</ele>
        <time>2021-04-06T10:33:41Z</time>
      </trkpt>
      <trkpt lat="58.23374" lon="-5.15667">
        <ele>11.35</ele>
        <time>2021-04-06T10:33:44Z</time>
      </trkpt>
      <trkpt lat="58.23376" lon="-5.15627">
        <ele>13.43</ele>
        <time>2021-04-06T10:33:47Z</time>
      </trkpt>
      <trkpt lat="58.23354" lon="-5.15523">
        <ele>24.16</ele>
        <time>2021-04-06T10:33:50Z</time>
      </trkpt>
      <trkpt lat="58.23336" lon="-5.15466">
        <ele>29.75</ele>
        <time>2021-04-06T10:33:53Z</time>
      </trkpt>
      <trkpt lat="58.23309" lon="-5.15394">
        <ele>32.37</ele>
        <time>2021-04-06T10:33:56Z</time>
      </trkpt>
      <trkpt lat="58.23286" lon="-5.1536">
        <ele>30.26</ele>
        <time>2021-04-06T10:33:59Z</time>
      </trkpt>
      <trkpt lat="58.23282" lon="-5.15308">
        <ele>33.89</ele>
        <time>2021-04-06T10:34:02Z</time>
      </trkpt>
      <trkpt lat="58.23286" lon="-5.15246">
        <ele>40.42</ele>
        <time>2021-04-06T10:34:05Z</time>
      </trkpt>
      <trkpt lat="58.23284" lon="-5.15204">
        <ele>42.93</ele>
        <time>2021-04-06T10:34:08Z</time>
      </trkpt>
      <trkpt lat="58.23268" lon="-5.15057">
        <ele>52.33</ele>
        <time>2021-04-06T10:34:11Z</time>
      </trkpt>
      <trkpt lat="58.23243" lon="-5.14967">
        <ele>58.35</ele>
        <time>2021-04-06T10:34:14Z</time>
      </trkpt>
      <trkpt lat="58.23211" lon="-5.1491">
        <ele>60.37</ele>
        <time>2021-04-06T10:34:17Z</time>
      </trkpt>
      <trkpt lat="58.23206" lon="-5.14882">
        <ele>63.69</ele>
        <time>2021-04-06T10:34:21Z</time>
      </trkpt>
      <trkpt lat="58.23214" lon="-5.14853">
        <ele>67.02</ele>
        <time>2021-04-06T10:34:24Z</time>
      </trkpt>
      <trkpt lat="58.23233" lon="-5.148">
        <ele>74.51</ele>
        <time>2021-04-06T10:34:27Z</time>
      </trkpt>
      <trkpt lat="58.23237" lon="-5.1474">
        <ele>80.35</ele>
        <time>2021-04-06T10:34:30Z</time>
      </trkpt>
      <trkpt lat="58.23232" lon="-5.14686">
        <ele>82.15</ele>
        <time>2021-04-06T10:34:33Z</time>
      </trkpt>
      <trkpt lat="58.23224" lon="-5.14563">
        <ele>86.11</ele>
        <time>2021-04-06T10:34:36Z</time>
      </trkpt>
      <trkpt lat="58.23233" lon="-5.14463">
        <ele>90.66</ele>
        <time>2021-04-06T10:34:39Z</time>
      </trkpt>
      <trkpt lat="58.2323" lon="-5.14342">
        <ele>87.83</ele>
        <time>2021-04-06T10:34:42Z</time>
      </trkpt>
      <trkpt lat="58.23237" lon="-5.14173">
        <ele>91.11</ele>
        <time>2021-04-06T10:34:45Z</time>
      </trkpt>
      <trkpt lat="58.23236" lon="-5.14008">
        <ele>92.89</ele>
        <time>2021-04-06T10:34:48Z</time>
      </trkpt>
      <trkpt lat="58.23236" lon="-5.14008">
        <ele>92.89</ele>
        <time>2021-04-06T10:34:48Z</time>
      </trkpt>
      <trkpt lat="58.23245" lon="-5.13901">
        <ele>96.57</ele>
        <time>2021-04-06T10:34:51Z</time>
      </trkpt>
      <trkpt lat="58.23291" lon="-5.138">
        <ele>103.51</ele>
        <time>2021-04-06T10:34:53Z</time>
      </trkpt>
      <trkpt lat="58.23297" lon="-5.13743">
        <ele>104.77</ele>
        <time>2021-04-06T10:34:56Z</time>
      </trkpt>
      <trkpt lat="58.23333" lon="-5.13718">
        <ele>108.94</ele>
        <time>2021-04-06T10:34:58Z</time>
      </trkpt>
      <trkpt lat="58.23372" lon="-5.13682">
        <ele>109.74</ele>
        <time>2021-04-06T10:35:00Z</time>
      </trkpt>
      <trkpt lat="58.23417" lon="-5.13708">
        <ele>109.01</ele>
        <time>2021-04-06T10:35:03Z</time>
      </trkpt>
      <trkpt lat="58.23446" lon="-5.13705">
        <ele>110.05</ele>
        <time>2021-04-06T10:35:05Z</time>
      </trkpt>
      <trkpt lat="58.23518" lon="-5.13672">
        <ele>113.48</ele>
        <time>2021-04-06T10:35:08Z</time>
      </trkpt>
      <trkpt lat="58.23546" lon="-5.13673">
        <ele>114.9</ele>
        <time>2021-04-06T10:35:10Z</time>
      </trkpt>
      <trkpt lat="58.23572" lon="-5.13699">
        <ele>114.99</ele>
        <time>2021-04-06T10:35:12Z</time>
      </trkpt>
      <trkpt lat="58.23601" lon="-5.13764">
        <ele>117.1</ele>
        <time>2021-04-06T10:35:15Z</time>
      </trkpt>
      <trkpt lat="58.23618" lon="-5.13771">
        <ele>120.67</ele>
        <time>2021-04-06T10:35:17Z</time>
      </trkpt>
      <trkpt lat="58.23629" lon="-5.13759">
        <ele>123.48</ele>
        <time>2021-04-06T10:35:20Z</time>
      </trkpt>
      <trkpt lat="58.23637" lon="-5.1372">
        <ele>125.66</ele>
        <time>2021-04-06T10:35:22Z</time>
      </trkpt>
      <trkpt lat="58.23646" lon="-5.13632">
        <ele>130.25</ele>
        <time>2021-04-06T10:35:24Z</time>
      </trkpt>
      <trkpt lat="58.23694" lon="-5.13548">
        <ele>133.29</ele>
        <time>2021-04-06T10:35:27Z</time>
      </trkpt>
      <trkpt lat="58.23736" lon="-5.13458">
        <ele>131.73</ele>
        <time>2021-04-06T10:35:29Z</time>
      </trkpt>
      <trkpt lat="58.2374" lon="-5.13423">
        <ele>131.5</ele>
        <time>2021-04-06T10:35:32Z</time>
      </trkpt>
      <trkpt lat="58.23734" lon="-5.13385">
        <ele>131.24</ele>
        <time>2021-04-06T10:35:34Z</time>
      </trkpt>
      <trkpt lat="58.2373" lon="-5.13333">
        <ele>131.11</ele>
        <time>2021-04-06T10:35:36Z</time>
      </trkpt>
      <trkpt lat="58.23733" lon="-5.13269">
        <ele>132.06</ele>
        <time>2021-04-06T10:35:39Z</time>
      </trkpt>
      <trkpt lat="58.23744" lon="-5.13229">
        <ele>131.68</ele>
        <time>2021-04-06T10:35:41Z</time>
      </trkpt>
      <trkpt lat="58.23764" lon="-5.13204">
        <ele>131.14</ele>
        <time>2021-04-06T10:35:44Z</time>
      </trkpt>
      <trkpt lat="58.23789" lon="-5.13213">
        <ele>130.35</ele>
        <time>2021-04-06T10:35:46Z</time>
      </trkpt>
      <trkpt lat="58.23857" lon="-5.13265">
        <ele>130</ele>
        <time>2021-04-06T10:35:48Z</time>
      </trkpt>
      <trkpt lat="58.23875" lon="-5.13257">
        <ele>129.49</ele>
        <time>2021-04-06T10:35:51Z</time>
      </trkpt>
      <trkpt lat="58.23925" lon="-5.13181">
        <ele>129.18</ele>
        <time>2021-04-06T10:35:53Z</time>
      </trkpt>
      <trkpt lat="58.23963" lon="-5.13113">
        <ele>128.63</ele>
        <time>2021-04-06T10:35:56Z</time>
      </trkpt>
      <trkpt lat="58.2399" lon="-5.12992">
        <ele>129.28</ele>
        <time>2021-04-06T10:35:58Z</time>
      </trkpt>
      <trkpt lat="58.23993" lon="-5.12953">
        <ele>130.21</ele>
        <time>2021-04-06T10:36:00Z</time>
      </trkpt>
      <trkpt lat="58.23985" lon="-5.12892">
        <ele>131.1</ele>
        <time>2021-04-06T10:36:03Z</time>
      </trkpt>
      <trkpt lat="58.23988" lon="-5.12847">
        <ele>131.93</ele>
        <time>2021-04-06T10:36:05Z</time>
      </trkpt>
      <trkpt lat="58.24025" lon="-5.12791">
        <ele>133.16</ele>
        <time>2021-04-06T10:36:08Z</time>
      </trkpt>
      <trkpt lat="58.24157" lon="-5.12475">
        <ele>136.36</ele>
        <time>2021-04-06T10:36:10Z</time>
      </trkpt>
      <trkpt lat="58.24196" lon="-5.12397">
        <ele>134.07</ele>
        <time>2021-04-06T10:36:12Z</time>
      </trkpt>
      <trkpt lat="58.24202" lon="-5.12374">
        <ele>132.31</ele>
        <time>2021-04-06T10:36:15Z</time>
      </trkpt>
      <trkpt lat="58.24184" lon="-5.12268">
        <ele>131.89</ele>
        <time>2021-04-06T10:36:17Z</time>
      </trkpt>
      <trkpt lat="58.24192" lon="-5.12215">
        <ele>129.42</ele>
        <time>2021-04-06T10:36:20Z</time>
      </trkpt>
      <trkpt lat="58.24193" lon="-5.12006">
        <ele>120.79</ele>
        <time>2021-04-06T10:36:22Z</time>
      </trkpt>
      <trkpt lat="58.24183" lon="-5.11818">
        <ele>109.79</ele>
        <time>2021-04-06T10:36:24Z</time>
      </trkpt>
      <trkpt lat="58.24186" lon="-5.11753">
        <ele>107.28</ele>
        <time>2021-04-06T10:36:27Z</time>
      </trkpt>
      <trkpt lat="58.242" lon="-5.11694">
        <ele>105.44</ele>
        <time>2021-04-06T10:36:29Z</time>
      </trkpt>
      <trkpt lat="58.24222" lon="-5.11647">
        <ele>102.1</ele>
        <time>2021-04-06T10:36:32Z</time>
      </trkpt>
      <trkpt lat="58.2427" lon="-5.11525">
        <ele>96.56</ele>
        <time>2021-04-06T10:36:34Z</time>
      </trkpt>
      <trkpt lat="58.24306" lon="-5.11493">
        <ele>91.69</ele>
        <time>2021-04-06T10:36:36Z</time>
      </trkpt>
      <trkpt lat="58.24312" lon="-5.11467">
        <ele>89.89</ele>
        <time>2021-04-06T10:36:39Z</time>
      </trkpt>
      <trkpt lat="58.24312" lon="-5.11431">
        <ele>88.39</ele>
        <time>2021-04-06T10:36:41Z</time>
      </trkpt>
      <trkpt lat="58.24318" lon="-5.11406">
        <ele>86.58</ele>
        <time>2021-04-06T10:36:44Z</time>
      </trkpt>
      <trkpt lat="58.24368" lon="-5.11302">
        <ele>83.09</ele>
        <time>2021-04-06T10:36:46Z</time>
      </trkpt>
      <trkpt lat="58.24401" lon="-5.11238">
        <ele>80.66</ele>
        <time>2021-04-06T10:36:48Z</time>
      </trkpt>
      <trkpt lat="58.24423" lon="-5.1124">
        <ele>78.72</ele>
        <time>2021-04-06T10:36:51Z</time>
      </trkpt>
      <trkpt lat="58.24444" lon="-5.11235">
        <ele>75.58</ele>
        <time>2021-04-06T10:36:53Z</time>
      </trkpt>
      <trkpt lat="58.24461" lon="-5.11183">
        <ele>70.65</ele>
        <time>2021-04-06T10:36:56Z</time>
      </trkpt>
      <trkpt lat="58.24462" lon="-5.11132">
        <ele>68.64</ele>
        <time>2021-04-06T10:36:58Z</time>
      </trkpt>
      <trkpt lat="58.24429" lon="-5.11015">
        <ele>70.68</ele>
        <time>2021-04-06T10:37:00Z</time>
      </trkpt>
      <trkpt lat="58.24422" lon="-5.10956">
        <ele>70.83</ele>
        <time>2021-04-06T10:37:03Z</time>
      </trkpt>
      <trkpt lat="58.24444" lon="-5.10874">
        <ele>75.09</ele>
        <time>2021-04-06T10:37:05Z</time>
      </trkpt>
      <trkpt lat="58.24443" lon="-5.10786">
        <ele>81.68</ele>
        <time>2021-04-06T10:37:08Z</time>
      </trkpt>
      <trkpt lat="58.2445" lon="-5.10716">
        <ele>86.01</ele>
        <time>2021-04-06T10:37:10Z</time>
      </trkpt>
      <trkpt lat="58.24467" lon="-5.10634">
        <ele>89.59</ele>
        <time>2021-04-06T10:37:12Z</time>
      </trkpt>
      <trkpt lat="58.24484" lon="-5.10537">
        <ele>94.49</ele>
        <time>2021-04-06T10:37:15Z</time>
      </trkpt>
      <trkpt lat="58.24487" lon="-5.10429">
        <ele>100.54</ele>
        <time>2021-04-06T10:37:17Z</time>
      </trkpt>
      <trkpt lat="58.24488" lon="-5.10346">
        <ele>104.59</ele>
        <time>2021-04-06T10:37:20Z</time>
      </trkpt>
      <trkpt lat="58.245" lon="-5.10299">
        <ele>104.71</ele>
        <time>2021-04-06T10:37:22Z</time>
      </trkpt>
      <trkpt lat="58.2453" lon="-5.10267">
        <ele>105.65</ele>
        <time>2021-04-06T10:37:24Z</time>
      </trkpt>
      <trkpt lat="58.24651" lon="-5.1022">
        <ele>115.51</ele>
        <time>2021-04-06T10:37:27Z</time>
      </trkpt>
      <trkpt lat="58.24679" lon="-5.10145">
        <ele>113.05</ele>
        <time>2021-04-06T10:37:29Z</time>
      </trkpt>
      <trkpt lat="58.24681" lon="-5.1008">
        <ele>109.22</ele>
        <time>2021-04-06T10:37:32Z</time>
      </trkpt>
      <trkpt lat="58.24659" lon="-5.09855">
        <ele>103.44</ele>
        <time>2021-04-06T10:37:34Z</time>
      </trkpt>
      <trkpt lat="58.24665" lon="-5.09812">
        <ele>99.83</ele>
        <time>2021-04-06T10:37:36Z</time>
      </trkpt>
      <trkpt lat="58.2469" lon="-5.09794">
        <ele>95.54</ele>
        <time>2021-04-06T10:37:39Z</time>
      </trkpt>
      <trkpt lat="58.24715" lon="-5.09798">
        <ele>91.82</ele>
        <time>2021-04-06T10:37:41Z</time>
      </trkpt>
      <trkpt lat="58.2475" lon="-5.09821">
        <ele>84.91</ele>
        <time>2021-04-06T10:37:44Z</time>
      </trkpt>
      <trkpt lat="58.24803" lon="-5.09933">
        <ele>73.89</ele>
        <time>2021-04-06T10:37:46Z</time>
      </trkpt>
      <trkpt lat="58.24819" lon="-5.09952">
        <ele>69.94</ele>
        <time>2021-04-06T10:37:48Z</time>
      </trkpt>
      <trkpt lat="58.24836" lon="-5.09942">
        <ele>66.43</ele>
        <time>2021-04-06T10:37:51Z</time>
      </trkpt>
      <trkpt lat="58.24854" lon="-5.09886">
        <ele>62.34</ele>
        <time>2021-04-06T10:37:53Z</time>
      </trkpt>
      <trkpt lat="58.2486" lon="-5.09837">
        <ele>60.32</ele>
        <time>2021-04-06T10:37:56Z</time>
      </trkpt>
      <trkpt lat="58.24858" lon="-5.09783">
        <ele>61.1</ele>
        <time>2021-04-06T10:37:58Z</time>
      </trkpt>
      <trkpt lat="58.24862" lon="-5.09767">
        <ele>59.48</ele>
        <time>2021-04-06T10:38:00Z</time>
      </trkpt>
      <trkpt lat="58.24872" lon="-5.09764">
        <ele>56.12</ele>
        <time>2021-04-06T10:38:03Z</time>
      </trkpt>
      <trkpt lat="58.24895" lon="-5.09799">
        <ele>51.6</ele>
        <time>2021-04-06T10:38:05Z</time>
      </trkpt>
      <trkpt lat="58.24909" lon="-5.09799">
        <ele>49.1</ele>
        <time>2021-04-06T10:38:08Z</time>
      </trkpt>
      <trkpt lat="58.24935" lon="-5.09743">
        <ele>47.74</ele>
        <time>2021-04-06T10:38:10Z</time>
      </trkpt>
      <trkpt lat="58.24947" lon="-5.09695">
        <ele>51.57</ele>
        <time>2021-04-06T10:38:12Z</time>
      </trkpt>
      <trkpt lat="58.24948" lon="-5.09578">
        <ele>58.5</ele>
        <time>2021-04-06T10:38:15Z</time>
      </trkpt>
      <trkpt lat="58.24988" lon="-5.09482">
        <ele>72.8</ele>
        <time>2021-04-06T10:38:17Z</time>
      </trkpt>
      <trkpt lat="58.25018" lon="-5.0942">
        <ele>82.03</ele>
        <time>2021-04-06T10:38:20Z</time>
      </trkpt>
      <trkpt lat="58.2502" lon="-5.09395">
        <ele>82.87</ele>
        <time>2021-04-06T10:38:22Z</time>
      </trkpt>
      <trkpt lat="58.25016" lon="-5.09337">
        <ele>86.17</ele>
        <time>2021-04-06T10:38:24Z</time>
      </trkpt>
      <trkpt lat="58.25114" lon="-5.09087">
        <ele>87.15</ele>
        <time>2021-04-06T10:38:27Z</time>
      </trkpt>
      <trkpt lat="58.25114" lon="-5.09087">
        <ele>87.15</ele>
        <time>2021-04-06T10:38:27Z</time>
      </trkpt>
      <trkpt lat="58.251" lon="-5.08963">
        <ele>86.25</ele>
        <time>2021-04-06T10:38:30Z</time>
      </trkpt>
      <trkpt lat="58.25106" lon="-5.08906">
        <ele>83.48</ele>
        <time>2021-04-06T10:38:32Z</time>
      </trkpt>
      <trkpt lat="58.25098" lon="-5.08855">
        <ele>84.36</ele>
        <time>2021-04-06T10:38:35Z</time>
      </trkpt>
      <trkpt lat="58.25092" lon="-5.08651">
        <ele>86.8</ele>
        <time>2021-04-06T10:38:38Z</time>
      </trkpt>
      <trkpt lat="58.25077" lon="-5.08604">
        <ele>86.68</ele>
        <time>2021-04-06T10:38:41Z</time>
      </trkpt>
      <trkpt lat="58.25013" lon="-5.08557">
        <ele>85.18</ele>
        <time>2021-04-06T10:38:44Z</time>
      </trkpt>
      <trkpt lat="58.25" lon="-5.08529">
        <ele>84.07</ele>
        <time>2021-04-06T10:38:47Z</time>
      </trkpt>
      <trkpt lat="58.24987" lon="-5.08436">
        <ele>80.28</ele>
        <time>2021-04-06T10:38:49Z</time>
      </trkpt>
      <trkpt lat="58.24922" lon="-5.0813">
        <ele>82.44</ele>
        <time>2021-04-06T10:38:52Z</time>
      </trkpt>
      <trkpt lat="58.24927" lon="-5.08077">
        <ele>77.27</ele>
        <time>2021-04-06T10:38:55Z</time>
      </trkpt>
      <trkpt lat="58.24943" lon="-5.08027">
        <ele>71.53</ele>
        <time>2021-04-06T10:38:58Z</time>
      </trkpt>
      <trkpt lat="58.24942" lon="-5.07908">
        <ele>69.24</ele>
        <time>2021-04-06T10:39:01Z</time>
      </trkpt>
      <trkpt lat="58.24917" lon="-5.07824">
        <ele>70.68</ele>
        <time>2021-04-06T10:39:04Z</time>
      </trkpt>
      <trkpt lat="58.24917" lon="-5.07686">
        <ele>68.05</ele>
        <time>2021-04-06T10:39:07Z</time>
      </trkpt>
      <trkpt lat="58.2493" lon="-5.07589">
        <ele>66.49</ele>
        <time>2021-04-06T10:39:09Z</time>
      </trkpt>
      <trkpt lat="58.24933" lon="-5.07491">
        <ele>70.26</ele>
        <time>2021-04-06T10:39:12Z</time>
      </trkpt>
      <trkpt lat="58.24922" lon="-5.07433">
        <ele>72.1</ele>
        <time>2021-04-06T10:39:15Z</time>
      </trkpt>
      <trkpt lat="58.24902" lon="-5.07384">
        <ele>72.07</ele>
        <time>2021-04-06T10:39:18Z</time>
      </trkpt>
      <trkpt lat="58.24888" lon="-5.07306">
        <ele>61.31</ele>
        <time>2021-04-06T10:39:21Z</time>
      </trkpt>
      <trkpt lat="58.24885" lon="-5.07194">
        <ele>47.93</ele>
        <time>2021-04-06T10:39:24Z</time>
      </trkpt>
      <trkpt lat="58.24873" lon="-5.07017">
        <ele>40.17</ele>
        <time>2021-04-06T10:39:26Z</time>
      </trkpt>
      <trkpt lat="58.24899" lon="-5.06902">
        <ele>34.42</ele>
        <time>2021-04-06T10:39:29Z</time>
      </trkpt>
      <trkpt lat="58.24921" lon="-5.06818">
        <ele>29.1</ele>
        <time>2021-04-06T10:39:32Z</time>
      </trkpt>
      <trkpt lat="58.2494" lon="-5.0672">
        <ele>22.25</ele>
        <time>2021-04-06T10:39:35Z</time>
      </trkpt>
      <trkpt lat="58.24943" lon="-5.0667">
        <ele>19.52</ele>
        <time>2021-04-06T10:39:38Z</time>
      </trkpt>
      <trkpt lat="58.24917" lon="-5.06564">
        <ele>18.2</ele>
        <time>2021-04-06T10:39:41Z</time>
      </trkpt>
      <trkpt lat="58.24883" lon="-5.06499">
        <ele>21.23</ele>
        <time>2021-04-06T10:39:43Z</time>
      </trkpt>
      <trkpt lat="58.24833" lon="-5.06455">
        <ele>27.43</ele>
        <time>2021-04-06T10:39:46Z</time>
      </trkpt>
      <trkpt lat="58.24792" lon="-5.06411">
        <ele>31.12</ele>
        <time>2021-04-06T10:39:49Z</time>
      </trkpt>
      <trkpt lat="58.24737" lon="-5.06368">
        <ele>40.39</ele>
        <time>2021-04-06T10:39:52Z</time>
      </trkpt>
      <trkpt lat="58.24722" lon="-5.06339">
        <ele>40.01</ele>
        <time>2021-04-06T10:39:55Z</time>
      </trkpt>
      <trkpt lat="58.24706" lon="-5.06278">
        <ele>37.92</ele>
        <time>2021-04-06T10:39:58Z</time>
      </trkpt>
      <trkpt lat="58.24654" lon="-5.06223">
        <ele>47.48</ele>
        <time>2021-04-06T10:40:00Z</time>
      </trkpt>
      <trkpt lat="58.24639" lon="-5.06109">
        <ele>41.79</ele>
        <time>2021-04-06T10:40:03Z</time>
      </trkpt>
      <trkpt lat="58.24615" lon="-5.06001">
        <ele>38.99</ele>
        <time>2021-04-06T10:40:06Z</time>
      </trkpt>
      <trkpt lat="58.24593" lon="-5.05928">
        <ele>40.49</ele>
        <time>2021-04-06T10:40:09Z</time>
      </trkpt>
      <trkpt lat="58.24577" lon="-5.05839">
        <ele>37.96</ele>
        <time>2021-04-06T10:40:12Z</time>
      </trkpt>
      <trkpt lat="58.24548" lon="-5.05766">
        <ele>37.57</ele>
        <time>2021-04-06T10:40:15Z</time>
      </trkpt>
      <trkpt lat="58.24535" lon="-5.05693">
        <ele>38.89</ele>
        <time>2021-04-06T10:40:18Z</time>
      </trkpt>
      <trkpt lat="58.24525" lon="-5.05606">
        <ele>41.97</ele>
        <time>2021-04-06T10:40:20Z</time>
      </trkpt>
      <trkpt lat="58.24529" lon="-5.05512">
        <ele>38.51</ele>
        <time>2021-04-06T10:40:23Z</time>
      </trkpt>
      <trkpt lat="58.24531" lon="-5.05429">
        <ele>36.35</ele>
        <time>2021-04-06T10:40:26Z</time>
      </trkpt>
      <trkpt lat="58.24518" lon="-5.05386">
        <ele>38.73</ele>
        <time>2021-04-06T10:40:29Z</time>
      </trkpt>
      <trkpt lat="58.2449" lon="-5.05318">
        <ele>42.81</ele>
        <time>2021-04-06T10:40:32Z</time>
      </trkpt>
      <trkpt lat="58.24467" lon="-5.05228">
        <ele>44.71</ele>
        <time>2021-04-06T10:40:35Z</time>
      </trkpt>
      <trkpt lat="58.2443" lon="-5.05161">
        <ele>49.21</ele>
        <time>2021-04-06T10:40:37Z</time>
      </trkpt>
      <trkpt lat="58.24373" lon="-5.04967">
        <ele>53.51</ele>
        <time>2021-04-06T10:40:40Z</time>
      </trkpt>
      <trkpt lat="58.24327" lon="-5.04835">
        <ele>60.68</ele>
        <time>2021-04-06T10:40:43Z</time>
      </trkpt>
      <trkpt lat="58.2429" lon="-5.04744">
        <ele>64.21</ele>
        <time>2021-04-06T10:40:46Z</time>
      </trkpt>
      <trkpt lat="58.24279" lon="-5.04678">
        <ele>58.29</ele>
        <time>2021-04-06T10:40:49Z</time>
      </trkpt>
      <trkpt lat="58.24281" lon="-5.04613">
        <ele>61.44</ele>
        <time>2021-04-06T10:40:52Z</time>
      </trkpt>
      <trkpt lat="58.24275" lon="-5.04571">
        <ele>66.55</ele>
        <time>2021-04-06T10:40:54Z</time>
      </trkpt>
      <trkpt lat="58.24255" lon="-5.04495">
        <ele>69.38</ele>
        <time>2021-04-06T10:40:57Z</time>
      </trkpt>
      <trkpt lat="58.24231" lon="-5.04432">
        <ele>66.44</ele>
        <time>2021-04-06T10:41:00Z</time>
      </trkpt>
      <trkpt lat="58.24202" lon="-5.04335">
        <ele>64.41</ele>
        <time>2021-04-06T10:41:03Z</time>
      </trkpt>
      <trkpt lat="58.24193" lon="-5.04255">
        <ele>62.88</ele>
        <time>2021-04-06T10:41:06Z</time>
      </trkpt>
      <trkpt lat="58.24195" lon="-5.04204">
        <ele>63.18</ele>
        <time>2021-04-06T10:41:09Z</time>
      </trkpt>
      <trkpt lat="58.24211" lon="-5.04094">
        <ele>67.57</ele>
        <time>2021-04-06T10:41:11Z</time>
      </trkpt>
      <trkpt lat="58.24206" lon="-5.04034">
        <ele>68.72</ele>
        <time>2021-04-06T10:41:14Z</time>
      </trkpt>
      <trkpt lat="58.24174" lon="-5.03866">
        <ele>77.31</ele>
        <time>2021-04-06T10:41:17Z</time>
      </trkpt>
      <trkpt lat="58.24158" lon="-5.03814">
        <ele>82.16</ele>
        <time>2021-04-06T10:41:20Z</time>
      </trkpt>
      <trkpt lat="58.24112" lon="-5.03726">
        <ele>89.53</ele>
        <time>2021-04-06T10:41:23Z</time>
      </trkpt>
      <trkpt lat="58.24085" lon="-5.03532">
        <ele>98.84</ele>
        <time>2021-04-06T10:41:26Z</time>
      </trkpt>
      <trkpt lat="58.24082" lon="-5.03466">
        <ele>103.77</ele>
        <time>2021-04-06T10:41:29Z</time>
      </trkpt>
      <trkpt lat="58.24074" lon="-5.03413">
        <ele>108.73</ele>
        <time>2021-04-06T10:41:31Z</time>
      </trkpt>
      <trkpt lat="58.24003" lon="-5.03198">
        <ele>116.22</ele>
        <time>2021-04-06T10:41:34Z</time>
      </trkpt>
      <trkpt lat="58.2399" lon="-5.03147">
        <ele>113.54</ele>
        <time>2021-04-06T10:41:37Z</time>
      </trkpt>
      <trkpt lat="58.2399" lon="-5.03102">
        <ele>110.7</ele>
        <time>2021-04-06T10:41:40Z</time>
      </trkpt>
      <trkpt lat="58.24003" lon="-5.02972">
        <ele>105.86</ele>
        <time>2021-04-06T10:41:43Z</time>
      </trkpt>
      <trkpt lat="58.24002" lon="-5.02854">
        <ele>101.66</ele>
        <time>2021-04-06T10:41:46Z</time>
      </trkpt>
      <trkpt lat="58.2399" lon="-5.02751">
        <ele>98.13</ele>
        <time>2021-04-06T10:41:48Z</time>
      </trkpt>
      <trkpt lat="58.23951" lon="-5.02661">
        <ele>97.49</ele>
        <time>2021-04-06T10:41:51Z</time>
      </trkpt>
      <trkpt lat="58.23915" lon="-5.02551">
        <ele>96.14</ele>
        <time>2021-04-06T10:41:54Z</time>
      </trkpt>
      <trkpt lat="58.23883" lon="-5.025">
        <ele>97.85</ele>
        <time>2021-04-06T10:41:57Z</time>
      </trkpt>
      <trkpt lat="58.23842" lon="-5.02403">
        <ele>97.41</ele>
        <time>2021-04-06T10:42:00Z</time>
      </trkpt>
      <trkpt lat="58.23803" lon="-5.02244">
        <ele>98</ele>
        <time>2021-04-06T10:42:03Z</time>
      </trkpt>
      <trkpt lat="58.23777" lon="-5.02186">
        <ele>97.29</ele>
        <time>2021-04-06T10:42:05Z</time>
      </trkpt>
      <trkpt lat="58.23756" lon="-5.02075">
        <ele>94.22</ele>
        <time>2021-04-06T10:42:08Z</time>
      </trkpt>
      <trkpt lat="58.23719" lon="-5.0202">
        <ele>96.11</ele>
        <time>2021-04-06T10:42:11Z</time>
      </trkpt>
      <trkpt lat="58.23701" lon="-5.01941">
        <ele>95.15</ele>
        <time>2021-04-06T10:42:14Z</time>
      </trkpt>
      <trkpt lat="58.23666" lon="-5.01869">
        <ele>94.62</ele>
        <time>2021-04-06T10:42:17Z</time>
      </trkpt>
      <trkpt lat="58.23603" lon="-5.01791">
        <ele>94.07</ele>
        <time>2021-04-06T10:42:20Z</time>
      </trkpt>
      <trkpt lat="58.2357" lon="-5.01739">
        <ele>90.01</ele>
        <time>2021-04-06T10:42:22Z</time>
      </trkpt>
      <trkpt lat="58.23566" lon="-5.01703">
        <ele>87.25</ele>
        <time>2021-04-06T10:42:25Z</time>
      </trkpt>
      <trkpt lat="58.23581" lon="-5.01626">
        <ele>82.83</ele>
        <time>2021-04-06T10:42:28Z</time>
      </trkpt>
      <trkpt lat="58.23588" lon="-5.01528">
        <ele>77.16</ele>
        <time>2021-04-06T10:42:31Z</time>
      </trkpt>
      <trkpt lat="58.23587" lon="-5.01475">
        <ele>76</ele>
        <time>2021-04-06T10:42:34Z</time>
      </trkpt>
      <trkpt lat="58.23584" lon="-5.01434">
        <ele>74.63</ele>
        <time>2021-04-06T10:42:37Z</time>
      </trkpt>
      <trkpt lat="58.23599" lon="-5.01354">
        <ele>72.2</ele>
        <time>2021-04-06T10:42:40Z</time>
      </trkpt>
      <trkpt lat="58.23598" lon="-5.01322">
        <ele>70.61</ele>
        <time>2021-04-06T10:42:42Z</time>
      </trkpt>
      <trkpt lat="58.2362" lon="-5.01273">
        <ele>70.82</ele>
        <time>2021-04-06T10:42:44Z</time>
      </trkpt>
      <trkpt lat="58.23639" lon="-5.01219">
        <ele>69.93</ele>
        <time>2021-04-06T10:42:46Z</time>
      </trkpt>
      <trkpt lat="58.2366" lon="-5.01173">
        <ele>69.53</ele>
        <time>2021-04-06T10:42:48Z</time>
      </trkpt>
      <trkpt lat="58.2366" lon="-5.01173">
        <ele>69.53</ele>
        <time>2021-04-06T10:42:48Z</time>
      </trkpt>
      <trkpt lat="58.23717" lon="-5.0107">
        <ele>65.41</ele>
        <time>2021-04-06T10:42:50Z</time>
      </trkpt>
      <trkpt lat="58.23735" lon="-5.01051">
        <ele>64.12</ele>
        <time>2021-04-06T10:42:53Z</time>
      </trkpt>
      <trkpt lat="58.23748" lon="-5.01043">
        <ele>64.02</ele>
        <time>2021-04-06T10:42:56Z</time>
      </trkpt>
      <trkpt lat="58.23764" lon="-5.01043">
        <ele>64.32</ele>
        <time>2021-04-06T10:42:58Z</time>
      </trkpt>
      <trkpt lat="58.23825" lon="-5.01073">
        <ele>66.4</ele>
        <time>2021-04-06T10:43:01Z</time>
      </trkpt>
      <trkpt lat="58.23846" lon="-5.01076">
        <ele>66.2</ele>
        <time>2021-04-06T10:43:03Z</time>
      </trkpt>
      <trkpt lat="58.23889" lon="-5.01065">
        <ele>67.04</ele>
        <time>2021-04-06T10:43:06Z</time>
      </trkpt>
      <trkpt lat="58.24" lon="-5.01018">
        <ele>65.6</ele>
        <time>2021-04-06T10:43:08Z</time>
      </trkpt>
      <trkpt lat="58.24028" lon="-5.00991">
        <ele>63.36</ele>
        <time>2021-04-06T10:43:11Z</time>
      </trkpt>
      <trkpt lat="58.24153" lon="-5.00841">
        <ele>53.5</ele>
        <time>2021-04-06T10:43:13Z</time>
      </trkpt>
      <trkpt lat="58.24205" lon="-5.00771">
        <ele>47.5</ele>
        <time>2021-04-06T10:43:16Z</time>
      </trkpt>
      <trkpt lat="58.24233" lon="-5.00719">
        <ele>43.94</ele>
        <time>2021-04-06T10:43:19Z</time>
      </trkpt>
      <trkpt lat="58.24298" lon="-5.00553">
        <ele>35.16</ele>
        <time>2021-04-06T10:43:21Z</time>
      </trkpt>
      <trkpt lat="58.24318" lon="-5.00516">
        <ele>33.95</ele>
        <time>2021-04-06T10:43:24Z</time>
      </trkpt>
      <trkpt lat="58.24411" lon="-5.00401">
        <ele>27.17</ele>
        <time>2021-04-06T10:43:26Z</time>
      </trkpt>
      <trkpt lat="58.24429" lon="-5.00389">
        <ele>25.57</ele>
        <time>2021-04-06T10:43:29Z</time>
      </trkpt>
      <trkpt lat="58.24443" lon="-5.00386">
        <ele>24.58</ele>
        <time>2021-04-06T10:43:31Z</time>
      </trkpt>
      <trkpt lat="58.2446" lon="-5.00388">
        <ele>23.66</ele>
        <time>2021-04-06T10:43:34Z</time>
      </trkpt>
      <trkpt lat="58.24478" lon="-5.00402">
        <ele>24.4</ele>
        <time>2021-04-06T10:43:36Z</time>
      </trkpt>
      <trkpt lat="58.24549" lon="-5.00497">
        <ele>24.25</ele>
        <time>2021-04-06T10:43:39Z</time>
      </trkpt>
      <trkpt lat="58.2457" lon="-5.00509">
        <ele>23.64</ele>
        <time>2021-04-06T10:43:42Z</time>
      </trkpt>
      <trkpt lat="58.24594" lon="-5.00506">
        <ele>23.13</ele>
        <time>2021-04-06T10:43:44Z</time>
      </trkpt>
      <trkpt lat="58.24641" lon="-5.0048">
        <ele>20.59</ele>
        <time>2021-04-06T10:43:47Z</time>
      </trkpt>
      <trkpt lat="58.24664" lon="-5.00471">
        <ele>18.75</ele>
        <time>2021-04-06T10:43:49Z</time>
      </trkpt>
      <trkpt lat="58.24685" lon="-5.00471">
        <ele>18.68</ele>
        <time>2021-04-06T10:43:52Z</time>
      </trkpt>
      <trkpt lat="58.24711" lon="-5.00482">
        <ele>20.68</ele>
        <time>2021-04-06T10:43:54Z</time>
      </trkpt>
      <trkpt lat="58.24744" lon="-5.00507">
        <ele>22.08</ele>
        <time>2021-04-06T10:43:57Z</time>
      </trkpt>
      <trkpt lat="58.24785" lon="-5.00552">
        <ele>24.68</ele>
        <time>2021-04-06T10:43:59Z</time>
      </trkpt>
      <trkpt lat="58.24834" lon="-5.00619">
        <ele>25.73</ele>
        <time>2021-04-06T10:44:02Z</time>
      </trkpt>
      <trkpt lat="58.24834" lon="-5.00619">
        <ele>25.73</ele>
        <time>2021-04-06T10:44:02Z</time>
      </trkpt>
      <trkpt lat="58.24858" lon="-5.00653">
        <ele>26.77</ele>
        <time>2021-04-06T10:44:06Z</time>
      </trkpt>
      <trkpt lat="58.24918" lon="-5.00743">
        <ele>29.27</ele>
        <time>2021-04-06T10:44:10Z</time>
      </trkpt>
      <trkpt lat="58.24944" lon="-5.00785">
        <ele>31.52</ele>
        <time>2021-04-06T10:44:14Z</time>
      </trkpt>
      <trkpt lat="58.24982" lon="-5.0088">
        <ele>37.46</ele>
        <time>2021-04-06T10:44:18Z</time>
      </trkpt>
      <trkpt lat="58.24993" lon="-5.00929">
        <ele>40.34</ele>
        <time>2021-04-06T10:44:22Z</time>
      </trkpt>
      <trkpt lat="58.25002" lon="-5.01124">
        <ele>51.48</ele>
        <time>2021-04-06T10:44:27Z</time>
      </trkpt>
      <trkpt lat="58.25011" lon="-5.01228">
        <ele>53.52</ele>
        <time>2021-04-06T10:44:31Z</time>
      </trkpt>
      <trkpt lat="58.25078" lon="-5.01636">
        <ele>55.44</ele>
        <time>2021-04-06T10:44:35Z</time>
      </trkpt>
      <trkpt lat="58.25089" lon="-5.01675">
        <ele>55.83</ele>
        <time>2021-04-06T10:44:39Z</time>
      </trkpt>
      <trkpt lat="58.25142" lon="-5.01815">
        <ele>49.92</ele>
        <time>2021-04-06T10:44:43Z</time>
      </trkpt>
      <trkpt lat="58.25169" lon="-5.01923">
        <ele>46.97</ele>
        <time>2021-04-06T10:44:47Z</time>
      </trkpt>
      <trkpt lat="58.25189" lon="-5.01986">
        <ele>45.53</ele>
        <time>2021-04-06T10:44:51Z</time>
      </trkpt>
      <trkpt lat="58.25239" lon="-5.02111">
        <ele>35.63</ele>
        <time>2021-04-06T10:44:55Z</time>
      </trkpt>
      <trkpt lat="58.25257" lon="-5.02144">
        <ele>31.06</ele>
        <time>2021-04-06T10:44:59Z</time>
      </trkpt>
      <trkpt lat="58.25278" lon="-5.02171">
        <ele>26.87</ele>
        <time>2021-04-06T10:45:03Z</time>
      </trkpt>
      <trkpt lat="58.25355" lon="-5.02241">
        <ele>25.62</ele>
        <time>2021-04-06T10:45:08Z</time>
      </trkpt>
      <trkpt lat="58.25375" lon="-5.0225">
        <ele>26.53</ele>
        <time>2021-04-06T10:45:12Z</time>
      </trkpt>
      <trkpt lat="58.25408" lon="-5.02256">
        <ele>25.86</ele>
        <time>2021-04-06T10:45:16Z</time>
      </trkpt>
      <trkpt lat="58.25436" lon="-5.02254">
        <ele>25.95</ele>
        <time>2021-04-06T10:45:20Z</time>
      </trkpt>
      <trkpt lat="58.25523" lon="-5.02226">
        <ele>26.14</ele>
        <time>2021-04-06T10:45:24Z</time>
      </trkpt>
      <trkpt lat="58.25549" lon="-5.02225">
        <ele>26.02</ele>
        <time>2021-04-06T10:45:28Z</time>
      </trkpt>
      <trkpt lat="58.25568" lon="-5.02229">
        <ele>25.45</ele>
        <time>2021-04-06T10:45:32Z</time>
      </trkpt>
      <trkpt lat="58.25591" lon="-5.02237">
        <ele>23.8</ele>
        <time>2021-04-06T10:45:36Z</time>
      </trkpt>
      <trkpt lat="58.25631" lon="-5.02261">
        <ele>23.97</ele>
        <time>2021-04-06T10:45:40Z</time>
      </trkpt>
      <trkpt lat="58.25677" lon="-5.023">
        <ele>24.19</ele>
        <time>2021-04-06T10:45:44Z</time>
      </trkpt>
      <trkpt lat="58.25708" lon="-5.02338">
        <ele>24.37</ele>
        <time>2021-04-06T10:45:48Z</time>
      </trkpt>
      <trkpt lat="58.2574" lon="-5.02386">
        <ele>24.57</ele>
        <time>2021-04-06T10:45:53Z</time>
      </trkpt>
      <trkpt lat="58.25759" lon="-5.02426">
        <ele>24.73</ele>
        <time>2021-04-06T10:45:57Z</time>
      </trkpt>
      <trkpt lat="58.25769" lon="-5.02454">
        <ele>24.83</ele>
        <time>2021-04-06T10:46:01Z</time>
      </trkpt>
      <trkpt lat="58.25777" lon="-5.02482">
        <ele>24.94</ele>
        <time>2021-04-06T10:46:05Z</time>
      </trkpt>
      <trkpt lat="58.25784" lon="-5.02528">
        <ele>25.11</ele>
        <time>2021-04-06T10:46:09Z</time>
      </trkpt>
      <trkpt lat="58.25787" lon="-5.02577">
        <ele>25.29</ele>
        <time>2021-04-06T10:46:13Z</time>
      </trkpt>
      <trkpt lat="58.25786" lon="-5.02611">
        <ele>28.79</ele>
        <time>2021-04-06T10:46:17Z</time>
      </trkpt>
      <trkpt lat="58.2578" lon="-5.02665">
        <ele>32.37</ele>
        <time>2021-04-06T10:46:21Z</time>
      </trkpt>
      <trkpt lat="58.25768" lon="-5.02719">
        <ele>32.72</ele>
        <time>2021-04-06T10:46:25Z</time>
      </trkpt>
      <trkpt lat="58.25759" lon="-5.02743">
        <ele>32.4</ele>
        <time>2021-04-06T10:46:29Z</time>
      </trkpt>
      <trkpt lat="58.25747" lon="-5.02769">
        <ele>31.5</ele>
        <time>2021-04-06T10:46:34Z</time>
      </trkpt>
      <trkpt lat="58.25689" lon="-5.02873">
        <ele>31.56</ele>
        <time>2021-04-06T10:46:38Z</time>
      </trkpt>
      <trkpt lat="58.25666" lon="-5.02927">
        <ele>32.94</ele>
        <time>2021-04-06T10:46:42Z</time>
      </trkpt>
      <trkpt lat="58.25654" lon="-5.02986">
        <ele>32.13</ele>
        <time>2021-04-06T10:46:46Z</time>
      </trkpt>
      <trkpt lat="58.25652" lon="-5.03053">
        <ele>30.94</ele>
        <time>2021-04-06T10:46:50Z</time>
      </trkpt>
      <trkpt lat="58.25658" lon="-5.031">
        <ele>29.45</ele>
        <time>2021-04-06T10:46:54Z</time>
      </trkpt>
      <trkpt lat="58.25689" lon="-5.0321">
        <ele>18.6</ele>
        <time>2021-04-06T10:46:58Z</time>
      </trkpt>
      <trkpt lat="58.25714" lon="-5.03281">
        <ele>9.49</ele>
        <time>2021-04-06T10:47:02Z</time>
      </trkpt>
      <trkpt lat="58.25735" lon="-5.03369">
        <ele>5.85</ele>
        <time>2021-04-06T10:47:06Z</time>
      </trkpt>
      <trkpt lat="58.2576" lon="-5.03502">
        <ele>7.06</ele>
        <time>2021-04-06T10:47:10Z</time>
      </trkpt>
      <trkpt lat="58.25782" lon="-5.03576">
        <ele>5.81</ele>
        <time>2021-04-06T10:47:15Z</time>
      </trkpt>
      <trkpt lat="58.25812" lon="-5.03617">
        <ele>4.78</ele>
        <time>2021-04-06T10:47:19Z</time>
      </trkpt>
      <trkpt lat="58.25899" lon="-5.03672">
        <ele>2.88</ele>
        <time>2021-04-06T10:47:23Z</time>
      </trkpt>
      <trkpt lat="58.25952" lon="-5.03726">
        <ele>3.03</ele>
        <time>2021-04-06T10:47:27Z</time>
      </trkpt>
      <trkpt lat="58.2601" lon="-5.03831">
        <ele>7.42</ele>
        <time>2021-04-06T10:47:31Z</time>
      </trkpt>
      <trkpt lat="58.26067" lon="-5.03878">
        <ele>17.04</ele>
        <time>2021-04-06T10:47:35Z</time>
      </trkpt>
      <trkpt lat="58.26142" lon="-5.03909">
        <ele>26.12</ele>
        <time>2021-04-06T10:47:39Z</time>
      </trkpt>
      <trkpt lat="58.26158" lon="-5.03923">
        <ele>26.82</ele>
        <time>2021-04-06T10:47:43Z</time>
      </trkpt>
      <trkpt lat="58.2619" lon="-5.03959">
        <ele>29.68</ele>
        <time>2021-04-06T10:47:47Z</time>
      </trkpt>
      <trkpt lat="58.26228" lon="-5.04019">
        <ele>35.31</ele>
        <time>2021-04-06T10:47:51Z</time>
      </trkpt>
      <trkpt lat="58.26251" lon="-5.04048">
        <ele>38.45</ele>
        <time>2021-04-06T10:47:55Z</time>
      </trkpt>
      <trkpt lat="58.26279" lon="-5.04069">
        <ele>41.16</ele>
        <time>2021-04-06T10:48:00Z</time>
      </trkpt>
      <trkpt lat="58.2632" lon="-5.04076">
        <ele>43.8</ele>
        <time>2021-04-06T10:48:04Z</time>
      </trkpt>
      <trkpt lat="58.26376" lon="-5.04066">
        <ele>46.97</ele>
        <time>2021-04-06T10:48:08Z</time>
      </trkpt>
      <trkpt lat="58.26404" lon="-5.04064">
        <ele>47.89</ele>
        <time>2021-04-06T10:48:12Z</time>
      </trkpt>
      <trkpt lat="58.26439" lon="-5.04079">
        <ele>49.72</ele>
        <time>2021-04-06T10:48:16Z</time>
      </trkpt>
      <trkpt lat="58.2649" lon="-5.04115">
        <ele>52.75</ele>
        <time>2021-04-06T10:48:20Z</time>
      </trkpt>
      <trkpt lat="58.26547" lon="-5.04164">
        <ele>56.99</ele>
        <time>2021-04-06T10:48:24Z</time>
      </trkpt>
      <trkpt lat="58.26592" lon="-5.04218">
        <ele>58.89</ele>
        <time>2021-04-06T10:48:28Z</time>
      </trkpt>
      <trkpt lat="58.26608" lon="-5.04243">
        <ele>59.9</ele>
        <time>2021-04-06T10:48:32Z</time>
      </trkpt>
      <trkpt lat="58.26641" lon="-5.04309">
        <ele>63.36</ele>
        <time>2021-04-06T10:48:36Z</time>
      </trkpt>
      <trkpt lat="58.26672" lon="-5.04406">
        <ele>66.03</ele>
        <time>2021-04-06T10:48:41Z</time>
      </trkpt>
      <trkpt lat="58.26693" lon="-5.04529">
        <ele>72.63</ele>
        <time>2021-04-06T10:48:45Z</time>
      </trkpt>
      <trkpt lat="58.267" lon="-5.04622">
        <ele>75.73</ele>
        <time>2021-04-06T10:48:49Z</time>
      </trkpt>
      <trkpt lat="58.26708" lon="-5.04775">
        <ele>83.59</ele>
        <time>2021-04-06T10:48:53Z</time>
      </trkpt>
      <trkpt lat="58.2672" lon="-5.0492">
        <ele>91.58</ele>
        <time>2021-04-06T10:48:57Z</time>
      </trkpt>
      <trkpt lat="58.2676" lon="-5.05115">
        <ele>101.38</ele>
        <time>2021-04-06T10:49:01Z</time>
      </trkpt>
      <trkpt lat="58.26801" lon="-5.05265">
        <ele>107.74</ele>
        <time>2021-04-06T10:49:05Z</time>
      </trkpt>
      <trkpt lat="58.26868" lon="-5.05423">
        <ele>107.29</ele>
        <time>2021-04-06T10:49:09Z</time>
      </trkpt>
      <trkpt lat="58.26928" lon="-5.05518">
        <ele>101.86</ele>
        <time>2021-04-06T10:49:13Z</time>
      </trkpt>
      <trkpt lat="58.26989" lon="-5.05594">
        <ele>100.38</ele>
        <time>2021-04-06T10:49:17Z</time>
      </trkpt>
      <trkpt lat="58.27163" lon="-5.05742">
        <ele>99.95</ele>
        <time>2021-04-06T10:49:22Z</time>
      </trkpt>
      <trkpt lat="58.27262" lon="-5.05844">
        <ele>99.99</ele>
        <time>2021-04-06T10:49:26Z</time>
      </trkpt>
      <trkpt lat="58.27403" lon="-5.06009">
        <ele>100.35</ele>
        <time>2021-04-06T10:49:30Z</time>
      </trkpt>
      <trkpt lat="58.27514" lon="-5.06144">
        <ele>94.19</ele>
        <time>2021-04-06T10:49:34Z</time>
      </trkpt>
      <trkpt lat="58.27619" lon="-5.06291">
        <ele>96</ele>
        <time>2021-04-06T10:49:38Z</time>
      </trkpt>
      <trkpt lat="58.27741" lon="-5.06489">
        <ele>86.28</ele>
        <time>2021-04-06T10:49:42Z</time>
      </trkpt>
      <trkpt lat="58.27892" lon="-5.06783">
        <ele>82.98</ele>
        <time>2021-04-06T10:49:46Z</time>
      </trkpt>
      <trkpt lat="58.27933" lon="-5.06854">
        <ele>84.04</ele>
        <time>2021-04-06T10:49:50Z</time>
      </trkpt>
      <trkpt lat="58.27989" lon="-5.06936">
        <ele>81.18</ele>
        <time>2021-04-06T10:49:54Z</time>
      </trkpt>
      <trkpt lat="58.28083" lon="-5.07046">
        <ele>81.08</ele>
        <time>2021-04-06T10:49:58Z</time>
      </trkpt>
      <trkpt lat="58.28179" lon="-5.07136">
        <ele>74.45</ele>
        <time>2021-04-06T10:50:02Z</time>
      </trkpt>
      <trkpt lat="58.28304" lon="-5.07235">
        <ele>70.4</ele>
        <time>2021-04-06T10:50:07Z</time>
      </trkpt>
      <trkpt lat="58.28544" lon="-5.075">
        <ele>64.22</ele>
        <time>2021-04-06T10:50:11Z</time>
      </trkpt>
      <trkpt lat="58.28612" lon="-5.07584">
        <ele>57.77</ele>
        <time>2021-04-06T10:50:15Z</time>
      </trkpt>
      <trkpt lat="58.28706" lon="-5.07737">
        <ele>39.42</ele>
        <time>2021-04-06T10:50:19Z</time>
      </trkpt>
      <trkpt lat="58.2879" lon="-5.07912">
        <ele>29.81</ele>
        <time>2021-04-06T10:50:23Z</time>
      </trkpt>
      <trkpt lat="58.28835" lon="-5.07991">
        <ele>27.93</ele>
        <time>2021-04-06T10:50:27Z</time>
      </trkpt>
      <trkpt lat="58.28886" lon="-5.08067">
        <ele>28.89</ele>
        <time>2021-04-06T10:50:31Z</time>
      </trkpt>
      <trkpt lat="58.28949" lon="-5.08152">
        <ele>33.31</ele>
        <time>2021-04-06T10:50:35Z</time>
      </trkpt>
      <trkpt lat="58.2899" lon="-5.08227">
        <ele>37.36</ele>
        <time>2021-04-06T10:50:39Z</time>
      </trkpt>
      <trkpt lat="58.29025" lon="-5.08312">
        <ele>40.66</ele>
        <time>2021-04-06T10:50:43Z</time>
      </trkpt>
      <trkpt lat="58.2905" lon="-5.08422">
        <ele>44.53</ele>
        <time>2021-04-06T10:50:48Z</time>
      </trkpt>
      <trkpt lat="58.29063" lon="-5.08532">
        <ele>54.38</ele>
        <time>2021-04-06T10:50:52Z</time>
      </trkpt>
      <trkpt lat="58.29068" lon="-5.08646">
        <ele>68.7</ele>
        <time>2021-04-06T10:50:56Z</time>
      </trkpt>
      <trkpt lat="58.29068" lon="-5.08752">
        <ele>72.73</ele>
        <time>2021-04-06T10:51:00Z</time>
      </trkpt>
      <trkpt lat="58.29075" lon="-5.08851">
        <ele>75.04</ele>
        <time>2021-04-06T10:51:04Z</time>
      </trkpt>
      <trkpt lat="58.29086" lon="-5.08934">
        <ele>80.39</ele>
        <time>2021-04-06T10:51:08Z</time>
      </trkpt>
      <trkpt lat="58.29112" lon="-5.09047">
        <ele>86.64</ele>
        <time>2021-04-06T10:51:12Z</time>
      </trkpt>
      <trkpt lat="58.29148" lon="-5.09152">
        <ele>88.96</ele>
        <time>2021-04-06T10:51:16Z</time>
      </trkpt>
      <trkpt lat="58.29182" lon="-5.09222">
        <ele>91.36</ele>
        <time>2021-04-06T10:51:20Z</time>
      </trkpt>
      <trkpt lat="58.29253" lon="-5.09329">
        <ele>86.91</ele>
        <time>2021-04-06T10:51:24Z</time>
      </trkpt>
      <trkpt lat="58.29398" lon="-5.09586">
        <ele>91</ele>
        <time>2021-04-06T10:51:29Z</time>
      </trkpt>
      <trkpt lat="58.29474" lon="-5.09752">
        <ele>95.13</ele>
        <time>2021-04-06T10:51:33Z</time>
      </trkpt>
      <trkpt lat="58.29665" lon="-5.10226">
        <ele>79.14</ele>
        <time>2021-04-06T10:51:37Z</time>
      </trkpt>
      <trkpt lat="58.29734" lon="-5.10341">
        <ele>76.15</ele>
        <time>2021-04-06T10:51:41Z</time>
      </trkpt>
      <trkpt lat="58.29768" lon="-5.10407">
        <ele>78.72</ele>
        <time>2021-04-06T10:51:45Z</time>
      </trkpt>
      <trkpt lat="58.29799" lon="-5.10515">
        <ele>75.04</ele>
        <time>2021-04-06T10:51:49Z</time>
      </trkpt>
      <trkpt lat="58.29811" lon="-5.10607">
        <ele>66.97</ele>
        <time>2021-04-06T10:51:53Z</time>
      </trkpt>
      <trkpt lat="58.29812" lon="-5.10693">
        <ele>62.86</ele>
        <time>2021-04-06T10:51:57Z</time>
      </trkpt>
      <trkpt lat="58.29785" lon="-5.10968">
        <ele>53.37</ele>
        <time>2021-04-06T10:52:01Z</time>
      </trkpt>
      <trkpt lat="58.2979" lon="-5.11078">
        <ele>57.04</ele>
        <time>2021-04-06T10:52:05Z</time>
      </trkpt>
      <trkpt lat="58.29804" lon="-5.11186">
        <ele>65.99</ele>
        <time>2021-04-06T10:52:09Z</time>
      </trkpt>
      <trkpt lat="58.29841" lon="-5.11312">
        <ele>76.8</ele>
        <time>2021-04-06T10:52:14Z</time>
      </trkpt>
      <trkpt lat="58.29889" lon="-5.11411">
        <ele>79.49</ele>
        <time>2021-04-06T10:52:18Z</time>
      </trkpt>
      <trkpt lat="58.29889" lon="-5.11411">
        <ele>79.49</ele>
        <time>2021-04-06T10:52:18Z</time>
      </trkpt>
      <trkpt lat="58.29945" lon="-5.11483">
        <ele>93.05</ele>
        <time>2021-04-06T10:52:23Z</time>
      </trkpt>
      <trkpt lat="58.30006" lon="-5.11529">
        <ele>99.25</ele>
        <time>2021-04-06T10:52:27Z</time>
      </trkpt>
      <trkpt lat="58.30118" lon="-5.11559">
        <ele>95.23</ele>
        <time>2021-04-06T10:52:32Z</time>
      </trkpt>
      <trkpt lat="58.30278" lon="-5.11611">
        <ele>77.87</ele>
        <time>2021-04-06T10:52:37Z</time>
      </trkpt>
      <trkpt lat="58.30347" lon="-5.11642">
        <ele>68.13</ele>
        <time>2021-04-06T10:52:42Z</time>
      </trkpt>
      <trkpt lat="58.304" lon="-5.11677">
        <ele>62.9</ele>
        <time>2021-04-06T10:52:46Z</time>
      </trkpt>
      <trkpt lat="58.30468" lon="-5.11744">
        <ele>57.96</ele>
        <time>2021-04-06T10:52:51Z</time>
      </trkpt>
      <trkpt lat="58.30525" lon="-5.11835">
        <ele>48.25</ele>
        <time>2021-04-06T10:52:56Z</time>
      </trkpt>
      <trkpt lat="58.30587" lon="-5.11959">
        <ele>38.98</ele>
        <time>2021-04-06T10:53:01Z</time>
      </trkpt>
      <trkpt lat="58.30624" lon="-5.12056">
        <ele>40.75</ele>
        <time>2021-04-06T10:53:06Z</time>
      </trkpt>
      <trkpt lat="58.30643" lon="-5.12103">
        <ele>41.81</ele>
        <time>2021-04-06T10:53:10Z</time>
      </trkpt>
      <trkpt lat="58.30666" lon="-5.12143">
        <ele>41.85</ele>
        <time>2021-04-06T10:53:15Z</time>
      </trkpt>
      <trkpt lat="58.30697" lon="-5.12181">
        <ele>39.48</ele>
        <time>2021-04-06T10:53:20Z</time>
      </trkpt>
      <trkpt lat="58.30734" lon="-5.12209">
        <ele>36.61</ele>
        <time>2021-04-06T10:53:25Z</time>
      </trkpt>
      <trkpt lat="58.30773" lon="-5.12224">
        <ele>35.06</ele>
        <time>2021-04-06T10:53:30Z</time>
      </trkpt>
      <trkpt lat="58.30913" lon="-5.12253">
        <ele>40.82</ele>
        <time>2021-04-06T10:53:34Z</time>
      </trkpt>
      <trkpt lat="58.31008" lon="-5.12308">
        <ele>48.08</ele>
        <time>2021-04-06T10:53:39Z</time>
      </trkpt>
      <trkpt lat="58.31116" lon="-5.12387">
        <ele>49.96</ele>
        <time>2021-04-06T10:53:44Z</time>
      </trkpt>
      <trkpt lat="58.31168" lon="-5.12415">
        <ele>47.15</ele>
        <time>2021-04-06T10:53:49Z</time>
      </trkpt>
      <trkpt lat="58.31191" lon="-5.12431">
        <ele>45.05</ele>
        <time>2021-04-06T10:53:54Z</time>
      </trkpt>
      <trkpt lat="58.31242" lon="-5.12448">
        <ele>40.94</ele>
        <time>2021-04-06T10:53:58Z</time>
      </trkpt>
      <trkpt lat="58.31326" lon="-5.12447">
        <ele>39.08</ele>
        <time>2021-04-06T10:54:03Z</time>
      </trkpt>
      <trkpt lat="58.31414" lon="-5.12425">
        <ele>37.09</ele>
        <time>2021-04-06T10:54:08Z</time>
      </trkpt>
      <trkpt lat="58.31708" lon="-5.12335">
        <ele>28.09</ele>
        <time>2021-04-06T10:54:13Z</time>
      </trkpt>
      <trkpt lat="58.31873" lon="-5.12288">
        <ele>24.05</ele>
        <time>2021-04-06T10:54:18Z</time>
      </trkpt>
      <trkpt lat="58.31956" lon="-5.12322">
        <ele>27.83</ele>
        <time>2021-04-06T10:54:22Z</time>
      </trkpt>
      <trkpt lat="58.32008" lon="-5.12376">
        <ele>26.42</ele>
        <time>2021-04-06T10:54:27Z</time>
      </trkpt>
      <trkpt lat="58.32137" lon="-5.12553">
        <ele>25.12</ele>
        <time>2021-04-06T10:54:32Z</time>
      </trkpt>
      <trkpt lat="58.32174" lon="-5.12621">
        <ele>24.9</ele>
        <time>2021-04-06T10:54:37Z</time>
      </trkpt>
      <trkpt lat="58.32234" lon="-5.12764">
        <ele>25.92</ele>
        <time>2021-04-06T10:54:42Z</time>
      </trkpt>
      <trkpt lat="58.32264" lon="-5.12828">
        <ele>26.4</ele>
        <time>2021-04-06T10:54:46Z</time>
      </trkpt>
      <trkpt lat="58.32452" lon="-5.1316">
        <ele>33.72</ele>
        <time>2021-04-06T10:54:51Z</time>
      </trkpt>
      <trkpt lat="58.32548" lon="-5.13343">
        <ele>29.95</ele>
        <time>2021-04-06T10:54:56Z</time>
      </trkpt>
      <trkpt lat="58.32586" lon="-5.13433">
        <ele>25.65</ele>
        <time>2021-04-06T10:55:01Z</time>
      </trkpt>
      <trkpt lat="58.32617" lon="-5.1349">
        <ele>22.31</ele>
        <time>2021-04-06T10:55:06Z</time>
      </trkpt>
      <trkpt lat="58.32649" lon="-5.13526">
        <ele>21.36</ele>
        <time>2021-04-06T10:55:10Z</time>
      </trkpt>
      <trkpt lat="58.32676" lon="-5.13542">
        <ele>20.15</ele>
        <time>2021-04-06T10:55:15Z</time>
      </trkpt>
      <trkpt lat="58.32706" lon="-5.13543">
        <ele>19.07</ele>
        <time>2021-04-06T10:55:20Z</time>
      </trkpt>
      <trkpt lat="58.32731" lon="-5.13539">
        <ele>20.13</ele>
        <time>2021-04-06T10:55:25Z</time>
      </trkpt>
      <trkpt lat="58.32816" lon="-5.13507">
        <ele>24.36</ele>
        <time>2021-04-06T10:55:30Z</time>
      </trkpt>
      <trkpt lat="58.32909" lon="-5.13428">
        <ele>30.45</ele>
        <time>2021-04-06T10:55:34Z</time>
      </trkpt>
      <trkpt lat="58.32969" lon="-5.13397">
        <ele>34.34</ele>
        <time>2021-04-06T10:55:39Z</time>
      </trkpt>
      <trkpt lat="58.33052" lon="-5.13387">
        <ele>38.61</ele>
        <time>2021-04-06T10:55:44Z</time>
      </trkpt>
      <trkpt lat="58.33374" lon="-5.13364">
        <ele>62.94</ele>
        <time>2021-04-06T10:55:49Z</time>
      </trkpt>
      <trkpt lat="58.3341" lon="-5.13368">
        <ele>65.54</ele>
        <time>2021-04-06T10:55:54Z</time>
      </trkpt>
      <trkpt lat="58.33476" lon="-5.13407">
        <ele>75.29</ele>
        <time>2021-04-06T10:55:58Z</time>
      </trkpt>
      <trkpt lat="58.33599" lon="-5.13524">
        <ele>83.19</ele>
        <time>2021-04-06T10:56:03Z</time>
      </trkpt>
      <trkpt lat="58.33599" lon="-5.13524">
        <ele>83.19</ele>
        <time>2021-04-06T10:56:03Z</time>
      </trkpt>
      <trkpt lat="58.33636" lon="-5.13573">
        <ele>84.45</ele>
        <time>2021-04-06T10:56:05Z</time>
      </trkpt>
      <trkpt lat="58.33667" lon="-5.1362">
        <ele>84.04</ele>
        <time>2021-04-06T10:56:07Z</time>
      </trkpt>
      <trkpt lat="58.3369" lon="-5.1368">
        <ele>77.6</ele>
        <time>2021-04-06T10:56:10Z</time>
      </trkpt>
      <trkpt lat="58.33698" lon="-5.13711">
        <ele>75.03</ele>
        <time>2021-04-06T10:56:12Z</time>
      </trkpt>
      <trkpt lat="58.33706" lon="-5.13751">
        <ele>74.26</ele>
        <time>2021-04-06T10:56:14Z</time>
      </trkpt>
      <trkpt lat="58.33713" lon="-5.13802">
        <ele>75.9</ele>
        <time>2021-04-06T10:56:16Z</time>
      </trkpt>
      <trkpt lat="58.33715" lon="-5.13888">
        <ele>78.35</ele>
        <time>2021-04-06T10:56:18Z</time>
      </trkpt>
      <trkpt lat="58.33704" lon="-5.13976">
        <ele>78.56</ele>
        <time>2021-04-06T10:56:20Z</time>
      </trkpt>
      <trkpt lat="58.33695" lon="-5.14044">
        <ele>77.59</ele>
        <time>2021-04-06T10:56:22Z</time>
      </trkpt>
      <trkpt lat="58.33691" lon="-5.14141">
        <ele>75.46</ele>
        <time>2021-04-06T10:56:25Z</time>
      </trkpt>
      <trkpt lat="58.33696" lon="-5.14199">
        <ele>73.02</ele>
        <time>2021-04-06T10:56:27Z</time>
      </trkpt>
      <trkpt lat="58.33706" lon="-5.14272">
        <ele>70.53</ele>
        <time>2021-04-06T10:56:29Z</time>
      </trkpt>
      <trkpt lat="58.33725" lon="-5.14342">
        <ele>69.71</ele>
        <time>2021-04-06T10:56:31Z</time>
      </trkpt>
      <trkpt lat="58.33733" lon="-5.14362">
        <ele>69.43</ele>
        <time>2021-04-06T10:56:33Z</time>
      </trkpt>
      <trkpt lat="58.33761" lon="-5.14419">
        <ele>71.83</ele>
        <time>2021-04-06T10:56:35Z</time>
      </trkpt>
      <trkpt lat="58.33814" lon="-5.14492">
        <ele>72.65</ele>
        <time>2021-04-06T10:56:37Z</time>
      </trkpt>
      <trkpt lat="58.33867" lon="-5.14523">
        <ele>73.29</ele>
        <time>2021-04-06T10:56:40Z</time>
      </trkpt>
      <trkpt lat="58.33967" lon="-5.14549">
        <ele>73.97</ele>
        <time>2021-04-06T10:56:42Z</time>
      </trkpt>
      <trkpt lat="58.33988" lon="-5.14566">
        <ele>73.35</ele>
        <time>2021-04-06T10:56:44Z</time>
      </trkpt>
      <trkpt lat="58.34003" lon="-5.14583">
        <ele>73.63</ele>
        <time>2021-04-06T10:56:46Z</time>
      </trkpt>
      <trkpt lat="58.34035" lon="-5.14625">
        <ele>77.08</ele>
        <time>2021-04-06T10:56:48Z</time>
      </trkpt>
      <trkpt lat="58.34076" lon="-5.14728">
        <ele>76.04</ele>
        <time>2021-04-06T10:56:50Z</time>
      </trkpt>
      <trkpt lat="58.3411" lon="-5.148">
        <ele>72.62</ele>
        <time>2021-04-06T10:56:52Z</time>
      </trkpt>
      <trkpt lat="58.34145" lon="-5.14858">
        <ele>66.07</ele>
        <time>2021-04-06T10:56:55Z</time>
      </trkpt>
      <trkpt lat="58.3418" lon="-5.14899">
        <ele>64.35</ele>
        <time>2021-04-06T10:56:57Z</time>
      </trkpt>
      <trkpt lat="58.34213" lon="-5.14972">
        <ele>66.33</ele>
        <time>2021-04-06T10:56:59Z</time>
      </trkpt>
      <trkpt lat="58.34236" lon="-5.15045">
        <ele>64.18</ele>
        <time>2021-04-06T10:57:01Z</time>
      </trkpt>
      <trkpt lat="58.34247" lon="-5.151">
        <ele>62.8</ele>
        <time>2021-04-06T10:57:03Z</time>
      </trkpt>
      <trkpt lat="58.34253" lon="-5.15145">
        <ele>61.24</ele>
        <time>2021-04-06T10:57:05Z</time>
      </trkpt>
      <trkpt lat="58.34257" lon="-5.1519">
        <ele>60.42</ele>
        <time>2021-04-06T10:57:07Z</time>
      </trkpt>
      <trkpt lat="58.34258" lon="-5.15247">
        <ele>58.81</ele>
        <time>2021-04-06T10:57:10Z</time>
      </trkpt>
      <trkpt lat="58.34254" lon="-5.15308">
        <ele>57.87</ele>
        <time>2021-04-06T10:57:12Z</time>
      </trkpt>
      <trkpt lat="58.34245" lon="-5.15381">
        <ele>55.86</ele>
        <time>2021-04-06T10:57:14Z</time>
      </trkpt>
      <trkpt lat="58.34226" lon="-5.1547">
        <ele>53.42</ele>
        <time>2021-04-06T10:57:16Z</time>
      </trkpt>
      <trkpt lat="58.34213" lon="-5.15539">
        <ele>51.97</ele>
        <time>2021-04-06T10:57:18Z</time>
      </trkpt>
      <trkpt lat="58.34207" lon="-5.15594">
        <ele>51.3</ele>
        <time>2021-04-06T10:57:20Z</time>
      </trkpt>
      <trkpt lat="58.34206" lon="-5.15649">
        <ele>50.81</ele>
        <time>2021-04-06T10:57:22Z</time>
      </trkpt>
      <trkpt lat="58.34211" lon="-5.157">
        <ele>49.4</ele>
        <time>2021-04-06T10:57:25Z</time>
      </trkpt>
      <trkpt lat="58.3423" lon="-5.15767">
        <ele>45.97</ele>
        <time>2021-04-06T10:57:27Z</time>
      </trkpt>
      <trkpt lat="58.3425" lon="-5.15811">
        <ele>43.82</ele>
        <time>2021-04-06T10:57:29Z</time>
      </trkpt>
      <trkpt lat="58.34257" lon="-5.1582">
        <ele>43.48</ele>
        <time>2021-04-06T10:57:31Z</time>
      </trkpt>
      <trkpt lat="58.34279" lon="-5.1585">
        <ele>41.78</ele>
        <time>2021-04-06T10:57:33Z</time>
      </trkpt>
      <trkpt lat="58.34306" lon="-5.15872">
        <ele>41.03</ele>
        <time>2021-04-06T10:57:35Z</time>
      </trkpt>
      <trkpt lat="58.34337" lon="-5.15877">
        <ele>42</ele>
        <time>2021-04-06T10:57:37Z</time>
      </trkpt>
      <trkpt lat="58.34368" lon="-5.15878">
        <ele>42.1</ele>
        <time>2021-04-06T10:57:40Z</time>
      </trkpt>
      <trkpt lat="58.34412" lon="-5.15873">
        <ele>42.59</ele>
        <time>2021-04-06T10:57:42Z</time>
      </trkpt>
      <trkpt lat="58.34448" lon="-5.15872">
        <ele>42.73</ele>
        <time>2021-04-06T10:57:44Z</time>
      </trkpt>
      <trkpt lat="58.34465" lon="-5.15876">
        <ele>43.21</ele>
        <time>2021-04-06T10:57:46Z</time>
      </trkpt>
      <trkpt lat="58.34481" lon="-5.15883">
        <ele>43.21</ele>
        <time>2021-04-06T10:57:48Z</time>
      </trkpt>
      <trkpt lat="58.34481" lon="-5.15883">
        <ele>43.21</ele>
        <time>2021-04-06T10:57:48Z</time>
      </trkpt>
      <trkpt lat="58.34481" lon="-5.15883">
        <ele>43.2</ele>
        <time>2021-04-06T10:57:48Z</time>
      </trkpt>
      <trkpt lat="58.34486" lon="-5.15861">
        <ele>44.01</ele>
        <time>2021-04-06T10:57:52Z</time>
      </trkpt>
      <trkpt lat="58.34521" lon="-5.15823">
        <ele>44.12</ele>
        <time>2021-04-06T10:57:55Z</time>
      </trkpt>
      <trkpt lat="58.34555" lon="-5.15801">
        <ele>42.64</ele>
        <time>2021-04-06T10:57:59Z</time>
      </trkpt>
      <trkpt lat="58.34585" lon="-5.15761">
        <ele>40.82</ele>
        <time>2021-04-06T10:58:03Z</time>
      </trkpt>
      <trkpt lat="58.34598" lon="-5.15731">
        <ele>40.01</ele>
        <time>2021-04-06T10:58:06Z</time>
      </trkpt>
      <trkpt lat="58.34613" lon="-5.15681">
        <ele>38.31</ele>
        <time>2021-04-06T10:58:10Z</time>
      </trkpt>
      <trkpt lat="58.34641" lon="-5.15614">
        <ele>35.19</ele>
        <time>2021-04-06T10:58:13Z</time>
      </trkpt>
      <trkpt lat="58.34667" lon="-5.15495">
        <ele>27.92</ele>
        <time>2021-04-06T10:58:17Z</time>
      </trkpt>
      <trkpt lat="58.34679" lon="-5.15412">
        <ele>26</ele>
        <time>2021-04-06T10:58:20Z</time>
      </trkpt>
      <trkpt lat="58.34688" lon="-5.15396">
        <ele>25.08</ele>
        <time>2021-04-06T10:58:24Z</time>
      </trkpt>
      <trkpt lat="58.34729" lon="-5.15353">
        <ele>21.33</ele>
        <time>2021-04-06T10:58:28Z</time>
      </trkpt>
      <trkpt lat="58.34749" lon="-5.15335">
        <ele>18.21</ele>
        <time>2021-04-06T10:58:31Z</time>
      </trkpt>
      <trkpt lat="58.34794" lon="-5.15283">
        <ele>16.68</ele>
        <time>2021-04-06T10:58:35Z</time>
      </trkpt>
      <trkpt lat="58.34828" lon="-5.1525">
        <ele>15.61</ele>
        <time>2021-04-06T10:58:38Z</time>
      </trkpt>
      <trkpt lat="58.34837" lon="-5.1524">
        <ele>15.44</ele>
        <time>2021-04-06T10:58:42Z</time>
      </trkpt>
      <trkpt lat="58.34849" lon="-5.1522">
        <ele>15.44</ele>
        <time>2021-04-06T10:58:46Z</time>
      </trkpt>
      <trkpt lat="58.34856" lon="-5.15202">
        <ele>15.47</ele>
        <time>2021-04-06T10:58:49Z</time>
      </trkpt>
      <trkpt lat="58.34869" lon="-5.15178">
        <ele>15.02</ele>
        <time>2021-04-06T10:58:53Z</time>
      </trkpt>
      <trkpt lat="58.34881" lon="-5.1515">
        <ele>15.89</ele>
        <time>2021-04-06T10:58:56Z</time>
      </trkpt>
      <trkpt lat="58.34888" lon="-5.15141">
        <ele>15.99</ele>
        <time>2021-04-06T10:59:00Z</time>
      </trkpt>
      <trkpt lat="58.34895" lon="-5.15135">
        <ele>16.28</ele>
        <time>2021-04-06T10:59:03Z</time>
      </trkpt>
      <trkpt lat="58.34921" lon="-5.15128">
        <ele>16.65</ele>
        <time>2021-04-06T10:59:07Z</time>
      </trkpt>
      <trkpt lat="58.34934" lon="-5.15121">
        <ele>16.67</ele>
        <time>2021-04-06T10:59:11Z</time>
      </trkpt>
      <trkpt lat="58.34944" lon="-5.15109">
        <ele>17.08</ele>
        <time>2021-04-06T10:59:14Z</time>
      </trkpt>
      <trkpt lat="58.3499" lon="-5.1503">
        <ele>18.6</ele>
        <time>2021-04-06T10:59:18Z</time>
      </trkpt>
      <trkpt lat="58.35002" lon="-5.15016">
        <ele>18.72</ele>
        <time>2021-04-06T10:59:21Z</time>
      </trkpt>
      <trkpt lat="58.35013" lon="-5.1501">
        <ele>18.39</ele>
        <time>2021-04-06T10:59:25Z</time>
      </trkpt>
      <trkpt lat="58.35026" lon="-5.1501">
        <ele>17.44</ele>
        <time>2021-04-06T10:59:29Z</time>
      </trkpt>
      <trkpt lat="58.35055" lon="-5.15029">
        <ele>15.94</ele>
        <time>2021-04-06T10:59:32Z</time>
      </trkpt>
      <trkpt lat="58.35174" lon="-5.15201">
        <ele>18.55</ele>
        <time>2021-04-06T10:59:36Z</time>
      </trkpt>
      <trkpt lat="58.35205" lon="-5.14974">
        <ele>19.62</ele>
        <time>2021-04-06T10:59:42Z</time>
      </trkpt>
      <trkpt lat="58.35222" lon="-5.14883">
        <ele>18.05</ele>
        <time>2021-04-06T10:59:48Z</time>
      </trkpt>
      <trkpt lat="58.35224" lon="-5.14841">
        <ele>18.62</ele>
        <time>2021-04-06T10:59:53Z</time>
      </trkpt>
      <trkpt lat="58.35223" lon="-5.14773">
        <ele>18.99</ele>
        <time>2021-04-06T10:59:59Z</time>
      </trkpt>
      <trkpt lat="58.35219" lon="-5.1473">
        <ele>19.72</ele>
        <time>2021-04-06T11:00:05Z</time>
      </trkpt>
      <trkpt lat="58.35212" lon="-5.14683">
        <ele>20.67</ele>
        <time>2021-04-06T11:00:11Z</time>
      </trkpt>
      <trkpt lat="58.35132" lon="-5.14234">
        <ele>23.67</ele>
        <time>2021-04-06T11:00:17Z</time>
      </trkpt>
      <trkpt lat="58.35086" lon="-5.14048">
        <ele>19.73</ele>
        <time>2021-04-06T11:00:23Z</time>
      </trkpt>
      <trkpt lat="58.35052" lon="-5.13961">
        <ele>27.57</ele>
        <time>2021-04-06T11:00:29Z</time>
      </trkpt>
      <trkpt lat="58.3493" lon="-5.13702">
        <ele>19.35</ele>
        <time>2021-04-06T11:00:35Z</time>
      </trkpt>
      <trkpt lat="58.34889" lon="-5.1358">
        <ele>21.78</ele>
        <time>2021-04-06T11:00:41Z</time>
      </trkpt>
      <trkpt lat="58.34859" lon="-5.13377">
        <ele>19.63</ele>
        <time>2021-04-06T11:00:46Z</time>
      </trkpt>
      <trkpt lat="58.34855" lon="-5.13305">
        <ele>23.57</ele>
        <time>2021-04-06T11:00:52Z</time>
      </trkpt>
      <trkpt lat="58.34865" lon="-5.13151">
        <ele>22.79</ele>
        <time>2021-04-06T11:00:58Z</time>
      </trkpt>
      <trkpt lat="58.34864" lon="-5.13063">
        <ele>23.36</ele>
        <time>2021-04-06T11:01:04Z</time>
      </trkpt>
      <trkpt lat="58.34856" lon="-5.12954">
        <ele>20.98</ele>
        <time>2021-04-06T11:01:10Z</time>
      </trkpt>
      <trkpt lat="58.34856" lon="-5.12906">
        <ele>20.4</ele>
        <time>2021-04-06T11:01:16Z</time>
      </trkpt>
      <trkpt lat="58.34873" lon="-5.12583">
        <ele>23.89</ele>
        <time>2021-04-06T11:01:22Z</time>
      </trkpt>
      <trkpt lat="58.34888" lon="-5.11951">
        <ele>40.79</ele>
        <time>2021-04-06T11:01:28Z</time>
      </trkpt>
      <trkpt lat="58.34895" lon="-5.11884">
        <ele>41.7</ele>
        <time>2021-04-06T11:01:34Z</time>
      </trkpt>
      <trkpt lat="58.3491" lon="-5.1183">
        <ele>42.6</ele>
        <time>2021-04-06T11:01:39Z</time>
      </trkpt>
      <trkpt lat="58.3491" lon="-5.1183">
        <ele>42.6</ele>
        <time>2021-04-06T11:01:39Z</time>
      </trkpt>
      <trkpt lat="58.3495" lon="-5.11749">
        <ele>50.7</ele>
        <time>2021-04-06T11:01:44Z</time>
      </trkpt>
      <trkpt lat="58.3498" lon="-5.11695">
        <ele>56.17</ele>
        <time>2021-04-06T11:01:48Z</time>
      </trkpt>
      <trkpt lat="58.35013" lon="-5.11652">
        <ele>62.44</ele>
        <time>2021-04-06T11:01:53Z</time>
      </trkpt>
      <trkpt lat="58.35056" lon="-5.11628">
        <ele>68.65</ele>
        <time>2021-04-06T11:01:57Z</time>
      </trkpt>
      <trkpt lat="58.35188" lon="-5.1165">
        <ele>81.39</ele>
        <time>2021-04-06T11:02:02Z</time>
      </trkpt>
      <trkpt lat="58.35241" lon="-5.11604">
        <ele>83.6</ele>
        <time>2021-04-06T11:02:07Z</time>
      </trkpt>
      <trkpt lat="58.35333" lon="-5.11456">
        <ele>83.73</ele>
        <time>2021-04-06T11:02:11Z</time>
      </trkpt>
      <trkpt lat="58.35388" lon="-5.11319">
        <ele>91.14</ele>
        <time>2021-04-06T11:02:16Z</time>
      </trkpt>
      <trkpt lat="58.35586" lon="-5.10635">
        <ele>100.22</ele>
        <time>2021-04-06T11:02:20Z</time>
      </trkpt>
      <trkpt lat="58.35622" lon="-5.10453">
        <ele>97.92</ele>
        <time>2021-04-06T11:02:25Z</time>
      </trkpt>
      <trkpt lat="58.35651" lon="-5.10205">
        <ele>90.49</ele>
        <time>2021-04-06T11:02:29Z</time>
      </trkpt>
      <trkpt lat="58.35667" lon="-5.10126">
        <ele>89.63</ele>
        <time>2021-04-06T11:02:34Z</time>
      </trkpt>
      <trkpt lat="58.35698" lon="-5.10048">
        <ele>88.29</ele>
        <time>2021-04-06T11:02:38Z</time>
      </trkpt>
      <trkpt lat="58.35775" lon="-5.09928">
        <ele>89.63</ele>
        <time>2021-04-06T11:02:43Z</time>
      </trkpt>
      <trkpt lat="58.35797" lon="-5.09878">
        <ele>88.83</ele>
        <time>2021-04-06T11:02:47Z</time>
      </trkpt>
      <trkpt lat="58.35838" lon="-5.09736">
        <ele>86.83</ele>
        <time>2021-04-06T11:02:52Z</time>
      </trkpt>
      <trkpt lat="58.35859" lon="-5.09692">
        <ele>85.85</ele>
        <time>2021-04-06T11:02:56Z</time>
      </trkpt>
      <trkpt lat="58.3595" lon="-5.09559">
        <ele>81.87</ele>
        <time>2021-04-06T11:03:01Z</time>
      </trkpt>
      <trkpt lat="58.36046" lon="-5.09329">
        <ele>73.41</ele>
        <time>2021-04-06T11:03:05Z</time>
      </trkpt>
      <trkpt lat="58.3609" lon="-5.09257">
        <ele>71.56</ele>
        <time>2021-04-06T11:03:10Z</time>
      </trkpt>
      <trkpt lat="58.3613" lon="-5.09208">
        <ele>70</ele>
        <time>2021-04-06T11:03:14Z</time>
      </trkpt>
      <trkpt lat="58.3617" lon="-5.09181">
        <ele>70.17</ele>
        <time>2021-04-06T11:03:19Z</time>
      </trkpt>
      <trkpt lat="58.36205" lon="-5.0917">
        <ele>71.18</ele>
        <time>2021-04-06T11:03:23Z</time>
      </trkpt>
      <trkpt lat="58.36236" lon="-5.09174">
        <ele>71.03</ele>
        <time>2021-04-06T11:03:28Z</time>
      </trkpt>
      <trkpt lat="58.36301" lon="-5.09201">
        <ele>72.5</ele>
        <time>2021-04-06T11:03:32Z</time>
      </trkpt>
      <trkpt lat="58.36391" lon="-5.09219">
        <ele>74.63</ele>
        <time>2021-04-06T11:03:37Z</time>
      </trkpt>
      <trkpt lat="58.36451" lon="-5.09196">
        <ele>71.26</ele>
        <time>2021-04-06T11:03:41Z</time>
      </trkpt>
      <trkpt lat="58.36479" lon="-5.09118">
        <ele>71.76</ele>
        <time>2021-04-06T11:03:46Z</time>
      </trkpt>
      <trkpt lat="58.36486" lon="-5.09076">
        <ele>72.34</ele>
        <time>2021-04-06T11:03:51Z</time>
      </trkpt>
      <trkpt lat="58.36485" lon="-5.09023">
        <ele>71.89</ele>
        <time>2021-04-06T11:03:55Z</time>
      </trkpt>
      <trkpt lat="58.3644" lon="-5.08827">
        <ele>75.52</ele>
        <time>2021-04-06T11:04:00Z</time>
      </trkpt>
      <trkpt lat="58.36431" lon="-5.08757">
        <ele>76.07</ele>
        <time>2021-04-06T11:04:04Z</time>
      </trkpt>
      <trkpt lat="58.36433" lon="-5.08677">
        <ele>74.09</ele>
        <time>2021-04-06T11:04:09Z</time>
      </trkpt>
      <trkpt lat="58.36443" lon="-5.08618">
        <ele>71.4</ele>
        <time>2021-04-06T11:04:13Z</time>
      </trkpt>
      <trkpt lat="58.36463" lon="-5.08556">
        <ele>69.7</ele>
        <time>2021-04-06T11:04:18Z</time>
      </trkpt>
      <trkpt lat="58.36517" lon="-5.08448">
        <ele>68.14</ele>
        <time>2021-04-06T11:04:22Z</time>
      </trkpt>
      <trkpt lat="58.36548" lon="-5.08393">
        <ele>67.88</ele>
        <time>2021-04-06T11:04:27Z</time>
      </trkpt>
      <trkpt lat="58.36584" lon="-5.08346">
        <ele>66.44</ele>
        <time>2021-04-06T11:04:31Z</time>
      </trkpt>
      <trkpt lat="58.36735" lon="-5.08194">
        <ele>61.42</ele>
        <time>2021-04-06T11:04:36Z</time>
      </trkpt>
      <trkpt lat="58.36909" lon="-5.08038">
        <ele>56.52</ele>
        <time>2021-04-06T11:04:40Z</time>
      </trkpt>
      <trkpt lat="58.36959" lon="-5.07927">
        <ele>47.66</ele>
        <time>2021-04-06T11:04:45Z</time>
      </trkpt>
      <trkpt lat="58.37063" lon="-5.07645">
        <ele>46.35</ele>
        <time>2021-04-06T11:04:49Z</time>
      </trkpt>
      <trkpt lat="58.37152" lon="-5.07515">
        <ele>48.46</ele>
        <time>2021-04-06T11:04:54Z</time>
      </trkpt>
      <trkpt lat="58.37243" lon="-5.07418">
        <ele>47.73</ele>
        <time>2021-04-06T11:04:58Z</time>
      </trkpt>
      <trkpt lat="58.3731" lon="-5.0739">
        <ele>49.96</ele>
        <time>2021-04-06T11:05:03Z</time>
      </trkpt>
      <trkpt lat="58.37369" lon="-5.07352">
        <ele>52.29</ele>
        <time>2021-04-06T11:05:07Z</time>
      </trkpt>
      <trkpt lat="58.37451" lon="-5.07235">
        <ele>53.87</ele>
        <time>2021-04-06T11:05:12Z</time>
      </trkpt>
      <trkpt lat="58.37535" lon="-5.07162">
        <ele>48.03</ele>
        <time>2021-04-06T11:05:16Z</time>
      </trkpt>
      <trkpt lat="58.37616" lon="-5.07113">
        <ele>49.03</ele>
        <time>2021-04-06T11:05:21Z</time>
      </trkpt>
      <trkpt lat="58.37798" lon="-5.06982">
        <ele>45.14</ele>
        <time>2021-04-06T11:05:26Z</time>
      </trkpt>
      <trkpt lat="58.37837" lon="-5.06935">
        <ele>40.33</ele>
        <time>2021-04-06T11:05:30Z</time>
      </trkpt>
      <trkpt lat="58.3787" lon="-5.06879">
        <ele>42.6</ele>
        <time>2021-04-06T11:05:35Z</time>
      </trkpt>
      <trkpt lat="58.3791" lon="-5.0674">
        <ele>43.46</ele>
        <time>2021-04-06T11:05:39Z</time>
      </trkpt>
      <trkpt lat="58.3791" lon="-5.0674">
        <ele>43.46</ele>
        <time>2021-04-06T11:05:39Z</time>
      </trkpt>
      <trkpt lat="58.37928" lon="-5.06645">
        <ele>42.8</ele>
        <time>2021-04-06T11:05:42Z</time>
      </trkpt>
      <trkpt lat="58.37938" lon="-5.06576">
        <ele>42.35</ele>
        <time>2021-04-06T11:05:46Z</time>
      </trkpt>
      <trkpt lat="58.37941" lon="-5.06543">
        <ele>42.59</ele>
        <time>2021-04-06T11:05:49Z</time>
      </trkpt>
      <trkpt lat="58.37942" lon="-5.06492">
        <ele>42.19</ele>
        <time>2021-04-06T11:05:53Z</time>
      </trkpt>
      <trkpt lat="58.37941" lon="-5.0646">
        <ele>42.15</ele>
        <time>2021-04-06T11:05:56Z</time>
      </trkpt>
      <trkpt lat="58.37926" lon="-5.06389">
        <ele>39.35</ele>
        <time>2021-04-06T11:05:59Z</time>
      </trkpt>
      <trkpt lat="58.37917" lon="-5.06358">
        <ele>37.81</ele>
        <time>2021-04-06T11:06:03Z</time>
      </trkpt>
      <trkpt lat="58.37905" lon="-5.06323">
        <ele>35.64</ele>
        <time>2021-04-06T11:06:06Z</time>
      </trkpt>
      <trkpt lat="58.3789" lon="-5.0629">
        <ele>34.42</ele>
        <time>2021-04-06T11:06:09Z</time>
      </trkpt>
      <trkpt lat="58.37632" lon="-5.05773">
        <ele>35.43</ele>
        <time>2021-04-06T11:06:13Z</time>
      </trkpt>
      <trkpt lat="58.37604" lon="-5.05709">
        <ele>35.42</ele>
        <time>2021-04-06T11:06:16Z</time>
      </trkpt>
      <trkpt lat="58.37555" lon="-5.05587">
        <ele>35.3</ele>
        <time>2021-04-06T11:06:20Z</time>
      </trkpt>
      <trkpt lat="58.37533" lon="-5.05522">
        <ele>32.42</ele>
        <time>2021-04-06T11:06:23Z</time>
      </trkpt>
      <trkpt lat="58.37495" lon="-5.05396">
        <ele>25.95</ele>
        <time>2021-04-06T11:06:26Z</time>
      </trkpt>
      <trkpt lat="58.37467" lon="-5.05276">
        <ele>23.59</ele>
        <time>2021-04-06T11:06:30Z</time>
      </trkpt>
      <trkpt lat="58.37352" lon="-5.04679">
        <ele>6.14</ele>
        <time>2021-04-06T11:06:33Z</time>
      </trkpt>
      <trkpt lat="58.37189" lon="-5.03904">
        <ele>5.75</ele>
        <time>2021-04-06T11:06:37Z</time>
      </trkpt>
      <trkpt lat="58.37182" lon="-5.03865">
        <ele>5.3</ele>
        <time>2021-04-06T11:06:40Z</time>
      </trkpt>
      <trkpt lat="58.37177" lon="-5.03817">
        <ele>5.24</ele>
        <time>2021-04-06T11:06:43Z</time>
      </trkpt>
      <trkpt lat="58.37176" lon="-5.03773">
        <ele>5</ele>
        <time>2021-04-06T11:06:47Z</time>
      </trkpt>
      <trkpt lat="58.37177" lon="-5.03748">
        <ele>5</ele>
        <time>2021-04-06T11:06:50Z</time>
      </trkpt>
      <trkpt lat="58.37182" lon="-5.03704">
        <ele>5</ele>
        <time>2021-04-06T11:06:53Z</time>
      </trkpt>
      <trkpt lat="58.37193" lon="-5.03651">
        <ele>6.02</ele>
        <time>2021-04-06T11:06:57Z</time>
      </trkpt>
      <trkpt lat="58.37226" lon="-5.03549">
        <ele>7.86</ele>
        <time>2021-04-06T11:07:00Z</time>
      </trkpt>
      <trkpt lat="58.37235" lon="-5.03521">
        <ele>7.81</ele>
        <time>2021-04-06T11:07:04Z</time>
      </trkpt>
      <trkpt lat="58.37241" lon="-5.03491">
        <ele>8.31</ele>
        <time>2021-04-06T11:07:07Z</time>
      </trkpt>
      <trkpt lat="58.37247" lon="-5.03444">
        <ele>8.21</ele>
        <time>2021-04-06T11:07:10Z</time>
      </trkpt>
      <trkpt lat="58.37248" lon="-5.03416">
        <ele>8.11</ele>
        <time>2021-04-06T11:07:14Z</time>
      </trkpt>
      <trkpt lat="58.37247" lon="-5.03359">
        <ele>8.36</ele>
        <time>2021-04-06T11:07:17Z</time>
      </trkpt>
      <trkpt lat="58.37237" lon="-5.0329">
        <ele>10.12</ele>
        <time>2021-04-06T11:07:20Z</time>
      </trkpt>
      <trkpt lat="58.37225" lon="-5.03229">
        <ele>10.96</ele>
        <time>2021-04-06T11:07:24Z</time>
      </trkpt>
      <trkpt lat="58.37079" lon="-5.02574">
        <ele>12.77</ele>
        <time>2021-04-06T11:07:27Z</time>
      </trkpt>
      <trkpt lat="58.37068" lon="-5.0252">
        <ele>13.5</ele>
        <time>2021-04-06T11:07:31Z</time>
      </trkpt>
      <trkpt lat="58.37063" lon="-5.0247">
        <ele>12.66</ele>
        <time>2021-04-06T11:07:34Z</time>
      </trkpt>
      <trkpt lat="58.37061" lon="-5.02436">
        <ele>11.56</ele>
        <time>2021-04-06T11:07:37Z</time>
      </trkpt>
      <trkpt lat="58.37065" lon="-5.0237">
        <ele>10.93</ele>
        <time>2021-04-06T11:07:41Z</time>
      </trkpt>
      <trkpt lat="58.37068" lon="-5.02348">
        <ele>11.84</ele>
        <time>2021-04-06T11:07:44Z</time>
      </trkpt>
      <trkpt lat="58.37075" lon="-5.02319">
        <ele>13.41</ele>
        <time>2021-04-06T11:07:47Z</time>
      </trkpt>
      <trkpt lat="58.37085" lon="-5.02285">
        <ele>15.99</ele>
        <time>2021-04-06T11:07:51Z</time>
      </trkpt>
      <trkpt lat="58.37094" lon="-5.02262">
        <ele>17.2</ele>
        <time>2021-04-06T11:07:54Z</time>
      </trkpt>
      <trkpt lat="58.37114" lon="-5.02223">
        <ele>18.31</ele>
        <time>2021-04-06T11:07:58Z</time>
      </trkpt>
      <trkpt lat="58.37195" lon="-5.02116">
        <ele>19.59</ele>
        <time>2021-04-06T11:08:01Z</time>
      </trkpt>
      <trkpt lat="58.37231" lon="-5.0206">
        <ele>20.62</ele>
        <time>2021-04-06T11:08:04Z</time>
      </trkpt>
      <trkpt lat="58.37249" lon="-5.02025">
        <ele>20.65</ele>
        <time>2021-04-06T11:08:08Z</time>
      </trkpt>
      <trkpt lat="58.37281" lon="-5.01951">
        <ele>18.19</ele>
        <time>2021-04-06T11:08:11Z</time>
      </trkpt>
      <trkpt lat="58.37294" lon="-5.01916">
        <ele>18.68</ele>
        <time>2021-04-06T11:08:14Z</time>
      </trkpt>
      <trkpt lat="58.37317" lon="-5.01832">
        <ele>18.26</ele>
        <time>2021-04-06T11:08:18Z</time>
      </trkpt>
      <trkpt lat="58.37339" lon="-5.01779">
        <ele>17.88</ele>
        <time>2021-04-06T11:08:21Z</time>
      </trkpt>
      <trkpt lat="58.37339" lon="-5.01779">
        <ele>17.88</ele>
        <time>2021-04-06T11:08:21Z</time>
      </trkpt>
      <trkpt lat="58.37365" lon="-5.01736">
        <ele>17.89</ele>
        <time>2021-04-06T11:08:24Z</time>
      </trkpt>
      <trkpt lat="58.37386" lon="-5.01715">
        <ele>18.31</ele>
        <time>2021-04-06T11:08:27Z</time>
      </trkpt>
      <trkpt lat="58.37409" lon="-5.01696">
        <ele>15.73</ele>
        <time>2021-04-06T11:08:29Z</time>
      </trkpt>
      <trkpt lat="58.37463" lon="-5.01677">
        <ele>10.47</ele>
        <time>2021-04-06T11:08:32Z</time>
      </trkpt>
      <trkpt lat="58.37535" lon="-5.01668">
        <ele>9.48</ele>
        <time>2021-04-06T11:08:35Z</time>
      </trkpt>
      <trkpt lat="58.37569" lon="-5.01676">
        <ele>11.14</ele>
        <time>2021-04-06T11:08:38Z</time>
      </trkpt>
      <trkpt lat="58.37627" lon="-5.01705">
        <ele>12.59</ele>
        <time>2021-04-06T11:08:40Z</time>
      </trkpt>
      <trkpt lat="58.37658" lon="-5.01734">
        <ele>13.29</ele>
        <time>2021-04-06T11:08:43Z</time>
      </trkpt>
      <trkpt lat="58.37688" lon="-5.01777">
        <ele>13.03</ele>
        <time>2021-04-06T11:08:46Z</time>
      </trkpt>
      <trkpt lat="58.37722" lon="-5.01841">
        <ele>12.65</ele>
        <time>2021-04-06T11:08:48Z</time>
      </trkpt>
      <trkpt lat="58.37731" lon="-5.01866">
        <ele>13.8</ele>
        <time>2021-04-06T11:08:51Z</time>
      </trkpt>
      <trkpt lat="58.37754" lon="-5.01943">
        <ele>14.18</ele>
        <time>2021-04-06T11:08:54Z</time>
      </trkpt>
      <trkpt lat="58.37881" lon="-5.0246">
        <ele>8.93</ele>
        <time>2021-04-06T11:08:57Z</time>
      </trkpt>
      <trkpt lat="58.37913" lon="-5.02605">
        <ele>8.4</ele>
        <time>2021-04-06T11:08:59Z</time>
      </trkpt>
      <trkpt lat="58.37947" lon="-5.02789">
        <ele>9.81</ele>
        <time>2021-04-06T11:09:02Z</time>
      </trkpt>
      <trkpt lat="58.37978" lon="-5.02936">
        <ele>10.87</ele>
        <time>2021-04-06T11:09:05Z</time>
      </trkpt>
      <trkpt lat="58.37992" lon="-5.02991">
        <ele>9.35</ele>
        <time>2021-04-06T11:09:08Z</time>
      </trkpt>
      <trkpt lat="58.38005" lon="-5.03035">
        <ele>8.44</ele>
        <time>2021-04-06T11:09:10Z</time>
      </trkpt>
      <trkpt lat="58.3802" lon="-5.03079">
        <ele>8.21</ele>
        <time>2021-04-06T11:09:13Z</time>
      </trkpt>
      <trkpt lat="58.38039" lon="-5.0312">
        <ele>8.16</ele>
        <time>2021-04-06T11:09:16Z</time>
      </trkpt>
      <trkpt lat="58.3806" lon="-5.03161">
        <ele>7.96</ele>
        <time>2021-04-06T11:09:18Z</time>
      </trkpt>
      <trkpt lat="58.38076" lon="-5.03186">
        <ele>7.98</ele>
        <time>2021-04-06T11:09:21Z</time>
      </trkpt>
      <trkpt lat="58.38116" lon="-5.03234">
        <ele>9.56</ele>
        <time>2021-04-06T11:09:24Z</time>
      </trkpt>
      <trkpt lat="58.38138" lon="-5.03256">
        <ele>10.99</ele>
        <time>2021-04-06T11:09:27Z</time>
      </trkpt>
      <trkpt lat="58.38164" lon="-5.03276">
        <ele>9.18</ele>
        <time>2021-04-06T11:09:29Z</time>
      </trkpt>
      <trkpt lat="58.38215" lon="-5.03304">
        <ele>5.37</ele>
        <time>2021-04-06T11:09:32Z</time>
      </trkpt>
      <trkpt lat="58.38246" lon="-5.03314">
        <ele>4.7</ele>
        <time>2021-04-06T11:09:35Z</time>
      </trkpt>
      <trkpt lat="58.38283" lon="-5.03317">
        <ele>5.17</ele>
        <time>2021-04-06T11:09:38Z</time>
      </trkpt>
      <trkpt lat="58.38301" lon="-5.03314">
        <ele>6.71</ele>
        <time>2021-04-06T11:09:40Z</time>
      </trkpt>
      <trkpt lat="58.38301" lon="-5.03314">
        <ele>6.71</ele>
        <time>2021-04-06T11:09:40Z</time>
      </trkpt>
      <trkpt lat="58.38316" lon="-5.03312">
        <ele>8.24</ele>
        <time>2021-04-06T11:09:47Z</time>
      </trkpt>
      <trkpt lat="58.38356" lon="-5.03295">
        <ele>12.17</ele>
        <time>2021-04-06T11:09:53Z</time>
      </trkpt>
      <trkpt lat="58.38384" lon="-5.03279">
        <ele>15.12</ele>
        <time>2021-04-06T11:10:00Z</time>
      </trkpt>
      <trkpt lat="58.38432" lon="-5.03237">
        <ele>22.69</ele>
        <time>2021-04-06T11:10:06Z</time>
      </trkpt>
      <trkpt lat="58.38463" lon="-5.03196">
        <ele>30.27</ele>
        <time>2021-04-06T11:10:12Z</time>
      </trkpt>
      <trkpt lat="58.38777" lon="-5.02725">
        <ele>54</ele>
        <time>2021-04-06T11:10:19Z</time>
      </trkpt>
      <trkpt lat="58.38801" lon="-5.02693">
        <ele>50.87</ele>
        <time>2021-04-06T11:10:25Z</time>
      </trkpt>
      <trkpt lat="58.3888" lon="-5.02607">
        <ele>43.6</ele>
        <time>2021-04-06T11:10:32Z</time>
      </trkpt>
      <trkpt lat="58.39295" lon="-5.02277">
        <ele>44.26</ele>
        <time>2021-04-06T11:10:38Z</time>
      </trkpt>
      <trkpt lat="58.39384" lon="-5.02196">
        <ele>39.28</ele>
        <time>2021-04-06T11:10:44Z</time>
      </trkpt>
      <trkpt lat="58.39474" lon="-5.0208">
        <ele>43.31</ele>
        <time>2021-04-06T11:10:51Z</time>
      </trkpt>
      <trkpt lat="58.39709" lon="-5.01642">
        <ele>62.17</ele>
        <time>2021-04-06T11:10:57Z</time>
      </trkpt>
      <trkpt lat="58.39792" lon="-5.01522">
        <ele>64.58</ele>
        <time>2021-04-06T11:11:04Z</time>
      </trkpt>
      <trkpt lat="58.39923" lon="-5.01386">
        <ele>63.82</ele>
        <time>2021-04-06T11:11:10Z</time>
      </trkpt>
      <trkpt lat="58.40109" lon="-5.01226">
        <ele>61.94</ele>
        <time>2021-04-06T11:11:16Z</time>
      </trkpt>
      <trkpt lat="58.40364" lon="-5.00992">
        <ele>40.36</ele>
        <time>2021-04-06T11:11:23Z</time>
      </trkpt>
      <trkpt lat="58.40406" lon="-5.00937">
        <ele>42.38</ele>
        <time>2021-04-06T11:11:29Z</time>
      </trkpt>
      <trkpt lat="58.40446" lon="-5.00869">
        <ele>43.63</ele>
        <time>2021-04-06T11:11:36Z</time>
      </trkpt>
      <trkpt lat="58.40485" lon="-5.00771">
        <ele>44.49</ele>
        <time>2021-04-06T11:11:42Z</time>
      </trkpt>
      <trkpt lat="58.40538" lon="-5.00595">
        <ele>39.64</ele>
        <time>2021-04-06T11:11:48Z</time>
      </trkpt>
      <trkpt lat="58.40569" lon="-5.0051">
        <ele>41.1</ele>
        <time>2021-04-06T11:11:55Z</time>
      </trkpt>
      <trkpt lat="58.4061" lon="-5.00429">
        <ele>43.57</ele>
        <time>2021-04-06T11:12:01Z</time>
      </trkpt>
      <trkpt lat="58.40655" lon="-5.00359">
        <ele>43.44</ele>
        <time>2021-04-06T11:12:08Z</time>
      </trkpt>
      <trkpt lat="58.40691" lon="-5.0032">
        <ele>43.26</ele>
        <time>2021-04-06T11:12:14Z</time>
      </trkpt>
      <trkpt lat="58.40729" lon="-5.00287">
        <ele>42.89</ele>
        <time>2021-04-06T11:12:20Z</time>
      </trkpt>
      <trkpt lat="58.40729" lon="-5.00287">
        <ele>42.89</ele>
        <time>2021-04-06T11:12:20Z</time>
      </trkpt>
      <trkpt lat="58.40767" lon="-5.00266">
        <ele>42.17</ele>
        <time>2021-04-06T11:12:28Z</time>
      </trkpt>
      <trkpt lat="58.40812" lon="-5.00253">
        <ele>42</ele>
        <time>2021-04-06T11:12:36Z</time>
      </trkpt>
      <trkpt lat="58.40874" lon="-5.00255">
        <ele>42.45</ele>
        <time>2021-04-06T11:12:44Z</time>
      </trkpt>
      <trkpt lat="58.4103" lon="-5.00279">
        <ele>46.06</ele>
        <time>2021-04-06T11:12:52Z</time>
      </trkpt>
      <trkpt lat="58.41127" lon="-5.00299">
        <ele>50.24</ele>
        <time>2021-04-06T11:13:00Z</time>
      </trkpt>
      <trkpt lat="58.41867" lon="-5.00434">
        <ele>31.01</ele>
        <time>2021-04-06T11:13:08Z</time>
      </trkpt>
      <trkpt lat="58.41956" lon="-5.00418">
        <ele>36.79</ele>
        <time>2021-04-06T11:13:15Z</time>
      </trkpt>
      <trkpt lat="58.41981" lon="-5.00408">
        <ele>38.81</ele>
        <time>2021-04-06T11:13:23Z</time>
      </trkpt>
      <trkpt lat="58.42026" lon="-5.0038">
        <ele>40.19</ele>
        <time>2021-04-06T11:13:31Z</time>
      </trkpt>
      <trkpt lat="58.42026" lon="-5.0038">
        <ele>40.19</ele>
        <time>2021-04-06T11:13:31Z</time>
      </trkpt>
      <trkpt lat="58.42081" lon="-5.00303">
        <ele>37.93</ele>
        <time>2021-04-06T11:13:38Z</time>
      </trkpt>
      <trkpt lat="58.42137" lon="-5.00206">
        <ele>32.19</ele>
        <time>2021-04-06T11:13:45Z</time>
      </trkpt>
      <trkpt lat="58.42185" lon="-5.00021">
        <ele>27.45</ele>
        <time>2021-04-06T11:13:51Z</time>
      </trkpt>
      <trkpt lat="58.42291" lon="-4.993">
        <ele>8.26</ele>
        <time>2021-04-06T11:13:58Z</time>
      </trkpt>
      <trkpt lat="58.4234" lon="-4.99141">
        <ele>5.93</ele>
        <time>2021-04-06T11:14:05Z</time>
      </trkpt>
      <trkpt lat="58.42414" lon="-4.99016">
        <ele>12.29</ele>
        <time>2021-04-06T11:14:12Z</time>
      </trkpt>
      <trkpt lat="58.42431" lon="-4.98985">
        <ele>14.57</ele>
        <time>2021-04-06T11:14:18Z</time>
      </trkpt>
      <trkpt lat="58.42443" lon="-4.98943">
        <ele>18.15</ele>
        <time>2021-04-06T11:14:25Z</time>
      </trkpt>
      <trkpt lat="58.42463" lon="-4.9891">
        <ele>18.94</ele>
        <time>2021-04-06T11:14:32Z</time>
      </trkpt>
      <trkpt lat="58.42473" lon="-4.9889">
        <ele>18.76</ele>
        <time>2021-04-06T11:14:39Z</time>
      </trkpt>
      <trkpt lat="58.42476" lon="-4.98866">
        <ele>18.27</ele>
        <time>2021-04-06T11:14:45Z</time>
      </trkpt>
      <trkpt lat="58.42475" lon="-4.98792">
        <ele>19.45</ele>
        <time>2021-04-06T11:14:52Z</time>
      </trkpt>
      <trkpt lat="58.42465" lon="-4.98706">
        <ele>21.56</ele>
        <time>2021-04-06T11:14:59Z</time>
      </trkpt>
      <trkpt lat="58.42456" lon="-4.98593">
        <ele>23.6</ele>
        <time>2021-04-06T11:15:06Z</time>
      </trkpt>
      <trkpt lat="58.42457" lon="-4.98551">
        <ele>25</ele>
        <time>2021-04-06T11:15:13Z</time>
      </trkpt>
      <trkpt lat="58.42462" lon="-4.9851">
        <ele>27.42</ele>
        <time>2021-04-06T11:15:19Z</time>
      </trkpt>
      <trkpt lat="58.42475" lon="-4.98466">
        <ele>28.99</ele>
        <time>2021-04-06T11:15:26Z</time>
      </trkpt>
      <trkpt lat="58.42492" lon="-4.98438">
        <ele>28.6</ele>
        <time>2021-04-06T11:15:33Z</time>
      </trkpt>
      <trkpt lat="58.42516" lon="-4.98419">
        <ele>27.14</ele>
        <time>2021-04-06T11:15:40Z</time>
      </trkpt>
      <trkpt lat="58.42531" lon="-4.98413">
        <ele>26.63</ele>
        <time>2021-04-06T11:15:46Z</time>
      </trkpt>
      <trkpt lat="58.4257" lon="-4.98414">
        <ele>29.94</ele>
        <time>2021-04-06T11:15:53Z</time>
      </trkpt>
      <trkpt lat="58.42665" lon="-4.98462">
        <ele>34.56</ele>
        <time>2021-04-06T11:16:00Z</time>
      </trkpt>
      <trkpt lat="58.42723" lon="-4.98447">
        <ele>34.72</ele>
        <time>2021-04-06T11:16:07Z</time>
      </trkpt>
      <trkpt lat="58.42783" lon="-4.98311">
        <ele>39.85</ele>
        <time>2021-04-06T11:16:13Z</time>
      </trkpt>
      <trkpt lat="58.42808" lon="-4.98233">
        <ele>42.38</ele>
        <time>2021-04-06T11:16:20Z</time>
      </trkpt>
      <trkpt lat="58.42831" lon="-4.98128">
        <ele>48.98</ele>
        <time>2021-04-06T11:16:27Z</time>
      </trkpt>
      <trkpt lat="58.42877" lon="-4.97809">
        <ele>60.33</ele>
        <time>2021-04-06T11:16:34Z</time>
      </trkpt>
      <trkpt lat="58.42908" lon="-4.97564">
        <ele>70</ele>
        <time>2021-04-06T11:16:40Z</time>
      </trkpt>
      <trkpt lat="58.42996" lon="-4.97237">
        <ele>74.4</ele>
        <time>2021-04-06T11:16:47Z</time>
      </trkpt>
      <trkpt lat="58.43025" lon="-4.97195">
        <ele>74</ele>
        <time>2021-04-06T11:16:54Z</time>
      </trkpt>
      <trkpt lat="58.43042" lon="-4.97177">
        <ele>74.32</ele>
        <time>2021-04-06T11:17:01Z</time>
      </trkpt>
      <trkpt lat="58.43075" lon="-4.97155">
        <ele>75.73</ele>
        <time>2021-04-06T11:17:07Z</time>
      </trkpt>
      <trkpt lat="58.43237" lon="-4.971">
        <ele>72.35</ele>
        <time>2021-04-06T11:17:14Z</time>
      </trkpt>
      <trkpt lat="58.4343" lon="-4.96862">
        <ele>69.73</ele>
        <time>2021-04-06T11:17:21Z</time>
      </trkpt>
      <trkpt lat="58.43612" lon="-4.96552">
        <ele>61.4</ele>
        <time>2021-04-06T11:17:28Z</time>
      </trkpt>
      <trkpt lat="58.43671" lon="-4.96463">
        <ele>60.04</ele>
        <time>2021-04-06T11:17:34Z</time>
      </trkpt>
      <trkpt lat="58.43793" lon="-4.96196">
        <ele>66.36</ele>
        <time>2021-04-06T11:17:41Z</time>
      </trkpt>
      <trkpt lat="58.44069" lon="-4.95771">
        <ele>75.89</ele>
        <time>2021-04-06T11:17:48Z</time>
      </trkpt>
      <trkpt lat="58.4434" lon="-4.9513">
        <ele>96.85</ele>
        <time>2021-04-06T11:17:55Z</time>
      </trkpt>
      <trkpt lat="58.44423" lon="-4.95048">
        <ele>101.07</ele>
        <time>2021-04-06T11:18:01Z</time>
      </trkpt>
      <trkpt lat="58.44541" lon="-4.94822">
        <ele>112.72</ele>
        <time>2021-04-06T11:18:08Z</time>
      </trkpt>
      <trkpt lat="58.44849" lon="-4.94097">
        <ele>136.57</ele>
        <time>2021-04-06T11:18:15Z</time>
      </trkpt>
      <trkpt lat="58.45085" lon="-4.93747">
        <ele>145.08</ele>
        <time>2021-04-06T11:18:22Z</time>
      </trkpt>
      <trkpt lat="58.45256" lon="-4.93424">
        <ele>153.95</ele>
        <time>2021-04-06T11:18:28Z</time>
      </trkpt>
      <trkpt lat="58.45318" lon="-4.93234">
        <ele>154.57</ele>
        <time>2021-04-06T11:18:35Z</time>
      </trkpt>
      <trkpt lat="58.45342" lon="-4.93143">
        <ele>155.64</ele>
        <time>2021-04-06T11:18:42Z</time>
      </trkpt>
      <trkpt lat="58.45379" lon="-4.93055">
        <ele>156.97</ele>
        <time>2021-04-06T11:18:49Z</time>
      </trkpt>
      <trkpt lat="58.45541" lon="-4.92808">
        <ele>158.62</ele>
        <time>2021-04-06T11:18:56Z</time>
      </trkpt>
      <trkpt lat="58.45589" lon="-4.92694">
        <ele>159.75</ele>
        <time>2021-04-06T11:19:02Z</time>
      </trkpt>
      <trkpt lat="58.45791" lon="-4.92239">
        <ele>165.07</ele>
        <time>2021-04-06T11:19:09Z</time>
      </trkpt>
      <trkpt lat="58.45921" lon="-4.92056">
        <ele>163.51</ele>
        <time>2021-04-06T11:19:16Z</time>
      </trkpt>
      <trkpt lat="58.46149" lon="-4.91359">
        <ele>174.66</ele>
        <time>2021-04-06T11:19:23Z</time>
      </trkpt>
      <trkpt lat="58.46194" lon="-4.91232">
        <ele>176.24</ele>
        <time>2021-04-06T11:19:29Z</time>
      </trkpt>
      <trkpt lat="58.4623" lon="-4.91057">
        <ele>179.82</ele>
        <time>2021-04-06T11:19:36Z</time>
      </trkpt>
      <trkpt lat="58.46281" lon="-4.90891">
        <ele>183.71</ele>
        <time>2021-04-06T11:19:43Z</time>
      </trkpt>
      <trkpt lat="58.46348" lon="-4.90768">
        <ele>191.25</ele>
        <time>2021-04-06T11:19:50Z</time>
      </trkpt>
      <trkpt lat="58.46394" lon="-4.90647">
        <ele>190.38</ele>
        <time>2021-04-06T11:19:56Z</time>
      </trkpt>
      <trkpt lat="58.46458" lon="-4.90404">
        <ele>180.56</ele>
        <time>2021-04-06T11:20:03Z</time>
      </trkpt>
      <trkpt lat="58.46492" lon="-4.90306">
        <ele>175.76</ele>
        <time>2021-04-06T11:20:10Z</time>
      </trkpt>
      <trkpt lat="58.46512" lon="-4.90266">
        <ele>174.7</ele>
        <time>2021-04-06T11:20:17Z</time>
      </trkpt>
      <trkpt lat="58.46565" lon="-4.90189">
        <ele>173.12</ele>
        <time>2021-04-06T11:20:23Z</time>
      </trkpt>
      <trkpt lat="58.46809" lon="-4.89983">
        <ele>166.84</ele>
        <time>2021-04-06T11:20:30Z</time>
      </trkpt>
      <trkpt lat="58.46838" lon="-4.8993">
        <ele>166.62</ele>
        <time>2021-04-06T11:20:37Z</time>
      </trkpt>
      <trkpt lat="58.46859" lon="-4.89863">
        <ele>167.8</ele>
        <time>2021-04-06T11:20:44Z</time>
      </trkpt>
      <trkpt lat="58.46916" lon="-4.89593">
        <ele>166.96</ele>
        <time>2021-04-06T11:20:50Z</time>
      </trkpt>
      <trkpt lat="58.46956" lon="-4.89486">
        <ele>166.05</ele>
        <time>2021-04-06T11:20:57Z</time>
      </trkpt>
      <trkpt lat="58.47031" lon="-4.89303">
        <ele>167.39</ele>
        <time>2021-04-06T11:21:04Z</time>
      </trkpt>
      <trkpt lat="58.47099" lon="-4.89192">
        <ele>159.99</ele>
        <time>2021-04-06T11:21:11Z</time>
      </trkpt>
      <trkpt lat="58.47202" lon="-4.89096">
        <ele>159.91</ele>
        <time>2021-04-06T11:21:17Z</time>
      </trkpt>
      <trkpt lat="58.47339" lon="-4.88917">
        <ele>151.71</ele>
        <time>2021-04-06T11:21:24Z</time>
      </trkpt>
      <trkpt lat="58.47517" lon="-4.8875">
        <ele>143.8</ele>
        <time>2021-04-06T11:21:31Z</time>
      </trkpt>
      <trkpt lat="58.47627" lon="-4.88615">
        <ele>136.17</ele>
        <time>2021-04-06T11:21:38Z</time>
      </trkpt>
      <trkpt lat="58.47796" lon="-4.88377">
        <ele>122.88</ele>
        <time>2021-04-06T11:21:44Z</time>
      </trkpt>
      <trkpt lat="58.47933" lon="-4.88109">
        <ele>113.58</ele>
        <time>2021-04-06T11:21:51Z</time>
      </trkpt>
      <trkpt lat="58.48092" lon="-4.87806">
        <ele>100.57</ele>
        <time>2021-04-06T11:21:58Z</time>
      </trkpt>
      <trkpt lat="58.48159" lon="-4.87699">
        <ele>96.65</ele>
        <time>2021-04-06T11:22:05Z</time>
      </trkpt>
      <trkpt lat="58.48316" lon="-4.87461">
        <ele>90.35</ele>
        <time>2021-04-06T11:22:12Z</time>
      </trkpt>
      <trkpt lat="58.48464" lon="-4.87174">
        <ele>79.56</ele>
        <time>2021-04-06T11:22:18Z</time>
      </trkpt>
      <trkpt lat="58.48529" lon="-4.87091">
        <ele>77.11</ele>
        <time>2021-04-06T11:22:25Z</time>
      </trkpt>
      <trkpt lat="58.48599" lon="-4.86971">
        <ele>76.7</ele>
        <time>2021-04-06T11:22:32Z</time>
      </trkpt>
      <trkpt lat="58.48733" lon="-4.86666">
        <ele>68.45</ele>
        <time>2021-04-06T11:22:39Z</time>
      </trkpt>
      <trkpt lat="58.48784" lon="-4.86554">
        <ele>65.9</ele>
        <time>2021-04-06T11:22:45Z</time>
      </trkpt>
      <trkpt lat="58.48832" lon="-4.86473">
        <ele>65.89</ele>
        <time>2021-04-06T11:22:52Z</time>
      </trkpt>
      <trkpt lat="58.48878" lon="-4.86354">
        <ele>64.87</ele>
        <time>2021-04-06T11:22:59Z</time>
      </trkpt>
      <trkpt lat="58.48916" lon="-4.86223">
        <ele>61.01</ele>
        <time>2021-04-06T11:23:06Z</time>
      </trkpt>
      <trkpt lat="58.48937" lon="-4.86144">
        <ele>60.36</ele>
        <time>2021-04-06T11:23:12Z</time>
      </trkpt>
      <trkpt lat="58.49019" lon="-4.85936">
        <ele>56.39</ele>
        <time>2021-04-06T11:23:19Z</time>
      </trkpt>
      <trkpt lat="58.49067" lon="-4.85798">
        <ele>54</ele>
        <time>2021-04-06T11:23:26Z</time>
      </trkpt>
      <trkpt lat="58.49162" lon="-4.85491">
        <ele>51.79</ele>
        <time>2021-04-06T11:23:33Z</time>
      </trkpt>
      <trkpt lat="58.49241" lon="-4.85223">
        <ele>47.39</ele>
        <time>2021-04-06T11:23:39Z</time>
      </trkpt>
      <trkpt lat="58.49318" lon="-4.84899">
        <ele>43.84</ele>
        <time>2021-04-06T11:23:46Z</time>
      </trkpt>
      <trkpt lat="58.49427" lon="-4.8402">
        <ele>31.45</ele>
        <time>2021-04-06T11:23:53Z</time>
      </trkpt>
      <trkpt lat="58.49475" lon="-4.83659">
        <ele>31</ele>
        <time>2021-04-06T11:24:00Z</time>
      </trkpt>
      <trkpt lat="58.49561" lon="-4.83274">
        <ele>28.29</ele>
        <time>2021-04-06T11:24:06Z</time>
      </trkpt>
      <trkpt lat="58.49573" lon="-4.83187">
        <ele>26.94</ele>
        <time>2021-04-06T11:24:13Z</time>
      </trkpt>
      <trkpt lat="58.49603" lon="-4.82909">
        <ele>25.58</ele>
        <time>2021-04-06T11:24:20Z</time>
      </trkpt>
      <trkpt lat="58.49634" lon="-4.82767">
        <ele>24.86</ele>
        <time>2021-04-06T11:24:27Z</time>
      </trkpt>
      <trkpt lat="58.4968" lon="-4.82564">
        <ele>20.43</ele>
        <time>2021-04-06T11:24:33Z</time>
      </trkpt>
      <trkpt lat="58.49732" lon="-4.82454">
        <ele>22.45</ele>
        <time>2021-04-06T11:24:40Z</time>
      </trkpt>
      <trkpt lat="58.49794" lon="-4.82269">
        <ele>20.78</ele>
        <time>2021-04-06T11:24:47Z</time>
      </trkpt>
      <trkpt lat="58.49855" lon="-4.82128">
        <ele>20.7</ele>
        <time>2021-04-06T11:24:54Z</time>
      </trkpt>
      <trkpt lat="58.49891" lon="-4.82017">
        <ele>18.42</ele>
        <time>2021-04-06T11:25:00Z</time>
      </trkpt>
      <trkpt lat="58.4992" lon="-4.81916">
        <ele>17.24</ele>
        <time>2021-04-06T11:25:07Z</time>
      </trkpt>
      <trkpt lat="58.49955" lon="-4.81829">
        <ele>17.23</ele>
        <time>2021-04-06T11:25:14Z</time>
      </trkpt>
      <trkpt lat="58.50018" lon="-4.8169">
        <ele>14.49</ele>
        <time>2021-04-06T11:25:21Z</time>
      </trkpt>
      <trkpt lat="58.50038" lon="-4.81656">
        <ele>14.25</ele>
        <time>2021-04-06T11:25:28Z</time>
      </trkpt>
      <trkpt lat="58.50038" lon="-4.81656">
        <ele>14.25</ele>
        <time>2021-04-06T11:25:28Z</time>
      </trkpt>
      <trkpt lat="58.50056" lon="-4.81634">
        <ele>13.81</ele>
        <time>2021-04-06T11:25:32Z</time>
      </trkpt>
      <trkpt lat="58.50077" lon="-4.81622">
        <ele>12.62</ele>
        <time>2021-04-06T11:25:37Z</time>
      </trkpt>
      <trkpt lat="58.50091" lon="-4.8162">
        <ele>12.02</ele>
        <time>2021-04-06T11:25:41Z</time>
      </trkpt>
      <trkpt lat="58.50103" lon="-4.81621">
        <ele>11.64</ele>
        <time>2021-04-06T11:25:46Z</time>
      </trkpt>
      <trkpt lat="58.5015" lon="-4.81638">
        <ele>11.99</ele>
        <time>2021-04-06T11:25:50Z</time>
      </trkpt>
      <trkpt lat="58.50166" lon="-4.81641">
        <ele>12</ele>
        <time>2021-04-06T11:25:55Z</time>
      </trkpt>
      <trkpt lat="58.50189" lon="-4.81629">
        <ele>13.17</ele>
        <time>2021-04-06T11:26:00Z</time>
      </trkpt>
      <trkpt lat="58.502" lon="-4.81617">
        <ele>13.81</ele>
        <time>2021-04-06T11:26:04Z</time>
      </trkpt>
      <trkpt lat="58.50346" lon="-4.81364">
        <ele>17</ele>
        <time>2021-04-06T11:26:09Z</time>
      </trkpt>
      <trkpt lat="58.50391" lon="-4.81295">
        <ele>16.92</ele>
        <time>2021-04-06T11:26:13Z</time>
      </trkpt>
      <trkpt lat="58.50433" lon="-4.81251">
        <ele>15.43</ele>
        <time>2021-04-06T11:26:18Z</time>
      </trkpt>
      <trkpt lat="58.50477" lon="-4.81214">
        <ele>15.18</ele>
        <time>2021-04-06T11:26:22Z</time>
      </trkpt>
      <trkpt lat="58.50553" lon="-4.81161">
        <ele>14.54</ele>
        <time>2021-04-06T11:26:27Z</time>
      </trkpt>
      <trkpt lat="58.50788" lon="-4.81009">
        <ele>16.97</ele>
        <time>2021-04-06T11:26:32Z</time>
      </trkpt>
      <trkpt lat="58.50831" lon="-4.80993">
        <ele>16.64</ele>
        <time>2021-04-06T11:26:36Z</time>
      </trkpt>
      <trkpt lat="58.50896" lon="-4.8098">
        <ele>17.45</ele>
        <time>2021-04-06T11:26:41Z</time>
      </trkpt>
      <trkpt lat="58.50984" lon="-4.80968">
        <ele>17.3</ele>
        <time>2021-04-06T11:26:45Z</time>
      </trkpt>
      <trkpt lat="58.51025" lon="-4.80957">
        <ele>18.08</ele>
        <time>2021-04-06T11:26:50Z</time>
      </trkpt>
      <trkpt lat="58.51109" lon="-4.80919">
        <ele>16.91</ele>
        <time>2021-04-06T11:26:54Z</time>
      </trkpt>
      <trkpt lat="58.51545" lon="-4.80614">
        <ele>13</ele>
        <time>2021-04-06T11:26:59Z</time>
      </trkpt>
      <trkpt lat="58.5172" lon="-4.80484">
        <ele>12.65</ele>
        <time>2021-04-06T11:27:04Z</time>
      </trkpt>
      <trkpt lat="58.51824" lon="-4.80411">
        <ele>11.54</ele>
        <time>2021-04-06T11:27:08Z</time>
      </trkpt>
      <trkpt lat="58.51899" lon="-4.80355">
        <ele>11.14</ele>
        <time>2021-04-06T11:27:13Z</time>
      </trkpt>
      <trkpt lat="58.51947" lon="-4.80314">
        <ele>10</ele>
        <time>2021-04-06T11:27:17Z</time>
      </trkpt>
      <trkpt lat="58.51988" lon="-4.80273">
        <ele>10.63</ele>
        <time>2021-04-06T11:27:22Z</time>
      </trkpt>
      <trkpt lat="58.52046" lon="-4.80187">
        <ele>10.09</ele>
        <time>2021-04-06T11:27:27Z</time>
      </trkpt>
      <trkpt lat="58.52131" lon="-4.80045">
        <ele>9.27</ele>
        <time>2021-04-06T11:27:31Z</time>
      </trkpt>
      <trkpt lat="58.52166" lon="-4.79976">
        <ele>8.02</ele>
        <time>2021-04-06T11:27:36Z</time>
      </trkpt>
      <trkpt lat="58.52226" lon="-4.79845">
        <ele>8.41</ele>
        <time>2021-04-06T11:27:40Z</time>
      </trkpt>
      <trkpt lat="58.52248" lon="-4.79808">
        <ele>8</ele>
        <time>2021-04-06T11:27:45Z</time>
      </trkpt>
      <trkpt lat="58.52265" lon="-4.79786">
        <ele>7.63</ele>
        <time>2021-04-06T11:27:49Z</time>
      </trkpt>
      <trkpt lat="58.52289" lon="-4.79766">
        <ele>7</ele>
        <time>2021-04-06T11:27:54Z</time>
      </trkpt>
      <trkpt lat="58.52315" lon="-4.79751">
        <ele>6.65</ele>
        <time>2021-04-06T11:27:59Z</time>
      </trkpt>
      <trkpt lat="58.52328" lon="-4.79747">
        <ele>6.1</ele>
        <time>2021-04-06T11:28:03Z</time>
      </trkpt>
      <trkpt lat="58.5235" lon="-4.79744">
        <ele>5.44</ele>
        <time>2021-04-06T11:28:08Z</time>
      </trkpt>
      <trkpt lat="58.52465" lon="-4.79752">
        <ele>8.38</ele>
        <time>2021-04-06T11:28:12Z</time>
      </trkpt>
      <trkpt lat="58.52642" lon="-4.79755">
        <ele>10.68</ele>
        <time>2021-04-06T11:28:17Z</time>
      </trkpt>
      <trkpt lat="58.52716" lon="-4.79734">
        <ele>11.38</ele>
        <time>2021-04-06T11:28:21Z</time>
      </trkpt>
      <trkpt lat="58.5275" lon="-4.7972">
        <ele>11.3</ele>
        <time>2021-04-06T11:28:26Z</time>
      </trkpt>
      <trkpt lat="58.52784" lon="-4.79699">
        <ele>11.68</ele>
        <time>2021-04-06T11:28:31Z</time>
      </trkpt>
      <trkpt lat="58.52859" lon="-4.79622">
        <ele>12.21</ele>
        <time>2021-04-06T11:28:35Z</time>
      </trkpt>
      <trkpt lat="58.52922" lon="-4.7955">
        <ele>9.76</ele>
        <time>2021-04-06T11:28:40Z</time>
      </trkpt>
      <trkpt lat="58.53032" lon="-4.79368">
        <ele>12.49</ele>
        <time>2021-04-06T11:28:44Z</time>
      </trkpt>
      <trkpt lat="58.53117" lon="-4.79203">
        <ele>14.41</ele>
        <time>2021-04-06T11:28:49Z</time>
      </trkpt>
      <trkpt lat="58.53238" lon="-4.79045">
        <ele>13.76</ele>
        <time>2021-04-06T11:28:53Z</time>
      </trkpt>
      <trkpt lat="58.53256" lon="-4.79033">
        <ele>12.95</ele>
        <time>2021-04-06T11:28:58Z</time>
      </trkpt>
      <trkpt lat="58.53419" lon="-4.79006">
        <ele>15.77</ele>
        <time>2021-04-06T11:29:03Z</time>
      </trkpt>
      <trkpt lat="58.53435" lon="-4.78998">
        <ele>15.89</ele>
        <time>2021-04-06T11:29:07Z</time>
      </trkpt>
      <trkpt lat="58.53446" lon="-4.78986">
        <ele>16.34</ele>
        <time>2021-04-06T11:29:12Z</time>
      </trkpt>
      <trkpt lat="58.53482" lon="-4.78935">
        <ele>18.44</ele>
        <time>2021-04-06T11:29:16Z</time>
      </trkpt>
      <trkpt lat="58.53588" lon="-4.78826">
        <ele>11.59</ele>
        <time>2021-04-06T11:29:21Z</time>
      </trkpt>
      <trkpt lat="58.53655" lon="-4.78719">
        <ele>9.28</ele>
        <time>2021-04-06T11:29:25Z</time>
      </trkpt>
      <trkpt lat="58.5367" lon="-4.78669">
        <ele>7.59</ele>
        <time>2021-04-06T11:29:30Z</time>
      </trkpt>
      <trkpt lat="58.53682" lon="-4.78619">
        <ele>6.43</ele>
        <time>2021-04-06T11:29:35Z</time>
      </trkpt>
      <trkpt lat="58.53737" lon="-4.78458">
        <ele>3.21</ele>
        <time>2021-04-06T11:29:39Z</time>
      </trkpt>
      <trkpt lat="58.53759" lon="-4.78406">
        <ele>3.07</ele>
        <time>2021-04-06T11:29:44Z</time>
      </trkpt>
      <trkpt lat="58.5378" lon="-4.78379">
        <ele>3.36</ele>
        <time>2021-04-06T11:29:48Z</time>
      </trkpt>
      <trkpt lat="58.53843" lon="-4.78324">
        <ele>4.32</ele>
        <time>2021-04-06T11:29:53Z</time>
      </trkpt>
      <trkpt lat="58.53991" lon="-4.78185">
        <ele>3.81</ele>
        <time>2021-04-06T11:29:58Z</time>
      </trkpt>
      <trkpt lat="58.54033" lon="-4.78156">
        <ele>3.76</ele>
        <time>2021-04-06T11:30:02Z</time>
      </trkpt>
      <trkpt lat="58.54108" lon="-4.78115">
        <ele>3.93</ele>
        <time>2021-04-06T11:30:07Z</time>
      </trkpt>
      <trkpt lat="58.54127" lon="-4.7811">
        <ele>4.09</ele>
        <time>2021-04-06T11:30:11Z</time>
      </trkpt>
      <trkpt lat="58.54219" lon="-4.78107">
        <ele>3.47</ele>
        <time>2021-04-06T11:30:16Z</time>
      </trkpt>
      <trkpt lat="58.54238" lon="-4.78103">
        <ele>4.29</ele>
        <time>2021-04-06T11:30:20Z</time>
      </trkpt>
      <trkpt lat="58.54257" lon="-4.78092">
        <ele>4.97</ele>
        <time>2021-04-06T11:30:25Z</time>
      </trkpt>
      <trkpt lat="58.54273" lon="-4.78075">
        <ele>4.68</ele>
        <time>2021-04-06T11:30:30Z</time>
      </trkpt>
      <trkpt lat="58.54313" lon="-4.78021">
        <ele>3.98</ele>
        <time>2021-04-06T11:30:34Z</time>
      </trkpt>
      <trkpt lat="58.54341" lon="-4.77996">
        <ele>4.13</ele>
        <time>2021-04-06T11:30:39Z</time>
      </trkpt>
      <trkpt lat="58.54422" lon="-4.77934">
        <ele>6.17</ele>
        <time>2021-04-06T11:30:43Z</time>
      </trkpt>
      <trkpt lat="58.54453" lon="-4.77921">
        <ele>6.1</ele>
        <time>2021-04-06T11:30:48Z</time>
      </trkpt>
      <trkpt lat="58.54534" lon="-4.77901">
        <ele>5.45</ele>
        <time>2021-04-06T11:30:52Z</time>
      </trkpt>
      <trkpt lat="58.54625" lon="-4.7787">
        <ele>5.86</ele>
        <time>2021-04-06T11:30:57Z</time>
      </trkpt>
      <trkpt lat="58.54722" lon="-4.77816">
        <ele>4.86</ele>
        <time>2021-04-06T11:31:02Z</time>
      </trkpt>
      <trkpt lat="58.54852" lon="-4.77784">
        <ele>10.52</ele>
        <time>2021-04-06T11:31:06Z</time>
      </trkpt>
      <trkpt lat="58.54878" lon="-4.77771">
        <ele>11.34</ele>
        <time>2021-04-06T11:31:11Z</time>
      </trkpt>
      <trkpt lat="58.5491" lon="-4.77746">
        <ele>12.92</ele>
        <time>2021-04-06T11:31:15Z</time>
      </trkpt>
      <trkpt lat="58.54941" lon="-4.77715">
        <ele>13.64</ele>
        <time>2021-04-06T11:31:20Z</time>
      </trkpt>
      <trkpt lat="58.55024" lon="-4.77553">
        <ele>16.62</ele>
        <time>2021-04-06T11:31:24Z</time>
      </trkpt>
      <trkpt lat="58.55067" lon="-4.77502">
        <ele>19.44</ele>
        <time>2021-04-06T11:31:29Z</time>
      </trkpt>
      <trkpt lat="58.55131" lon="-4.77448">
        <ele>22.61</ele>
        <time>2021-04-06T11:31:34Z</time>
      </trkpt>
      <trkpt lat="58.55277" lon="-4.77368">
        <ele>31.53</ele>
        <time>2021-04-06T11:31:38Z</time>
      </trkpt>
      <trkpt lat="58.55441" lon="-4.77184">
        <ele>45.26</ele>
        <time>2021-04-06T11:31:43Z</time>
      </trkpt>
      <trkpt lat="58.55524" lon="-4.77055">
        <ele>51.87</ele>
        <time>2021-04-06T11:31:47Z</time>
      </trkpt>
      <trkpt lat="58.55572" lon="-4.76894">
        <ele>52.8</ele>
        <time>2021-04-06T11:31:52Z</time>
      </trkpt>
      <trkpt lat="58.55666" lon="-4.76819">
        <ele>50.01</ele>
        <time>2021-04-06T11:31:57Z</time>
      </trkpt>
      <trkpt lat="58.55708" lon="-4.76757">
        <ele>46.32</ele>
        <time>2021-04-06T11:32:01Z</time>
      </trkpt>
      <trkpt lat="58.55769" lon="-4.76736">
        <ele>42.65</ele>
        <time>2021-04-06T11:32:06Z</time>
      </trkpt>
      <trkpt lat="58.55853" lon="-4.76624">
        <ele>39.55</ele>
        <time>2021-04-06T11:32:10Z</time>
      </trkpt>
      <trkpt lat="58.55947" lon="-4.76548">
        <ele>38.73</ele>
        <time>2021-04-06T11:32:15Z</time>
      </trkpt>
      <trkpt lat="58.56024" lon="-4.76495">
        <ele>40.84</ele>
        <time>2021-04-06T11:32:19Z</time>
      </trkpt>
      <trkpt lat="58.56097" lon="-4.76418">
        <ele>38.9</ele>
        <time>2021-04-06T11:32:24Z</time>
      </trkpt>
      <trkpt lat="58.56273" lon="-4.76107">
        <ele>42.47</ele>
        <time>2021-04-06T11:32:29Z</time>
      </trkpt>
      <trkpt lat="58.56404" lon="-4.75725">
        <ele>45.1</ele>
        <time>2021-04-06T11:32:33Z</time>
      </trkpt>
      <trkpt lat="58.56573" lon="-4.75283">
        <ele>43</ele>
        <time>2021-04-06T11:32:38Z</time>
      </trkpt>
      <trkpt lat="58.56609" lon="-4.7518">
        <ele>43.52</ele>
        <time>2021-04-06T11:32:42Z</time>
      </trkpt>
      <trkpt lat="58.56663" lon="-4.74973">
        <ele>44.12</ele>
        <time>2021-04-06T11:32:47Z</time>
      </trkpt>
      <trkpt lat="58.56699" lon="-4.74838">
        <ele>47.03</ele>
        <time>2021-04-06T11:32:51Z</time>
      </trkpt>
      <trkpt lat="58.56712" lon="-4.74807">
        <ele>47.61</ele>
        <time>2021-04-06T11:32:56Z</time>
      </trkpt>
      <trkpt lat="58.56727" lon="-4.74783">
        <ele>48.03</ele>
        <time>2021-04-06T11:33:01Z</time>
      </trkpt>
      <trkpt lat="58.56854" lon="-4.74675">
        <ele>42.86</ele>
        <time>2021-04-06T11:33:05Z</time>
      </trkpt>
      <trkpt lat="58.56854" lon="-4.74675">
        <ele>42.86</ele>
        <time>2021-04-06T11:33:05Z</time>
      </trkpt>
      <trkpt lat="58.56854" lon="-4.74675">
        <ele>41.05</ele>
        <time>2021-04-06T11:33:05Z</time>
      </trkpt>
      <trkpt lat="58.56861" lon="-4.74693">
        <ele>40.92</ele>
        <time>2021-04-06T11:33:11Z</time>
      </trkpt>
      <trkpt lat="58.56876" lon="-4.74774">
        <ele>42.47</ele>
        <time>2021-04-06T11:33:17Z</time>
      </trkpt>
      <trkpt lat="58.569" lon="-4.74882">
        <ele>43.19</ele>
        <time>2021-04-06T11:33:23Z</time>
      </trkpt>
      <trkpt lat="58.5693" lon="-4.74991">
        <ele>43.53</ele>
        <time>2021-04-06T11:33:29Z</time>
      </trkpt>
      <trkpt lat="58.56992" lon="-4.7519">
        <ele>45.82</ele>
        <time>2021-04-06T11:33:35Z</time>
      </trkpt>
      <trkpt lat="58.57029" lon="-4.75315">
        <ele>50.03</ele>
        <time>2021-04-06T11:33:41Z</time>
      </trkpt>
      <trkpt lat="58.57045" lon="-4.75377">
        <ele>51.62</ele>
        <time>2021-04-06T11:33:47Z</time>
      </trkpt>
      <trkpt lat="58.57053" lon="-4.7542">
        <ele>51</ele>
        <time>2021-04-06T11:33:53Z</time>
      </trkpt>
      <trkpt lat="58.57072" lon="-4.75517">
        <ele>49.4</ele>
        <time>2021-04-06T11:33:59Z</time>
      </trkpt>
      <trkpt lat="58.57074" lon="-4.7553">
        <ele>48.97</ele>
        <time>2021-04-06T11:34:05Z</time>
      </trkpt>
      <trkpt lat="58.57053" lon="-4.75895">
        <ele>47.69</ele>
        <time>2021-04-06T11:34:11Z</time>
      </trkpt>
      <trkpt lat="58.57045" lon="-4.76151">
        <ele>38.35</ele>
        <time>2021-04-06T11:34:17Z</time>
      </trkpt>
      <trkpt lat="58.57059" lon="-4.76334">
        <ele>33.12</ele>
        <time>2021-04-06T11:34:23Z</time>
      </trkpt>
      <trkpt lat="58.57066" lon="-4.76409">
        <ele>32.18</ele>
        <time>2021-04-06T11:34:29Z</time>
      </trkpt>
      <trkpt lat="58.5707" lon="-4.76434">
        <ele>32</ele>
        <time>2021-04-06T11:34:35Z</time>
      </trkpt>
      <trkpt lat="58.57074" lon="-4.76458">
        <ele>31.83</ele>
        <time>2021-04-06T11:34:41Z</time>
      </trkpt>
      <trkpt lat="58.57084" lon="-4.76485">
        <ele>32</ele>
        <time>2021-04-06T11:34:47Z</time>
      </trkpt>
      <trkpt lat="58.57095" lon="-4.76503">
        <ele>31.89</ele>
        <time>2021-04-06T11:34:53Z</time>
      </trkpt>
      <trkpt lat="58.57113" lon="-4.7652">
        <ele>31.29</ele>
        <time>2021-04-06T11:34:59Z</time>
      </trkpt>
      <trkpt lat="58.57144" lon="-4.76531">
        <ele>31</ele>
        <time>2021-04-06T11:35:05Z</time>
      </trkpt>
      <trkpt lat="58.57208" lon="-4.76543">
        <ele>29.51</ele>
        <time>2021-04-06T11:35:11Z</time>
      </trkpt>
      <trkpt lat="58.57373" lon="-4.76588">
        <ele>21.58</ele>
        <time>2021-04-06T11:35:17Z</time>
      </trkpt>
      <trkpt lat="58.57435" lon="-4.76655">
        <ele>17.8</ele>
        <time>2021-04-06T11:35:23Z</time>
      </trkpt>
      <trkpt lat="58.57463" lon="-4.76675">
        <ele>16.03</ele>
        <time>2021-04-06T11:35:28Z</time>
      </trkpt>
      <trkpt lat="58.57574" lon="-4.76612">
        <ele>14.98</ele>
        <time>2021-04-06T11:35:55Z</time>
      </trkpt>
      <trkpt lat="58.57577" lon="-4.76632">
        <ele>14.26</ele>
        <time>2021-04-06T11:35:58Z</time>
      </trkpt>
      <trkpt lat="58.57592" lon="-4.76645">
        <ele>13.17</ele>
        <time>2021-04-06T11:36:00Z</time>
      </trkpt>
      <trkpt lat="58.57597" lon="-4.76664">
        <ele>12.07</ele>
        <time>2021-04-06T11:36:03Z</time>
      </trkpt>
      <trkpt lat="58.57596" lon="-4.76679">
        <ele>11.89</ele>
        <time>2021-04-06T11:36:06Z</time>
      </trkpt>
      <trkpt lat="58.57596" lon="-4.76679">
        <ele>11.89</ele>
        <time>2021-04-06T11:36:06Z</time>
      </trkpt>
      <trkpt lat="58.57597" lon="-4.76664">
        <ele>12.07</ele>
        <time>2021-04-06T11:36:09Z</time>
      </trkpt>
      <trkpt lat="58.57592" lon="-4.76645">
        <ele>13.17</ele>
        <time>2021-04-06T11:36:12Z</time>
      </trkpt>
      <trkpt lat="58.57577" lon="-4.76632">
        <ele>14.26</ele>
        <time>2021-04-06T11:36:14Z</time>
      </trkpt>
      <trkpt lat="58.57574" lon="-4.76612">
        <ele>14.98</ele>
        <time>2021-04-06T11:36:17Z</time>
      </trkpt>
      <trkpt lat="58.57463" lon="-4.76675">
        <ele>16.03</ele>
        <time>2021-04-06T11:36:44Z</time>
      </trkpt>
      <trkpt lat="58.57435" lon="-4.76655">
        <ele>17.8</ele>
        <time>2021-04-06T11:36:50Z</time>
      </trkpt>
      <trkpt lat="58.57373" lon="-4.76588">
        <ele>21.58</ele>
        <time>2021-04-06T11:36:55Z</time>
      </trkpt>
      <trkpt lat="58.57208" lon="-4.76543">
        <ele>29.51</ele>
        <time>2021-04-06T11:37:01Z</time>
      </trkpt>
      <trkpt lat="58.57144" lon="-4.76531">
        <ele>31</ele>
        <time>2021-04-06T11:37:07Z</time>
      </trkpt>
      <trkpt lat="58.57113" lon="-4.7652">
        <ele>31.29</ele>
        <time>2021-04-06T11:37:13Z</time>
      </trkpt>
      <trkpt lat="58.57095" lon="-4.76503">
        <ele>31.89</ele>
        <time>2021-04-06T11:37:19Z</time>
      </trkpt>
      <trkpt lat="58.57084" lon="-4.76485">
        <ele>32</ele>
        <time>2021-04-06T11:37:25Z</time>
      </trkpt>
      <trkpt lat="58.57074" lon="-4.76458">
        <ele>31.83</ele>
        <time>2021-04-06T11:37:31Z</time>
      </trkpt>
      <trkpt lat="58.5707" lon="-4.76434">
        <ele>32</ele>
        <time>2021-04-06T11:37:37Z</time>
      </trkpt>
      <trkpt lat="58.57066" lon="-4.76409">
        <ele>32.18</ele>
        <time>2021-04-06T11:37:43Z</time>
      </trkpt>
      <trkpt lat="58.57059" lon="-4.76334">
        <ele>33.12</ele>
        <time>2021-04-06T11:37:49Z</time>
      </trkpt>
      <trkpt lat="58.57045" lon="-4.76151">
        <ele>38.35</ele>
        <time>2021-04-06T11:37:55Z</time>
      </trkpt>
      <trkpt lat="58.57053" lon="-4.75895">
        <ele>47.69</ele>
        <time>2021-04-06T11:38:01Z</time>
      </trkpt>
      <trkpt lat="58.57074" lon="-4.7553">
        <ele>48.97</ele>
        <time>2021-04-06T11:38:07Z</time>
      </trkpt>
      <trkpt lat="58.57072" lon="-4.75517">
        <ele>49.4</ele>
        <time>2021-04-06T11:38:13Z</time>
      </trkpt>
      <trkpt lat="58.57053" lon="-4.7542">
        <ele>51</ele>
        <time>2021-04-06T11:38:19Z</time>
      </trkpt>
      <trkpt lat="58.57045" lon="-4.75377">
        <ele>51.62</ele>
        <time>2021-04-06T11:38:25Z</time>
      </trkpt>
      <trkpt lat="58.57029" lon="-4.75315">
        <ele>50.03</ele>
        <time>2021-04-06T11:38:31Z</time>
      </trkpt>
      <trkpt lat="58.56992" lon="-4.7519">
        <ele>45.82</ele>
        <time>2021-04-06T11:38:37Z</time>
      </trkpt>
      <trkpt lat="58.5693" lon="-4.74991">
        <ele>43.53</ele>
        <time>2021-04-06T11:38:43Z</time>
      </trkpt>
      <trkpt lat="58.569" lon="-4.74882">
        <ele>43.19</ele>
        <time>2021-04-06T11:38:49Z</time>
      </trkpt>
      <trkpt lat="58.56876" lon="-4.74774">
        <ele>42.47</ele>
        <time>2021-04-06T11:38:55Z</time>
      </trkpt>
      <trkpt lat="58.56861" lon="-4.74693">
        <ele>40.92</ele>
        <time>2021-04-06T11:39:01Z</time>
      </trkpt>
      <trkpt lat="58.56854" lon="-4.74675">
        <ele>41.05</ele>
        <time>2021-04-06T11:39:07Z</time>
      </trkpt>
      <trkpt lat="58.56859" lon="-4.74644">
        <ele>40.25</ele>
        <time>2021-04-06T11:39:15Z</time>
      </trkpt>
      <trkpt lat="58.56848" lon="-4.74334">
        <ele>33.51</ele>
        <time>2021-04-06T11:39:23Z</time>
      </trkpt>
      <trkpt lat="58.56831" lon="-4.74217">
        <ele>29.78</ele>
        <time>2021-04-06T11:39:32Z</time>
      </trkpt>
      <trkpt lat="58.56801" lon="-4.74082">
        <ele>23.78</ele>
        <time>2021-04-06T11:39:40Z</time>
      </trkpt>
      <trkpt lat="58.56786" lon="-4.74024">
        <ele>21.12</ele>
        <time>2021-04-06T11:39:48Z</time>
      </trkpt>
      <trkpt lat="58.56768" lon="-4.73987">
        <ele>19.2</ele>
        <time>2021-04-06T11:39:56Z</time>
      </trkpt>
      <trkpt lat="58.56762" lon="-4.73941">
        <ele>16.31</ele>
        <time>2021-04-06T11:40:00Z</time>
      </trkpt>
      <trkpt lat="58.56747" lon="-4.73889">
        <ele>13.9</ele>
        <time>2021-04-06T11:40:04Z</time>
      </trkpt>
      <trkpt lat="58.56717" lon="-4.73815">
        <ele>12</ele>
        <time>2021-04-06T11:40:08Z</time>
      </trkpt>
      <trkpt lat="58.56695" lon="-4.7377">
        <ele>12.98</ele>
        <time>2021-04-06T11:40:12Z</time>
      </trkpt>
      <trkpt lat="58.56642" lon="-4.7368">
        <ele>18.24</ele>
        <time>2021-04-06T11:40:16Z</time>
      </trkpt>
      <trkpt lat="58.56581" lon="-4.73553">
        <ele>28.5</ele>
        <time>2021-04-06T11:40:20Z</time>
      </trkpt>
      <trkpt lat="58.56564" lon="-4.7353">
        <ele>33.1</ele>
        <time>2021-04-06T11:40:24Z</time>
      </trkpt>
      <trkpt lat="58.56555" lon="-4.73526">
        <ele>35.18</ele>
        <time>2021-04-06T11:40:28Z</time>
      </trkpt>
      <trkpt lat="58.56539" lon="-4.73531">
        <ele>37.13</ele>
        <time>2021-04-06T11:40:32Z</time>
      </trkpt>
      <trkpt lat="58.56532" lon="-4.73527">
        <ele>38.45</ele>
        <time>2021-04-06T11:40:35Z</time>
      </trkpt>
      <trkpt lat="58.5651" lon="-4.73408">
        <ele>43.26</ele>
        <time>2021-04-06T11:40:39Z</time>
      </trkpt>
      <trkpt lat="58.56501" lon="-4.7335">
        <ele>43.58</ele>
        <time>2021-04-06T11:40:42Z</time>
      </trkpt>
      <trkpt lat="58.56433" lon="-4.73088">
        <ele>42.72</ele>
        <time>2021-04-06T11:40:45Z</time>
      </trkpt>
      <trkpt lat="58.56429" lon="-4.73058">
        <ele>44.07</ele>
        <time>2021-04-06T11:40:48Z</time>
      </trkpt>
      <trkpt lat="58.56425" lon="-4.72999">
        <ele>45.72</ele>
        <time>2021-04-06T11:40:52Z</time>
      </trkpt>
      <trkpt lat="58.56434" lon="-4.72866">
        <ele>50</ele>
        <time>2021-04-06T11:40:55Z</time>
      </trkpt>
      <trkpt lat="58.56435" lon="-4.72829">
        <ele>51</ele>
        <time>2021-04-06T11:40:58Z</time>
      </trkpt>
      <trkpt lat="58.56433" lon="-4.72782">
        <ele>51</ele>
        <time>2021-04-06T11:41:01Z</time>
      </trkpt>
      <trkpt lat="58.56424" lon="-4.72684">
        <ele>48.63</ele>
        <time>2021-04-06T11:41:04Z</time>
      </trkpt>
      <trkpt lat="58.56419" lon="-4.72644">
        <ele>48</ele>
        <time>2021-04-06T11:41:07Z</time>
      </trkpt>
      <trkpt lat="58.56392" lon="-4.72486">
        <ele>45.51</ele>
        <time>2021-04-06T11:41:10Z</time>
      </trkpt>
      <trkpt lat="58.56381" lon="-4.72445">
        <ele>44</ele>
        <time>2021-04-06T11:41:13Z</time>
      </trkpt>
      <trkpt lat="58.56366" lon="-4.72397">
        <ele>43.12</ele>
        <time>2021-04-06T11:41:16Z</time>
      </trkpt>
      <trkpt lat="58.56349" lon="-4.72326">
        <ele>39.19</ele>
        <time>2021-04-06T11:41:19Z</time>
      </trkpt>
      <trkpt lat="58.56345" lon="-4.72304">
        <ele>38.52</ele>
        <time>2021-04-06T11:41:22Z</time>
      </trkpt>
      <trkpt lat="58.56337" lon="-4.72143">
        <ele>33.02</ele>
        <time>2021-04-06T11:41:25Z</time>
      </trkpt>
      <trkpt lat="58.56331" lon="-4.72093">
        <ele>31.39</ele>
        <time>2021-04-06T11:41:28Z</time>
      </trkpt>
      <trkpt lat="58.56322" lon="-4.72059">
        <ele>30.53</ele>
        <time>2021-04-06T11:41:31Z</time>
      </trkpt>
      <trkpt lat="58.56309" lon="-4.7203">
        <ele>30.89</ele>
        <time>2021-04-06T11:41:34Z</time>
      </trkpt>
      <trkpt lat="58.56297" lon="-4.72018">
        <ele>31.64</ele>
        <time>2021-04-06T11:41:37Z</time>
      </trkpt>
      <trkpt lat="58.56203" lon="-4.71975">
        <ele>36.8</ele>
        <time>2021-04-06T11:41:40Z</time>
      </trkpt>
      <trkpt lat="58.56135" lon="-4.71934">
        <ele>40.75</ele>
        <time>2021-04-06T11:41:43Z</time>
      </trkpt>
      <trkpt lat="58.56081" lon="-4.71892">
        <ele>44.89</ele>
        <time>2021-04-06T11:41:46Z</time>
      </trkpt>
      <trkpt lat="58.5605" lon="-4.71859">
        <ele>47.08</ele>
        <time>2021-04-06T11:41:49Z</time>
      </trkpt>
      <trkpt lat="58.56029" lon="-4.71832">
        <ele>48</ele>
        <time>2021-04-06T11:41:52Z</time>
      </trkpt>
      <trkpt lat="58.55992" lon="-4.71781">
        <ele>48.38</ele>
        <time>2021-04-06T11:41:55Z</time>
      </trkpt>
      <trkpt lat="58.55955" lon="-4.71705">
        <ele>47.97</ele>
        <time>2021-04-06T11:41:58Z</time>
      </trkpt>
      <trkpt lat="58.55911" lon="-4.71602">
        <ele>43.87</ele>
        <time>2021-04-06T11:42:01Z</time>
      </trkpt>
      <trkpt lat="58.5585" lon="-4.71435">
        <ele>38.56</ele>
        <time>2021-04-06T11:42:04Z</time>
      </trkpt>
      <trkpt lat="58.55843" lon="-4.71397">
        <ele>38.06</ele>
        <time>2021-04-06T11:42:07Z</time>
      </trkpt>
      <trkpt lat="58.55842" lon="-4.71366">
        <ele>37.75</ele>
        <time>2021-04-06T11:42:10Z</time>
      </trkpt>
      <trkpt lat="58.55847" lon="-4.71123">
        <ele>37.32</ele>
        <time>2021-04-06T11:42:14Z</time>
      </trkpt>
      <trkpt lat="58.55827" lon="-4.70788">
        <ele>34.41</ele>
        <time>2021-04-06T11:42:17Z</time>
      </trkpt>
      <trkpt lat="58.55819" lon="-4.70748">
        <ele>33.38</ele>
        <time>2021-04-06T11:42:20Z</time>
      </trkpt>
      <trkpt lat="58.55804" lon="-4.70709">
        <ele>32.86</ele>
        <time>2021-04-06T11:42:23Z</time>
      </trkpt>
      <trkpt lat="58.55789" lon="-4.70684">
        <ele>31.87</ele>
        <time>2021-04-06T11:42:26Z</time>
      </trkpt>
      <trkpt lat="58.55768" lon="-4.70668">
        <ele>31.61</ele>
        <time>2021-04-06T11:42:29Z</time>
      </trkpt>
      <trkpt lat="58.55717" lon="-4.7065">
        <ele>29.16</ele>
        <time>2021-04-06T11:42:32Z</time>
      </trkpt>
      <trkpt lat="58.5561" lon="-4.70604">
        <ele>22.63</ele>
        <time>2021-04-06T11:42:35Z</time>
      </trkpt>
      <trkpt lat="58.55578" lon="-4.706">
        <ele>20.23</ele>
        <time>2021-04-06T11:42:38Z</time>
      </trkpt>
      <trkpt lat="58.55562" lon="-4.70605">
        <ele>19.24</ele>
        <time>2021-04-06T11:42:41Z</time>
      </trkpt>
      <trkpt lat="58.55531" lon="-4.70632">
        <ele>18.83</ele>
        <time>2021-04-06T11:42:44Z</time>
      </trkpt>
      <trkpt lat="58.55515" lon="-4.70636">
        <ele>18.35</ele>
        <time>2021-04-06T11:42:47Z</time>
      </trkpt>
      <trkpt lat="58.55499" lon="-4.7063">
        <ele>17.46</ele>
        <time>2021-04-06T11:42:50Z</time>
      </trkpt>
      <trkpt lat="58.55427" lon="-4.70486">
        <ele>14.15</ele>
        <time>2021-04-06T11:42:53Z</time>
      </trkpt>
      <trkpt lat="58.55414" lon="-4.70441">
        <ele>14.54</ele>
        <time>2021-04-06T11:42:56Z</time>
      </trkpt>
      <trkpt lat="58.55408" lon="-4.70403">
        <ele>15.03</ele>
        <time>2021-04-06T11:42:59Z</time>
      </trkpt>
      <trkpt lat="58.55405" lon="-4.7035">
        <ele>15.26</ele>
        <time>2021-04-06T11:43:02Z</time>
      </trkpt>
      <trkpt lat="58.55413" lon="-4.70203">
        <ele>19.22</ele>
        <time>2021-04-06T11:43:05Z</time>
      </trkpt>
      <trkpt lat="58.55425" lon="-4.7006">
        <ele>22.21</ele>
        <time>2021-04-06T11:43:08Z</time>
      </trkpt>
      <trkpt lat="58.55443" lon="-4.69911">
        <ele>25.27</ele>
        <time>2021-04-06T11:43:11Z</time>
      </trkpt>
      <trkpt lat="58.55444" lon="-4.69866">
        <ele>26.82</ele>
        <time>2021-04-06T11:43:14Z</time>
      </trkpt>
      <trkpt lat="58.55436" lon="-4.69809">
        <ele>28.87</ele>
        <time>2021-04-06T11:43:17Z</time>
      </trkpt>
      <trkpt lat="58.55408" lon="-4.69663">
        <ele>32.85</ele>
        <time>2021-04-06T11:43:20Z</time>
      </trkpt>
      <trkpt lat="58.55382" lon="-4.69536">
        <ele>37.23</ele>
        <time>2021-04-06T11:43:23Z</time>
      </trkpt>
      <trkpt lat="58.55374" lon="-4.69423">
        <ele>39.81</ele>
        <time>2021-04-06T11:43:26Z</time>
      </trkpt>
      <trkpt lat="58.55371" lon="-4.6934">
        <ele>41.47</ele>
        <time>2021-04-06T11:43:29Z</time>
      </trkpt>
      <trkpt lat="58.55364" lon="-4.693">
        <ele>40.72</ele>
        <time>2021-04-06T11:43:32Z</time>
      </trkpt>
      <trkpt lat="58.55352" lon="-4.69266">
        <ele>40.74</ele>
        <time>2021-04-06T11:43:36Z</time>
      </trkpt>
      <trkpt lat="58.55205" lon="-4.69065">
        <ele>43.89</ele>
        <time>2021-04-06T11:43:39Z</time>
      </trkpt>
      <trkpt lat="58.5518" lon="-4.6902">
        <ele>47.38</ele>
        <time>2021-04-06T11:43:42Z</time>
      </trkpt>
      <trkpt lat="58.5517" lon="-4.68979">
        <ele>48.38</ele>
        <time>2021-04-06T11:43:45Z</time>
      </trkpt>
      <trkpt lat="58.55166" lon="-4.68926">
        <ele>49.9</ele>
        <time>2021-04-06T11:43:48Z</time>
      </trkpt>
      <trkpt lat="58.55164" lon="-4.68867">
        <ele>51.45</ele>
        <time>2021-04-06T11:43:51Z</time>
      </trkpt>
      <trkpt lat="58.55157" lon="-4.68793">
        <ele>52.56</ele>
        <time>2021-04-06T11:43:54Z</time>
      </trkpt>
      <trkpt lat="58.55128" lon="-4.68614">
        <ele>54.46</ele>
        <time>2021-04-06T11:43:57Z</time>
      </trkpt>
      <trkpt lat="58.55123" lon="-4.68572">
        <ele>56.78</ele>
        <time>2021-04-06T11:44:00Z</time>
      </trkpt>
      <trkpt lat="58.55117" lon="-4.68506">
        <ele>60.67</ele>
        <time>2021-04-06T11:44:03Z</time>
      </trkpt>
      <trkpt lat="58.55113" lon="-4.6841">
        <ele>59.35</ele>
        <time>2021-04-06T11:44:06Z</time>
      </trkpt>
      <trkpt lat="58.55083" lon="-4.68288">
        <ele>58.46</ele>
        <time>2021-04-06T11:44:09Z</time>
      </trkpt>
      <trkpt lat="58.55071" lon="-4.68262">
        <ele>57.8</ele>
        <time>2021-04-06T11:44:12Z</time>
      </trkpt>
      <trkpt lat="58.55016" lon="-4.68175">
        <ele>53.07</ele>
        <time>2021-04-06T11:44:15Z</time>
      </trkpt>
      <trkpt lat="58.55005" lon="-4.68164">
        <ele>52.06</ele>
        <time>2021-04-06T11:44:18Z</time>
      </trkpt>
      <trkpt lat="58.5499" lon="-4.68154">
        <ele>51.05</ele>
        <time>2021-04-06T11:44:21Z</time>
      </trkpt>
      <trkpt lat="58.54896" lon="-4.68126">
        <ele>47.88</ele>
        <time>2021-04-06T11:44:24Z</time>
      </trkpt>
      <trkpt lat="58.54885" lon="-4.68121">
        <ele>47.27</ele>
        <time>2021-04-06T11:44:27Z</time>
      </trkpt>
      <trkpt lat="58.54878" lon="-4.68112">
        <ele>45.95</ele>
        <time>2021-04-06T11:44:30Z</time>
      </trkpt>
      <trkpt lat="58.54874" lon="-4.68102">
        <ele>45.39</ele>
        <time>2021-04-06T11:44:33Z</time>
      </trkpt>
      <trkpt lat="58.54872" lon="-4.6808">
        <ele>44.3</ele>
        <time>2021-04-06T11:44:36Z</time>
      </trkpt>
      <trkpt lat="58.54874" lon="-4.68051">
        <ele>42.32</ele>
        <time>2021-04-06T11:44:39Z</time>
      </trkpt>
      <trkpt lat="58.54906" lon="-4.6796">
        <ele>33.47</ele>
        <time>2021-04-06T11:44:42Z</time>
      </trkpt>
      <trkpt lat="58.54913" lon="-4.67932">
        <ele>31.72</ele>
        <time>2021-04-06T11:44:45Z</time>
      </trkpt>
      <trkpt lat="58.5492" lon="-4.67874">
        <ele>30.92</ele>
        <time>2021-04-06T11:44:48Z</time>
      </trkpt>
      <trkpt lat="58.5492" lon="-4.67837">
        <ele>30.93</ele>
        <time>2021-04-06T11:44:51Z</time>
      </trkpt>
      <trkpt lat="58.54913" lon="-4.67793">
        <ele>29.83</ele>
        <time>2021-04-06T11:44:54Z</time>
      </trkpt>
      <trkpt lat="58.54902" lon="-4.67766">
        <ele>29.01</ele>
        <time>2021-04-06T11:44:58Z</time>
      </trkpt>
      <trkpt lat="58.54892" lon="-4.6775">
        <ele>28.42</ele>
        <time>2021-04-06T11:45:01Z</time>
      </trkpt>
      <trkpt lat="58.5482" lon="-4.67675">
        <ele>26.91</ele>
        <time>2021-04-06T11:45:04Z</time>
      </trkpt>
      <trkpt lat="58.54814" lon="-4.67663">
        <ele>25.67</ele>
        <time>2021-04-06T11:45:07Z</time>
      </trkpt>
      <trkpt lat="58.54776" lon="-4.67518">
        <ele>23.21</ele>
        <time>2021-04-06T11:45:10Z</time>
      </trkpt>
      <trkpt lat="58.54762" lon="-4.67479">
        <ele>25.22</ele>
        <time>2021-04-06T11:45:13Z</time>
      </trkpt>
      <trkpt lat="58.54749" lon="-4.6746">
        <ele>26.97</ele>
        <time>2021-04-06T11:45:16Z</time>
      </trkpt>
      <trkpt lat="58.54731" lon="-4.67445">
        <ele>28.65</ele>
        <time>2021-04-06T11:45:19Z</time>
      </trkpt>
      <trkpt lat="58.54664" lon="-4.67433">
        <ele>34.26</ele>
        <time>2021-04-06T11:45:22Z</time>
      </trkpt>
      <trkpt lat="58.54601" lon="-4.67402">
        <ele>38.08</ele>
        <time>2021-04-06T11:45:25Z</time>
      </trkpt>
      <trkpt lat="58.54517" lon="-4.67388">
        <ele>38.08</ele>
        <time>2021-04-06T11:45:28Z</time>
      </trkpt>
      <trkpt lat="58.54418" lon="-4.67361">
        <ele>42</ele>
        <time>2021-04-06T11:45:31Z</time>
      </trkpt>
      <trkpt lat="58.54318" lon="-4.67323">
        <ele>43.35</ele>
        <time>2021-04-06T11:45:34Z</time>
      </trkpt>
      <trkpt lat="58.54294" lon="-4.67318">
        <ele>43.83</ele>
        <time>2021-04-06T11:45:37Z</time>
      </trkpt>
      <trkpt lat="58.54294" lon="-4.67318">
        <ele>43.83</ele>
        <time>2021-04-06T11:45:37Z</time>
      </trkpt>
      <trkpt lat="58.5427" lon="-4.67336">
        <ele>43.96</ele>
        <time>2021-04-06T11:45:40Z</time>
      </trkpt>
      <trkpt lat="58.54184" lon="-4.67468">
        <ele>50.19</ele>
        <time>2021-04-06T11:45:43Z</time>
      </trkpt>
      <trkpt lat="58.5415" lon="-4.67509">
        <ele>51.71</ele>
        <time>2021-04-06T11:45:45Z</time>
      </trkpt>
      <trkpt lat="58.54125" lon="-4.67527">
        <ele>52.46</ele>
        <time>2021-04-06T11:45:48Z</time>
      </trkpt>
      <trkpt lat="58.54048" lon="-4.67557">
        <ele>50.83</ele>
        <time>2021-04-06T11:45:51Z</time>
      </trkpt>
      <trkpt lat="58.54005" lon="-4.67569">
        <ele>50.99</ele>
        <time>2021-04-06T11:45:54Z</time>
      </trkpt>
      <trkpt lat="58.53956" lon="-4.67567">
        <ele>52.84</ele>
        <time>2021-04-06T11:45:57Z</time>
      </trkpt>
      <trkpt lat="58.53885" lon="-4.67555">
        <ele>53.95</ele>
        <time>2021-04-06T11:45:59Z</time>
      </trkpt>
      <trkpt lat="58.53644" lon="-4.67617">
        <ele>55.07</ele>
        <time>2021-04-06T11:46:02Z</time>
      </trkpt>
      <trkpt lat="58.53616" lon="-4.67615">
        <ele>55.13</ele>
        <time>2021-04-06T11:46:05Z</time>
      </trkpt>
      <trkpt lat="58.53587" lon="-4.67607">
        <ele>54.87</ele>
        <time>2021-04-06T11:46:08Z</time>
      </trkpt>
      <trkpt lat="58.53472" lon="-4.67546">
        <ele>54.32</ele>
        <time>2021-04-06T11:46:11Z</time>
      </trkpt>
      <trkpt lat="58.53445" lon="-4.6754">
        <ele>53.88</ele>
        <time>2021-04-06T11:46:13Z</time>
      </trkpt>
      <trkpt lat="58.53423" lon="-4.67544">
        <ele>53.34</ele>
        <time>2021-04-06T11:46:16Z</time>
      </trkpt>
      <trkpt lat="58.5323" lon="-4.67655">
        <ele>48.32</ele>
        <time>2021-04-06T11:46:19Z</time>
      </trkpt>
      <trkpt lat="58.532" lon="-4.67686">
        <ele>47.78</ele>
        <time>2021-04-06T11:46:22Z</time>
      </trkpt>
      <trkpt lat="58.52996" lon="-4.67929">
        <ele>50.41</ele>
        <time>2021-04-06T11:46:25Z</time>
      </trkpt>
      <trkpt lat="58.52839" lon="-4.6808">
        <ele>51.02</ele>
        <time>2021-04-06T11:46:27Z</time>
      </trkpt>
      <trkpt lat="58.52749" lon="-4.68193">
        <ele>54.71</ele>
        <time>2021-04-06T11:46:30Z</time>
      </trkpt>
      <trkpt lat="58.5269" lon="-4.6824">
        <ele>54.19</ele>
        <time>2021-04-06T11:46:33Z</time>
      </trkpt>
      <trkpt lat="58.5253" lon="-4.68403">
        <ele>52.65</ele>
        <time>2021-04-06T11:46:36Z</time>
      </trkpt>
      <trkpt lat="58.52509" lon="-4.68412">
        <ele>52.03</ele>
        <time>2021-04-06T11:46:39Z</time>
      </trkpt>
      <trkpt lat="58.52486" lon="-4.6841">
        <ele>51</ele>
        <time>2021-04-06T11:46:41Z</time>
      </trkpt>
      <trkpt lat="58.52462" lon="-4.68392">
        <ele>49.24</ele>
        <time>2021-04-06T11:46:44Z</time>
      </trkpt>
      <trkpt lat="58.5244" lon="-4.68381">
        <ele>48.28</ele>
        <time>2021-04-06T11:46:47Z</time>
      </trkpt>
      <trkpt lat="58.52407" lon="-4.68387">
        <ele>47.48</ele>
        <time>2021-04-06T11:46:50Z</time>
      </trkpt>
      <trkpt lat="58.52388" lon="-4.68403">
        <ele>48.45</ele>
        <time>2021-04-06T11:46:53Z</time>
      </trkpt>
      <trkpt lat="58.52357" lon="-4.68445">
        <ele>49.77</ele>
        <time>2021-04-06T11:46:56Z</time>
      </trkpt>
      <trkpt lat="58.52333" lon="-4.68471">
        <ele>49.92</ele>
        <time>2021-04-06T11:46:58Z</time>
      </trkpt>
      <trkpt lat="58.52306" lon="-4.68491">
        <ele>49.68</ele>
        <time>2021-04-06T11:47:01Z</time>
      </trkpt>
      <trkpt lat="58.52251" lon="-4.68505">
        <ele>48.41</ele>
        <time>2021-04-06T11:47:04Z</time>
      </trkpt>
      <trkpt lat="58.52173" lon="-4.68509">
        <ele>48.09</ele>
        <time>2021-04-06T11:47:07Z</time>
      </trkpt>
      <trkpt lat="58.52133" lon="-4.68515">
        <ele>49.62</ele>
        <time>2021-04-06T11:47:10Z</time>
      </trkpt>
      <trkpt lat="58.52104" lon="-4.68536">
        <ele>49.73</ele>
        <time>2021-04-06T11:47:12Z</time>
      </trkpt>
      <trkpt lat="58.52081" lon="-4.68572">
        <ele>49.49</ele>
        <time>2021-04-06T11:47:15Z</time>
      </trkpt>
      <trkpt lat="58.52022" lon="-4.6875">
        <ele>52.54</ele>
        <time>2021-04-06T11:47:18Z</time>
      </trkpt>
      <trkpt lat="58.51981" lon="-4.68858">
        <ele>53.14</ele>
        <time>2021-04-06T11:47:21Z</time>
      </trkpt>
      <trkpt lat="58.51883" lon="-4.69047">
        <ele>52.15</ele>
        <time>2021-04-06T11:47:24Z</time>
      </trkpt>
      <trkpt lat="58.51866" lon="-4.69084">
        <ele>50.56</ele>
        <time>2021-04-06T11:47:26Z</time>
      </trkpt>
      <trkpt lat="58.51842" lon="-4.69153">
        <ele>49.96</ele>
        <time>2021-04-06T11:47:29Z</time>
      </trkpt>
      <trkpt lat="58.51816" lon="-4.69192">
        <ele>50.29</ele>
        <time>2021-04-06T11:47:32Z</time>
      </trkpt>
      <trkpt lat="58.51789" lon="-4.69216">
        <ele>49.39</ele>
        <time>2021-04-06T11:47:35Z</time>
      </trkpt>
      <trkpt lat="58.51607" lon="-4.69316">
        <ele>45.08</ele>
        <time>2021-04-06T11:47:38Z</time>
      </trkpt>
      <trkpt lat="58.5158" lon="-4.69335">
        <ele>43.77</ele>
        <time>2021-04-06T11:47:40Z</time>
      </trkpt>
      <trkpt lat="58.51549" lon="-4.69371">
        <ele>43.24</ele>
        <time>2021-04-06T11:47:43Z</time>
      </trkpt>
      <trkpt lat="58.51518" lon="-4.69414">
        <ele>44.09</ele>
        <time>2021-04-06T11:47:46Z</time>
      </trkpt>
      <trkpt lat="58.51503" lon="-4.6945">
        <ele>45.4</ele>
        <time>2021-04-06T11:47:49Z</time>
      </trkpt>
      <trkpt lat="58.51483" lon="-4.69512">
        <ele>44.86</ele>
        <time>2021-04-06T11:47:52Z</time>
      </trkpt>
      <trkpt lat="58.5146" lon="-4.69575">
        <ele>44.67</ele>
        <time>2021-04-06T11:47:54Z</time>
      </trkpt>
      <trkpt lat="58.51435" lon="-4.69612">
        <ele>44.63</ele>
        <time>2021-04-06T11:47:57Z</time>
      </trkpt>
      <trkpt lat="58.51402" lon="-4.69636">
        <ele>42.19</ele>
        <time>2021-04-06T11:48:00Z</time>
      </trkpt>
      <trkpt lat="58.51346" lon="-4.69655">
        <ele>38.16</ele>
        <time>2021-04-06T11:48:03Z</time>
      </trkpt>
      <trkpt lat="58.51327" lon="-4.69668">
        <ele>36.41</ele>
        <time>2021-04-06T11:48:06Z</time>
      </trkpt>
      <trkpt lat="58.51308" lon="-4.69692">
        <ele>35.12</ele>
        <time>2021-04-06T11:48:08Z</time>
      </trkpt>
      <trkpt lat="58.51204" lon="-4.69834">
        <ele>32.06</ele>
        <time>2021-04-06T11:48:11Z</time>
      </trkpt>
      <trkpt lat="58.51181" lon="-4.69873">
        <ele>29.56</ele>
        <time>2021-04-06T11:48:14Z</time>
      </trkpt>
      <trkpt lat="58.51168" lon="-4.69904">
        <ele>28.09</ele>
        <time>2021-04-06T11:48:17Z</time>
      </trkpt>
      <trkpt lat="58.51158" lon="-4.69935">
        <ele>27.02</ele>
        <time>2021-04-06T11:48:20Z</time>
      </trkpt>
      <trkpt lat="58.51126" lon="-4.70074">
        <ele>29.28</ele>
        <time>2021-04-06T11:48:22Z</time>
      </trkpt>
      <trkpt lat="58.5111" lon="-4.70115">
        <ele>28.09</ele>
        <time>2021-04-06T11:48:25Z</time>
      </trkpt>
      <trkpt lat="58.51094" lon="-4.70136">
        <ele>27.4</ele>
        <time>2021-04-06T11:48:28Z</time>
      </trkpt>
      <trkpt lat="58.51075" lon="-4.70155">
        <ele>26.28</ele>
        <time>2021-04-06T11:48:31Z</time>
      </trkpt>
      <trkpt lat="58.51056" lon="-4.70168">
        <ele>26.08</ele>
        <time>2021-04-06T11:48:34Z</time>
      </trkpt>
      <trkpt lat="58.51029" lon="-4.7017">
        <ele>26.34</ele>
        <time>2021-04-06T11:48:36Z</time>
      </trkpt>
      <trkpt lat="58.51009" lon="-4.70165">
        <ele>26.52</ele>
        <time>2021-04-06T11:48:39Z</time>
      </trkpt>
      <trkpt lat="58.50974" lon="-4.70148">
        <ele>26.93</ele>
        <time>2021-04-06T11:48:42Z</time>
      </trkpt>
      <trkpt lat="58.50945" lon="-4.70139">
        <ele>28</ele>
        <time>2021-04-06T11:48:45Z</time>
      </trkpt>
      <trkpt lat="58.50926" lon="-4.7014">
        <ele>28.1</ele>
        <time>2021-04-06T11:48:48Z</time>
      </trkpt>
      <trkpt lat="58.50909" lon="-4.70146">
        <ele>27.95</ele>
        <time>2021-04-06T11:48:50Z</time>
      </trkpt>
      <trkpt lat="58.50895" lon="-4.70158">
        <ele>27.78</ele>
        <time>2021-04-06T11:48:53Z</time>
      </trkpt>
      <trkpt lat="58.5088" lon="-4.70177">
        <ele>28.13</ele>
        <time>2021-04-06T11:48:56Z</time>
      </trkpt>
      <trkpt lat="58.50866" lon="-4.70205">
        <ele>28.82</ele>
        <time>2021-04-06T11:48:59Z</time>
      </trkpt>
      <trkpt lat="58.50808" lon="-4.70352">
        <ele>35.69</ele>
        <time>2021-04-06T11:49:02Z</time>
      </trkpt>
      <trkpt lat="58.50784" lon="-4.70403">
        <ele>38.37</ele>
        <time>2021-04-06T11:49:04Z</time>
      </trkpt>
      <trkpt lat="58.50771" lon="-4.70421">
        <ele>39.83</ele>
        <time>2021-04-06T11:49:07Z</time>
      </trkpt>
      <trkpt lat="58.50705" lon="-4.70499">
        <ele>40.8</ele>
        <time>2021-04-06T11:49:10Z</time>
      </trkpt>
      <trkpt lat="58.5068" lon="-4.70548">
        <ele>40.27</ele>
        <time>2021-04-06T11:49:13Z</time>
      </trkpt>
      <trkpt lat="58.50663" lon="-4.70585">
        <ele>39.79</ele>
        <time>2021-04-06T11:49:16Z</time>
      </trkpt>
      <trkpt lat="58.50634" lon="-4.7063">
        <ele>39.88</ele>
        <time>2021-04-06T11:49:18Z</time>
      </trkpt>
      <trkpt lat="58.50585" lon="-4.70661">
        <ele>39.45</ele>
        <time>2021-04-06T11:49:21Z</time>
      </trkpt>
      <trkpt lat="58.50563" lon="-4.70663">
        <ele>39.55</ele>
        <time>2021-04-06T11:49:24Z</time>
      </trkpt>
      <trkpt lat="58.50519" lon="-4.70648">
        <ele>39.67</ele>
        <time>2021-04-06T11:49:27Z</time>
      </trkpt>
      <trkpt lat="58.50497" lon="-4.70648">
        <ele>40.28</ele>
        <time>2021-04-06T11:49:30Z</time>
      </trkpt>
      <trkpt lat="58.50443" lon="-4.70663">
        <ele>42.49</ele>
        <time>2021-04-06T11:49:32Z</time>
      </trkpt>
      <trkpt lat="58.50422" lon="-4.70678">
        <ele>43.36</ele>
        <time>2021-04-06T11:49:35Z</time>
      </trkpt>
      <trkpt lat="58.50406" lon="-4.70699">
        <ele>44.14</ele>
        <time>2021-04-06T11:49:38Z</time>
      </trkpt>
      <trkpt lat="58.50382" lon="-4.70751">
        <ele>45.29</ele>
        <time>2021-04-06T11:49:41Z</time>
      </trkpt>
      <trkpt lat="58.50328" lon="-4.70827">
        <ele>44.01</ele>
        <time>2021-04-06T11:49:44Z</time>
      </trkpt>
      <trkpt lat="58.50233" lon="-4.7089">
        <ele>41.85</ele>
        <time>2021-04-06T11:49:46Z</time>
      </trkpt>
      <trkpt lat="58.50211" lon="-4.70917">
        <ele>41.83</ele>
        <time>2021-04-06T11:49:49Z</time>
      </trkpt>
      <trkpt lat="58.5019" lon="-4.7095">
        <ele>41.98</ele>
        <time>2021-04-06T11:49:52Z</time>
      </trkpt>
      <trkpt lat="58.50075" lon="-4.71144">
        <ele>43.12</ele>
        <time>2021-04-06T11:49:55Z</time>
      </trkpt>
      <trkpt lat="58.50016" lon="-4.71247">
        <ele>42.13</ele>
        <time>2021-04-06T11:49:58Z</time>
      </trkpt>
      <trkpt lat="58.50004" lon="-4.7127">
        <ele>41.31</ele>
        <time>2021-04-06T11:50:01Z</time>
      </trkpt>
      <trkpt lat="58.49969" lon="-4.71357">
        <ele>42.49</ele>
        <time>2021-04-06T11:50:03Z</time>
      </trkpt>
      <trkpt lat="58.49941" lon="-4.71416">
        <ele>42.44</ele>
        <time>2021-04-06T11:50:06Z</time>
      </trkpt>
      <trkpt lat="58.49923" lon="-4.71438">
        <ele>41.26</ele>
        <time>2021-04-06T11:50:09Z</time>
      </trkpt>
      <trkpt lat="58.49851" lon="-4.71509">
        <ele>40.96</ele>
        <time>2021-04-06T11:50:12Z</time>
      </trkpt>
      <trkpt lat="58.498" lon="-4.71583">
        <ele>42.78</ele>
        <time>2021-04-06T11:50:15Z</time>
      </trkpt>
      <trkpt lat="58.49766" lon="-4.71636">
        <ele>43.03</ele>
        <time>2021-04-06T11:50:17Z</time>
      </trkpt>
      <trkpt lat="58.49754" lon="-4.71661">
        <ele>43.08</ele>
        <time>2021-04-06T11:50:20Z</time>
      </trkpt>
      <trkpt lat="58.49718" lon="-4.71761">
        <ele>44.09</ele>
        <time>2021-04-06T11:50:23Z</time>
      </trkpt>
      <trkpt lat="58.49691" lon="-4.71816">
        <ele>44.85</ele>
        <time>2021-04-06T11:50:26Z</time>
      </trkpt>
      <trkpt lat="58.4968" lon="-4.71832">
        <ele>43.89</ele>
        <time>2021-04-06T11:50:29Z</time>
      </trkpt>
      <trkpt lat="58.49655" lon="-4.71862">
        <ele>42.76</ele>
        <time>2021-04-06T11:50:31Z</time>
      </trkpt>
      <trkpt lat="58.49602" lon="-4.71898">
        <ele>40.65</ele>
        <time>2021-04-06T11:50:34Z</time>
      </trkpt>
      <trkpt lat="58.49566" lon="-4.7193">
        <ele>39.07</ele>
        <time>2021-04-06T11:50:37Z</time>
      </trkpt>
      <trkpt lat="58.4955" lon="-4.71951">
        <ele>38.81</ele>
        <time>2021-04-06T11:50:40Z</time>
      </trkpt>
      <trkpt lat="58.49519" lon="-4.71998">
        <ele>38.6</ele>
        <time>2021-04-06T11:50:43Z</time>
      </trkpt>
      <trkpt lat="58.4949" lon="-4.72049">
        <ele>38.39</ele>
        <time>2021-04-06T11:50:45Z</time>
      </trkpt>
      <trkpt lat="58.49475" lon="-4.72064">
        <ele>38.24</ele>
        <time>2021-04-06T11:50:48Z</time>
      </trkpt>
      <trkpt lat="58.49443" lon="-4.72096">
        <ele>37.69</ele>
        <time>2021-04-06T11:50:51Z</time>
      </trkpt>
      <trkpt lat="58.49359" lon="-4.72162">
        <ele>35.5</ele>
        <time>2021-04-06T11:50:54Z</time>
      </trkpt>
      <trkpt lat="58.49325" lon="-4.72195">
        <ele>35.45</ele>
        <time>2021-04-06T11:50:57Z</time>
      </trkpt>
      <trkpt lat="58.49305" lon="-4.7222">
        <ele>35.75</ele>
        <time>2021-04-06T11:50:59Z</time>
      </trkpt>
      <trkpt lat="58.49263" lon="-4.72297">
        <ele>35.59</ele>
        <time>2021-04-06T11:51:02Z</time>
      </trkpt>
      <trkpt lat="58.49247" lon="-4.7232">
        <ele>35.26</ele>
        <time>2021-04-06T11:51:05Z</time>
      </trkpt>
      <trkpt lat="58.49217" lon="-4.72352">
        <ele>35.02</ele>
        <time>2021-04-06T11:51:08Z</time>
      </trkpt>
      <trkpt lat="58.49183" lon="-4.72383">
        <ele>34.37</ele>
        <time>2021-04-06T11:51:11Z</time>
      </trkpt>
      <trkpt lat="58.49152" lon="-4.72396">
        <ele>32.81</ele>
        <time>2021-04-06T11:51:13Z</time>
      </trkpt>
      <trkpt lat="58.49057" lon="-4.7241">
        <ele>30.88</ele>
        <time>2021-04-06T11:51:16Z</time>
      </trkpt>
      <trkpt lat="58.49027" lon="-4.72418">
        <ele>29.03</ele>
        <time>2021-04-06T11:51:19Z</time>
      </trkpt>
      <trkpt lat="58.49003" lon="-4.72449">
        <ele>29.24</ele>
        <time>2021-04-06T11:51:22Z</time>
      </trkpt>
      <trkpt lat="58.48972" lon="-4.72511">
        <ele>29.35</ele>
        <time>2021-04-06T11:51:25Z</time>
      </trkpt>
      <trkpt lat="58.48957" lon="-4.72536">
        <ele>29.2</ele>
        <time>2021-04-06T11:51:27Z</time>
      </trkpt>
      <trkpt lat="58.48945" lon="-4.7255">
        <ele>28.86</ele>
        <time>2021-04-06T11:51:30Z</time>
      </trkpt>
      <trkpt lat="58.4891" lon="-4.72579">
        <ele>29.41</ele>
        <time>2021-04-06T11:51:33Z</time>
      </trkpt>
      <trkpt lat="58.48879" lon="-4.72595">
        <ele>28.69</ele>
        <time>2021-04-06T11:51:36Z</time>
      </trkpt>
      <trkpt lat="58.48822" lon="-4.72601">
        <ele>26.62</ele>
        <time>2021-04-06T11:51:39Z</time>
      </trkpt>
      <trkpt lat="58.48806" lon="-4.72605">
        <ele>26.77</ele>
        <time>2021-04-06T11:51:41Z</time>
      </trkpt>
      <trkpt lat="58.48793" lon="-4.72613">
        <ele>26.69</ele>
        <time>2021-04-06T11:51:44Z</time>
      </trkpt>
      <trkpt lat="58.48748" lon="-4.72649">
        <ele>28.69</ele>
        <time>2021-04-06T11:51:47Z</time>
      </trkpt>
      <trkpt lat="58.4867" lon="-4.72674">
        <ele>28.56</ele>
        <time>2021-04-06T11:51:50Z</time>
      </trkpt>
      <trkpt lat="58.48652" lon="-4.72684">
        <ele>28.72</ele>
        <time>2021-04-06T11:51:53Z</time>
      </trkpt>
      <trkpt lat="58.48596" lon="-4.72725">
        <ele>27.66</ele>
        <time>2021-04-06T11:51:55Z</time>
      </trkpt>
      <trkpt lat="58.48577" lon="-4.72733">
        <ele>27.35</ele>
        <time>2021-04-06T11:51:58Z</time>
      </trkpt>
      <trkpt lat="58.48523" lon="-4.72744">
        <ele>25.36</ele>
        <time>2021-04-06T11:52:01Z</time>
      </trkpt>
      <trkpt lat="58.48503" lon="-4.72752">
        <ele>25.17</ele>
        <time>2021-04-06T11:52:04Z</time>
      </trkpt>
      <trkpt lat="58.48482" lon="-4.72771">
        <ele>24.44</ele>
        <time>2021-04-06T11:52:07Z</time>
      </trkpt>
      <trkpt lat="58.48459" lon="-4.72801">
        <ele>24.77</ele>
        <time>2021-04-06T11:52:09Z</time>
      </trkpt>
      <trkpt lat="58.48433" lon="-4.7284">
        <ele>24.05</ele>
        <time>2021-04-06T11:52:12Z</time>
      </trkpt>
      <trkpt lat="58.48385" lon="-4.7289">
        <ele>24.77</ele>
        <time>2021-04-06T11:52:15Z</time>
      </trkpt>
      <trkpt lat="58.48268" lon="-4.72978">
        <ele>24.34</ele>
        <time>2021-04-06T11:52:18Z</time>
      </trkpt>
      <trkpt lat="58.48194" lon="-4.73049">
        <ele>22.75</ele>
        <time>2021-04-06T11:52:21Z</time>
      </trkpt>
      <trkpt lat="58.48162" lon="-4.73074">
        <ele>23.31</ele>
        <time>2021-04-06T11:52:23Z</time>
      </trkpt>
      <trkpt lat="58.48135" lon="-4.73086">
        <ele>24.19</ele>
        <time>2021-04-06T11:52:26Z</time>
      </trkpt>
      <trkpt lat="58.48056" lon="-4.73113">
        <ele>24.17</ele>
        <time>2021-04-06T11:52:29Z</time>
      </trkpt>
      <trkpt lat="58.48027" lon="-4.73127">
        <ele>25.13</ele>
        <time>2021-04-06T11:52:32Z</time>
      </trkpt>
      <trkpt lat="58.47973" lon="-4.73174">
        <ele>26.52</ele>
        <time>2021-04-06T11:52:35Z</time>
      </trkpt>
      <trkpt lat="58.47957" lon="-4.73192">
        <ele>26.72</ele>
        <time>2021-04-06T11:52:37Z</time>
      </trkpt>
      <trkpt lat="58.47913" lon="-4.73258">
        <ele>28.3</ele>
        <time>2021-04-06T11:52:40Z</time>
      </trkpt>
      <trkpt lat="58.47891" lon="-4.73276">
        <ele>28.95</ele>
        <time>2021-04-06T11:52:43Z</time>
      </trkpt>
      <trkpt lat="58.47827" lon="-4.73311">
        <ele>28.74</ele>
        <time>2021-04-06T11:52:46Z</time>
      </trkpt>
      <trkpt lat="58.47806" lon="-4.73327">
        <ele>27.82</ele>
        <time>2021-04-06T11:52:49Z</time>
      </trkpt>
      <trkpt lat="58.47767" lon="-4.7337">
        <ele>27.95</ele>
        <time>2021-04-06T11:52:51Z</time>
      </trkpt>
      <trkpt lat="58.47731" lon="-4.73396">
        <ele>27.8</ele>
        <time>2021-04-06T11:52:54Z</time>
      </trkpt>
      <trkpt lat="58.47666" lon="-4.73435">
        <ele>27.61</ele>
        <time>2021-04-06T11:52:57Z</time>
      </trkpt>
      <trkpt lat="58.47558" lon="-4.73515">
        <ele>26.74</ele>
        <time>2021-04-06T11:53:00Z</time>
      </trkpt>
      <trkpt lat="58.47361" lon="-4.73654">
        <ele>25.53</ele>
        <time>2021-04-06T11:53:03Z</time>
      </trkpt>
      <trkpt lat="58.4733" lon="-4.73687">
        <ele>25.33</ele>
        <time>2021-04-06T11:53:06Z</time>
      </trkpt>
      <trkpt lat="58.473" lon="-4.73733">
        <ele>25.97</ele>
        <time>2021-04-06T11:53:08Z</time>
      </trkpt>
      <trkpt lat="58.47161" lon="-4.74023">
        <ele>26.43</ele>
        <time>2021-04-06T11:53:11Z</time>
      </trkpt>
      <trkpt lat="58.47137" lon="-4.74066">
        <ele>26.14</ele>
        <time>2021-04-06T11:53:14Z</time>
      </trkpt>
      <trkpt lat="58.47054" lon="-4.74161">
        <ele>25.65</ele>
        <time>2021-04-06T11:53:17Z</time>
      </trkpt>
      <trkpt lat="58.47032" lon="-4.74196">
        <ele>25.27</ele>
        <time>2021-04-06T11:53:20Z</time>
      </trkpt>
      <trkpt lat="58.46959" lon="-4.74356">
        <ele>27.34</ele>
        <time>2021-04-06T11:53:22Z</time>
      </trkpt>
      <trkpt lat="58.4694" lon="-4.74394">
        <ele>27.86</ele>
        <time>2021-04-06T11:53:25Z</time>
      </trkpt>
      <trkpt lat="58.46915" lon="-4.74422">
        <ele>27.09</ele>
        <time>2021-04-06T11:53:28Z</time>
      </trkpt>
      <trkpt lat="58.46832" lon="-4.74475">
        <ele>26.08</ele>
        <time>2021-04-06T11:53:31Z</time>
      </trkpt>
      <trkpt lat="58.46789" lon="-4.74508">
        <ele>25.32</ele>
        <time>2021-04-06T11:53:34Z</time>
      </trkpt>
      <trkpt lat="58.46759" lon="-4.74545">
        <ele>25.27</ele>
        <time>2021-04-06T11:53:36Z</time>
      </trkpt>
      <trkpt lat="58.46721" lon="-4.74611">
        <ele>24.91</ele>
        <time>2021-04-06T11:53:39Z</time>
      </trkpt>
      <trkpt lat="58.467" lon="-4.74632">
        <ele>24.9</ele>
        <time>2021-04-06T11:53:42Z</time>
      </trkpt>
      <trkpt lat="58.46551" lon="-4.74745">
        <ele>23.29</ele>
        <time>2021-04-06T11:53:45Z</time>
      </trkpt>
      <trkpt lat="58.46505" lon="-4.74796">
        <ele>22.72</ele>
        <time>2021-04-06T11:53:48Z</time>
      </trkpt>
      <trkpt lat="58.46495" lon="-4.7482">
        <ele>22.94</ele>
        <time>2021-04-06T11:53:50Z</time>
      </trkpt>
      <trkpt lat="58.46465" lon="-4.74905">
        <ele>22.99</ele>
        <time>2021-04-06T11:53:53Z</time>
      </trkpt>
      <trkpt lat="58.46438" lon="-4.74961">
        <ele>23.46</ele>
        <time>2021-04-06T11:53:56Z</time>
      </trkpt>
      <trkpt lat="58.46394" lon="-4.75034">
        <ele>22.95</ele>
        <time>2021-04-06T11:53:59Z</time>
      </trkpt>
      <trkpt lat="58.46359" lon="-4.75127">
        <ele>23.88</ele>
        <time>2021-04-06T11:54:02Z</time>
      </trkpt>
      <trkpt lat="58.4632" lon="-4.75188">
        <ele>21.68</ele>
        <time>2021-04-06T11:54:04Z</time>
      </trkpt>
      <trkpt lat="58.46307" lon="-4.75216">
        <ele>21.92</ele>
        <time>2021-04-06T11:54:07Z</time>
      </trkpt>
      <trkpt lat="58.46256" lon="-4.75357">
        <ele>21.26</ele>
        <time>2021-04-06T11:54:10Z</time>
      </trkpt>
      <trkpt lat="58.46225" lon="-4.75418">
        <ele>22.26</ele>
        <time>2021-04-06T11:54:13Z</time>
      </trkpt>
      <trkpt lat="58.46196" lon="-4.75465">
        <ele>22.58</ele>
        <time>2021-04-06T11:54:16Z</time>
      </trkpt>
      <trkpt lat="58.46167" lon="-4.75501">
        <ele>23.07</ele>
        <time>2021-04-06T11:54:18Z</time>
      </trkpt>
      <trkpt lat="58.46096" lon="-4.75575">
        <ele>23.45</ele>
        <time>2021-04-06T11:54:21Z</time>
      </trkpt>
      <trkpt lat="58.46038" lon="-4.75664">
        <ele>25.25</ele>
        <time>2021-04-06T11:54:24Z</time>
      </trkpt>
      <trkpt lat="58.46005" lon="-4.75709">
        <ele>26.39</ele>
        <time>2021-04-06T11:54:27Z</time>
      </trkpt>
      <trkpt lat="58.45975" lon="-4.75738">
        <ele>25.16</ele>
        <time>2021-04-06T11:54:30Z</time>
      </trkpt>
      <trkpt lat="58.45975" lon="-4.75738">
        <ele>25.16</ele>
        <time>2021-04-06T11:54:30Z</time>
      </trkpt>
      <trkpt lat="58.4577" lon="-4.7588">
        <ele>24.04</ele>
        <time>2021-04-06T11:54:33Z</time>
      </trkpt>
      <trkpt lat="58.45682" lon="-4.75962">
        <ele>24.75</ele>
        <time>2021-04-06T11:54:36Z</time>
      </trkpt>
      <trkpt lat="58.45661" lon="-4.7597">
        <ele>23.7</ele>
        <time>2021-04-06T11:54:39Z</time>
      </trkpt>
      <trkpt lat="58.45643" lon="-4.75969">
        <ele>23.02</ele>
        <time>2021-04-06T11:54:42Z</time>
      </trkpt>
      <trkpt lat="58.45555" lon="-4.75938">
        <ele>18.97</ele>
        <time>2021-04-06T11:54:45Z</time>
      </trkpt>
      <trkpt lat="58.45524" lon="-4.75933">
        <ele>17.88</ele>
        <time>2021-04-06T11:54:48Z</time>
      </trkpt>
      <trkpt lat="58.45484" lon="-4.75939">
        <ele>16.41</ele>
        <time>2021-04-06T11:54:51Z</time>
      </trkpt>
      <trkpt lat="58.45459" lon="-4.75933">
        <ele>15.23</ele>
        <time>2021-04-06T11:54:54Z</time>
      </trkpt>
      <trkpt lat="58.45327" lon="-4.75884">
        <ele>12.18</ele>
        <time>2021-04-06T11:54:57Z</time>
      </trkpt>
      <trkpt lat="58.45305" lon="-4.75881">
        <ele>12.29</ele>
        <time>2021-04-06T11:55:01Z</time>
      </trkpt>
      <trkpt lat="58.4527" lon="-4.75891">
        <ele>11.64</ele>
        <time>2021-04-06T11:55:04Z</time>
      </trkpt>
      <trkpt lat="58.45199" lon="-4.7592">
        <ele>9.98</ele>
        <time>2021-04-06T11:55:07Z</time>
      </trkpt>
      <trkpt lat="58.45156" lon="-4.7594">
        <ele>8.4</ele>
        <time>2021-04-06T11:55:10Z</time>
      </trkpt>
      <trkpt lat="58.45121" lon="-4.75966">
        <ele>6.36</ele>
        <time>2021-04-06T11:55:13Z</time>
      </trkpt>
      <trkpt lat="58.44998" lon="-4.76101">
        <ele>7.47</ele>
        <time>2021-04-06T11:55:16Z</time>
      </trkpt>
      <trkpt lat="58.44937" lon="-4.76206">
        <ele>8.3</ele>
        <time>2021-04-06T11:55:19Z</time>
      </trkpt>
      <trkpt lat="58.44919" lon="-4.76224">
        <ele>8.17</ele>
        <time>2021-04-06T11:55:22Z</time>
      </trkpt>
      <trkpt lat="58.449" lon="-4.76233">
        <ele>8.99</ele>
        <time>2021-04-06T11:55:25Z</time>
      </trkpt>
      <trkpt lat="58.44878" lon="-4.76233">
        <ele>10.04</ele>
        <time>2021-04-06T11:55:28Z</time>
      </trkpt>
      <trkpt lat="58.44858" lon="-4.76221">
        <ele>11</ele>
        <time>2021-04-06T11:55:32Z</time>
      </trkpt>
      <trkpt lat="58.44836" lon="-4.76198">
        <ele>11</ele>
        <time>2021-04-06T11:55:35Z</time>
      </trkpt>
      <trkpt lat="58.4482" lon="-4.76163">
        <ele>12</ele>
        <time>2021-04-06T11:55:38Z</time>
      </trkpt>
      <trkpt lat="58.4481" lon="-4.76127">
        <ele>12.36</ele>
        <time>2021-04-06T11:55:41Z</time>
      </trkpt>
      <trkpt lat="58.44772" lon="-4.75877">
        <ele>13</ele>
        <time>2021-04-06T11:55:44Z</time>
      </trkpt>
      <trkpt lat="58.44764" lon="-4.75845">
        <ele>13.6</ele>
        <time>2021-04-06T11:55:47Z</time>
      </trkpt>
      <trkpt lat="58.44749" lon="-4.75812">
        <ele>13.96</ele>
        <time>2021-04-06T11:55:50Z</time>
      </trkpt>
      <trkpt lat="58.44725" lon="-4.75778">
        <ele>14.11</ele>
        <time>2021-04-06T11:55:53Z</time>
      </trkpt>
      <trkpt lat="58.44602" lon="-4.75577">
        <ele>10.11</ele>
        <time>2021-04-06T11:55:56Z</time>
      </trkpt>
      <trkpt lat="58.44591" lon="-4.75563">
        <ele>9.99</ele>
        <time>2021-04-06T11:55:59Z</time>
      </trkpt>
      <trkpt lat="58.44421" lon="-4.75413">
        <ele>12.84</ele>
        <time>2021-04-06T11:56:02Z</time>
      </trkpt>
      <trkpt lat="58.44409" lon="-4.75395">
        <ele>13.35</ele>
        <time>2021-04-06T11:56:06Z</time>
      </trkpt>
      <trkpt lat="58.44399" lon="-4.75371">
        <ele>13.64</ele>
        <time>2021-04-06T11:56:09Z</time>
      </trkpt>
      <trkpt lat="58.44391" lon="-4.75341">
        <ele>14.13</ele>
        <time>2021-04-06T11:56:12Z</time>
      </trkpt>
      <trkpt lat="58.44391" lon="-4.75341">
        <ele>14.13</ele>
        <time>2021-04-06T11:56:12Z</time>
      </trkpt>
      <trkpt lat="58.44385" lon="-4.7529">
        <ele>16.25</ele>
        <time>2021-04-06T11:56:14Z</time>
      </trkpt>
      <trkpt lat="58.44386" lon="-4.75251">
        <ele>17.69</ele>
        <time>2021-04-06T11:56:17Z</time>
      </trkpt>
      <trkpt lat="58.44486" lon="-4.74538">
        <ele>14.04</ele>
        <time>2021-04-06T11:56:19Z</time>
      </trkpt>
      <trkpt lat="58.4449" lon="-4.74484">
        <ele>13.72</ele>
        <time>2021-04-06T11:56:22Z</time>
      </trkpt>
      <trkpt lat="58.44483" lon="-4.74259">
        <ele>12.43</ele>
        <time>2021-04-06T11:56:25Z</time>
      </trkpt>
      <trkpt lat="58.44482" lon="-4.74195">
        <ele>10.65</ele>
        <time>2021-04-06T11:56:27Z</time>
      </trkpt>
      <trkpt lat="58.4449" lon="-4.73978">
        <ele>6.69</ele>
        <time>2021-04-06T11:56:30Z</time>
      </trkpt>
      <trkpt lat="58.44501" lon="-4.73908">
        <ele>4.96</ele>
        <time>2021-04-06T11:56:32Z</time>
      </trkpt>
      <trkpt lat="58.44515" lon="-4.73852">
        <ele>4.71</ele>
        <time>2021-04-06T11:56:35Z</time>
      </trkpt>
      <trkpt lat="58.44532" lon="-4.73805">
        <ele>4.72</ele>
        <time>2021-04-06T11:56:37Z</time>
      </trkpt>
      <trkpt lat="58.44555" lon="-4.73761">
        <ele>4.63</ele>
        <time>2021-04-06T11:56:40Z</time>
      </trkpt>
      <trkpt lat="58.44671" lon="-4.73588">
        <ele>9.04</ele>
        <time>2021-04-06T11:56:42Z</time>
      </trkpt>
      <trkpt lat="58.44724" lon="-4.73529">
        <ele>13.34</ele>
        <time>2021-04-06T11:56:45Z</time>
      </trkpt>
      <trkpt lat="58.44766" lon="-4.73492">
        <ele>12.22</ele>
        <time>2021-04-06T11:56:48Z</time>
      </trkpt>
      <trkpt lat="58.45016" lon="-4.73306">
        <ele>10.09</ele>
        <time>2021-04-06T11:56:50Z</time>
      </trkpt>
      <trkpt lat="58.45068" lon="-4.73278">
        <ele>9.01</ele>
        <time>2021-04-06T11:56:53Z</time>
      </trkpt>
      <trkpt lat="58.45082" lon="-4.73265">
        <ele>9.51</ele>
        <time>2021-04-06T11:56:55Z</time>
      </trkpt>
      <trkpt lat="58.45103" lon="-4.73237">
        <ele>7.95</ele>
        <time>2021-04-06T11:56:58Z</time>
      </trkpt>
      <trkpt lat="58.45161" lon="-4.7314">
        <ele>7.74</ele>
        <time>2021-04-06T11:57:00Z</time>
      </trkpt>
      <trkpt lat="58.45181" lon="-4.73115">
        <ele>8.42</ele>
        <time>2021-04-06T11:57:03Z</time>
      </trkpt>
      <trkpt lat="58.45308" lon="-4.73009">
        <ele>7.72</ele>
        <time>2021-04-06T11:57:05Z</time>
      </trkpt>
      <trkpt lat="58.45328" lon="-4.7298">
        <ele>7.96</ele>
        <time>2021-04-06T11:57:08Z</time>
      </trkpt>
      <trkpt lat="58.45354" lon="-4.72932">
        <ele>9.14</ele>
        <time>2021-04-06T11:57:11Z</time>
      </trkpt>
      <trkpt lat="58.45379" lon="-4.72896">
        <ele>9.28</ele>
        <time>2021-04-06T11:57:13Z</time>
      </trkpt>
      <trkpt lat="58.45406" lon="-4.72865">
        <ele>8.48</ele>
        <time>2021-04-06T11:57:16Z</time>
      </trkpt>
      <trkpt lat="58.45444" lon="-4.72831">
        <ele>7.47</ele>
        <time>2021-04-06T11:57:18Z</time>
      </trkpt>
      <trkpt lat="58.45473" lon="-4.728">
        <ele>7.76</ele>
        <time>2021-04-06T11:57:21Z</time>
      </trkpt>
      <trkpt lat="58.45556" lon="-4.72692">
        <ele>10.26</ele>
        <time>2021-04-06T11:57:23Z</time>
      </trkpt>
      <trkpt lat="58.45568" lon="-4.72679">
        <ele>10.58</ele>
        <time>2021-04-06T11:57:26Z</time>
      </trkpt>
      <trkpt lat="58.45609" lon="-4.72649">
        <ele>9.76</ele>
        <time>2021-04-06T11:57:28Z</time>
      </trkpt>
      <trkpt lat="58.45639" lon="-4.72633">
        <ele>8.77</ele>
        <time>2021-04-06T11:57:31Z</time>
      </trkpt>
      <trkpt lat="58.45673" lon="-4.72622">
        <ele>7.49</ele>
        <time>2021-04-06T11:57:34Z</time>
      </trkpt>
      <trkpt lat="58.45689" lon="-4.72608">
        <ele>7.58</ele>
        <time>2021-04-06T11:57:36Z</time>
      </trkpt>
      <trkpt lat="58.45697" lon="-4.72583">
        <ele>8.8</ele>
        <time>2021-04-06T11:57:39Z</time>
      </trkpt>
      <trkpt lat="58.457" lon="-4.72552">
        <ele>10.36</ele>
        <time>2021-04-06T11:57:41Z</time>
      </trkpt>
      <trkpt lat="58.457" lon="-4.72523">
        <ele>10.47</ele>
        <time>2021-04-06T11:57:44Z</time>
      </trkpt>
      <trkpt lat="58.45693" lon="-4.72496">
        <ele>11.19</ele>
        <time>2021-04-06T11:57:46Z</time>
      </trkpt>
      <trkpt lat="58.45677" lon="-4.7246">
        <ele>12.61</ele>
        <time>2021-04-06T11:57:49Z</time>
      </trkpt>
      <trkpt lat="58.45614" lon="-4.72347">
        <ele>12.43</ele>
        <time>2021-04-06T11:57:51Z</time>
      </trkpt>
      <trkpt lat="58.45586" lon="-4.72289">
        <ele>13.25</ele>
        <time>2021-04-06T11:57:54Z</time>
      </trkpt>
      <trkpt lat="58.45575" lon="-4.72251">
        <ele>13.31</ele>
        <time>2021-04-06T11:57:57Z</time>
      </trkpt>
      <trkpt lat="58.45565" lon="-4.72207">
        <ele>12.67</ele>
        <time>2021-04-06T11:57:59Z</time>
      </trkpt>
      <trkpt lat="58.45561" lon="-4.72164">
        <ele>13</ele>
        <time>2021-04-06T11:58:02Z</time>
      </trkpt>
      <trkpt lat="58.45563" lon="-4.72104">
        <ele>14.19</ele>
        <time>2021-04-06T11:58:04Z</time>
      </trkpt>
      <trkpt lat="58.4557" lon="-4.72046">
        <ele>16.27</ele>
        <time>2021-04-06T11:58:07Z</time>
      </trkpt>
      <trkpt lat="58.45598" lon="-4.71954">
        <ele>20.8</ele>
        <time>2021-04-06T11:58:09Z</time>
      </trkpt>
      <trkpt lat="58.45668" lon="-4.71748">
        <ele>27.99</ele>
        <time>2021-04-06T11:58:12Z</time>
      </trkpt>
      <trkpt lat="58.45684" lon="-4.71694">
        <ele>29.18</ele>
        <time>2021-04-06T11:58:14Z</time>
      </trkpt>
      <trkpt lat="58.45701" lon="-4.71616">
        <ele>30.37</ele>
        <time>2021-04-06T11:58:17Z</time>
      </trkpt>
      <trkpt lat="58.45754" lon="-4.7127">
        <ele>34.55</ele>
        <time>2021-04-06T11:58:20Z</time>
      </trkpt>
      <trkpt lat="58.45754" lon="-4.7123">
        <ele>35.1</ele>
        <time>2021-04-06T11:58:22Z</time>
      </trkpt>
      <trkpt lat="58.45749" lon="-4.71193">
        <ele>36.06</ele>
        <time>2021-04-06T11:58:25Z</time>
      </trkpt>
      <trkpt lat="58.45737" lon="-4.71153">
        <ele>37.01</ele>
        <time>2021-04-06T11:58:27Z</time>
      </trkpt>
      <trkpt lat="58.45732" lon="-4.71117">
        <ele>37.03</ele>
        <time>2021-04-06T11:58:30Z</time>
      </trkpt>
      <trkpt lat="58.45731" lon="-4.71092">
        <ele>37.03</ele>
        <time>2021-04-06T11:58:32Z</time>
      </trkpt>
      <trkpt lat="58.45734" lon="-4.71059">
        <ele>36.85</ele>
        <time>2021-04-06T11:58:35Z</time>
      </trkpt>
      <trkpt lat="58.45753" lon="-4.70962">
        <ele>37.26</ele>
        <time>2021-04-06T11:58:37Z</time>
      </trkpt>
      <trkpt lat="58.45785" lon="-4.70853">
        <ele>35.69</ele>
        <time>2021-04-06T11:58:40Z</time>
      </trkpt>
      <trkpt lat="58.45802" lon="-4.70811">
        <ele>35.13</ele>
        <time>2021-04-06T11:58:43Z</time>
      </trkpt>
      <trkpt lat="58.45819" lon="-4.7078">
        <ele>35.43</ele>
        <time>2021-04-06T11:58:45Z</time>
      </trkpt>
      <trkpt lat="58.45835" lon="-4.70761">
        <ele>36.1</ele>
        <time>2021-04-06T11:58:48Z</time>
      </trkpt>
      <trkpt lat="58.45865" lon="-4.70742">
        <ele>36.85</ele>
        <time>2021-04-06T11:58:50Z</time>
      </trkpt>
      <trkpt lat="58.45913" lon="-4.70729">
        <ele>36.66</ele>
        <time>2021-04-06T11:58:53Z</time>
      </trkpt>
      <trkpt lat="58.45934" lon="-4.70719">
        <ele>36.57</ele>
        <time>2021-04-06T11:58:55Z</time>
      </trkpt>
      <trkpt lat="58.45949" lon="-4.70703">
        <ele>36.28</ele>
        <time>2021-04-06T11:58:58Z</time>
      </trkpt>
      <trkpt lat="58.45962" lon="-4.70679">
        <ele>35.83</ele>
        <time>2021-04-06T11:59:00Z</time>
      </trkpt>
      <trkpt lat="58.45995" lon="-4.70591">
        <ele>36.97</ele>
        <time>2021-04-06T11:59:03Z</time>
      </trkpt>
      <trkpt lat="58.46008" lon="-4.70571">
        <ele>37.34</ele>
        <time>2021-04-06T11:59:06Z</time>
      </trkpt>
      <trkpt lat="58.46062" lon="-4.70508">
        <ele>35.69</ele>
        <time>2021-04-06T11:59:08Z</time>
      </trkpt>
      <trkpt lat="58.46076" lon="-4.70486">
        <ele>35.28</ele>
        <time>2021-04-06T11:59:11Z</time>
      </trkpt>
      <trkpt lat="58.46087" lon="-4.70464">
        <ele>34.94</ele>
        <time>2021-04-06T11:59:13Z</time>
      </trkpt>
      <trkpt lat="58.46114" lon="-4.70359">
        <ele>33.85</ele>
        <time>2021-04-06T11:59:16Z</time>
      </trkpt>
      <trkpt lat="58.46126" lon="-4.7033">
        <ele>34.03</ele>
        <time>2021-04-06T11:59:18Z</time>
      </trkpt>
      <trkpt lat="58.46142" lon="-4.70308">
        <ele>33.9</ele>
        <time>2021-04-06T11:59:21Z</time>
      </trkpt>
      <trkpt lat="58.46162" lon="-4.70291">
        <ele>35.04</ele>
        <time>2021-04-06T11:59:24Z</time>
      </trkpt>
      <trkpt lat="58.4619" lon="-4.70285">
        <ele>34.66</ele>
        <time>2021-04-06T11:59:26Z</time>
      </trkpt>
      <trkpt lat="58.46216" lon="-4.70273">
        <ele>34.61</ele>
        <time>2021-04-06T11:59:29Z</time>
      </trkpt>
      <trkpt lat="58.46237" lon="-4.7025">
        <ele>34.4</ele>
        <time>2021-04-06T11:59:31Z</time>
      </trkpt>
      <trkpt lat="58.46279" lon="-4.70185">
        <ele>33.42</ele>
        <time>2021-04-06T11:59:34Z</time>
      </trkpt>
      <trkpt lat="58.46293" lon="-4.70148">
        <ele>33.82</ele>
        <time>2021-04-06T11:59:36Z</time>
      </trkpt>
      <trkpt lat="58.4631" lon="-4.70073">
        <ele>35.37</ele>
        <time>2021-04-06T11:59:39Z</time>
      </trkpt>
      <trkpt lat="58.46313" lon="-4.7003">
        <ele>36</ele>
        <time>2021-04-06T11:59:41Z</time>
      </trkpt>
      <trkpt lat="58.46311" lon="-4.69995">
        <ele>34.82</ele>
        <time>2021-04-06T11:59:44Z</time>
      </trkpt>
      <trkpt lat="58.46302" lon="-4.69932">
        <ele>33.55</ele>
        <time>2021-04-06T11:59:47Z</time>
      </trkpt>
      <trkpt lat="58.46303" lon="-4.69906">
        <ele>33.28</ele>
        <time>2021-04-06T11:59:49Z</time>
      </trkpt>
      <trkpt lat="58.46315" lon="-4.69833">
        <ele>33.34</ele>
        <time>2021-04-06T11:59:52Z</time>
      </trkpt>
      <trkpt lat="58.46328" lon="-4.69777">
        <ele>35.22</ele>
        <time>2021-04-06T11:59:54Z</time>
      </trkpt>
      <trkpt lat="58.46339" lon="-4.69747">
        <ele>36.01</ele>
        <time>2021-04-06T11:59:57Z</time>
      </trkpt>
      <trkpt lat="58.46353" lon="-4.69723">
        <ele>37.22</ele>
        <time>2021-04-06T11:59:59Z</time>
      </trkpt>
      <trkpt lat="58.4637" lon="-4.6971">
        <ele>38.16</ele>
        <time>2021-04-06T12:00:02Z</time>
      </trkpt>
      <trkpt lat="58.46402" lon="-4.69701">
        <ele>40.49</ele>
        <time>2021-04-06T12:00:04Z</time>
      </trkpt>
      <trkpt lat="58.46529" lon="-4.69696">
        <ele>51.94</ele>
        <time>2021-04-06T12:00:07Z</time>
      </trkpt>
      <trkpt lat="58.46545" lon="-4.69692">
        <ele>53.49</ele>
        <time>2021-04-06T12:00:10Z</time>
      </trkpt>
      <trkpt lat="58.4656" lon="-4.69683">
        <ele>55.41</ele>
        <time>2021-04-06T12:00:12Z</time>
      </trkpt>
      <trkpt lat="58.46577" lon="-4.6966">
        <ele>58.25</ele>
        <time>2021-04-06T12:00:15Z</time>
      </trkpt>
      <trkpt lat="58.46596" lon="-4.69621">
        <ele>61.02</ele>
        <time>2021-04-06T12:00:17Z</time>
      </trkpt>
      <trkpt lat="58.46642" lon="-4.69477">
        <ele>69.47</ele>
        <time>2021-04-06T12:00:20Z</time>
      </trkpt>
      <trkpt lat="58.46656" lon="-4.69412">
        <ele>71.9</ele>
        <time>2021-04-06T12:00:22Z</time>
      </trkpt>
      <trkpt lat="58.46662" lon="-4.69359">
        <ele>72.42</ele>
        <time>2021-04-06T12:00:25Z</time>
      </trkpt>
      <trkpt lat="58.46663" lon="-4.69311">
        <ele>73.24</ele>
        <time>2021-04-06T12:00:27Z</time>
      </trkpt>
      <trkpt lat="58.46653" lon="-4.69087">
        <ele>69.52</ele>
        <time>2021-04-06T12:00:30Z</time>
      </trkpt>
      <trkpt lat="58.46659" lon="-4.69003">
        <ele>66.68</ele>
        <time>2021-04-06T12:00:33Z</time>
      </trkpt>
      <trkpt lat="58.46674" lon="-4.68954">
        <ele>64.08</ele>
        <time>2021-04-06T12:00:35Z</time>
      </trkpt>
      <trkpt lat="58.4674" lon="-4.68779">
        <ele>59.4</ele>
        <time>2021-04-06T12:00:38Z</time>
      </trkpt>
      <trkpt lat="58.46794" lon="-4.68626">
        <ele>52.88</ele>
        <time>2021-04-06T12:00:40Z</time>
      </trkpt>
      <trkpt lat="58.46823" lon="-4.68572">
        <ele>50.3</ele>
        <time>2021-04-06T12:00:43Z</time>
      </trkpt>
      <trkpt lat="58.46884" lon="-4.68468">
        <ele>49.39</ele>
        <time>2021-04-06T12:00:45Z</time>
      </trkpt>
      <trkpt lat="58.46884" lon="-4.68468">
        <ele>49.39</ele>
        <time>2021-04-06T12:00:45Z</time>
      </trkpt>
      <trkpt lat="58.46929" lon="-4.68402">
        <ele>47.12</ele>
        <time>2021-04-06T12:00:48Z</time>
      </trkpt>
      <trkpt lat="58.46979" lon="-4.6835">
        <ele>46.33</ele>
        <time>2021-04-06T12:00:51Z</time>
      </trkpt>
      <trkpt lat="58.4704" lon="-4.68274">
        <ele>46.89</ele>
        <time>2021-04-06T12:00:53Z</time>
      </trkpt>
      <trkpt lat="58.47057" lon="-4.68249">
        <ele>46.77</ele>
        <time>2021-04-06T12:00:56Z</time>
      </trkpt>
      <trkpt lat="58.47074" lon="-4.68214">
        <ele>47.81</ele>
        <time>2021-04-06T12:00:59Z</time>
      </trkpt>
      <trkpt lat="58.47102" lon="-4.68166">
        <ele>50.74</ele>
        <time>2021-04-06T12:01:01Z</time>
      </trkpt>
      <trkpt lat="58.47123" lon="-4.68148">
        <ele>51.5</ele>
        <time>2021-04-06T12:01:04Z</time>
      </trkpt>
      <trkpt lat="58.47153" lon="-4.68139">
        <ele>51.99</ele>
        <time>2021-04-06T12:01:07Z</time>
      </trkpt>
      <trkpt lat="58.47174" lon="-4.68142">
        <ele>51.17</ele>
        <time>2021-04-06T12:01:09Z</time>
      </trkpt>
      <trkpt lat="58.47266" lon="-4.68191">
        <ele>47.94</ele>
        <time>2021-04-06T12:01:12Z</time>
      </trkpt>
      <trkpt lat="58.47284" lon="-4.68193">
        <ele>48.15</ele>
        <time>2021-04-06T12:01:15Z</time>
      </trkpt>
      <trkpt lat="58.47303" lon="-4.68189">
        <ele>48.44</ele>
        <time>2021-04-06T12:01:17Z</time>
      </trkpt>
      <trkpt lat="58.4733" lon="-4.68164">
        <ele>49.45</ele>
        <time>2021-04-06T12:01:20Z</time>
      </trkpt>
      <trkpt lat="58.47408" lon="-4.6808">
        <ele>49.58</ele>
        <time>2021-04-06T12:01:23Z</time>
      </trkpt>
      <trkpt lat="58.47427" lon="-4.68073">
        <ele>49.99</ele>
        <time>2021-04-06T12:01:25Z</time>
      </trkpt>
      <trkpt lat="58.47447" lon="-4.68072">
        <ele>50.39</ele>
        <time>2021-04-06T12:01:28Z</time>
      </trkpt>
      <trkpt lat="58.47512" lon="-4.68087">
        <ele>50.85</ele>
        <time>2021-04-06T12:01:30Z</time>
      </trkpt>
      <trkpt lat="58.47531" lon="-4.68081">
        <ele>52.01</ele>
        <time>2021-04-06T12:01:33Z</time>
      </trkpt>
      <trkpt lat="58.47557" lon="-4.68057">
        <ele>52.87</ele>
        <time>2021-04-06T12:01:36Z</time>
      </trkpt>
      <trkpt lat="58.47592" lon="-4.68017">
        <ele>52.89</ele>
        <time>2021-04-06T12:01:38Z</time>
      </trkpt>
      <trkpt lat="58.47619" lon="-4.67977">
        <ele>53.24</ele>
        <time>2021-04-06T12:01:41Z</time>
      </trkpt>
      <trkpt lat="58.47638" lon="-4.67943">
        <ele>54.13</ele>
        <time>2021-04-06T12:01:44Z</time>
      </trkpt>
      <trkpt lat="58.47658" lon="-4.67892">
        <ele>53.11</ele>
        <time>2021-04-06T12:01:46Z</time>
      </trkpt>
      <trkpt lat="58.47681" lon="-4.67819">
        <ele>53.44</ele>
        <time>2021-04-06T12:01:49Z</time>
      </trkpt>
      <trkpt lat="58.47695" lon="-4.6778">
        <ele>53.69</ele>
        <time>2021-04-06T12:01:52Z</time>
      </trkpt>
      <trkpt lat="58.47709" lon="-4.67753">
        <ele>53.68</ele>
        <time>2021-04-06T12:01:54Z</time>
      </trkpt>
      <trkpt lat="58.4782" lon="-4.67625">
        <ele>53.66</ele>
        <time>2021-04-06T12:01:57Z</time>
      </trkpt>
      <trkpt lat="58.47843" lon="-4.67604">
        <ele>54.47</ele>
        <time>2021-04-06T12:02:00Z</time>
      </trkpt>
      <trkpt lat="58.47874" lon="-4.67596">
        <ele>54.53</ele>
        <time>2021-04-06T12:02:02Z</time>
      </trkpt>
      <trkpt lat="58.47957" lon="-4.67609">
        <ele>53.21</ele>
        <time>2021-04-06T12:02:05Z</time>
      </trkpt>
      <trkpt lat="58.47975" lon="-4.67609">
        <ele>54.13</ele>
        <time>2021-04-06T12:02:08Z</time>
      </trkpt>
      <trkpt lat="58.47999" lon="-4.67599">
        <ele>54.35</ele>
        <time>2021-04-06T12:02:10Z</time>
      </trkpt>
      <trkpt lat="58.4809" lon="-4.67543">
        <ele>52.58</ele>
        <time>2021-04-06T12:02:13Z</time>
      </trkpt>
      <trkpt lat="58.48151" lon="-4.67492">
        <ele>54.86</ele>
        <time>2021-04-06T12:02:16Z</time>
      </trkpt>
      <trkpt lat="58.48195" lon="-4.67451">
        <ele>54.47</ele>
        <time>2021-04-06T12:02:18Z</time>
      </trkpt>
      <trkpt lat="58.48222" lon="-4.67415">
        <ele>49.19</ele>
        <time>2021-04-06T12:02:21Z</time>
      </trkpt>
      <trkpt lat="58.48238" lon="-4.67387">
        <ele>47.63</ele>
        <time>2021-04-06T12:02:23Z</time>
      </trkpt>
      <trkpt lat="58.48256" lon="-4.67338">
        <ele>45.8</ele>
        <time>2021-04-06T12:02:26Z</time>
      </trkpt>
      <trkpt lat="58.48267" lon="-4.67282">
        <ele>44.27</ele>
        <time>2021-04-06T12:02:29Z</time>
      </trkpt>
      <trkpt lat="58.48267" lon="-4.67234">
        <ele>42.24</ele>
        <time>2021-04-06T12:02:31Z</time>
      </trkpt>
      <trkpt lat="58.48261" lon="-4.6719">
        <ele>38.66</ele>
        <time>2021-04-06T12:02:34Z</time>
      </trkpt>
      <trkpt lat="58.48227" lon="-4.6702">
        <ele>31.8</ele>
        <time>2021-04-06T12:02:37Z</time>
      </trkpt>
      <trkpt lat="58.48215" lon="-4.66988">
        <ele>30.11</ele>
        <time>2021-04-06T12:02:39Z</time>
      </trkpt>
      <trkpt lat="58.4817" lon="-4.66921">
        <ele>28.18</ele>
        <time>2021-04-06T12:02:42Z</time>
      </trkpt>
      <trkpt lat="58.48157" lon="-4.66892">
        <ele>26.45</ele>
        <time>2021-04-06T12:02:45Z</time>
      </trkpt>
      <trkpt lat="58.48147" lon="-4.66854">
        <ele>25.78</ele>
        <time>2021-04-06T12:02:47Z</time>
      </trkpt>
      <trkpt lat="58.48115" lon="-4.66637">
        <ele>24.71</ele>
        <time>2021-04-06T12:02:50Z</time>
      </trkpt>
      <trkpt lat="58.48112" lon="-4.66587">
        <ele>25.38</ele>
        <time>2021-04-06T12:02:53Z</time>
      </trkpt>
      <trkpt lat="58.48114" lon="-4.66542">
        <ele>26.55</ele>
        <time>2021-04-06T12:02:55Z</time>
      </trkpt>
      <trkpt lat="58.48121" lon="-4.66514">
        <ele>26.06</ele>
        <time>2021-04-06T12:02:58Z</time>
      </trkpt>
      <trkpt lat="58.48138" lon="-4.66488">
        <ele>23.18</ele>
        <time>2021-04-06T12:03:01Z</time>
      </trkpt>
      <trkpt lat="58.4816" lon="-4.6647">
        <ele>20.43</ele>
        <time>2021-04-06T12:03:03Z</time>
      </trkpt>
      <trkpt lat="58.48185" lon="-4.66456">
        <ele>15.78</ele>
        <time>2021-04-06T12:03:06Z</time>
      </trkpt>
      <trkpt lat="58.482" lon="-4.6643">
        <ele>16.4</ele>
        <time>2021-04-06T12:03:09Z</time>
      </trkpt>
      <trkpt lat="58.48213" lon="-4.66394">
        <ele>19.55</ele>
        <time>2021-04-06T12:03:11Z</time>
      </trkpt>
      <trkpt lat="58.48227" lon="-4.66368">
        <ele>20.36</ele>
        <time>2021-04-06T12:03:14Z</time>
      </trkpt>
      <trkpt lat="58.48321" lon="-4.66248">
        <ele>18.42</ele>
        <time>2021-04-06T12:03:17Z</time>
      </trkpt>
      <trkpt lat="58.48351" lon="-4.66213">
        <ele>17.15</ele>
        <time>2021-04-06T12:03:19Z</time>
      </trkpt>
      <trkpt lat="58.48435" lon="-4.66133">
        <ele>14.87</ele>
        <time>2021-04-06T12:03:22Z</time>
      </trkpt>
      <trkpt lat="58.48481" lon="-4.66096">
        <ele>14.88</ele>
        <time>2021-04-06T12:03:24Z</time>
      </trkpt>
      <trkpt lat="58.48543" lon="-4.66064">
        <ele>14.84</ele>
        <time>2021-04-06T12:03:27Z</time>
      </trkpt>
      <trkpt lat="58.48574" lon="-4.66051">
        <ele>15.64</ele>
        <time>2021-04-06T12:03:30Z</time>
      </trkpt>
      <trkpt lat="58.48594" lon="-4.66053">
        <ele>15.73</ele>
        <time>2021-04-06T12:03:32Z</time>
      </trkpt>
      <trkpt lat="58.48621" lon="-4.66068">
        <ele>15.24</ele>
        <time>2021-04-06T12:03:35Z</time>
      </trkpt>
      <trkpt lat="58.48651" lon="-4.66094">
        <ele>13.14</ele>
        <time>2021-04-06T12:03:38Z</time>
      </trkpt>
      <trkpt lat="58.48674" lon="-4.66104">
        <ele>12.06</ele>
        <time>2021-04-06T12:03:40Z</time>
      </trkpt>
      <trkpt lat="58.48696" lon="-4.6611">
        <ele>11.12</ele>
        <time>2021-04-06T12:03:43Z</time>
      </trkpt>
      <trkpt lat="58.48741" lon="-4.6611">
        <ele>10.82</ele>
        <time>2021-04-06T12:03:46Z</time>
      </trkpt>
      <trkpt lat="58.48755" lon="-4.66113">
        <ele>11.02</ele>
        <time>2021-04-06T12:03:48Z</time>
      </trkpt>
      <trkpt lat="58.48839" lon="-4.66149">
        <ele>11.78</ele>
        <time>2021-04-06T12:03:51Z</time>
      </trkpt>
      <trkpt lat="58.48887" lon="-4.66163">
        <ele>11.64</ele>
        <time>2021-04-06T12:03:54Z</time>
      </trkpt>
      <trkpt lat="58.48938" lon="-4.66189">
        <ele>11.22</ele>
        <time>2021-04-06T12:03:56Z</time>
      </trkpt>
      <trkpt lat="58.4905" lon="-4.66223">
        <ele>13.9</ele>
        <time>2021-04-06T12:03:59Z</time>
      </trkpt>
      <trkpt lat="58.49078" lon="-4.66225">
        <ele>13.43</ele>
        <time>2021-04-06T12:04:02Z</time>
      </trkpt>
      <trkpt lat="58.49182" lon="-4.66189">
        <ele>13.63</ele>
        <time>2021-04-06T12:04:04Z</time>
      </trkpt>
      <trkpt lat="58.49328" lon="-4.66108">
        <ele>16.24</ele>
        <time>2021-04-06T12:04:07Z</time>
      </trkpt>
      <trkpt lat="58.4946" lon="-4.66045">
        <ele>17.44</ele>
        <time>2021-04-06T12:04:10Z</time>
      </trkpt>
      <trkpt lat="58.49529" lon="-4.66003">
        <ele>21.27</ele>
        <time>2021-04-06T12:04:12Z</time>
      </trkpt>
      <trkpt lat="58.49568" lon="-4.65967">
        <ele>23.02</ele>
        <time>2021-04-06T12:04:15Z</time>
      </trkpt>
      <trkpt lat="58.49644" lon="-4.65887">
        <ele>29.98</ele>
        <time>2021-04-06T12:04:17Z</time>
      </trkpt>
      <trkpt lat="58.49727" lon="-4.65809">
        <ele>39.17</ele>
        <time>2021-04-06T12:04:20Z</time>
      </trkpt>
      <trkpt lat="58.49756" lon="-4.65788">
        <ele>42.46</ele>
        <time>2021-04-06T12:04:23Z</time>
      </trkpt>
      <trkpt lat="58.49799" lon="-4.65775">
        <ele>47.73</ele>
        <time>2021-04-06T12:04:25Z</time>
      </trkpt>
      <trkpt lat="58.49819" lon="-4.65778">
        <ele>49.97</ele>
        <time>2021-04-06T12:04:28Z</time>
      </trkpt>
      <trkpt lat="58.49911" lon="-4.65813">
        <ele>57.69</ele>
        <time>2021-04-06T12:04:31Z</time>
      </trkpt>
      <trkpt lat="58.49945" lon="-4.65816">
        <ele>60.25</ele>
        <time>2021-04-06T12:04:33Z</time>
      </trkpt>
      <trkpt lat="58.49977" lon="-4.65805">
        <ele>63.21</ele>
        <time>2021-04-06T12:04:36Z</time>
      </trkpt>
      <trkpt lat="58.50006" lon="-4.65782">
        <ele>66.98</ele>
        <time>2021-04-06T12:04:39Z</time>
      </trkpt>
      <trkpt lat="58.5036" lon="-4.65429">
        <ele>89.48</ele>
        <time>2021-04-06T12:04:41Z</time>
      </trkpt>
      <trkpt lat="58.50376" lon="-4.65407">
        <ele>87.73</ele>
        <time>2021-04-06T12:04:44Z</time>
      </trkpt>
      <trkpt lat="58.50386" lon="-4.65384">
        <ele>85.77</ele>
        <time>2021-04-06T12:04:47Z</time>
      </trkpt>
      <trkpt lat="58.50392" lon="-4.65365">
        <ele>83.95</ele>
        <time>2021-04-06T12:04:49Z</time>
      </trkpt>
      <trkpt lat="58.50404" lon="-4.65318">
        <ele>81.23</ele>
        <time>2021-04-06T12:04:52Z</time>
      </trkpt>
      <trkpt lat="58.50404" lon="-4.65318">
        <ele>81.23</ele>
        <time>2021-04-06T12:04:52Z</time>
      </trkpt>
      <trkpt lat="58.50409" lon="-4.65273">
        <ele>74.66</ele>
        <time>2021-04-06T12:04:55Z</time>
      </trkpt>
      <trkpt lat="58.50409" lon="-4.65227">
        <ele>71.9</ele>
        <time>2021-04-06T12:04:59Z</time>
      </trkpt>
      <trkpt lat="58.50402" lon="-4.65184">
        <ele>70.29</ele>
        <time>2021-04-06T12:05:02Z</time>
      </trkpt>
      <trkpt lat="58.50382" lon="-4.65096">
        <ele>65.99</ele>
        <time>2021-04-06T12:05:06Z</time>
      </trkpt>
      <trkpt lat="58.50375" lon="-4.65038">
        <ele>63.64</ele>
        <time>2021-04-06T12:05:09Z</time>
      </trkpt>
      <trkpt lat="58.50375" lon="-4.65005">
        <ele>62.37</ele>
        <time>2021-04-06T12:05:12Z</time>
      </trkpt>
      <trkpt lat="58.50381" lon="-4.64915">
        <ele>55.8</ele>
        <time>2021-04-06T12:05:16Z</time>
      </trkpt>
      <trkpt lat="58.50381" lon="-4.64871">
        <ele>53.38</ele>
        <time>2021-04-06T12:05:19Z</time>
      </trkpt>
      <trkpt lat="58.50377" lon="-4.64829">
        <ele>52.24</ele>
        <time>2021-04-06T12:05:22Z</time>
      </trkpt>
      <trkpt lat="58.50365" lon="-4.64782">
        <ele>50</ele>
        <time>2021-04-06T12:05:26Z</time>
      </trkpt>
      <trkpt lat="58.50346" lon="-4.6475">
        <ele>49.14</ele>
        <time>2021-04-06T12:05:29Z</time>
      </trkpt>
      <trkpt lat="58.50308" lon="-4.64694">
        <ele>47.69</ele>
        <time>2021-04-06T12:05:33Z</time>
      </trkpt>
      <trkpt lat="58.50193" lon="-4.64571">
        <ele>42.35</ele>
        <time>2021-04-06T12:05:36Z</time>
      </trkpt>
      <trkpt lat="58.50168" lon="-4.64541">
        <ele>41.8</ele>
        <time>2021-04-06T12:05:39Z</time>
      </trkpt>
      <trkpt lat="58.50155" lon="-4.64509">
        <ele>39.84</ele>
        <time>2021-04-06T12:05:43Z</time>
      </trkpt>
      <trkpt lat="58.50146" lon="-4.64481">
        <ele>39.46</ele>
        <time>2021-04-06T12:05:46Z</time>
      </trkpt>
      <trkpt lat="58.50139" lon="-4.6443">
        <ele>39.01</ele>
        <time>2021-04-06T12:05:49Z</time>
      </trkpt>
      <trkpt lat="58.50136" lon="-4.64384">
        <ele>40.27</ele>
        <time>2021-04-06T12:05:53Z</time>
      </trkpt>
      <trkpt lat="58.50139" lon="-4.64328">
        <ele>43</ele>
        <time>2021-04-06T12:05:56Z</time>
      </trkpt>
      <trkpt lat="58.50191" lon="-4.63887">
        <ele>55.89</ele>
        <time>2021-04-06T12:06:00Z</time>
      </trkpt>
      <trkpt lat="58.50193" lon="-4.63828">
        <ele>57.19</ele>
        <time>2021-04-06T12:06:03Z</time>
      </trkpt>
      <trkpt lat="58.50189" lon="-4.63763">
        <ele>59.53</ele>
        <time>2021-04-06T12:06:06Z</time>
      </trkpt>
      <trkpt lat="58.50178" lon="-4.63703">
        <ele>62.71</ele>
        <time>2021-04-06T12:06:10Z</time>
      </trkpt>
      <trkpt lat="58.50162" lon="-4.63634">
        <ele>63.87</ele>
        <time>2021-04-06T12:06:13Z</time>
      </trkpt>
      <trkpt lat="58.50126" lon="-4.63505">
        <ele>60.74</ele>
        <time>2021-04-06T12:06:17Z</time>
      </trkpt>
      <trkpt lat="58.50108" lon="-4.63469">
        <ele>58.77</ele>
        <time>2021-04-06T12:06:20Z</time>
      </trkpt>
      <trkpt lat="58.50083" lon="-4.63438">
        <ele>56.51</ele>
        <time>2021-04-06T12:06:23Z</time>
      </trkpt>
      <trkpt lat="58.50053" lon="-4.63413">
        <ele>54.49</ele>
        <time>2021-04-06T12:06:27Z</time>
      </trkpt>
      <trkpt lat="58.49981" lon="-4.63386">
        <ele>50.32</ele>
        <time>2021-04-06T12:06:30Z</time>
      </trkpt>
      <trkpt lat="58.49962" lon="-4.63372">
        <ele>49.76</ele>
        <time>2021-04-06T12:06:33Z</time>
      </trkpt>
      <trkpt lat="58.49941" lon="-4.63347">
        <ele>48.44</ele>
        <time>2021-04-06T12:06:37Z</time>
      </trkpt>
      <trkpt lat="58.49924" lon="-4.63314">
        <ele>47.26</ele>
        <time>2021-04-06T12:06:40Z</time>
      </trkpt>
      <trkpt lat="58.49913" lon="-4.63273">
        <ele>46.75</ele>
        <time>2021-04-06T12:06:44Z</time>
      </trkpt>
      <trkpt lat="58.49908" lon="-4.63224">
        <ele>46.35</ele>
        <time>2021-04-06T12:06:47Z</time>
      </trkpt>
      <trkpt lat="58.49908" lon="-4.63185">
        <ele>46.02</ele>
        <time>2021-04-06T12:06:50Z</time>
      </trkpt>
      <trkpt lat="58.49912" lon="-4.63151">
        <ele>45.08</ele>
        <time>2021-04-06T12:06:54Z</time>
      </trkpt>
      <trkpt lat="58.49919" lon="-4.63119">
        <ele>44.38</ele>
        <time>2021-04-06T12:06:57Z</time>
      </trkpt>
      <trkpt lat="58.49931" lon="-4.63088">
        <ele>42.85</ele>
        <time>2021-04-06T12:07:00Z</time>
      </trkpt>
      <trkpt lat="58.50316" lon="-4.62536">
        <ele>27</ele>
        <time>2021-04-06T12:07:04Z</time>
      </trkpt>
      <trkpt lat="58.50336" lon="-4.62512">
        <ele>27.1</ele>
        <time>2021-04-06T12:07:07Z</time>
      </trkpt>
      <trkpt lat="58.50387" lon="-4.62465">
        <ele>26.82</ele>
        <time>2021-04-06T12:07:11Z</time>
      </trkpt>
      <trkpt lat="58.50405" lon="-4.62436">
        <ele>25.11</ele>
        <time>2021-04-06T12:07:14Z</time>
      </trkpt>
      <trkpt lat="58.50417" lon="-4.62408">
        <ele>23.32</ele>
        <time>2021-04-06T12:07:17Z</time>
      </trkpt>
      <trkpt lat="58.50426" lon="-4.62383">
        <ele>21.46</ele>
        <time>2021-04-06T12:07:21Z</time>
      </trkpt>
      <trkpt lat="58.50435" lon="-4.62312">
        <ele>16.84</ele>
        <time>2021-04-06T12:07:24Z</time>
      </trkpt>
      <trkpt lat="58.50435" lon="-4.62268">
        <ele>12.68</ele>
        <time>2021-04-06T12:07:28Z</time>
      </trkpt>
      <trkpt lat="58.50429" lon="-4.6223">
        <ele>10.09</ele>
        <time>2021-04-06T12:07:31Z</time>
      </trkpt>
      <trkpt lat="58.50417" lon="-4.62192">
        <ele>8.82</ele>
        <time>2021-04-06T12:07:34Z</time>
      </trkpt>
      <trkpt lat="58.50375" lon="-4.62102">
        <ele>13.33</ele>
        <time>2021-04-06T12:07:38Z</time>
      </trkpt>
      <trkpt lat="58.50356" lon="-4.62092">
        <ele>15.89</ele>
        <time>2021-04-06T12:07:41Z</time>
      </trkpt>
      <trkpt lat="58.50339" lon="-4.62093">
        <ele>16.36</ele>
        <time>2021-04-06T12:07:44Z</time>
      </trkpt>
      <trkpt lat="58.50299" lon="-4.62149">
        <ele>12.15</ele>
        <time>2021-04-06T12:07:48Z</time>
      </trkpt>
      <trkpt lat="58.50281" lon="-4.62149">
        <ele>12.79</ele>
        <time>2021-04-06T12:07:51Z</time>
      </trkpt>
      <trkpt lat="58.5026" lon="-4.62145">
        <ele>12.2</ele>
        <time>2021-04-06T12:07:55Z</time>
      </trkpt>
      <trkpt lat="58.50241" lon="-4.62128">
        <ele>12.75</ele>
        <time>2021-04-06T12:07:58Z</time>
      </trkpt>
      <trkpt lat="58.50187" lon="-4.62048">
        <ele>17.51</ele>
        <time>2021-04-06T12:08:01Z</time>
      </trkpt>
      <trkpt lat="58.50172" lon="-4.62022">
        <ele>20.21</ele>
        <time>2021-04-06T12:08:05Z</time>
      </trkpt>
      <trkpt lat="58.50167" lon="-4.62">
        <ele>23.04</ele>
        <time>2021-04-06T12:08:08Z</time>
      </trkpt>
      <trkpt lat="58.50166" lon="-4.61976">
        <ele>25.58</ele>
        <time>2021-04-06T12:08:11Z</time>
      </trkpt>
      <trkpt lat="58.50167" lon="-4.6195">
        <ele>28.41</ele>
        <time>2021-04-06T12:08:15Z</time>
      </trkpt>
      <trkpt lat="58.50173" lon="-4.6193">
        <ele>30.91</ele>
        <time>2021-04-06T12:08:18Z</time>
      </trkpt>
      <trkpt lat="58.50184" lon="-4.61912">
        <ele>33.24</ele>
        <time>2021-04-06T12:08:22Z</time>
      </trkpt>
      <trkpt lat="58.502" lon="-4.61903">
        <ele>34.69</ele>
        <time>2021-04-06T12:08:25Z</time>
      </trkpt>
      <trkpt lat="58.50241" lon="-4.61905">
        <ele>36.33</ele>
        <time>2021-04-06T12:08:28Z</time>
      </trkpt>
      <trkpt lat="58.50251" lon="-4.61908">
        <ele>36.68</ele>
        <time>2021-04-06T12:08:32Z</time>
      </trkpt>
      <trkpt lat="58.50296" lon="-4.61904">
        <ele>40.24</ele>
        <time>2021-04-06T12:08:35Z</time>
      </trkpt>
      <trkpt lat="58.50316" lon="-4.61888">
        <ele>43.19</ele>
        <time>2021-04-06T12:08:39Z</time>
      </trkpt>
      <trkpt lat="58.50338" lon="-4.61852">
        <ele>47.84</ele>
        <time>2021-04-06T12:08:42Z</time>
      </trkpt>
      <trkpt lat="58.5035" lon="-4.61821">
        <ele>52.29</ele>
        <time>2021-04-06T12:08:45Z</time>
      </trkpt>
      <trkpt lat="58.50356" lon="-4.61795">
        <ele>54.19</ele>
        <time>2021-04-06T12:08:49Z</time>
      </trkpt>
      <trkpt lat="58.50358" lon="-4.61767">
        <ele>55.71</ele>
        <time>2021-04-06T12:08:52Z</time>
      </trkpt>
      <trkpt lat="58.50358" lon="-4.61732">
        <ele>56.83</ele>
        <time>2021-04-06T12:08:55Z</time>
      </trkpt>
      <trkpt lat="58.50353" lon="-4.61694">
        <ele>58.21</ele>
        <time>2021-04-06T12:08:59Z</time>
      </trkpt>
      <trkpt lat="58.50337" lon="-4.61638">
        <ele>60.65</ele>
        <time>2021-04-06T12:09:02Z</time>
      </trkpt>
      <trkpt lat="58.50311" lon="-4.61578">
        <ele>63.31</ele>
        <time>2021-04-06T12:09:06Z</time>
      </trkpt>
      <trkpt lat="58.50302" lon="-4.61546">
        <ele>66.44</ele>
        <time>2021-04-06T12:09:09Z</time>
      </trkpt>
      <trkpt lat="58.50298" lon="-4.61497">
        <ele>70.56</ele>
        <time>2021-04-06T12:09:12Z</time>
      </trkpt>
      <trkpt lat="58.50299" lon="-4.61461">
        <ele>72.23</ele>
        <time>2021-04-06T12:09:16Z</time>
      </trkpt>
      <trkpt lat="58.5031" lon="-4.61428">
        <ele>74.92</ele>
        <time>2021-04-06T12:09:19Z</time>
      </trkpt>
      <trkpt lat="58.50325" lon="-4.61407">
        <ele>77.1</ele>
        <time>2021-04-06T12:09:22Z</time>
      </trkpt>
      <trkpt lat="58.50428" lon="-4.61306">
        <ele>86.35</ele>
        <time>2021-04-06T12:09:26Z</time>
      </trkpt>
      <trkpt lat="58.50456" lon="-4.61269">
        <ele>90.18</ele>
        <time>2021-04-06T12:09:29Z</time>
      </trkpt>
      <trkpt lat="58.50482" lon="-4.61224">
        <ele>93.61</ele>
        <time>2021-04-06T12:09:33Z</time>
      </trkpt>
      <trkpt lat="58.50514" lon="-4.61158">
        <ele>96.52</ele>
        <time>2021-04-06T12:09:36Z</time>
      </trkpt>
      <trkpt lat="58.50552" lon="-4.61029">
        <ele>100.64</ele>
        <time>2021-04-06T12:09:39Z</time>
      </trkpt>
      <trkpt lat="58.50568" lon="-4.60943">
        <ele>103.94</ele>
        <time>2021-04-06T12:09:43Z</time>
      </trkpt>
      <trkpt lat="58.50622" lon="-4.60254">
        <ele>127.99</ele>
        <time>2021-04-06T12:09:46Z</time>
      </trkpt>
      <trkpt lat="58.50629" lon="-4.6014">
        <ele>132.61</ele>
        <time>2021-04-06T12:09:50Z</time>
      </trkpt>
      <trkpt lat="58.50632" lon="-4.59997">
        <ele>137</ele>
        <time>2021-04-06T12:09:53Z</time>
      </trkpt>
      <trkpt lat="58.50627" lon="-4.59894">
        <ele>140.3</ele>
        <time>2021-04-06T12:09:56Z</time>
      </trkpt>
      <trkpt lat="58.50615" lon="-4.59814">
        <ele>142.82</ele>
        <time>2021-04-06T12:10:00Z</time>
      </trkpt>
      <trkpt lat="58.50597" lon="-4.59757">
        <ele>143.76</ele>
        <time>2021-04-06T12:10:03Z</time>
      </trkpt>
      <trkpt lat="58.50566" lon="-4.59709">
        <ele>144.83</ele>
        <time>2021-04-06T12:10:06Z</time>
      </trkpt>
      <trkpt lat="58.5054" lon="-4.59675">
        <ele>146.4</ele>
        <time>2021-04-06T12:10:10Z</time>
      </trkpt>
      <trkpt lat="58.50428" lon="-4.59591">
        <ele>151.72</ele>
        <time>2021-04-06T12:10:13Z</time>
      </trkpt>
      <trkpt lat="58.5037" lon="-4.59533">
        <ele>156.6</ele>
        <time>2021-04-06T12:10:17Z</time>
      </trkpt>
      <trkpt lat="58.50281" lon="-4.5943">
        <ele>163.24</ele>
        <time>2021-04-06T12:10:20Z</time>
      </trkpt>
      <trkpt lat="58.5026" lon="-4.59387">
        <ele>165.8</ele>
        <time>2021-04-06T12:10:23Z</time>
      </trkpt>
      <trkpt lat="58.5024" lon="-4.59339">
        <ele>167.84</ele>
        <time>2021-04-06T12:10:27Z</time>
      </trkpt>
      <trkpt lat="58.50222" lon="-4.59279">
        <ele>168.94</ele>
        <time>2021-04-06T12:10:30Z</time>
      </trkpt>
      <trkpt lat="58.5021" lon="-4.59216">
        <ele>171.8</ele>
        <time>2021-04-06T12:10:33Z</time>
      </trkpt>
      <trkpt lat="58.502" lon="-4.59143">
        <ele>174.1</ele>
        <time>2021-04-06T12:10:37Z</time>
      </trkpt>
      <trkpt lat="58.50197" lon="-4.58746">
        <ele>176.24</ele>
        <time>2021-04-06T12:10:40Z</time>
      </trkpt>
      <trkpt lat="58.50195" lon="-4.58703">
        <ele>177.7</ele>
        <time>2021-04-06T12:10:44Z</time>
      </trkpt>
      <trkpt lat="58.50169" lon="-4.58385">
        <ele>181.08</ele>
        <time>2021-04-06T12:10:47Z</time>
      </trkpt>
      <trkpt lat="58.50156" lon="-4.57992">
        <ele>179</ele>
        <time>2021-04-06T12:10:50Z</time>
      </trkpt>
      <trkpt lat="58.50158" lon="-4.57866">
        <ele>180</ele>
        <time>2021-04-06T12:10:54Z</time>
      </trkpt>
      <trkpt lat="58.50164" lon="-4.57747">
        <ele>183.19</ele>
        <time>2021-04-06T12:10:57Z</time>
      </trkpt>
      <trkpt lat="58.50174" lon="-4.57664">
        <ele>185.78</ele>
        <time>2021-04-06T12:11:01Z</time>
      </trkpt>
      <trkpt lat="58.50196" lon="-4.57567">
        <ele>187.42</ele>
        <time>2021-04-06T12:11:04Z</time>
      </trkpt>
      <trkpt lat="58.50215" lon="-4.57501">
        <ele>187.79</ele>
        <time>2021-04-06T12:11:07Z</time>
      </trkpt>
      <trkpt lat="58.50237" lon="-4.5744">
        <ele>190.78</ele>
        <time>2021-04-06T12:11:11Z</time>
      </trkpt>
      <trkpt lat="58.50284" lon="-4.57344">
        <ele>195.05</ele>
        <time>2021-04-06T12:11:14Z</time>
      </trkpt>
      <trkpt lat="58.50366" lon="-4.57216">
        <ele>198.85</ele>
        <time>2021-04-06T12:11:17Z</time>
      </trkpt>
      <trkpt lat="58.50387" lon="-4.57178">
        <ele>199.33</ele>
        <time>2021-04-06T12:11:21Z</time>
      </trkpt>
      <trkpt lat="58.50405" lon="-4.57137">
        <ele>199.39</ele>
        <time>2021-04-06T12:11:24Z</time>
      </trkpt>
      <trkpt lat="58.50437" lon="-4.57046">
        <ele>201.55</ele>
        <time>2021-04-06T12:11:28Z</time>
      </trkpt>
      <trkpt lat="58.5045" lon="-4.56998">
        <ele>201.82</ele>
        <time>2021-04-06T12:11:31Z</time>
      </trkpt>
      <trkpt lat="58.50465" lon="-4.56919">
        <ele>203.67</ele>
        <time>2021-04-06T12:11:34Z</time>
      </trkpt>
      <trkpt lat="58.50476" lon="-4.56829">
        <ele>207.02</ele>
        <time>2021-04-06T12:11:38Z</time>
      </trkpt>
      <trkpt lat="58.50483" lon="-4.56716">
        <ele>212.6</ele>
        <time>2021-04-06T12:11:41Z</time>
      </trkpt>
      <trkpt lat="58.50482" lon="-4.56647">
        <ele>215.04</ele>
        <time>2021-04-06T12:11:44Z</time>
      </trkpt>
      <trkpt lat="58.50472" lon="-4.56486">
        <ele>218.97</ele>
        <time>2021-04-06T12:11:48Z</time>
      </trkpt>
      <trkpt lat="58.50467" lon="-4.56319">
        <ele>220.81</ele>
        <time>2021-04-06T12:11:51Z</time>
      </trkpt>
      <trkpt lat="58.50475" lon="-4.56195">
        <ele>220.1</ele>
        <time>2021-04-06T12:11:55Z</time>
      </trkpt>
      <trkpt lat="58.50493" lon="-4.56081">
        <ele>219.93</ele>
        <time>2021-04-06T12:11:58Z</time>
      </trkpt>
      <trkpt lat="58.50529" lon="-4.55942">
        <ele>219.08</ele>
        <time>2021-04-06T12:12:01Z</time>
      </trkpt>
      <trkpt lat="58.5055" lon="-4.5585">
        <ele>220.82</ele>
        <time>2021-04-06T12:12:05Z</time>
      </trkpt>
      <trkpt lat="58.50571" lon="-4.55746">
        <ele>220.57</ele>
        <time>2021-04-06T12:12:08Z</time>
      </trkpt>
      <trkpt lat="58.5059" lon="-4.55606">
        <ele>218.22</ele>
        <time>2021-04-06T12:12:12Z</time>
      </trkpt>
      <trkpt lat="58.50597" lon="-4.55413">
        <ele>218</ele>
        <time>2021-04-06T12:12:15Z</time>
      </trkpt>
      <trkpt lat="58.50593" lon="-4.55292">
        <ele>218</ele>
        <time>2021-04-06T12:12:18Z</time>
      </trkpt>
      <trkpt lat="58.50584" lon="-4.55178">
        <ele>218.99</ele>
        <time>2021-04-06T12:12:22Z</time>
      </trkpt>
      <trkpt lat="58.50564" lon="-4.55042">
        <ele>220</ele>
        <time>2021-04-06T12:12:25Z</time>
      </trkpt>
      <trkpt lat="58.50532" lon="-4.54903">
        <ele>222.93</ele>
        <time>2021-04-06T12:12:28Z</time>
      </trkpt>
      <trkpt lat="58.50265" lon="-4.5387">
        <ele>211.68</ele>
        <time>2021-04-06T12:12:32Z</time>
      </trkpt>
      <trkpt lat="58.50241" lon="-4.53759">
        <ele>207.99</ele>
        <time>2021-04-06T12:12:35Z</time>
      </trkpt>
      <trkpt lat="58.50225" lon="-4.53669">
        <ele>205.08</ele>
        <time>2021-04-06T12:12:39Z</time>
      </trkpt>
      <trkpt lat="58.50215" lon="-4.53596">
        <ele>203</ele>
        <time>2021-04-06T12:12:42Z</time>
      </trkpt>
      <trkpt lat="58.50196" lon="-4.53427">
        <ele>197.97</ele>
        <time>2021-04-06T12:12:45Z</time>
      </trkpt>
      <trkpt lat="58.50185" lon="-4.53248">
        <ele>192.94</ele>
        <time>2021-04-06T12:12:49Z</time>
      </trkpt>
      <trkpt lat="58.50178" lon="-4.52916">
        <ele>184.97</ele>
        <time>2021-04-06T12:12:52Z</time>
      </trkpt>
      <trkpt lat="58.50187" lon="-4.52553">
        <ele>179.28</ele>
        <time>2021-04-06T12:12:55Z</time>
      </trkpt>
      <trkpt lat="58.50198" lon="-4.52349">
        <ele>175.57</ele>
        <time>2021-04-06T12:12:59Z</time>
      </trkpt>
      <trkpt lat="58.50219" lon="-4.52185">
        <ele>172.64</ele>
        <time>2021-04-06T12:13:02Z</time>
      </trkpt>
      <trkpt lat="58.50237" lon="-4.52091">
        <ele>170</ele>
        <time>2021-04-06T12:13:06Z</time>
      </trkpt>
      <trkpt lat="58.5025" lon="-4.52034">
        <ele>168.22</ele>
        <time>2021-04-06T12:13:09Z</time>
      </trkpt>
      <trkpt lat="58.50289" lon="-4.51901">
        <ele>165.45</ele>
        <time>2021-04-06T12:13:12Z</time>
      </trkpt>
      <trkpt lat="58.50348" lon="-4.51727">
        <ele>162.17</ele>
        <time>2021-04-06T12:13:16Z</time>
      </trkpt>
      <trkpt lat="58.50369" lon="-4.51645">
        <ele>161</ele>
        <time>2021-04-06T12:13:19Z</time>
      </trkpt>
      <trkpt lat="58.50395" lon="-4.51507">
        <ele>161</ele>
        <time>2021-04-06T12:13:23Z</time>
      </trkpt>
      <trkpt lat="58.5041" lon="-4.51354">
        <ele>159.93</ele>
        <time>2021-04-06T12:13:26Z</time>
      </trkpt>
      <trkpt lat="58.50413" lon="-4.51241">
        <ele>157.69</ele>
        <time>2021-04-06T12:13:29Z</time>
      </trkpt>
      <trkpt lat="58.50432" lon="-4.50001">
        <ele>129.48</ele>
        <time>2021-04-06T12:13:33Z</time>
      </trkpt>
      <trkpt lat="58.50433" lon="-4.49684">
        <ele>127.63</ele>
        <time>2021-04-06T12:13:36Z</time>
      </trkpt>
      <trkpt lat="58.50431" lon="-4.49611">
        <ele>127</ele>
        <time>2021-04-06T12:13:39Z</time>
      </trkpt>
      <trkpt lat="58.50423" lon="-4.49519">
        <ele>127</ele>
        <time>2021-04-06T12:13:43Z</time>
      </trkpt>
      <trkpt lat="58.50423" lon="-4.49519">
        <ele>127</ele>
        <time>2021-04-06T12:13:43Z</time>
      </trkpt>
      <trkpt lat="58.50405" lon="-4.49435">
        <ele>126</ele>
        <time>2021-04-06T12:13:48Z</time>
      </trkpt>
      <trkpt lat="58.50378" lon="-4.49342">
        <ele>125.87</ele>
        <time>2021-04-06T12:13:53Z</time>
      </trkpt>
      <trkpt lat="58.5035" lon="-4.49264">
        <ele>126</ele>
        <time>2021-04-06T12:13:57Z</time>
      </trkpt>
      <trkpt lat="58.50285" lon="-4.49137">
        <ele>126.02</ele>
        <time>2021-04-06T12:14:02Z</time>
      </trkpt>
      <trkpt lat="58.50231" lon="-4.48999">
        <ele>125</ele>
        <time>2021-04-06T12:14:07Z</time>
      </trkpt>
      <trkpt lat="58.50201" lon="-4.48916">
        <ele>124</ele>
        <time>2021-04-06T12:14:12Z</time>
      </trkpt>
      <trkpt lat="58.50169" lon="-4.48808">
        <ele>123.09</ele>
        <time>2021-04-06T12:14:17Z</time>
      </trkpt>
      <trkpt lat="58.50133" lon="-4.48719">
        <ele>120.79</ele>
        <time>2021-04-06T12:14:21Z</time>
      </trkpt>
      <trkpt lat="58.50094" lon="-4.4864">
        <ele>120</ele>
        <time>2021-04-06T12:14:26Z</time>
      </trkpt>
      <trkpt lat="58.50043" lon="-4.48575">
        <ele>118.86</ele>
        <time>2021-04-06T12:14:31Z</time>
      </trkpt>
      <trkpt lat="58.49997" lon="-4.4852">
        <ele>117.14</ele>
        <time>2021-04-06T12:14:36Z</time>
      </trkpt>
      <trkpt lat="58.4994" lon="-4.4848">
        <ele>115.31</ele>
        <time>2021-04-06T12:14:41Z</time>
      </trkpt>
      <trkpt lat="58.49883" lon="-4.48448">
        <ele>112.43</ele>
        <time>2021-04-06T12:14:45Z</time>
      </trkpt>
      <trkpt lat="58.49793" lon="-4.48414">
        <ele>106.72</ele>
        <time>2021-04-06T12:14:50Z</time>
      </trkpt>
      <trkpt lat="58.49767" lon="-4.48396">
        <ele>105.98</ele>
        <time>2021-04-06T12:14:55Z</time>
      </trkpt>
      <trkpt lat="58.49749" lon="-4.48379">
        <ele>104.91</ele>
        <time>2021-04-06T12:15:00Z</time>
      </trkpt>
      <trkpt lat="58.49733" lon="-4.48354">
        <ele>103.85</ele>
        <time>2021-04-06T12:15:05Z</time>
      </trkpt>
      <trkpt lat="58.49711" lon="-4.48309">
        <ele>102.22</ele>
        <time>2021-04-06T12:15:10Z</time>
      </trkpt>
      <trkpt lat="58.49697" lon="-4.48269">
        <ele>101.19</ele>
        <time>2021-04-06T12:15:14Z</time>
      </trkpt>
      <trkpt lat="58.49686" lon="-4.48212">
        <ele>98.68</ele>
        <time>2021-04-06T12:15:19Z</time>
      </trkpt>
      <trkpt lat="58.49671" lon="-4.48103">
        <ele>91.17</ele>
        <time>2021-04-06T12:15:24Z</time>
      </trkpt>
      <trkpt lat="58.49615" lon="-4.47605">
        <ele>76.28</ele>
        <time>2021-04-06T12:15:29Z</time>
      </trkpt>
      <trkpt lat="58.49608" lon="-4.4747">
        <ele>73.6</ele>
        <time>2021-04-06T12:15:34Z</time>
      </trkpt>
      <trkpt lat="58.49608" lon="-4.47324">
        <ele>67.76</ele>
        <time>2021-04-06T12:15:38Z</time>
      </trkpt>
      <trkpt lat="58.49617" lon="-4.47199">
        <ele>63.02</ele>
        <time>2021-04-06T12:15:43Z</time>
      </trkpt>
      <trkpt lat="58.49651" lon="-4.46961">
        <ele>49.93</ele>
        <time>2021-04-06T12:15:48Z</time>
      </trkpt>
      <trkpt lat="58.49771" lon="-4.46154">
        <ele>26.06</ele>
        <time>2021-04-06T12:15:53Z</time>
      </trkpt>
      <trkpt lat="58.49777" lon="-4.46074">
        <ele>23.56</ele>
        <time>2021-04-06T12:15:58Z</time>
      </trkpt>
      <trkpt lat="58.49777" lon="-4.45953">
        <ele>19.19</ele>
        <time>2021-04-06T12:16:03Z</time>
      </trkpt>
      <trkpt lat="58.49774" lon="-4.45872">
        <ele>16.05</ele>
        <time>2021-04-06T12:16:07Z</time>
      </trkpt>
      <trkpt lat="58.49765" lon="-4.45779">
        <ele>13.1</ele>
        <time>2021-04-06T12:16:12Z</time>
      </trkpt>
      <trkpt lat="58.49739" lon="-4.4563">
        <ele>9.61</ele>
        <time>2021-04-06T12:16:17Z</time>
      </trkpt>
      <trkpt lat="58.49719" lon="-4.4555">
        <ele>7.7</ele>
        <time>2021-04-06T12:16:22Z</time>
      </trkpt>
      <trkpt lat="58.49695" lon="-4.45473">
        <ele>4.04</ele>
        <time>2021-04-06T12:16:27Z</time>
      </trkpt>
      <trkpt lat="58.49475" lon="-4.44985">
        <ele>1</ele>
        <time>2021-04-06T12:16:31Z</time>
      </trkpt>
      <trkpt lat="58.49408" lon="-4.44848">
        <ele>1.84</ele>
        <time>2021-04-06T12:16:36Z</time>
      </trkpt>
      <trkpt lat="58.4935" lon="-4.44688">
        <ele>2</ele>
        <time>2021-04-06T12:16:41Z</time>
      </trkpt>
      <trkpt lat="58.49323" lon="-4.44594">
        <ele>1.39</ele>
        <time>2021-04-06T12:16:46Z</time>
      </trkpt>
      <trkpt lat="58.493" lon="-4.44504">
        <ele>2.19</ele>
        <time>2021-04-06T12:16:51Z</time>
      </trkpt>
      <trkpt lat="58.4926" lon="-4.44316">
        <ele>2</ele>
        <time>2021-04-06T12:16:55Z</time>
      </trkpt>
      <trkpt lat="58.49232" lon="-4.44125">
        <ele>1</ele>
        <time>2021-04-06T12:17:00Z</time>
      </trkpt>
      <trkpt lat="58.49215" lon="-4.43899">
        <ele>-12.6</ele>
        <time>2021-04-06T12:17:05Z</time>
      </trkpt>
      <trkpt lat="58.49213" lon="-4.43771">
        <ele>1.33</ele>
        <time>2021-04-06T12:17:10Z</time>
      </trkpt>
      <trkpt lat="58.49213" lon="-4.43636">
        <ele>1.32</ele>
        <time>2021-04-06T12:17:15Z</time>
      </trkpt>
      <trkpt lat="58.49246" lon="-4.43106">
        <ele>2</ele>
        <time>2021-04-06T12:17:20Z</time>
      </trkpt>
      <trkpt lat="58.49245" lon="-4.43039">
        <ele>2</ele>
        <time>2021-04-06T12:17:24Z</time>
      </trkpt>
      <trkpt lat="58.49241" lon="-4.4298">
        <ele>2.49</ele>
        <time>2021-04-06T12:17:29Z</time>
      </trkpt>
      <trkpt lat="58.49234" lon="-4.42931">
        <ele>3.93</ele>
        <time>2021-04-06T12:17:34Z</time>
      </trkpt>
      <trkpt lat="58.49228" lon="-4.42891">
        <ele>5.84</ele>
        <time>2021-04-06T12:17:39Z</time>
      </trkpt>
      <trkpt lat="58.49222" lon="-4.42861">
        <ele>6.99</ele>
        <time>2021-04-06T12:17:44Z</time>
      </trkpt>
      <trkpt lat="58.49204" lon="-4.42794">
        <ele>9.43</ele>
        <time>2021-04-06T12:17:48Z</time>
      </trkpt>
      <trkpt lat="58.48925" lon="-4.41947">
        <ele>19.86</ele>
        <time>2021-04-06T12:17:53Z</time>
      </trkpt>
      <trkpt lat="58.48925" lon="-4.41947">
        <ele>19.86</ele>
        <time>2021-04-06T12:17:53Z</time>
      </trkpt>
      <trkpt lat="58.48906" lon="-4.41904">
        <ele>20.51</ele>
        <time>2021-04-06T12:17:58Z</time>
      </trkpt>
      <trkpt lat="58.48883" lon="-4.41861">
        <ele>21.02</ele>
        <time>2021-04-06T12:18:03Z</time>
      </trkpt>
      <trkpt lat="58.48848" lon="-4.41827">
        <ele>23.91</ele>
        <time>2021-04-06T12:18:08Z</time>
      </trkpt>
      <trkpt lat="58.48805" lon="-4.41802">
        <ele>26.27</ele>
        <time>2021-04-06T12:18:13Z</time>
      </trkpt>
      <trkpt lat="58.48761" lon="-4.41797">
        <ele>27.83</ele>
        <time>2021-04-06T12:18:17Z</time>
      </trkpt>
      <trkpt lat="58.48491" lon="-4.41839">
        <ele>36.89</ele>
        <time>2021-04-06T12:18:22Z</time>
      </trkpt>
      <trkpt lat="58.48419" lon="-4.41844">
        <ele>38.84</ele>
        <time>2021-04-06T12:18:27Z</time>
      </trkpt>
      <trkpt lat="58.48284" lon="-4.4182">
        <ele>44.87</ele>
        <time>2021-04-06T12:18:32Z</time>
      </trkpt>
      <trkpt lat="58.48109" lon="-4.41834">
        <ele>43.05</ele>
        <time>2021-04-06T12:18:37Z</time>
      </trkpt>
      <trkpt lat="58.48076" lon="-4.41852">
        <ele>42.64</ele>
        <time>2021-04-06T12:18:41Z</time>
      </trkpt>
      <trkpt lat="58.48051" lon="-4.4187">
        <ele>41.69</ele>
        <time>2021-04-06T12:18:46Z</time>
      </trkpt>
      <trkpt lat="58.47995" lon="-4.41906">
        <ele>41.18</ele>
        <time>2021-04-06T12:18:51Z</time>
      </trkpt>
      <trkpt lat="58.47946" lon="-4.41922">
        <ele>40</ele>
        <time>2021-04-06T12:18:56Z</time>
      </trkpt>
      <trkpt lat="58.47914" lon="-4.41921">
        <ele>39.94</ele>
        <time>2021-04-06T12:19:01Z</time>
      </trkpt>
      <trkpt lat="58.47862" lon="-4.41909">
        <ele>41.88</ele>
        <time>2021-04-06T12:19:06Z</time>
      </trkpt>
      <trkpt lat="58.47764" lon="-4.41869">
        <ele>39.99</ele>
        <time>2021-04-06T12:19:10Z</time>
      </trkpt>
      <trkpt lat="58.47648" lon="-4.41825">
        <ele>41.91</ele>
        <time>2021-04-06T12:19:15Z</time>
      </trkpt>
      <trkpt lat="58.47632" lon="-4.41813">
        <ele>42.25</ele>
        <time>2021-04-06T12:19:20Z</time>
      </trkpt>
      <trkpt lat="58.47624" lon="-4.41799">
        <ele>43.05</ele>
        <time>2021-04-06T12:19:25Z</time>
      </trkpt>
      <trkpt lat="58.47613" lon="-4.41772">
        <ele>44.54</ele>
        <time>2021-04-06T12:19:30Z</time>
      </trkpt>
      <trkpt lat="58.47611" lon="-4.41755">
        <ele>45.64</ele>
        <time>2021-04-06T12:19:35Z</time>
      </trkpt>
      <trkpt lat="58.47611" lon="-4.41755">
        <ele>45.68</ele>
        <time>2021-04-06T12:19:35Z</time>
      </trkpt>
      <trkpt lat="58.47611" lon="-4.41755">
        <ele>45.68</ele>
        <time>2021-04-06T12:19:35Z</time>
      </trkpt>
      <trkpt lat="58.47611" lon="-4.41755">
        <ele>45.64</ele>
        <time>2021-04-06T12:19:35Z</time>
      </trkpt>
      <trkpt lat="58.47613" lon="-4.41745">
        <ele>46.67</ele>
        <time>2021-04-06T12:19:39Z</time>
      </trkpt>
      <trkpt lat="58.47618" lon="-4.4174">
        <ele>47.55</ele>
        <time>2021-04-06T12:19:44Z</time>
      </trkpt>
      <trkpt lat="58.4779" lon="-4.41658">
        <ele>58.02</ele>
        <time>2021-04-06T12:19:49Z</time>
      </trkpt>
      <trkpt lat="58.48039" lon="-4.41544">
        <ele>72.65</ele>
        <time>2021-04-06T12:19:54Z</time>
      </trkpt>
      <trkpt lat="58.48118" lon="-4.41513">
        <ele>77.58</ele>
        <time>2021-04-06T12:19:59Z</time>
      </trkpt>
      <trkpt lat="58.48269" lon="-4.41463">
        <ele>83</ele>
        <time>2021-04-06T12:20:04Z</time>
      </trkpt>
      <trkpt lat="58.4848" lon="-4.41397">
        <ele>86.53</ele>
        <time>2021-04-06T12:20:08Z</time>
      </trkpt>
      <trkpt lat="58.48649" lon="-4.41334">
        <ele>87.9</ele>
        <time>2021-04-06T12:20:13Z</time>
      </trkpt>
      <trkpt lat="58.48745" lon="-4.41291">
        <ele>90.36</ele>
        <time>2021-04-06T12:20:18Z</time>
      </trkpt>
      <trkpt lat="58.48826" lon="-4.41241">
        <ele>89.16</ele>
        <time>2021-04-06T12:20:23Z</time>
      </trkpt>
      <trkpt lat="58.48883" lon="-4.41159">
        <ele>90</ele>
        <time>2021-04-06T12:20:28Z</time>
      </trkpt>
      <trkpt lat="58.48907" lon="-4.41134">
        <ele>89.37</ele>
        <time>2021-04-06T12:20:33Z</time>
      </trkpt>
      <trkpt lat="58.4894" lon="-4.41123">
        <ele>86.63</ele>
        <time>2021-04-06T12:20:38Z</time>
      </trkpt>
      <trkpt lat="58.48968" lon="-4.41123">
        <ele>86.12</ele>
        <time>2021-04-06T12:20:42Z</time>
      </trkpt>
      <trkpt lat="58.49032" lon="-4.4114">
        <ele>85.94</ele>
        <time>2021-04-06T12:20:47Z</time>
      </trkpt>
      <trkpt lat="58.49054" lon="-4.41142">
        <ele>85.8</ele>
        <time>2021-04-06T12:20:52Z</time>
      </trkpt>
      <trkpt lat="58.4918" lon="-4.41109">
        <ele>87.74</ele>
        <time>2021-04-06T12:20:57Z</time>
      </trkpt>
      <trkpt lat="58.49238" lon="-4.41089">
        <ele>88.9</ele>
        <time>2021-04-06T12:21:02Z</time>
      </trkpt>
      <trkpt lat="58.49268" lon="-4.41073">
        <ele>89.76</ele>
        <time>2021-04-06T12:21:07Z</time>
      </trkpt>
      <trkpt lat="58.49311" lon="-4.4106">
        <ele>86.76</ele>
        <time>2021-04-06T12:21:11Z</time>
      </trkpt>
      <trkpt lat="58.49448" lon="-4.41046">
        <ele>82.74</ele>
        <time>2021-04-06T12:21:16Z</time>
      </trkpt>
      <trkpt lat="58.49587" lon="-4.40976">
        <ele>73.71</ele>
        <time>2021-04-06T12:21:21Z</time>
      </trkpt>
      <trkpt lat="58.49612" lon="-4.40965">
        <ele>71.07</ele>
        <time>2021-04-06T12:21:26Z</time>
      </trkpt>
      <trkpt lat="58.49636" lon="-4.40942">
        <ele>70.72</ele>
        <time>2021-04-06T12:21:31Z</time>
      </trkpt>
      <trkpt lat="58.49662" lon="-4.4091">
        <ele>69.61</ele>
        <time>2021-04-06T12:21:36Z</time>
      </trkpt>
      <trkpt lat="58.49742" lon="-4.4073">
        <ele>81.96</ele>
        <time>2021-04-06T12:21:41Z</time>
      </trkpt>
      <trkpt lat="58.4979" lon="-4.40606">
        <ele>80.1</ele>
        <time>2021-04-06T12:21:45Z</time>
      </trkpt>
      <trkpt lat="58.49796" lon="-4.40581">
        <ele>79.62</ele>
        <time>2021-04-06T12:21:50Z</time>
      </trkpt>
      <trkpt lat="58.4981" lon="-4.40502">
        <ele>77.38</ele>
        <time>2021-04-06T12:21:55Z</time>
      </trkpt>
      <trkpt lat="58.49838" lon="-4.4038">
        <ele>77.74</ele>
        <time>2021-04-06T12:22:00Z</time>
      </trkpt>
      <trkpt lat="58.49866" lon="-4.40301">
        <ele>76.61</ele>
        <time>2021-04-06T12:22:05Z</time>
      </trkpt>
      <trkpt lat="58.49918" lon="-4.40189">
        <ele>77.28</ele>
        <time>2021-04-06T12:22:10Z</time>
      </trkpt>
      <trkpt lat="58.49941" lon="-4.40135">
        <ele>76.38</ele>
        <time>2021-04-06T12:22:14Z</time>
      </trkpt>
      <trkpt lat="58.50045" lon="-4.39919">
        <ele>73.83</ele>
        <time>2021-04-06T12:22:19Z</time>
      </trkpt>
      <trkpt lat="58.50134" lon="-4.39647">
        <ele>76.67</ele>
        <time>2021-04-06T12:22:24Z</time>
      </trkpt>
      <trkpt lat="58.50163" lon="-4.3958">
        <ele>78.47</ele>
        <time>2021-04-06T12:22:29Z</time>
      </trkpt>
      <trkpt lat="58.50214" lon="-4.39513">
        <ele>78.24</ele>
        <time>2021-04-06T12:22:34Z</time>
      </trkpt>
      <trkpt lat="58.50273" lon="-4.39449">
        <ele>77.24</ele>
        <time>2021-04-06T12:22:39Z</time>
      </trkpt>
      <trkpt lat="58.50325" lon="-4.39416">
        <ele>77.69</ele>
        <time>2021-04-06T12:22:44Z</time>
      </trkpt>
      <trkpt lat="58.50448" lon="-4.39357">
        <ele>74.98</ele>
        <time>2021-04-06T12:22:48Z</time>
      </trkpt>
      <trkpt lat="58.50477" lon="-4.39335">
        <ele>73.82</ele>
        <time>2021-04-06T12:22:53Z</time>
      </trkpt>
      <trkpt lat="58.50499" lon="-4.3931">
        <ele>73.09</ele>
        <time>2021-04-06T12:22:58Z</time>
      </trkpt>
      <trkpt lat="58.50632" lon="-4.39095">
        <ele>67.5</ele>
        <time>2021-04-06T12:23:03Z</time>
      </trkpt>
      <trkpt lat="58.50648" lon="-4.3906">
        <ele>66.39</ele>
        <time>2021-04-06T12:23:08Z</time>
      </trkpt>
      <trkpt lat="58.50661" lon="-4.39003">
        <ele>65.12</ele>
        <time>2021-04-06T12:23:13Z</time>
      </trkpt>
      <trkpt lat="58.50661" lon="-4.39003">
        <ele>65.12</ele>
        <time>2021-04-06T12:23:13Z</time>
      </trkpt>
      <trkpt lat="58.50666" lon="-4.3897">
        <ele>62.03</ele>
        <time>2021-04-06T12:23:16Z</time>
      </trkpt>
      <trkpt lat="58.50667" lon="-4.38914">
        <ele>59.69</ele>
        <time>2021-04-06T12:23:19Z</time>
      </trkpt>
      <trkpt lat="58.50656" lon="-4.38816">
        <ele>57.26</ele>
        <time>2021-04-06T12:23:21Z</time>
      </trkpt>
      <trkpt lat="58.50636" lon="-4.38683">
        <ele>54</ele>
        <time>2021-04-06T12:23:24Z</time>
      </trkpt>
      <trkpt lat="58.50625" lon="-4.38625">
        <ele>52.43</ele>
        <time>2021-04-06T12:23:27Z</time>
      </trkpt>
      <trkpt lat="58.5061" lon="-4.38592">
        <ele>54.02</ele>
        <time>2021-04-06T12:23:30Z</time>
      </trkpt>
      <trkpt lat="58.506" lon="-4.38557">
        <ele>53.94</ele>
        <time>2021-04-06T12:23:33Z</time>
      </trkpt>
      <trkpt lat="58.50597" lon="-4.38531">
        <ele>54.67</ele>
        <time>2021-04-06T12:23:36Z</time>
      </trkpt>
      <trkpt lat="58.50596" lon="-4.38505">
        <ele>54.75</ele>
        <time>2021-04-06T12:23:39Z</time>
      </trkpt>
      <trkpt lat="58.50602" lon="-4.38485">
        <ele>53.96</ele>
        <time>2021-04-06T12:23:42Z</time>
      </trkpt>
      <trkpt lat="58.50618" lon="-4.384">
        <ele>55.19</ele>
        <time>2021-04-06T12:23:45Z</time>
      </trkpt>
      <trkpt lat="58.5062" lon="-4.38383">
        <ele>55.83</ele>
        <time>2021-04-06T12:23:48Z</time>
      </trkpt>
      <trkpt lat="58.50611" lon="-4.38089">
        <ele>62.02</ele>
        <time>2021-04-06T12:23:51Z</time>
      </trkpt>
      <trkpt lat="58.50612" lon="-4.37952">
        <ele>63.81</ele>
        <time>2021-04-06T12:23:54Z</time>
      </trkpt>
      <trkpt lat="58.5061" lon="-4.37908">
        <ele>64.12</ele>
        <time>2021-04-06T12:23:57Z</time>
      </trkpt>
      <trkpt lat="58.50606" lon="-4.37884">
        <ele>64.24</ele>
        <time>2021-04-06T12:24:00Z</time>
      </trkpt>
      <trkpt lat="58.506" lon="-4.37866">
        <ele>63.13</ele>
        <time>2021-04-06T12:24:03Z</time>
      </trkpt>
      <trkpt lat="58.50585" lon="-4.37838">
        <ele>62.22</ele>
        <time>2021-04-06T12:24:06Z</time>
      </trkpt>
      <trkpt lat="58.50555" lon="-4.37816">
        <ele>63.59</ele>
        <time>2021-04-06T12:24:09Z</time>
      </trkpt>
      <trkpt lat="58.50498" lon="-4.37803">
        <ele>64.64</ele>
        <time>2021-04-06T12:24:12Z</time>
      </trkpt>
      <trkpt lat="58.5045" lon="-4.37783">
        <ele>63.67</ele>
        <time>2021-04-06T12:24:14Z</time>
      </trkpt>
      <trkpt lat="58.50372" lon="-4.37716">
        <ele>64.31</ele>
        <time>2021-04-06T12:24:17Z</time>
      </trkpt>
      <trkpt lat="58.50311" lon="-4.37654">
        <ele>67.64</ele>
        <time>2021-04-06T12:24:20Z</time>
      </trkpt>
      <trkpt lat="58.50292" lon="-4.37617">
        <ele>66.28</ele>
        <time>2021-04-06T12:24:23Z</time>
      </trkpt>
      <trkpt lat="58.50278" lon="-4.37538">
        <ele>63.03</ele>
        <time>2021-04-06T12:24:26Z</time>
      </trkpt>
      <trkpt lat="58.50234" lon="-4.37323">
        <ele>63.23</ele>
        <time>2021-04-06T12:24:29Z</time>
      </trkpt>
      <trkpt lat="58.5016" lon="-4.37149">
        <ele>55.49</ele>
        <time>2021-04-06T12:24:32Z</time>
      </trkpt>
      <trkpt lat="58.50047" lon="-4.36891">
        <ele>55.62</ele>
        <time>2021-04-06T12:24:35Z</time>
      </trkpt>
      <trkpt lat="58.50032" lon="-4.36841">
        <ele>56.99</ele>
        <time>2021-04-06T12:24:38Z</time>
      </trkpt>
      <trkpt lat="58.50022" lon="-4.36786">
        <ele>58.43</ele>
        <time>2021-04-06T12:24:41Z</time>
      </trkpt>
      <trkpt lat="58.50027" lon="-4.36719">
        <ele>62.06</ele>
        <time>2021-04-06T12:24:44Z</time>
      </trkpt>
      <trkpt lat="58.50044" lon="-4.36672">
        <ele>64.74</ele>
        <time>2021-04-06T12:24:47Z</time>
      </trkpt>
      <trkpt lat="58.50077" lon="-4.36633">
        <ele>66.81</ele>
        <time>2021-04-06T12:24:50Z</time>
      </trkpt>
      <trkpt lat="58.50115" lon="-4.36609">
        <ele>67.25</ele>
        <time>2021-04-06T12:24:53Z</time>
      </trkpt>
      <trkpt lat="58.50146" lon="-4.36605">
        <ele>69.49</ele>
        <time>2021-04-06T12:24:56Z</time>
      </trkpt>
      <trkpt lat="58.50173" lon="-4.36577">
        <ele>71.47</ele>
        <time>2021-04-06T12:24:59Z</time>
      </trkpt>
      <trkpt lat="58.50185" lon="-4.36553">
        <ele>72.93</ele>
        <time>2021-04-06T12:25:02Z</time>
      </trkpt>
      <trkpt lat="58.50193" lon="-4.36521">
        <ele>73.62</ele>
        <time>2021-04-06T12:25:05Z</time>
      </trkpt>
      <trkpt lat="58.50195" lon="-4.36506">
        <ele>73.29</ele>
        <time>2021-04-06T12:25:08Z</time>
      </trkpt>
      <trkpt lat="58.50195" lon="-4.36453">
        <ele>74.72</ele>
        <time>2021-04-06T12:25:10Z</time>
      </trkpt>
      <trkpt lat="58.50179" lon="-4.36366">
        <ele>79.29</ele>
        <time>2021-04-06T12:25:13Z</time>
      </trkpt>
      <trkpt lat="58.5016" lon="-4.36277">
        <ele>80.1</ele>
        <time>2021-04-06T12:25:16Z</time>
      </trkpt>
      <trkpt lat="58.5015" lon="-4.36158">
        <ele>81.25</ele>
        <time>2021-04-06T12:25:19Z</time>
      </trkpt>
      <trkpt lat="58.50148" lon="-4.36086">
        <ele>83.59</ele>
        <time>2021-04-06T12:25:22Z</time>
      </trkpt>
      <trkpt lat="58.50144" lon="-4.36024">
        <ele>85.04</ele>
        <time>2021-04-06T12:25:25Z</time>
      </trkpt>
      <trkpt lat="58.50147" lon="-4.35959">
        <ele>86.7</ele>
        <time>2021-04-06T12:25:28Z</time>
      </trkpt>
      <trkpt lat="58.50145" lon="-4.35854">
        <ele>86.66</ele>
        <time>2021-04-06T12:25:31Z</time>
      </trkpt>
      <trkpt lat="58.50143" lon="-4.35795">
        <ele>86.78</ele>
        <time>2021-04-06T12:25:34Z</time>
      </trkpt>
      <trkpt lat="58.50136" lon="-4.35766">
        <ele>87.69</ele>
        <time>2021-04-06T12:25:37Z</time>
      </trkpt>
      <trkpt lat="58.50122" lon="-4.3573">
        <ele>89.22</ele>
        <time>2021-04-06T12:25:40Z</time>
      </trkpt>
      <trkpt lat="58.50081" lon="-4.35684">
        <ele>90.09</ele>
        <time>2021-04-06T12:25:43Z</time>
      </trkpt>
      <trkpt lat="58.49963" lon="-4.35583">
        <ele>96.03</ele>
        <time>2021-04-06T12:25:46Z</time>
      </trkpt>
      <trkpt lat="58.49833" lon="-4.35464">
        <ele>99.7</ele>
        <time>2021-04-06T12:25:49Z</time>
      </trkpt>
      <trkpt lat="58.49798" lon="-4.35412">
        <ele>101.08</ele>
        <time>2021-04-06T12:25:52Z</time>
      </trkpt>
      <trkpt lat="58.49781" lon="-4.35334">
        <ele>100.76</ele>
        <time>2021-04-06T12:25:55Z</time>
      </trkpt>
      <trkpt lat="58.49773" lon="-4.35222">
        <ele>100.7</ele>
        <time>2021-04-06T12:25:58Z</time>
      </trkpt>
      <trkpt lat="58.49768" lon="-4.35112">
        <ele>100.09</ele>
        <time>2021-04-06T12:26:01Z</time>
      </trkpt>
      <trkpt lat="58.49771" lon="-4.35037">
        <ele>100.49</ele>
        <time>2021-04-06T12:26:03Z</time>
      </trkpt>
      <trkpt lat="58.49775" lon="-4.35005">
        <ele>100.24</ele>
        <time>2021-04-06T12:26:06Z</time>
      </trkpt>
      <trkpt lat="58.49781" lon="-4.34979">
        <ele>100.5</ele>
        <time>2021-04-06T12:26:09Z</time>
      </trkpt>
      <trkpt lat="58.4979" lon="-4.3495">
        <ele>100.93</ele>
        <time>2021-04-06T12:26:12Z</time>
      </trkpt>
      <trkpt lat="58.49872" lon="-4.34756">
        <ele>99.61</ele>
        <time>2021-04-06T12:26:15Z</time>
      </trkpt>
      <trkpt lat="58.49931" lon="-4.34624">
        <ele>95.22</ele>
        <time>2021-04-06T12:26:18Z</time>
      </trkpt>
      <trkpt lat="58.50029" lon="-4.34393">
        <ele>90.2</ele>
        <time>2021-04-06T12:26:21Z</time>
      </trkpt>
      <trkpt lat="58.501" lon="-4.34257">
        <ele>88.44</ele>
        <time>2021-04-06T12:26:24Z</time>
      </trkpt>
      <trkpt lat="58.50133" lon="-4.3421">
        <ele>87.01</ele>
        <time>2021-04-06T12:26:27Z</time>
      </trkpt>
      <trkpt lat="58.50179" lon="-4.34163">
        <ele>83.59</ele>
        <time>2021-04-06T12:26:30Z</time>
      </trkpt>
      <trkpt lat="58.50214" lon="-4.34101">
        <ele>79.97</ele>
        <time>2021-04-06T12:26:33Z</time>
      </trkpt>
      <trkpt lat="58.50216" lon="-4.34069">
        <ele>77.33</ele>
        <time>2021-04-06T12:26:36Z</time>
      </trkpt>
      <trkpt lat="58.50215" lon="-4.34">
        <ele>73.28</ele>
        <time>2021-04-06T12:26:39Z</time>
      </trkpt>
      <trkpt lat="58.50208" lon="-4.33912">
        <ele>73.68</ele>
        <time>2021-04-06T12:26:42Z</time>
      </trkpt>
      <trkpt lat="58.50211" lon="-4.33847">
        <ele>75.92</ele>
        <time>2021-04-06T12:26:45Z</time>
      </trkpt>
      <trkpt lat="58.5022" lon="-4.33799">
        <ele>78.6</ele>
        <time>2021-04-06T12:26:48Z</time>
      </trkpt>
      <trkpt lat="58.50296" lon="-4.33565">
        <ele>88.39</ele>
        <time>2021-04-06T12:26:51Z</time>
      </trkpt>
      <trkpt lat="58.50307" lon="-4.33507">
        <ele>90.47</ele>
        <time>2021-04-06T12:26:54Z</time>
      </trkpt>
      <trkpt lat="58.50309" lon="-4.33445">
        <ele>91.99</ele>
        <time>2021-04-06T12:26:57Z</time>
      </trkpt>
      <trkpt lat="58.50283" lon="-4.33181">
        <ele>104.05</ele>
        <time>2021-04-06T12:26:59Z</time>
      </trkpt>
      <trkpt lat="58.50259" lon="-4.33034">
        <ele>107</ele>
        <time>2021-04-06T12:27:02Z</time>
      </trkpt>
      <trkpt lat="58.50239" lon="-4.32976">
        <ele>108</ele>
        <time>2021-04-06T12:27:05Z</time>
      </trkpt>
      <trkpt lat="58.50078" lon="-4.32721">
        <ele>112.82</ele>
        <time>2021-04-06T12:27:08Z</time>
      </trkpt>
      <trkpt lat="58.50065" lon="-4.32677">
        <ele>112.99</ele>
        <time>2021-04-06T12:27:11Z</time>
      </trkpt>
      <trkpt lat="58.50039" lon="-4.32559">
        <ele>114.88</ele>
        <time>2021-04-06T12:27:14Z</time>
      </trkpt>
      <trkpt lat="58.5002" lon="-4.32523">
        <ele>115.24</ele>
        <time>2021-04-06T12:27:17Z</time>
      </trkpt>
      <trkpt lat="58.49967" lon="-4.32441">
        <ele>117.54</ele>
        <time>2021-04-06T12:27:20Z</time>
      </trkpt>
      <trkpt lat="58.49896" lon="-4.32309">
        <ele>117.74</ele>
        <time>2021-04-06T12:27:23Z</time>
      </trkpt>
      <trkpt lat="58.49878" lon="-4.32263">
        <ele>117</ele>
        <time>2021-04-06T12:27:26Z</time>
      </trkpt>
      <trkpt lat="58.49862" lon="-4.32209">
        <ele>117.01</ele>
        <time>2021-04-06T12:27:29Z</time>
      </trkpt>
      <trkpt lat="58.49839" lon="-4.32105">
        <ele>118.19</ele>
        <time>2021-04-06T12:27:32Z</time>
      </trkpt>
      <trkpt lat="58.49768" lon="-4.31705">
        <ele>115</ele>
        <time>2021-04-06T12:27:35Z</time>
      </trkpt>
      <trkpt lat="58.49688" lon="-4.3135">
        <ele>110.84</ele>
        <time>2021-04-06T12:27:38Z</time>
      </trkpt>
      <trkpt lat="58.4967" lon="-4.31147">
        <ele>109</ele>
        <time>2021-04-06T12:27:41Z</time>
      </trkpt>
      <trkpt lat="58.49638" lon="-4.30866">
        <ele>108.04</ele>
        <time>2021-04-06T12:27:44Z</time>
      </trkpt>
      <trkpt lat="58.49621" lon="-4.30801">
        <ele>107.5</ele>
        <time>2021-04-06T12:27:47Z</time>
      </trkpt>
      <trkpt lat="58.496" lon="-4.30747">
        <ele>105.83</ele>
        <time>2021-04-06T12:27:50Z</time>
      </trkpt>
      <trkpt lat="58.49508" lon="-4.30538">
        <ele>99.56</ele>
        <time>2021-04-06T12:27:52Z</time>
      </trkpt>
      <trkpt lat="58.49491" lon="-4.30475">
        <ele>96.81</ele>
        <time>2021-04-06T12:27:55Z</time>
      </trkpt>
      <trkpt lat="58.4948" lon="-4.30426">
        <ele>95.34</ele>
        <time>2021-04-06T12:27:58Z</time>
      </trkpt>
      <trkpt lat="58.4948" lon="-4.30426">
        <ele>95.34</ele>
        <time>2021-04-06T12:27:58Z</time>
      </trkpt>
      <trkpt lat="58.49478" lon="-4.30355">
        <ele>91.37</ele>
        <time>2021-04-06T12:28:02Z</time>
      </trkpt>
      <trkpt lat="58.49517" lon="-4.30077">
        <ele>79.31</ele>
        <time>2021-04-06T12:28:06Z</time>
      </trkpt>
      <trkpt lat="58.49521" lon="-4.29969">
        <ele>75.06</ele>
        <time>2021-04-06T12:28:09Z</time>
      </trkpt>
      <trkpt lat="58.49519" lon="-4.29834">
        <ele>71.41</ele>
        <time>2021-04-06T12:28:13Z</time>
      </trkpt>
      <trkpt lat="58.49579" lon="-4.29397">
        <ele>61.85</ele>
        <time>2021-04-06T12:28:17Z</time>
      </trkpt>
      <trkpt lat="58.49574" lon="-4.29311">
        <ele>59.01</ele>
        <time>2021-04-06T12:28:20Z</time>
      </trkpt>
      <trkpt lat="58.49566" lon="-4.29225">
        <ele>55.53</ele>
        <time>2021-04-06T12:28:24Z</time>
      </trkpt>
      <trkpt lat="58.49564" lon="-4.29166">
        <ele>52.22</ele>
        <time>2021-04-06T12:28:28Z</time>
      </trkpt>
      <trkpt lat="58.49571" lon="-4.29101">
        <ele>48.49</ele>
        <time>2021-04-06T12:28:31Z</time>
      </trkpt>
      <trkpt lat="58.49589" lon="-4.29023">
        <ele>43.42</ele>
        <time>2021-04-06T12:28:35Z</time>
      </trkpt>
      <trkpt lat="58.49625" lon="-4.28895">
        <ele>39.57</ele>
        <time>2021-04-06T12:28:39Z</time>
      </trkpt>
      <trkpt lat="58.49633" lon="-4.28851">
        <ele>38.43</ele>
        <time>2021-04-06T12:28:42Z</time>
      </trkpt>
      <trkpt lat="58.49653" lon="-4.28776">
        <ele>36.45</ele>
        <time>2021-04-06T12:28:45Z</time>
      </trkpt>
      <trkpt lat="58.49654" lon="-4.28765">
        <ele>36.05</ele>
        <time>2021-04-06T12:28:48Z</time>
      </trkpt>
      <trkpt lat="58.49671" lon="-4.28726">
        <ele>35.28</ele>
        <time>2021-04-06T12:28:54Z</time>
      </trkpt>
      <trkpt lat="58.49697" lon="-4.28672">
        <ele>36.05</ele>
        <time>2021-04-06T12:28:59Z</time>
      </trkpt>
      <trkpt lat="58.49713" lon="-4.28631">
        <ele>35.67</ele>
        <time>2021-04-06T12:29:05Z</time>
      </trkpt>
      <trkpt lat="58.49739" lon="-4.28551">
        <ele>37.81</ele>
        <time>2021-04-06T12:29:11Z</time>
      </trkpt>
      <trkpt lat="58.49747" lon="-4.28506">
        <ele>36.97</ele>
        <time>2021-04-06T12:29:17Z</time>
      </trkpt>
      <trkpt lat="58.49765" lon="-4.28385">
        <ele>38.01</ele>
        <time>2021-04-06T12:29:22Z</time>
      </trkpt>
      <trkpt lat="58.49776" lon="-4.28326">
        <ele>36.42</ele>
        <time>2021-04-06T12:29:28Z</time>
      </trkpt>
      <trkpt lat="58.49803" lon="-4.28238">
        <ele>38.55</ele>
        <time>2021-04-06T12:29:34Z</time>
      </trkpt>
      <trkpt lat="58.49851" lon="-4.28109">
        <ele>39.15</ele>
        <time>2021-04-06T12:29:40Z</time>
      </trkpt>
      <trkpt lat="58.4987" lon="-4.28063">
        <ele>38.17</ele>
        <time>2021-04-06T12:29:45Z</time>
      </trkpt>
      <trkpt lat="58.5003" lon="-4.27824">
        <ele>37.48</ele>
        <time>2021-04-06T12:29:51Z</time>
      </trkpt>
      <trkpt lat="58.50125" lon="-4.27709">
        <ele>36.53</ele>
        <time>2021-04-06T12:29:57Z</time>
      </trkpt>
      <trkpt lat="58.50324" lon="-4.27506">
        <ele>35.62</ele>
        <time>2021-04-06T12:30:03Z</time>
      </trkpt>
    </trkseg>
  </trk>
</gpx>